<?xml version="1.0" encoding="UTF-8" standalone="no" ?>
<gpx xmlns="http://www.topografix.com/GPX/1/1" xmlns:xsi="http://www.w3.org/2001/XMLSchema-instance" xsi:schemaLocation="http://www.topografix.com/GPX/1/1 http://www.topografix.com/GPX/1/1/gpx.xsd" version="1.1" creator="VisuGPX - https://www.visugpx.com">
  <metadata>
    <name>VTT - Jouques</name>
    <desc><![CDATA[Pas de difficulté excepté la descente de Vautubière]]></desc>
  </metadata>
  <trk>
    <name><![CDATA[VTT - Jouques]]></name>
    <trkseg>
      <trkpt lat="43.6368" lon="5.63802">
        <ele>268.39999389648</ele>
        <time>2013-05-04T07:10:17.000Z</time>
      </trkpt>
      <trkpt lat="43.6368" lon="5.63802">
        <ele>268.39999389648</ele>
        <time>2013-05-04T07:10:18.000Z</time>
      </trkpt>
      <trkpt lat="43.63679" lon="5.638">
        <ele>268.20001220703</ele>
        <time>2013-05-04T07:10:36.000Z</time>
      </trkpt>
      <trkpt lat="43.63681" lon="5.63802">
        <ele>268.60000610352</ele>
        <time>2013-05-04T07:10:52.000Z</time>
      </trkpt>
      <trkpt lat="43.6368" lon="5.63804">
        <ele>268.39999389648</ele>
        <time>2013-05-04T07:11:07.000Z</time>
      </trkpt>
      <trkpt lat="43.6368" lon="5.63804">
        <ele>268.39999389648</ele>
        <time>2013-05-04T07:11:24.000Z</time>
      </trkpt>
      <trkpt lat="43.63679" lon="5.63798">
        <ele>268.39999389648</ele>
        <time>2013-05-04T07:11:41.000Z</time>
      </trkpt>
      <trkpt lat="43.63678" lon="5.63797">
        <ele>268.20001220703</ele>
        <time>2013-05-04T07:12:00.000Z</time>
      </trkpt>
      <trkpt lat="43.63677" lon="5.63794">
        <ele>268.20001220703</ele>
        <time>2013-05-04T07:12:26.000Z</time>
      </trkpt>
      <trkpt lat="43.6368" lon="5.63794">
        <ele>268.60000610352</ele>
        <time>2013-05-04T07:12:49.000Z</time>
      </trkpt>
      <trkpt lat="43.63687" lon="5.63795">
        <ele>269.79998779297</ele>
        <time>2013-05-04T07:13:06.000Z</time>
      </trkpt>
      <trkpt lat="43.63689" lon="5.63793">
        <ele>270</ele>
        <time>2013-05-04T07:13:08.000Z</time>
      </trkpt>
      <trkpt lat="43.63689" lon="5.63792">
        <ele>270</ele>
        <time>2013-05-04T07:13:09.000Z</time>
      </trkpt>
      <trkpt lat="43.63689" lon="5.63789">
        <ele>270</ele>
        <time>2013-05-04T07:13:10.000Z</time>
      </trkpt>
      <trkpt lat="43.63688" lon="5.63786">
        <ele>270</ele>
        <time>2013-05-04T07:13:11.000Z</time>
      </trkpt>
      <trkpt lat="43.63688" lon="5.63783">
        <ele>270</ele>
        <time>2013-05-04T07:13:12.000Z</time>
      </trkpt>
      <trkpt lat="43.63687" lon="5.6378">
        <ele>269.79998779297</ele>
        <time>2013-05-04T07:13:13.000Z</time>
      </trkpt>
      <trkpt lat="43.63672" lon="5.63748">
        <ele>267.79998779297</ele>
        <time>2013-05-04T07:13:22.000Z</time>
      </trkpt>
      <trkpt lat="43.63664" lon="5.63709">
        <ele>269.20001220703</ele>
        <time>2013-05-04T07:13:32.000Z</time>
      </trkpt>
      <trkpt lat="43.63661" lon="5.63671">
        <ele>271</ele>
        <time>2013-05-04T07:13:41.000Z</time>
      </trkpt>
      <trkpt lat="43.6366" lon="5.63629">
        <ele>269</ele>
        <time>2013-05-04T07:13:51.000Z</time>
      </trkpt>
      <trkpt lat="43.63669" lon="5.63582">
        <ele>267</ele>
        <time>2013-05-04T07:14:01.000Z</time>
      </trkpt>
      <trkpt lat="43.63687" lon="5.63506">
        <ele>263.39999389648</ele>
        <time>2013-05-04T07:14:14.000Z</time>
      </trkpt>
      <trkpt lat="43.63696" lon="5.63477">
        <ele>263.20001220703</ele>
        <time>2013-05-04T07:14:19.000Z</time>
      </trkpt>
      <trkpt lat="43.63705" lon="5.63448">
        <ele>262.79998779297</ele>
        <time>2013-05-04T07:14:24.000Z</time>
      </trkpt>
      <trkpt lat="43.6372" lon="5.63391">
        <ele>260.60000610352</ele>
        <time>2013-05-04T07:14:36.000Z</time>
      </trkpt>
      <trkpt lat="43.63727" lon="5.63353">
        <ele>258</ele>
        <time>2013-05-04T07:14:47.000Z</time>
      </trkpt>
      <trkpt lat="43.63728" lon="5.6335">
        <ele>257.79998779297</ele>
        <time>2013-05-04T07:14:48.000Z</time>
      </trkpt>
      <trkpt lat="43.6373" lon="5.63348">
        <ele>257.60000610352</ele>
        <time>2013-05-04T07:14:49.000Z</time>
      </trkpt>
      <trkpt lat="43.63751" lon="5.63327">
        <ele>255</ele>
        <time>2013-05-04T07:14:56.000Z</time>
      </trkpt>
      <trkpt lat="43.63754" lon="5.63323">
        <ele>255.19999694824</ele>
        <time>2013-05-04T07:14:57.000Z</time>
      </trkpt>
      <trkpt lat="43.63756" lon="5.63318">
        <ele>255.39999389648</ele>
        <time>2013-05-04T07:14:58.000Z</time>
      </trkpt>
      <trkpt lat="43.63758" lon="5.63313">
        <ele>255.60000610352</ele>
        <time>2013-05-04T07:14:59.000Z</time>
      </trkpt>
      <trkpt lat="43.6376" lon="5.63308">
        <ele>255.80000305176</ele>
        <time>2013-05-04T07:15:00.000Z</time>
      </trkpt>
      <trkpt lat="43.63761" lon="5.63302">
        <ele>255.80000305176</ele>
        <time>2013-05-04T07:15:01.000Z</time>
      </trkpt>
      <trkpt lat="43.63761" lon="5.63297">
        <ele>256</ele>
        <time>2013-05-04T07:15:02.000Z</time>
      </trkpt>
      <trkpt lat="43.63761" lon="5.63292">
        <ele>256</ele>
        <time>2013-05-04T07:15:03.000Z</time>
      </trkpt>
      <trkpt lat="43.63761" lon="5.63288">
        <ele>255.80000305176</ele>
        <time>2013-05-04T07:15:04.000Z</time>
      </trkpt>
      <trkpt lat="43.63759" lon="5.63268">
        <ele>255.80000305176</ele>
        <time>2013-05-04T07:15:12.000Z</time>
      </trkpt>
      <trkpt lat="43.63759" lon="5.63266">
        <ele>255.80000305176</ele>
        <time>2013-05-04T07:15:13.000Z</time>
      </trkpt>
      <trkpt lat="43.63758" lon="5.63265">
        <ele>255.80000305176</ele>
        <time>2013-05-04T07:15:14.000Z</time>
      </trkpt>
      <trkpt lat="43.63747" lon="5.63242">
        <ele>255.60000610352</ele>
        <time>2013-05-04T07:15:24.000Z</time>
      </trkpt>
      <trkpt lat="43.63736" lon="5.6322">
        <ele>257.20001220703</ele>
        <time>2013-05-04T07:15:29.000Z</time>
      </trkpt>
      <trkpt lat="43.63737" lon="5.63214">
        <ele>257.60000610352</ele>
        <time>2013-05-04T07:15:30.000Z</time>
      </trkpt>
      <trkpt lat="43.63736" lon="5.63209">
        <ele>257.79998779297</ele>
        <time>2013-05-04T07:15:31.000Z</time>
      </trkpt>
      <trkpt lat="43.63735" lon="5.63203">
        <ele>258</ele>
        <time>2013-05-04T07:15:32.000Z</time>
      </trkpt>
      <trkpt lat="43.63734" lon="5.63197">
        <ele>258.39999389648</ele>
        <time>2013-05-04T07:15:33.000Z</time>
      </trkpt>
      <trkpt lat="43.63734" lon="5.6319">
        <ele>258.79998779297</ele>
        <time>2013-05-04T07:15:34.000Z</time>
      </trkpt>
      <trkpt lat="43.63733" lon="5.63183">
        <ele>259</ele>
        <time>2013-05-04T07:15:35.000Z</time>
      </trkpt>
      <trkpt lat="43.63733" lon="5.63176">
        <ele>259.20001220703</ele>
        <time>2013-05-04T07:15:36.000Z</time>
      </trkpt>
      <trkpt lat="43.63732" lon="5.6317">
        <ele>259.60000610352</ele>
        <time>2013-05-04T07:15:37.000Z</time>
      </trkpt>
      <trkpt lat="43.63731" lon="5.63165">
        <ele>259.79998779297</ele>
        <time>2013-05-04T07:15:38.000Z</time>
      </trkpt>
      <trkpt lat="43.6373" lon="5.63159">
        <ele>260</ele>
        <time>2013-05-04T07:15:39.000Z</time>
      </trkpt>
      <trkpt lat="43.63728" lon="5.63154">
        <ele>260.20001220703</ele>
        <time>2013-05-04T07:15:40.000Z</time>
      </trkpt>
      <trkpt lat="43.63706" lon="5.63113">
        <ele>260.79998779297</ele>
        <time>2013-05-04T07:15:50.000Z</time>
      </trkpt>
      <trkpt lat="43.63681" lon="5.6307">
        <ele>260.20001220703</ele>
        <time>2013-05-04T07:16:03.000Z</time>
      </trkpt>
      <trkpt lat="43.63653" lon="5.63043">
        <ele>259.60000610352</ele>
        <time>2013-05-04T07:16:14.000Z</time>
      </trkpt>
      <trkpt lat="43.63627" lon="5.63024">
        <ele>258.79998779297</ele>
        <time>2013-05-04T07:16:24.000Z</time>
      </trkpt>
      <trkpt lat="43.63626" lon="5.63018">
        <ele>258.79998779297</ele>
        <time>2013-05-04T07:16:25.000Z</time>
      </trkpt>
      <trkpt lat="43.63627" lon="5.63012">
        <ele>258.79998779297</ele>
        <time>2013-05-04T07:16:26.000Z</time>
      </trkpt>
      <trkpt lat="43.63628" lon="5.63006">
        <ele>259.20001220703</ele>
        <time>2013-05-04T07:16:27.000Z</time>
      </trkpt>
      <trkpt lat="43.6363" lon="5.63">
        <ele>259.39999389648</ele>
        <time>2013-05-04T07:16:28.000Z</time>
      </trkpt>
      <trkpt lat="43.63634" lon="5.62995">
        <ele>259.20001220703</ele>
        <time>2013-05-04T07:16:29.000Z</time>
      </trkpt>
      <trkpt lat="43.63637" lon="5.6299">
        <ele>259.20001220703</ele>
        <time>2013-05-04T07:16:30.000Z</time>
      </trkpt>
      <trkpt lat="43.6365" lon="5.62973">
        <ele>258.39999389648</ele>
        <time>2013-05-04T07:16:33.000Z</time>
      </trkpt>
      <trkpt lat="43.63673" lon="5.62943">
        <ele>256.39999389648</ele>
        <time>2013-05-04T07:16:38.000Z</time>
      </trkpt>
      <trkpt lat="43.63678" lon="5.62938">
        <ele>256.39999389648</ele>
        <time>2013-05-04T07:16:39.000Z</time>
      </trkpt>
      <trkpt lat="43.63713" lon="5.6289">
        <ele>256.60000610352</ele>
        <time>2013-05-04T07:16:46.000Z</time>
      </trkpt>
      <trkpt lat="43.63742" lon="5.62851">
        <ele>256</ele>
        <time>2013-05-04T07:16:52.000Z</time>
      </trkpt>
      <trkpt lat="43.63756" lon="5.62828">
        <ele>255.60000610352</ele>
        <time>2013-05-04T07:16:56.000Z</time>
      </trkpt>
      <trkpt lat="43.63759" lon="5.62822">
        <ele>255.60000610352</ele>
        <time>2013-05-04T07:16:57.000Z</time>
      </trkpt>
      <trkpt lat="43.63761" lon="5.62816">
        <ele>255.60000610352</ele>
        <time>2013-05-04T07:16:58.000Z</time>
      </trkpt>
      <trkpt lat="43.63763" lon="5.6281">
        <ele>255.60000610352</ele>
        <time>2013-05-04T07:16:59.000Z</time>
      </trkpt>
      <trkpt lat="43.63764" lon="5.62805">
        <ele>255.60000610352</ele>
        <time>2013-05-04T07:17:00.000Z</time>
      </trkpt>
      <trkpt lat="43.63787" lon="5.62744">
        <ele>257.39999389648</ele>
        <time>2013-05-04T07:17:13.000Z</time>
      </trkpt>
      <trkpt lat="43.63797" lon="5.62716">
        <ele>258.79998779297</ele>
        <time>2013-05-04T07:17:21.000Z</time>
      </trkpt>
      <trkpt lat="43.63806" lon="5.62692">
        <ele>260.20001220703</ele>
        <time>2013-05-04T07:17:30.000Z</time>
      </trkpt>
      <trkpt lat="43.63821" lon="5.62671">
        <ele>262.60000610352</ele>
        <time>2013-05-04T07:17:41.000Z</time>
      </trkpt>
      <trkpt lat="43.63839" lon="5.62648">
        <ele>264.79998779297</ele>
        <time>2013-05-04T07:17:53.000Z</time>
      </trkpt>
      <trkpt lat="43.63854" lon="5.62628">
        <ele>266.20001220703</ele>
        <time>2013-05-04T07:18:05.000Z</time>
      </trkpt>
      <trkpt lat="43.63867" lon="5.62607">
        <ele>267.39999389648</ele>
        <time>2013-05-04T07:18:16.000Z</time>
      </trkpt>
      <trkpt lat="43.63887" lon="5.62589">
        <ele>269.60000610352</ele>
        <time>2013-05-04T07:18:29.000Z</time>
      </trkpt>
      <trkpt lat="43.63899" lon="5.62581">
        <ele>270.79998779297</ele>
        <time>2013-05-04T07:18:38.000Z</time>
      </trkpt>
      <trkpt lat="43.63901" lon="5.62581">
        <ele>271</ele>
        <time>2013-05-04T07:18:39.000Z</time>
      </trkpt>
      <trkpt lat="43.63902" lon="5.6258">
        <ele>271</ele>
        <time>2013-05-04T07:18:40.000Z</time>
      </trkpt>
      <trkpt lat="43.63904" lon="5.62579">
        <ele>271.20001220703</ele>
        <time>2013-05-04T07:18:41.000Z</time>
      </trkpt>
      <trkpt lat="43.63906" lon="5.62577">
        <ele>271.20001220703</ele>
        <time>2013-05-04T07:18:42.000Z</time>
      </trkpt>
      <trkpt lat="43.63907" lon="5.62577">
        <ele>271.20001220703</ele>
        <time>2013-05-04T07:18:43.000Z</time>
      </trkpt>
      <trkpt lat="43.63913" lon="5.62575">
        <ele>272</ele>
        <time>2013-05-04T07:18:47.000Z</time>
      </trkpt>
      <trkpt lat="43.63915" lon="5.62576">
        <ele>272.39999389648</ele>
        <time>2013-05-04T07:18:48.000Z</time>
      </trkpt>
      <trkpt lat="43.63917" lon="5.62576">
        <ele>272.60000610352</ele>
        <time>2013-05-04T07:18:49.000Z</time>
      </trkpt>
      <trkpt lat="43.63918" lon="5.62576">
        <ele>272.60000610352</ele>
        <time>2013-05-04T07:18:50.000Z</time>
      </trkpt>
      <trkpt lat="43.6392" lon="5.62575">
        <ele>272.60000610352</ele>
        <time>2013-05-04T07:18:51.000Z</time>
      </trkpt>
      <trkpt lat="43.63923" lon="5.62575">
        <ele>272.79998779297</ele>
        <time>2013-05-04T07:18:52.000Z</time>
      </trkpt>
      <trkpt lat="43.63925" lon="5.62574">
        <ele>272.79998779297</ele>
        <time>2013-05-04T07:18:53.000Z</time>
      </trkpt>
      <trkpt lat="43.63927" lon="5.62574">
        <ele>272.79998779297</ele>
        <time>2013-05-04T07:18:54.000Z</time>
      </trkpt>
      <trkpt lat="43.6393" lon="5.62575">
        <ele>273.20001220703</ele>
        <time>2013-05-04T07:18:55.000Z</time>
      </trkpt>
      <trkpt lat="43.63933" lon="5.62576">
        <ele>273.39999389648</ele>
        <time>2013-05-04T07:18:56.000Z</time>
      </trkpt>
      <trkpt lat="43.63935" lon="5.62576">
        <ele>273.60000610352</ele>
        <time>2013-05-04T07:18:57.000Z</time>
      </trkpt>
      <trkpt lat="43.63938" lon="5.62575">
        <ele>273.60000610352</ele>
        <time>2013-05-04T07:18:58.000Z</time>
      </trkpt>
      <trkpt lat="43.6394" lon="5.62574">
        <ele>273.60000610352</ele>
        <time>2013-05-04T07:18:59.000Z</time>
      </trkpt>
      <trkpt lat="43.63946" lon="5.62572">
        <ele>273.60000610352</ele>
        <time>2013-05-04T07:19:01.000Z</time>
      </trkpt>
      <trkpt lat="43.63949" lon="5.62572">
        <ele>273.60000610352</ele>
        <time>2013-05-04T07:19:02.000Z</time>
      </trkpt>
      <trkpt lat="43.63952" lon="5.62571">
        <ele>273.60000610352</ele>
        <time>2013-05-04T07:19:03.000Z</time>
      </trkpt>
      <trkpt lat="43.63955" lon="5.62569">
        <ele>273.60000610352</ele>
        <time>2013-05-04T07:19:04.000Z</time>
      </trkpt>
      <trkpt lat="43.63958" lon="5.62567">
        <ele>273.39999389648</ele>
        <time>2013-05-04T07:19:05.000Z</time>
      </trkpt>
      <trkpt lat="43.63961" lon="5.62564">
        <ele>273.20001220703</ele>
        <time>2013-05-04T07:19:06.000Z</time>
      </trkpt>
      <trkpt lat="43.63966" lon="5.62559">
        <ele>272.79998779297</ele>
        <time>2013-05-04T07:19:08.000Z</time>
      </trkpt>
      <trkpt lat="43.63968" lon="5.62555">
        <ele>272.20001220703</ele>
        <time>2013-05-04T07:19:09.000Z</time>
      </trkpt>
      <trkpt lat="43.6397" lon="5.62551">
        <ele>271.79998779297</ele>
        <time>2013-05-04T07:19:10.000Z</time>
      </trkpt>
      <trkpt lat="43.63973" lon="5.62548">
        <ele>271.60000610352</ele>
        <time>2013-05-04T07:19:11.000Z</time>
      </trkpt>
      <trkpt lat="43.63976" lon="5.62545">
        <ele>271.60000610352</ele>
        <time>2013-05-04T07:19:12.000Z</time>
      </trkpt>
      <trkpt lat="43.63991" lon="5.6254">
        <ele>272</ele>
        <time>2013-05-04T07:19:17.000Z</time>
      </trkpt>
      <trkpt lat="43.63993" lon="5.62539">
        <ele>272</ele>
        <time>2013-05-04T07:19:18.000Z</time>
      </trkpt>
      <trkpt lat="43.63995" lon="5.62537">
        <ele>272</ele>
        <time>2013-05-04T07:19:19.000Z</time>
      </trkpt>
      <trkpt lat="43.63997" lon="5.62534">
        <ele>271.79998779297</ele>
        <time>2013-05-04T07:19:20.000Z</time>
      </trkpt>
      <trkpt lat="43.63999" lon="5.6253">
        <ele>271.39999389648</ele>
        <time>2013-05-04T07:19:21.000Z</time>
      </trkpt>
      <trkpt lat="43.63999" lon="5.62527">
        <ele>271</ele>
        <time>2013-05-04T07:19:22.000Z</time>
      </trkpt>
      <trkpt lat="43.63998" lon="5.62523">
        <ele>270.39999389648</ele>
        <time>2013-05-04T07:19:23.000Z</time>
      </trkpt>
      <trkpt lat="43.63997" lon="5.62519">
        <ele>270</ele>
        <time>2013-05-04T07:19:24.000Z</time>
      </trkpt>
      <trkpt lat="43.63997" lon="5.62516">
        <ele>269.60000610352</ele>
        <time>2013-05-04T07:19:25.000Z</time>
      </trkpt>
      <trkpt lat="43.63998" lon="5.62512">
        <ele>269.20001220703</ele>
        <time>2013-05-04T07:19:26.000Z</time>
      </trkpt>
      <trkpt lat="43.63999" lon="5.62508">
        <ele>268.79998779297</ele>
        <time>2013-05-04T07:19:27.000Z</time>
      </trkpt>
      <trkpt lat="43.64" lon="5.62505">
        <ele>268.39999389648</ele>
        <time>2013-05-04T07:19:28.000Z</time>
      </trkpt>
      <trkpt lat="43.64001" lon="5.62502">
        <ele>268.39999389648</ele>
        <time>2013-05-04T07:19:29.000Z</time>
      </trkpt>
      <trkpt lat="43.64003" lon="5.625">
        <ele>268.20001220703</ele>
        <time>2013-05-04T07:19:30.000Z</time>
      </trkpt>
      <trkpt lat="43.64005" lon="5.62497">
        <ele>268.20001220703</ele>
        <time>2013-05-04T07:19:31.000Z</time>
      </trkpt>
      <trkpt lat="43.64023" lon="5.62484">
        <ele>268.20001220703</ele>
        <time>2013-05-04T07:19:38.000Z</time>
      </trkpt>
      <trkpt lat="43.64041" lon="5.62483">
        <ele>270.60000610352</ele>
        <time>2013-05-04T07:19:45.000Z</time>
      </trkpt>
      <trkpt lat="43.64047" lon="5.62485">
        <ele>271.79998779297</ele>
        <time>2013-05-04T07:19:47.000Z</time>
      </trkpt>
      <trkpt lat="43.6405" lon="5.62484">
        <ele>271.79998779297</ele>
        <time>2013-05-04T07:19:48.000Z</time>
      </trkpt>
      <trkpt lat="43.64067" lon="5.62475">
        <ele>272.60000610352</ele>
        <time>2013-05-04T07:19:54.000Z</time>
      </trkpt>
      <trkpt lat="43.64069" lon="5.62474">
        <ele>272.60000610352</ele>
        <time>2013-05-04T07:19:55.000Z</time>
      </trkpt>
      <trkpt lat="43.64071" lon="5.62472">
        <ele>272.60000610352</ele>
        <time>2013-05-04T07:19:56.000Z</time>
      </trkpt>
      <trkpt lat="43.64073" lon="5.62471">
        <ele>272.60000610352</ele>
        <time>2013-05-04T07:19:57.000Z</time>
      </trkpt>
      <trkpt lat="43.64075" lon="5.6247">
        <ele>272.60000610352</ele>
        <time>2013-05-04T07:19:58.000Z</time>
      </trkpt>
      <trkpt lat="43.64096" lon="5.62452">
        <ele>271.60000610352</ele>
        <time>2013-05-04T07:20:06.000Z</time>
      </trkpt>
      <trkpt lat="43.64098" lon="5.62448">
        <ele>271</ele>
        <time>2013-05-04T07:20:07.000Z</time>
      </trkpt>
      <trkpt lat="43.641" lon="5.62443">
        <ele>270.39999389648</ele>
        <time>2013-05-04T07:20:08.000Z</time>
      </trkpt>
      <trkpt lat="43.64103" lon="5.6244">
        <ele>270.20001220703</ele>
        <time>2013-05-04T07:20:09.000Z</time>
      </trkpt>
      <trkpt lat="43.64106" lon="5.62438">
        <ele>270.39999389648</ele>
        <time>2013-05-04T07:20:10.000Z</time>
      </trkpt>
      <trkpt lat="43.64109" lon="5.62437">
        <ele>270.39999389648</ele>
        <time>2013-05-04T07:20:11.000Z</time>
      </trkpt>
      <trkpt lat="43.64111" lon="5.62435">
        <ele>270.60000610352</ele>
        <time>2013-05-04T07:20:12.000Z</time>
      </trkpt>
      <trkpt lat="43.64113" lon="5.62435">
        <ele>270.79998779297</ele>
        <time>2013-05-04T07:20:13.000Z</time>
      </trkpt>
      <trkpt lat="43.64115" lon="5.62433">
        <ele>270.79998779297</ele>
        <time>2013-05-04T07:20:14.000Z</time>
      </trkpt>
      <trkpt lat="43.64117" lon="5.62431">
        <ele>270.60000610352</ele>
        <time>2013-05-04T07:20:15.000Z</time>
      </trkpt>
      <trkpt lat="43.64118" lon="5.62428">
        <ele>270.60000610352</ele>
        <time>2013-05-04T07:20:16.000Z</time>
      </trkpt>
      <trkpt lat="43.64121" lon="5.62425">
        <ele>270.39999389648</ele>
        <time>2013-05-04T07:20:17.000Z</time>
      </trkpt>
      <trkpt lat="43.64123" lon="5.62423">
        <ele>270.39999389648</ele>
        <time>2013-05-04T07:20:18.000Z</time>
      </trkpt>
      <trkpt lat="43.64125" lon="5.62421">
        <ele>270.39999389648</ele>
        <time>2013-05-04T07:20:19.000Z</time>
      </trkpt>
      <trkpt lat="43.64145" lon="5.62403">
        <ele>272</ele>
        <time>2013-05-04T07:20:28.000Z</time>
      </trkpt>
      <trkpt lat="43.64159" lon="5.62394">
        <ele>274</ele>
        <time>2013-05-04T07:20:34.000Z</time>
      </trkpt>
      <trkpt lat="43.64161" lon="5.62394">
        <ele>274.20001220703</ele>
        <time>2013-05-04T07:20:35.000Z</time>
      </trkpt>
      <trkpt lat="43.64162" lon="5.62394">
        <ele>274.39999389648</ele>
        <time>2013-05-04T07:20:36.000Z</time>
      </trkpt>
      <trkpt lat="43.64164" lon="5.62393">
        <ele>274.79998779297</ele>
        <time>2013-05-04T07:20:37.000Z</time>
      </trkpt>
      <trkpt lat="43.64166" lon="5.62392">
        <ele>275</ele>
        <time>2013-05-04T07:20:38.000Z</time>
      </trkpt>
      <trkpt lat="43.64177" lon="5.62391">
        <ele>274.20001220703</ele>
        <time>2013-05-04T07:20:44.000Z</time>
      </trkpt>
      <trkpt lat="43.64178" lon="5.62393">
        <ele>274.39999389648</ele>
        <time>2013-05-04T07:20:45.000Z</time>
      </trkpt>
      <trkpt lat="43.64179" lon="5.62393">
        <ele>274.20001220703</ele>
        <time>2013-05-04T07:20:51.000Z</time>
      </trkpt>
      <trkpt lat="43.64179" lon="5.62391">
        <ele>274.20001220703</ele>
        <time>2013-05-04T07:21:04.000Z</time>
      </trkpt>
      <trkpt lat="43.6418" lon="5.62392">
        <ele>274</ele>
        <time>2013-05-04T07:21:12.000Z</time>
      </trkpt>
      <trkpt lat="43.6418" lon="5.62396">
        <ele>274.39999389648</ele>
        <time>2013-05-04T07:21:24.000Z</time>
      </trkpt>
      <trkpt lat="43.64179" lon="5.62405">
        <ele>275</ele>
        <time>2013-05-04T07:21:28.000Z</time>
      </trkpt>
      <trkpt lat="43.64177" lon="5.62414">
        <ele>275.79998779297</ele>
        <time>2013-05-04T07:21:32.000Z</time>
      </trkpt>
      <trkpt lat="43.64168" lon="5.62444">
        <ele>278.79998779297</ele>
        <time>2013-05-04T07:21:42.000Z</time>
      </trkpt>
      <trkpt lat="43.64167" lon="5.62448">
        <ele>279.20001220703</ele>
        <time>2013-05-04T07:21:43.000Z</time>
      </trkpt>
      <trkpt lat="43.64162" lon="5.6246">
        <ele>279.60000610352</ele>
        <time>2013-05-04T07:21:47.000Z</time>
      </trkpt>
      <trkpt lat="43.64158" lon="5.62477">
        <ele>280.60000610352</ele>
        <time>2013-05-04T07:21:53.000Z</time>
      </trkpt>
      <trkpt lat="43.64156" lon="5.62485">
        <ele>281.20001220703</ele>
        <time>2013-05-04T07:21:56.000Z</time>
      </trkpt>
      <trkpt lat="43.64153" lon="5.62489">
        <ele>281.39999389648</ele>
        <time>2013-05-04T07:21:58.000Z</time>
      </trkpt>
      <trkpt lat="43.6415" lon="5.62502">
        <ele>282.39999389648</ele>
        <time>2013-05-04T07:22:04.000Z</time>
      </trkpt>
      <trkpt lat="43.64144" lon="5.62519">
        <ele>283</ele>
        <time>2013-05-04T07:22:13.000Z</time>
      </trkpt>
      <trkpt lat="43.64142" lon="5.62523">
        <ele>283.20001220703</ele>
        <time>2013-05-04T07:22:15.000Z</time>
      </trkpt>
      <trkpt lat="43.64141" lon="5.6253">
        <ele>283.39999389648</ele>
        <time>2013-05-04T07:22:18.000Z</time>
      </trkpt>
      <trkpt lat="43.64139" lon="5.62539">
        <ele>284</ele>
        <time>2013-05-04T07:22:22.000Z</time>
      </trkpt>
      <trkpt lat="43.6413" lon="5.6256">
        <ele>285.20001220703</ele>
        <time>2013-05-04T07:22:32.000Z</time>
      </trkpt>
      <trkpt lat="43.64119" lon="5.62587">
        <ele>287.39999389648</ele>
        <time>2013-05-04T07:22:43.000Z</time>
      </trkpt>
      <trkpt lat="43.64118" lon="5.62589">
        <ele>287.39999389648</ele>
        <time>2013-05-04T07:22:44.000Z</time>
      </trkpt>
      <trkpt lat="43.64114" lon="5.62603">
        <ele>288.20001220703</ele>
        <time>2013-05-04T07:22:50.000Z</time>
      </trkpt>
      <trkpt lat="43.6411" lon="5.62628">
        <ele>289.39999389648</ele>
        <time>2013-05-04T07:23:01.000Z</time>
      </trkpt>
      <trkpt lat="43.64106" lon="5.62648">
        <ele>290.39999389648</ele>
        <time>2013-05-04T07:23:07.000Z</time>
      </trkpt>
      <trkpt lat="43.64104" lon="5.62659">
        <ele>291.20001220703</ele>
        <time>2013-05-04T07:23:11.000Z</time>
      </trkpt>
      <trkpt lat="43.64099" lon="5.62696">
        <ele>292.79998779297</ele>
        <time>2013-05-04T07:23:22.000Z</time>
      </trkpt>
      <trkpt lat="43.64094" lon="5.62717">
        <ele>294</ele>
        <time>2013-05-04T07:23:29.000Z</time>
      </trkpt>
      <trkpt lat="43.64085" lon="5.62741">
        <ele>295.39999389648</ele>
        <time>2013-05-04T07:23:37.000Z</time>
      </trkpt>
      <trkpt lat="43.64081" lon="5.62748">
        <ele>295.79998779297</ele>
        <time>2013-05-04T07:23:39.000Z</time>
      </trkpt>
      <trkpt lat="43.64066" lon="5.6278">
        <ele>297.79998779297</ele>
        <time>2013-05-04T07:23:50.000Z</time>
      </trkpt>
      <trkpt lat="43.6405" lon="5.62808">
        <ele>300.20001220703</ele>
        <time>2013-05-04T07:24:00.000Z</time>
      </trkpt>
      <trkpt lat="43.64046" lon="5.62834">
        <ele>302.39999389648</ele>
        <time>2013-05-04T07:24:09.000Z</time>
      </trkpt>
      <trkpt lat="43.64043" lon="5.62842">
        <ele>303</ele>
        <time>2013-05-04T07:24:13.000Z</time>
      </trkpt>
      <trkpt lat="43.64041" lon="5.62849">
        <ele>303.39999389648</ele>
        <time>2013-05-04T07:24:16.000Z</time>
      </trkpt>
      <trkpt lat="43.64038" lon="5.62858">
        <ele>303.79998779297</ele>
        <time>2013-05-04T07:24:21.000Z</time>
      </trkpt>
      <trkpt lat="43.64036" lon="5.62869">
        <ele>304.60000610352</ele>
        <time>2013-05-04T07:24:26.000Z</time>
      </trkpt>
      <trkpt lat="43.64037" lon="5.62882">
        <ele>305.20001220703</ele>
        <time>2013-05-04T07:24:31.000Z</time>
      </trkpt>
      <trkpt lat="43.64046" lon="5.62909">
        <ele>307</ele>
        <time>2013-05-04T07:24:42.000Z</time>
      </trkpt>
      <trkpt lat="43.64049" lon="5.62931">
        <ele>308.20001220703</ele>
        <time>2013-05-04T07:24:51.000Z</time>
      </trkpt>
      <trkpt lat="43.64053" lon="5.62959">
        <ele>309.79998779297</ele>
        <time>2013-05-04T07:25:03.000Z</time>
      </trkpt>
      <trkpt lat="43.64053" lon="5.62968">
        <ele>310.20001220703</ele>
        <time>2013-05-04T07:25:07.000Z</time>
      </trkpt>
      <trkpt lat="43.64051" lon="5.62995">
        <ele>311.39999389648</ele>
        <time>2013-05-04T07:25:19.000Z</time>
      </trkpt>
      <trkpt lat="43.6405" lon="5.63013">
        <ele>312.39999389648</ele>
        <time>2013-05-04T07:25:26.000Z</time>
      </trkpt>
      <trkpt lat="43.64046" lon="5.63046">
        <ele>314.39999389648</ele>
        <time>2013-05-04T07:25:38.000Z</time>
      </trkpt>
      <trkpt lat="43.64048" lon="5.63068">
        <ele>315.79998779297</ele>
        <time>2013-05-04T07:25:46.000Z</time>
      </trkpt>
      <trkpt lat="43.64049" lon="5.63087">
        <ele>317</ele>
        <time>2013-05-04T07:25:54.000Z</time>
      </trkpt>
      <trkpt lat="43.64048" lon="5.63097">
        <ele>317.20001220703</ele>
        <time>2013-05-04T07:25:59.000Z</time>
      </trkpt>
      <trkpt lat="43.64048" lon="5.63118">
        <ele>317.79998779297</ele>
        <time>2013-05-04T07:26:07.000Z</time>
      </trkpt>
      <trkpt lat="43.64053" lon="5.63148">
        <ele>319.20001220703</ele>
        <time>2013-05-04T07:26:17.000Z</time>
      </trkpt>
      <trkpt lat="43.64063" lon="5.63168">
        <ele>321</ele>
        <time>2013-05-04T07:26:26.000Z</time>
      </trkpt>
      <trkpt lat="43.64079" lon="5.63186">
        <ele>321.79998779297</ele>
        <time>2013-05-04T07:26:36.000Z</time>
      </trkpt>
      <trkpt lat="43.64097" lon="5.6321">
        <ele>321.79998779297</ele>
        <time>2013-05-04T07:26:48.000Z</time>
      </trkpt>
      <trkpt lat="43.64112" lon="5.63238">
        <ele>322</ele>
        <time>2013-05-04T07:27:00.000Z</time>
      </trkpt>
      <trkpt lat="43.64116" lon="5.63267">
        <ele>321</ele>
        <time>2013-05-04T07:27:11.000Z</time>
      </trkpt>
      <trkpt lat="43.6413" lon="5.63294">
        <ele>321.79998779297</ele>
        <time>2013-05-04T07:27:21.000Z</time>
      </trkpt>
      <trkpt lat="43.64154" lon="5.63316">
        <ele>326</ele>
        <time>2013-05-04T07:27:32.000Z</time>
      </trkpt>
      <trkpt lat="43.6417" lon="5.63357">
        <ele>329.79998779297</ele>
        <time>2013-05-04T07:27:43.000Z</time>
      </trkpt>
      <trkpt lat="43.64181" lon="5.63392">
        <ele>331.60000610352</ele>
        <time>2013-05-04T07:27:53.000Z</time>
      </trkpt>
      <trkpt lat="43.64202" lon="5.63409">
        <ele>333.20001220703</ele>
        <time>2013-05-04T07:28:04.000Z</time>
      </trkpt>
      <trkpt lat="43.64229" lon="5.63419">
        <ele>335</ele>
        <time>2013-05-04T07:28:16.000Z</time>
      </trkpt>
      <trkpt lat="43.64251" lon="5.63422">
        <ele>336.20001220703</ele>
        <time>2013-05-04T07:28:25.000Z</time>
      </trkpt>
      <trkpt lat="43.64263" lon="5.63424">
        <ele>336</ele>
        <time>2013-05-04T07:28:33.000Z</time>
      </trkpt>
      <trkpt lat="43.64264" lon="5.63425">
        <ele>336</ele>
        <time>2013-05-04T07:28:43.000Z</time>
      </trkpt>
      <trkpt lat="43.64267" lon="5.63426">
        <ele>336</ele>
        <time>2013-05-04T07:28:54.000Z</time>
      </trkpt>
      <trkpt lat="43.6427" lon="5.6343">
        <ele>336</ele>
        <time>2013-05-04T07:28:59.000Z</time>
      </trkpt>
      <trkpt lat="43.64272" lon="5.6343">
        <ele>336</ele>
        <time>2013-05-04T07:29:00.000Z</time>
      </trkpt>
      <trkpt lat="43.64273" lon="5.6343">
        <ele>336</ele>
        <time>2013-05-04T07:29:01.000Z</time>
      </trkpt>
      <trkpt lat="43.64275" lon="5.6343">
        <ele>335.79998779297</ele>
        <time>2013-05-04T07:29:03.000Z</time>
      </trkpt>
      <trkpt lat="43.64294" lon="5.6344">
        <ele>335.79998779297</ele>
        <time>2013-05-04T07:29:12.000Z</time>
      </trkpt>
      <trkpt lat="43.64306" lon="5.63447">
        <ele>335.60000610352</ele>
        <time>2013-05-04T07:29:15.000Z</time>
      </trkpt>
      <trkpt lat="43.64338" lon="5.6346">
        <ele>334.60000610352</ele>
        <time>2013-05-04T07:29:20.000Z</time>
      </trkpt>
      <trkpt lat="43.64345" lon="5.63463">
        <ele>334.20001220703</ele>
        <time>2013-05-04T07:29:21.000Z</time>
      </trkpt>
      <trkpt lat="43.64352" lon="5.63464">
        <ele>333.60000610352</ele>
        <time>2013-05-04T07:29:22.000Z</time>
      </trkpt>
      <trkpt lat="43.64368" lon="5.63465">
        <ele>332.39999389648</ele>
        <time>2013-05-04T07:29:25.000Z</time>
      </trkpt>
      <trkpt lat="43.64379" lon="5.63468">
        <ele>331.60000610352</ele>
        <time>2013-05-04T07:29:27.000Z</time>
      </trkpt>
      <trkpt lat="43.64385" lon="5.63471">
        <ele>331.20001220703</ele>
        <time>2013-05-04T07:29:28.000Z</time>
      </trkpt>
      <trkpt lat="43.6439" lon="5.63475">
        <ele>330.79998779297</ele>
        <time>2013-05-04T07:29:29.000Z</time>
      </trkpt>
      <trkpt lat="43.64396" lon="5.6348">
        <ele>330.60000610352</ele>
        <time>2013-05-04T07:29:30.000Z</time>
      </trkpt>
      <trkpt lat="43.64402" lon="5.63486">
        <ele>330.39999389648</ele>
        <time>2013-05-04T07:29:31.000Z</time>
      </trkpt>
      <trkpt lat="43.64409" lon="5.63489">
        <ele>330</ele>
        <time>2013-05-04T07:29:32.000Z</time>
      </trkpt>
      <trkpt lat="43.64415" lon="5.63489">
        <ele>329.60000610352</ele>
        <time>2013-05-04T07:29:33.000Z</time>
      </trkpt>
      <trkpt lat="43.64421" lon="5.63488">
        <ele>329</ele>
        <time>2013-05-04T07:29:34.000Z</time>
      </trkpt>
      <trkpt lat="43.64427" lon="5.63486">
        <ele>328.60000610352</ele>
        <time>2013-05-04T07:29:35.000Z</time>
      </trkpt>
      <trkpt lat="43.64437" lon="5.63482">
        <ele>327.60000610352</ele>
        <time>2013-05-04T07:29:37.000Z</time>
      </trkpt>
      <trkpt lat="43.64452" lon="5.63475">
        <ele>326.20001220703</ele>
        <time>2013-05-04T07:29:40.000Z</time>
      </trkpt>
      <trkpt lat="43.64457" lon="5.63473">
        <ele>325.79998779297</ele>
        <time>2013-05-04T07:29:41.000Z</time>
      </trkpt>
      <trkpt lat="43.64463" lon="5.63473">
        <ele>325.20001220703</ele>
        <time>2013-05-04T07:29:42.000Z</time>
      </trkpt>
      <trkpt lat="43.64468" lon="5.63475">
        <ele>325</ele>
        <time>2013-05-04T07:29:43.000Z</time>
      </trkpt>
      <trkpt lat="43.64474" lon="5.63478">
        <ele>324.79998779297</ele>
        <time>2013-05-04T07:29:44.000Z</time>
      </trkpt>
      <trkpt lat="43.6448" lon="5.63482">
        <ele>324.79998779297</ele>
        <time>2013-05-04T07:29:45.000Z</time>
      </trkpt>
      <trkpt lat="43.64486" lon="5.63487">
        <ele>324.79998779297</ele>
        <time>2013-05-04T07:29:46.000Z</time>
      </trkpt>
      <trkpt lat="43.64512" lon="5.6351">
        <ele>325</ele>
        <time>2013-05-04T07:29:50.000Z</time>
      </trkpt>
      <trkpt lat="43.64519" lon="5.63512">
        <ele>324.79998779297</ele>
        <time>2013-05-04T07:29:51.000Z</time>
      </trkpt>
      <trkpt lat="43.64526" lon="5.63512">
        <ele>324.60000610352</ele>
        <time>2013-05-04T07:29:52.000Z</time>
      </trkpt>
      <trkpt lat="43.64533" lon="5.6351">
        <ele>324</ele>
        <time>2013-05-04T07:29:53.000Z</time>
      </trkpt>
      <trkpt lat="43.64539" lon="5.63509">
        <ele>323.60000610352</ele>
        <time>2013-05-04T07:29:54.000Z</time>
      </trkpt>
      <trkpt lat="43.64545" lon="5.63509">
        <ele>323.39999389648</ele>
        <time>2013-05-04T07:29:55.000Z</time>
      </trkpt>
      <trkpt lat="43.64551" lon="5.63512">
        <ele>323.39999389648</ele>
        <time>2013-05-04T07:29:56.000Z</time>
      </trkpt>
      <trkpt lat="43.64558" lon="5.63515">
        <ele>323.39999389648</ele>
        <time>2013-05-04T07:29:57.000Z</time>
      </trkpt>
      <trkpt lat="43.64564" lon="5.63519">
        <ele>323.39999389648</ele>
        <time>2013-05-04T07:29:58.000Z</time>
      </trkpt>
      <trkpt lat="43.64578" lon="5.63527">
        <ele>323.39999389648</ele>
        <time>2013-05-04T07:30:00.000Z</time>
      </trkpt>
      <trkpt lat="43.64585" lon="5.63528">
        <ele>323.20001220703</ele>
        <time>2013-05-04T07:30:01.000Z</time>
      </trkpt>
      <trkpt lat="43.64592" lon="5.63527">
        <ele>322.79998779297</ele>
        <time>2013-05-04T07:30:02.000Z</time>
      </trkpt>
      <trkpt lat="43.64598" lon="5.63524">
        <ele>322.39999389648</ele>
        <time>2013-05-04T07:30:03.000Z</time>
      </trkpt>
      <trkpt lat="43.64604" lon="5.6352">
        <ele>322</ele>
        <time>2013-05-04T07:30:04.000Z</time>
      </trkpt>
      <trkpt lat="43.6461" lon="5.63516">
        <ele>321.60000610352</ele>
        <time>2013-05-04T07:30:05.000Z</time>
      </trkpt>
      <trkpt lat="43.64642" lon="5.63499">
        <ele>320.20001220703</ele>
        <time>2013-05-04T07:30:11.000Z</time>
      </trkpt>
      <trkpt lat="43.64665" lon="5.63483">
        <ele>318.60000610352</ele>
        <time>2013-05-04T07:30:16.000Z</time>
      </trkpt>
      <trkpt lat="43.64669" lon="5.63479">
        <ele>318.20001220703</ele>
        <time>2013-05-04T07:30:17.000Z</time>
      </trkpt>
      <trkpt lat="43.64695" lon="5.63456">
        <ele>313.39999389648</ele>
        <time>2013-05-04T07:30:23.000Z</time>
      </trkpt>
      <trkpt lat="43.64715" lon="5.6344">
        <ele>310.79998779297</ele>
        <time>2013-05-04T07:30:27.000Z</time>
      </trkpt>
      <trkpt lat="43.64739" lon="5.6342">
        <ele>308.60000610352</ele>
        <time>2013-05-04T07:30:32.000Z</time>
      </trkpt>
      <trkpt lat="43.64744" lon="5.63416">
        <ele>308.20001220703</ele>
        <time>2013-05-04T07:30:33.000Z</time>
      </trkpt>
      <trkpt lat="43.64762" lon="5.63392">
        <ele>305.20001220703</ele>
        <time>2013-05-04T07:30:37.000Z</time>
      </trkpt>
      <trkpt lat="43.64775" lon="5.63376">
        <ele>303.39999389648</ele>
        <time>2013-05-04T07:30:40.000Z</time>
      </trkpt>
      <trkpt lat="43.64784" lon="5.63368">
        <ele>302.60000610352</ele>
        <time>2013-05-04T07:30:42.000Z</time>
      </trkpt>
      <trkpt lat="43.64798" lon="5.63361">
        <ele>301.39999389648</ele>
        <time>2013-05-04T07:30:45.000Z</time>
      </trkpt>
      <trkpt lat="43.64807" lon="5.63357">
        <ele>300.79998779297</ele>
        <time>2013-05-04T07:30:47.000Z</time>
      </trkpt>
      <trkpt lat="43.64812" lon="5.63354">
        <ele>300.39999389648</ele>
        <time>2013-05-04T07:30:48.000Z</time>
      </trkpt>
      <trkpt lat="43.6482" lon="5.63347">
        <ele>299.79998779297</ele>
        <time>2013-05-04T07:30:50.000Z</time>
      </trkpt>
      <trkpt lat="43.64837" lon="5.63333">
        <ele>298.79998779297</ele>
        <time>2013-05-04T07:30:54.000Z</time>
      </trkpt>
      <trkpt lat="43.64842" lon="5.63331">
        <ele>298.60000610352</ele>
        <time>2013-05-04T07:30:55.000Z</time>
      </trkpt>
      <trkpt lat="43.64847" lon="5.6333">
        <ele>298.39999389648</ele>
        <time>2013-05-04T07:30:56.000Z</time>
      </trkpt>
      <trkpt lat="43.64878" lon="5.63328">
        <ele>298.20001220703</ele>
        <time>2013-05-04T07:31:01.000Z</time>
      </trkpt>
      <trkpt lat="43.64884" lon="5.6333">
        <ele>298.20001220703</ele>
        <time>2013-05-04T07:31:02.000Z</time>
      </trkpt>
      <trkpt lat="43.64889" lon="5.63332">
        <ele>298.20001220703</ele>
        <time>2013-05-04T07:31:03.000Z</time>
      </trkpt>
      <trkpt lat="43.64894" lon="5.63336">
        <ele>298.39999389648</ele>
        <time>2013-05-04T07:31:04.000Z</time>
      </trkpt>
      <trkpt lat="43.64898" lon="5.63341">
        <ele>298.39999389648</ele>
        <time>2013-05-04T07:31:05.000Z</time>
      </trkpt>
      <trkpt lat="43.64913" lon="5.63354">
        <ele>299.20001220703</ele>
        <time>2013-05-04T07:31:09.000Z</time>
      </trkpt>
      <trkpt lat="43.64915" lon="5.63359">
        <ele>299.39999389648</ele>
        <time>2013-05-04T07:31:10.000Z</time>
      </trkpt>
      <trkpt lat="43.64921" lon="5.63368">
        <ele>300.20001220703</ele>
        <time>2013-05-04T07:31:12.000Z</time>
      </trkpt>
      <trkpt lat="43.64923" lon="5.63374">
        <ele>300.60000610352</ele>
        <time>2013-05-04T07:31:13.000Z</time>
      </trkpt>
      <trkpt lat="43.64925" lon="5.63379">
        <ele>301</ele>
        <time>2013-05-04T07:31:14.000Z</time>
      </trkpt>
      <trkpt lat="43.64928" lon="5.63385">
        <ele>301.39999389648</ele>
        <time>2013-05-04T07:31:15.000Z</time>
      </trkpt>
      <trkpt lat="43.6493" lon="5.6339">
        <ele>301.79998779297</ele>
        <time>2013-05-04T07:31:16.000Z</time>
      </trkpt>
      <trkpt lat="43.64936" lon="5.63406">
        <ele>302.60000610352</ele>
        <time>2013-05-04T07:31:19.000Z</time>
      </trkpt>
      <trkpt lat="43.6494" lon="5.63411">
        <ele>303</ele>
        <time>2013-05-04T07:31:20.000Z</time>
      </trkpt>
      <trkpt lat="43.64944" lon="5.63414">
        <ele>303.20001220703</ele>
        <time>2013-05-04T07:31:21.000Z</time>
      </trkpt>
      <trkpt lat="43.64948" lon="5.63416">
        <ele>303.20001220703</ele>
        <time>2013-05-04T07:31:22.000Z</time>
      </trkpt>
      <trkpt lat="43.64953" lon="5.63417">
        <ele>303.39999389648</ele>
        <time>2013-05-04T07:31:23.000Z</time>
      </trkpt>
      <trkpt lat="43.64961" lon="5.63422">
        <ele>303.79998779297</ele>
        <time>2013-05-04T07:31:25.000Z</time>
      </trkpt>
      <trkpt lat="43.64964" lon="5.63426">
        <ele>304</ele>
        <time>2013-05-04T07:31:26.000Z</time>
      </trkpt>
      <trkpt lat="43.6497" lon="5.63434">
        <ele>304.60000610352</ele>
        <time>2013-05-04T07:31:28.000Z</time>
      </trkpt>
      <trkpt lat="43.64973" lon="5.63437">
        <ele>304.79998779297</ele>
        <time>2013-05-04T07:31:29.000Z</time>
      </trkpt>
      <trkpt lat="43.64977" lon="5.63439">
        <ele>304.79998779297</ele>
        <time>2013-05-04T07:31:30.000Z</time>
      </trkpt>
      <trkpt lat="43.64981" lon="5.63441">
        <ele>305</ele>
        <time>2013-05-04T07:31:31.000Z</time>
      </trkpt>
      <trkpt lat="43.64985" lon="5.63441">
        <ele>305</ele>
        <time>2013-05-04T07:31:32.000Z</time>
      </trkpt>
      <trkpt lat="43.64989" lon="5.63442">
        <ele>305</ele>
        <time>2013-05-04T07:31:33.000Z</time>
      </trkpt>
      <trkpt lat="43.64993" lon="5.63442">
        <ele>305</ele>
        <time>2013-05-04T07:31:34.000Z</time>
      </trkpt>
      <trkpt lat="43.65011" lon="5.63445">
        <ele>305.60000610352</ele>
        <time>2013-05-04T07:31:38.000Z</time>
      </trkpt>
      <trkpt lat="43.65015" lon="5.63446">
        <ele>305.60000610352</ele>
        <time>2013-05-04T07:31:39.000Z</time>
      </trkpt>
      <trkpt lat="43.6502" lon="5.63445">
        <ele>305.79998779297</ele>
        <time>2013-05-04T07:31:40.000Z</time>
      </trkpt>
      <trkpt lat="43.65025" lon="5.63445">
        <ele>306</ele>
        <time>2013-05-04T07:31:41.000Z</time>
      </trkpt>
      <trkpt lat="43.65029" lon="5.63444">
        <ele>306</ele>
        <time>2013-05-04T07:31:42.000Z</time>
      </trkpt>
      <trkpt lat="43.6504" lon="5.63442">
        <ele>306.39999389648</ele>
        <time>2013-05-04T07:31:50.000Z</time>
      </trkpt>
      <trkpt lat="43.65038" lon="5.63442">
        <ele>306.39999389648</ele>
        <time>2013-05-04T07:32:06.000Z</time>
      </trkpt>
      <trkpt lat="43.6504" lon="5.63441">
        <ele>306.39999389648</ele>
        <time>2013-05-04T07:32:30.000Z</time>
      </trkpt>
      <trkpt lat="43.6504" lon="5.63442">
        <ele>306.39999389648</ele>
        <time>2013-05-04T07:32:46.000Z</time>
      </trkpt>
      <trkpt lat="43.6504" lon="5.63442">
        <ele>306.39999389648</ele>
        <time>2013-05-04T07:33:00.000Z</time>
      </trkpt>
      <trkpt lat="43.6505" lon="5.63445">
        <ele>306.60000610352</ele>
        <time>2013-05-04T07:33:10.000Z</time>
      </trkpt>
      <trkpt lat="43.65071" lon="5.63456">
        <ele>306.79998779297</ele>
        <time>2013-05-04T07:33:20.000Z</time>
      </trkpt>
      <trkpt lat="43.65094" lon="5.63477">
        <ele>307.60000610352</ele>
        <time>2013-05-04T07:33:31.000Z</time>
      </trkpt>
      <trkpt lat="43.65117" lon="5.63505">
        <ele>309</ele>
        <time>2013-05-04T07:33:42.000Z</time>
      </trkpt>
      <trkpt lat="43.65142" lon="5.6353">
        <ele>310.79998779297</ele>
        <time>2013-05-04T07:33:53.000Z</time>
      </trkpt>
      <trkpt lat="43.65169" lon="5.6355">
        <ele>312</ele>
        <time>2013-05-04T07:34:03.000Z</time>
      </trkpt>
      <trkpt lat="43.65196" lon="5.63568">
        <ele>312.39999389648</ele>
        <time>2013-05-04T07:34:12.000Z</time>
      </trkpt>
      <trkpt lat="43.65213" lon="5.63573">
        <ele>313</ele>
        <time>2013-05-04T07:34:16.000Z</time>
      </trkpt>
      <trkpt lat="43.65218" lon="5.63575">
        <ele>313.20001220703</ele>
        <time>2013-05-04T07:34:17.000Z</time>
      </trkpt>
      <trkpt lat="43.65228" lon="5.63575">
        <ele>313.79998779297</ele>
        <time>2013-05-04T07:34:19.000Z</time>
      </trkpt>
      <trkpt lat="43.65232" lon="5.63575">
        <ele>314</ele>
        <time>2013-05-04T07:34:20.000Z</time>
      </trkpt>
      <trkpt lat="43.65235" lon="5.63575">
        <ele>314.20001220703</ele>
        <time>2013-05-04T07:34:21.000Z</time>
      </trkpt>
      <trkpt lat="43.65238" lon="5.63575">
        <ele>314.39999389648</ele>
        <time>2013-05-04T07:34:22.000Z</time>
      </trkpt>
      <trkpt lat="43.6524" lon="5.63575">
        <ele>314.60000610352</ele>
        <time>2013-05-04T07:34:23.000Z</time>
      </trkpt>
      <trkpt lat="43.6525" lon="5.63576">
        <ele>315</ele>
        <time>2013-05-04T07:34:28.000Z</time>
      </trkpt>
      <trkpt lat="43.65251" lon="5.63579">
        <ele>314.79998779297</ele>
        <time>2013-05-04T07:34:29.000Z</time>
      </trkpt>
      <trkpt lat="43.65251" lon="5.63582">
        <ele>314.79998779297</ele>
        <time>2013-05-04T07:34:30.000Z</time>
      </trkpt>
      <trkpt lat="43.6525" lon="5.63584">
        <ele>314.79998779297</ele>
        <time>2013-05-04T07:34:31.000Z</time>
      </trkpt>
      <trkpt lat="43.65249" lon="5.63585">
        <ele>314.79998779297</ele>
        <time>2013-05-04T07:34:32.000Z</time>
      </trkpt>
      <trkpt lat="43.65248" lon="5.63588">
        <ele>314.79998779297</ele>
        <time>2013-05-04T07:34:33.000Z</time>
      </trkpt>
      <trkpt lat="43.65247" lon="5.6359">
        <ele>314.79998779297</ele>
        <time>2013-05-04T07:34:34.000Z</time>
      </trkpt>
      <trkpt lat="43.65247" lon="5.63591">
        <ele>314.79998779297</ele>
        <time>2013-05-04T07:34:35.000Z</time>
      </trkpt>
      <trkpt lat="43.65246" lon="5.63593">
        <ele>314.60000610352</ele>
        <time>2013-05-04T07:34:36.000Z</time>
      </trkpt>
      <trkpt lat="43.65244" lon="5.63597">
        <ele>314.60000610352</ele>
        <time>2013-05-04T07:34:38.000Z</time>
      </trkpt>
      <trkpt lat="43.65242" lon="5.636">
        <ele>314.60000610352</ele>
        <time>2013-05-04T07:34:39.000Z</time>
      </trkpt>
      <trkpt lat="43.65239" lon="5.63602">
        <ele>314.39999389648</ele>
        <time>2013-05-04T07:34:40.000Z</time>
      </trkpt>
      <trkpt lat="43.65236" lon="5.63605">
        <ele>314.20001220703</ele>
        <time>2013-05-04T07:34:41.000Z</time>
      </trkpt>
      <trkpt lat="43.65234" lon="5.63607">
        <ele>314.20001220703</ele>
        <time>2013-05-04T07:34:42.000Z</time>
      </trkpt>
      <trkpt lat="43.65232" lon="5.6361">
        <ele>314.20001220703</ele>
        <time>2013-05-04T07:34:43.000Z</time>
      </trkpt>
      <trkpt lat="43.65216" lon="5.63635">
        <ele>314.20001220703</ele>
        <time>2013-05-04T07:34:52.000Z</time>
      </trkpt>
      <trkpt lat="43.65207" lon="5.63664">
        <ele>314.79998779297</ele>
        <time>2013-05-04T07:35:00.000Z</time>
      </trkpt>
      <trkpt lat="43.65202" lon="5.6368">
        <ele>315.39999389648</ele>
        <time>2013-05-04T07:35:05.000Z</time>
      </trkpt>
      <trkpt lat="43.652" lon="5.63682">
        <ele>315.60000610352</ele>
        <time>2013-05-04T07:35:06.000Z</time>
      </trkpt>
      <trkpt lat="43.65188" lon="5.63706">
        <ele>316.79998779297</ele>
        <time>2013-05-04T07:35:15.000Z</time>
      </trkpt>
      <trkpt lat="43.65179" lon="5.63732">
        <ele>318.39999389648</ele>
        <time>2013-05-04T07:35:23.000Z</time>
      </trkpt>
      <trkpt lat="43.65173" lon="5.63745">
        <ele>319.39999389648</ele>
        <time>2013-05-04T07:35:28.000Z</time>
      </trkpt>
      <trkpt lat="43.65172" lon="5.63749">
        <ele>319.60000610352</ele>
        <time>2013-05-04T07:35:29.000Z</time>
      </trkpt>
      <trkpt lat="43.65172" lon="5.63752">
        <ele>319.79998779297</ele>
        <time>2013-05-04T07:35:30.000Z</time>
      </trkpt>
      <trkpt lat="43.65158" lon="5.63793">
        <ele>321.20001220703</ele>
        <time>2013-05-04T07:35:40.000Z</time>
      </trkpt>
      <trkpt lat="43.65143" lon="5.63835">
        <ele>323</ele>
        <time>2013-05-04T07:35:50.000Z</time>
      </trkpt>
      <trkpt lat="43.65127" lon="5.63866">
        <ele>324.60000610352</ele>
        <time>2013-05-04T07:35:59.000Z</time>
      </trkpt>
      <trkpt lat="43.65106" lon="5.639">
        <ele>326.39999389648</ele>
        <time>2013-05-04T07:36:09.000Z</time>
      </trkpt>
      <trkpt lat="43.65099" lon="5.63942">
        <ele>327.60000610352</ele>
        <time>2013-05-04T07:36:19.000Z</time>
      </trkpt>
      <trkpt lat="43.65097" lon="5.63982">
        <ele>328.20001220703</ele>
        <time>2013-05-04T07:36:28.000Z</time>
      </trkpt>
      <trkpt lat="43.65101" lon="5.64008">
        <ele>328.60000610352</ele>
        <time>2013-05-04T07:36:35.000Z</time>
      </trkpt>
      <trkpt lat="43.65094" lon="5.64041">
        <ele>329.60000610352</ele>
        <time>2013-05-04T07:36:42.000Z</time>
      </trkpt>
      <trkpt lat="43.6509" lon="5.64064">
        <ele>330.20001220703</ele>
        <time>2013-05-04T07:36:47.000Z</time>
      </trkpt>
      <trkpt lat="43.65091" lon="5.64068">
        <ele>330.39999389648</ele>
        <time>2013-05-04T07:36:48.000Z</time>
      </trkpt>
      <trkpt lat="43.65092" lon="5.64071">
        <ele>330.39999389648</ele>
        <time>2013-05-04T07:36:49.000Z</time>
      </trkpt>
      <trkpt lat="43.65101" lon="5.64076">
        <ele>330.39999389648</ele>
        <time>2013-05-04T07:36:52.000Z</time>
      </trkpt>
      <trkpt lat="43.65128" lon="5.64089">
        <ele>330</ele>
        <time>2013-05-04T07:36:59.000Z</time>
      </trkpt>
      <trkpt lat="43.6513" lon="5.64092">
        <ele>330</ele>
        <time>2013-05-04T07:37:00.000Z</time>
      </trkpt>
      <trkpt lat="43.65132" lon="5.64096">
        <ele>330</ele>
        <time>2013-05-04T07:37:01.000Z</time>
      </trkpt>
      <trkpt lat="43.65132" lon="5.64099">
        <ele>330.20001220703</ele>
        <time>2013-05-04T07:37:02.000Z</time>
      </trkpt>
      <trkpt lat="43.65133" lon="5.64103">
        <ele>330.20001220703</ele>
        <time>2013-05-04T07:37:03.000Z</time>
      </trkpt>
      <trkpt lat="43.65133" lon="5.64108">
        <ele>330.39999389648</ele>
        <time>2013-05-04T07:37:04.000Z</time>
      </trkpt>
      <trkpt lat="43.65132" lon="5.64112">
        <ele>330.60000610352</ele>
        <time>2013-05-04T07:37:05.000Z</time>
      </trkpt>
      <trkpt lat="43.65132" lon="5.64116">
        <ele>330.60000610352</ele>
        <time>2013-05-04T07:37:06.000Z</time>
      </trkpt>
      <trkpt lat="43.65132" lon="5.64121">
        <ele>330.79998779297</ele>
        <time>2013-05-04T07:37:07.000Z</time>
      </trkpt>
      <trkpt lat="43.65133" lon="5.64126">
        <ele>331</ele>
        <time>2013-05-04T07:37:08.000Z</time>
      </trkpt>
      <trkpt lat="43.65134" lon="5.64131">
        <ele>331</ele>
        <time>2013-05-04T07:37:09.000Z</time>
      </trkpt>
      <trkpt lat="43.65136" lon="5.64136">
        <ele>331.20001220703</ele>
        <time>2013-05-04T07:37:10.000Z</time>
      </trkpt>
      <trkpt lat="43.65136" lon="5.6414">
        <ele>331.20001220703</ele>
        <time>2013-05-04T07:37:11.000Z</time>
      </trkpt>
      <trkpt lat="43.65136" lon="5.64144">
        <ele>331.39999389648</ele>
        <time>2013-05-04T07:37:12.000Z</time>
      </trkpt>
      <trkpt lat="43.65135" lon="5.64147">
        <ele>331.39999389648</ele>
        <time>2013-05-04T07:37:13.000Z</time>
      </trkpt>
      <trkpt lat="43.65131" lon="5.64169">
        <ele>332.39999389648</ele>
        <time>2013-05-04T07:37:21.000Z</time>
      </trkpt>
      <trkpt lat="43.65132" lon="5.64175">
        <ele>332.60000610352</ele>
        <time>2013-05-04T07:37:29.000Z</time>
      </trkpt>
      <trkpt lat="43.65132" lon="5.64181">
        <ele>332.79998779297</ele>
        <time>2013-05-04T07:37:40.000Z</time>
      </trkpt>
      <trkpt lat="43.65132" lon="5.64182">
        <ele>332.79998779297</ele>
        <time>2013-05-04T07:37:41.000Z</time>
      </trkpt>
      <trkpt lat="43.65132" lon="5.64183">
        <ele>333</ele>
        <time>2013-05-04T07:37:42.000Z</time>
      </trkpt>
      <trkpt lat="43.65132" lon="5.64185">
        <ele>333</ele>
        <time>2013-05-04T07:37:43.000Z</time>
      </trkpt>
      <trkpt lat="43.65132" lon="5.64188">
        <ele>333.20001220703</ele>
        <time>2013-05-04T07:37:44.000Z</time>
      </trkpt>
      <trkpt lat="43.65131" lon="5.6419">
        <ele>333.39999389648</ele>
        <time>2013-05-04T07:37:45.000Z</time>
      </trkpt>
      <trkpt lat="43.6513" lon="5.64191">
        <ele>333.39999389648</ele>
        <time>2013-05-04T07:37:46.000Z</time>
      </trkpt>
      <trkpt lat="43.6513" lon="5.64198">
        <ele>333.79998779297</ele>
        <time>2013-05-04T07:37:56.000Z</time>
      </trkpt>
      <trkpt lat="43.6513" lon="5.642">
        <ele>333.79998779297</ele>
        <time>2013-05-04T07:38:12.000Z</time>
      </trkpt>
      <trkpt lat="43.6513" lon="5.64201">
        <ele>334</ele>
        <time>2013-05-04T07:38:14.000Z</time>
      </trkpt>
      <trkpt lat="43.65131" lon="5.64203">
        <ele>334</ele>
        <time>2013-05-04T07:38:15.000Z</time>
      </trkpt>
      <trkpt lat="43.65131" lon="5.64206">
        <ele>334.20001220703</ele>
        <time>2013-05-04T07:38:16.000Z</time>
      </trkpt>
      <trkpt lat="43.65131" lon="5.64209">
        <ele>334.20001220703</ele>
        <time>2013-05-04T07:38:17.000Z</time>
      </trkpt>
      <trkpt lat="43.65131" lon="5.64211">
        <ele>334.39999389648</ele>
        <time>2013-05-04T07:38:18.000Z</time>
      </trkpt>
      <trkpt lat="43.65129" lon="5.64238">
        <ele>335.79998779297</ele>
        <time>2013-05-04T07:38:25.000Z</time>
      </trkpt>
      <trkpt lat="43.65131" lon="5.64242">
        <ele>336</ele>
        <time>2013-05-04T07:38:26.000Z</time>
      </trkpt>
      <trkpt lat="43.65133" lon="5.64247">
        <ele>336</ele>
        <time>2013-05-04T07:38:27.000Z</time>
      </trkpt>
      <trkpt lat="43.65135" lon="5.64253">
        <ele>336</ele>
        <time>2013-05-04T07:38:28.000Z</time>
      </trkpt>
      <trkpt lat="43.65138" lon="5.64258">
        <ele>335.79998779297</ele>
        <time>2013-05-04T07:38:29.000Z</time>
      </trkpt>
      <trkpt lat="43.65141" lon="5.64263">
        <ele>335.60000610352</ele>
        <time>2013-05-04T07:38:30.000Z</time>
      </trkpt>
      <trkpt lat="43.65166" lon="5.64295">
        <ele>334</ele>
        <time>2013-05-04T07:38:39.000Z</time>
      </trkpt>
      <trkpt lat="43.65167" lon="5.64298">
        <ele>334</ele>
        <time>2013-05-04T07:38:40.000Z</time>
      </trkpt>
      <trkpt lat="43.65167" lon="5.64301">
        <ele>334.20001220703</ele>
        <time>2013-05-04T07:38:41.000Z</time>
      </trkpt>
      <trkpt lat="43.65166" lon="5.64304">
        <ele>334.20001220703</ele>
        <time>2013-05-04T07:38:42.000Z</time>
      </trkpt>
      <trkpt lat="43.65151" lon="5.64337">
        <ele>336.79998779297</ele>
        <time>2013-05-04T07:38:51.000Z</time>
      </trkpt>
      <trkpt lat="43.65139" lon="5.64343">
        <ele>338.20001220703</ele>
        <time>2013-05-04T07:38:55.000Z</time>
      </trkpt>
      <trkpt lat="43.65133" lon="5.64347">
        <ele>339</ele>
        <time>2013-05-04T07:38:57.000Z</time>
      </trkpt>
      <trkpt lat="43.65107" lon="5.64363">
        <ele>342.20001220703</ele>
        <time>2013-05-04T07:39:05.000Z</time>
      </trkpt>
      <trkpt lat="43.65073" lon="5.64376">
        <ele>345</ele>
        <time>2013-05-04T07:39:15.000Z</time>
      </trkpt>
      <trkpt lat="43.65056" lon="5.64387">
        <ele>344.79998779297</ele>
        <time>2013-05-04T07:39:21.000Z</time>
      </trkpt>
      <trkpt lat="43.65048" lon="5.64394">
        <ele>344.60000610352</ele>
        <time>2013-05-04T07:39:29.000Z</time>
      </trkpt>
      <trkpt lat="43.65045" lon="5.64396">
        <ele>344.39999389648</ele>
        <time>2013-05-04T07:39:39.000Z</time>
      </trkpt>
      <trkpt lat="43.65043" lon="5.64402">
        <ele>344.20001220703</ele>
        <time>2013-05-04T07:39:55.000Z</time>
      </trkpt>
      <trkpt lat="43.65043" lon="5.64404">
        <ele>344.20001220703</ele>
        <time>2013-05-04T07:39:56.000Z</time>
      </trkpt>
      <trkpt lat="43.65044" lon="5.64406">
        <ele>344.20001220703</ele>
        <time>2013-05-04T07:39:57.000Z</time>
      </trkpt>
      <trkpt lat="43.65045" lon="5.64409">
        <ele>344.20001220703</ele>
        <time>2013-05-04T07:39:58.000Z</time>
      </trkpt>
      <trkpt lat="43.65046" lon="5.64413">
        <ele>344.20001220703</ele>
        <time>2013-05-04T07:39:59.000Z</time>
      </trkpt>
      <trkpt lat="43.65051" lon="5.64447">
        <ele>343</ele>
        <time>2013-05-04T07:40:06.000Z</time>
      </trkpt>
      <trkpt lat="43.65052" lon="5.64452">
        <ele>342.79998779297</ele>
        <time>2013-05-04T07:40:07.000Z</time>
      </trkpt>
      <trkpt lat="43.65059" lon="5.64465">
        <ele>342.60000610352</ele>
        <time>2013-05-04T07:40:10.000Z</time>
      </trkpt>
      <trkpt lat="43.65087" lon="5.64479">
        <ele>343.39999389648</ele>
        <time>2013-05-04T07:40:19.000Z</time>
      </trkpt>
      <trkpt lat="43.65103" lon="5.64484">
        <ele>342</ele>
        <time>2013-05-04T07:40:24.000Z</time>
      </trkpt>
      <trkpt lat="43.65115" lon="5.64487">
        <ele>341</ele>
        <time>2013-05-04T07:40:27.000Z</time>
      </trkpt>
      <trkpt lat="43.65135" lon="5.64477">
        <ele>339.79998779297</ele>
        <time>2013-05-04T07:40:31.000Z</time>
      </trkpt>
      <trkpt lat="43.65152" lon="5.64474">
        <ele>338.60000610352</ele>
        <time>2013-05-04T07:40:34.000Z</time>
      </trkpt>
      <trkpt lat="43.65176" lon="5.64481">
        <ele>336.79998779297</ele>
        <time>2013-05-04T07:40:38.000Z</time>
      </trkpt>
      <trkpt lat="43.65202" lon="5.64499">
        <ele>335.60000610352</ele>
        <time>2013-05-04T07:40:43.000Z</time>
      </trkpt>
      <trkpt lat="43.65209" lon="5.64505">
        <ele>335</ele>
        <time>2013-05-04T07:40:45.000Z</time>
      </trkpt>
      <trkpt lat="43.65229" lon="5.64515">
        <ele>333.39999389648</ele>
        <time>2013-05-04T07:40:50.000Z</time>
      </trkpt>
      <trkpt lat="43.65247" lon="5.64526">
        <ele>331.60000610352</ele>
        <time>2013-05-04T07:40:54.000Z</time>
      </trkpt>
      <trkpt lat="43.65279" lon="5.64547">
        <ele>327.60000610352</ele>
        <time>2013-05-04T07:41:00.000Z</time>
      </trkpt>
      <trkpt lat="43.65304" lon="5.6456">
        <ele>325.39999389648</ele>
        <time>2013-05-04T07:41:05.000Z</time>
      </trkpt>
      <trkpt lat="43.65329" lon="5.64561">
        <ele>324</ele>
        <time>2013-05-04T07:41:11.000Z</time>
      </trkpt>
      <trkpt lat="43.65327" lon="5.64571">
        <ele>323.60000610352</ele>
        <time>2013-05-04T07:41:14.000Z</time>
      </trkpt>
      <trkpt lat="43.65321" lon="5.64578">
        <ele>323.60000610352</ele>
        <time>2013-05-04T07:41:16.000Z</time>
      </trkpt>
      <trkpt lat="43.65303" lon="5.64586">
        <ele>324</ele>
        <time>2013-05-04T07:41:22.000Z</time>
      </trkpt>
      <trkpt lat="43.65289" lon="5.64581">
        <ele>324.60000610352</ele>
        <time>2013-05-04T07:41:26.000Z</time>
      </trkpt>
      <trkpt lat="43.65274" lon="5.64585">
        <ele>325</ele>
        <time>2013-05-04T07:41:33.000Z</time>
      </trkpt>
      <trkpt lat="43.65272" lon="5.64586">
        <ele>325.20001220703</ele>
        <time>2013-05-04T07:41:34.000Z</time>
      </trkpt>
      <trkpt lat="43.65268" lon="5.64607">
        <ele>325.79998779297</ele>
        <time>2013-05-04T07:41:40.000Z</time>
      </trkpt>
      <trkpt lat="43.65269" lon="5.64612">
        <ele>325.79998779297</ele>
        <time>2013-05-04T07:41:41.000Z</time>
      </trkpt>
      <trkpt lat="43.65271" lon="5.64616">
        <ele>325.79998779297</ele>
        <time>2013-05-04T07:41:42.000Z</time>
      </trkpt>
      <trkpt lat="43.65273" lon="5.64619">
        <ele>325.79998779297</ele>
        <time>2013-05-04T07:41:43.000Z</time>
      </trkpt>
      <trkpt lat="43.65276" lon="5.64622">
        <ele>325.79998779297</ele>
        <time>2013-05-04T07:41:44.000Z</time>
      </trkpt>
      <trkpt lat="43.65278" lon="5.64624">
        <ele>325.60000610352</ele>
        <time>2013-05-04T07:41:45.000Z</time>
      </trkpt>
      <trkpt lat="43.6528" lon="5.64627">
        <ele>325.60000610352</ele>
        <time>2013-05-04T07:41:46.000Z</time>
      </trkpt>
      <trkpt lat="43.65283" lon="5.64629">
        <ele>325.60000610352</ele>
        <time>2013-05-04T07:41:48.000Z</time>
      </trkpt>
      <trkpt lat="43.65285" lon="5.64628">
        <ele>325.60000610352</ele>
        <time>2013-05-04T07:41:49.000Z</time>
      </trkpt>
      <trkpt lat="43.65288" lon="5.64627">
        <ele>325.39999389648</ele>
        <time>2013-05-04T07:41:50.000Z</time>
      </trkpt>
      <trkpt lat="43.65292" lon="5.64628">
        <ele>325.20001220703</ele>
        <time>2013-05-04T07:41:51.000Z</time>
      </trkpt>
      <trkpt lat="43.65296" lon="5.64631">
        <ele>325</ele>
        <time>2013-05-04T07:41:52.000Z</time>
      </trkpt>
      <trkpt lat="43.65299" lon="5.64635">
        <ele>325</ele>
        <time>2013-05-04T07:41:53.000Z</time>
      </trkpt>
      <trkpt lat="43.65304" lon="5.6464">
        <ele>324.79998779297</ele>
        <time>2013-05-04T07:41:55.000Z</time>
      </trkpt>
      <trkpt lat="43.65307" lon="5.6464">
        <ele>324.79998779297</ele>
        <time>2013-05-04T07:41:56.000Z</time>
      </trkpt>
      <trkpt lat="43.65322" lon="5.64638">
        <ele>324</ele>
        <time>2013-05-04T07:42:00.000Z</time>
      </trkpt>
      <trkpt lat="43.65324" lon="5.64641">
        <ele>324</ele>
        <time>2013-05-04T07:42:01.000Z</time>
      </trkpt>
      <trkpt lat="43.65329" lon="5.64645">
        <ele>323.79998779297</ele>
        <time>2013-05-04T07:42:03.000Z</time>
      </trkpt>
      <trkpt lat="43.65332" lon="5.64645">
        <ele>323.60000610352</ele>
        <time>2013-05-04T07:42:04.000Z</time>
      </trkpt>
      <trkpt lat="43.65336" lon="5.64642">
        <ele>323.60000610352</ele>
        <time>2013-05-04T07:42:05.000Z</time>
      </trkpt>
      <trkpt lat="43.65339" lon="5.64638">
        <ele>323.60000610352</ele>
        <time>2013-05-04T07:42:06.000Z</time>
      </trkpt>
      <trkpt lat="43.65342" lon="5.64634">
        <ele>323.60000610352</ele>
        <time>2013-05-04T07:42:07.000Z</time>
      </trkpt>
      <trkpt lat="43.65345" lon="5.64629">
        <ele>323.39999389648</ele>
        <time>2013-05-04T07:42:08.000Z</time>
      </trkpt>
      <trkpt lat="43.65358" lon="5.64603">
        <ele>322.60000610352</ele>
        <time>2013-05-04T07:42:14.000Z</time>
      </trkpt>
      <trkpt lat="43.65358" lon="5.64598">
        <ele>322.39999389648</ele>
        <time>2013-05-04T07:42:15.000Z</time>
      </trkpt>
      <trkpt lat="43.65357" lon="5.64589">
        <ele>322.20001220703</ele>
        <time>2013-05-04T07:42:17.000Z</time>
      </trkpt>
      <trkpt lat="43.6537" lon="5.64569">
        <ele>321.79998779297</ele>
        <time>2013-05-04T07:42:23.000Z</time>
      </trkpt>
      <trkpt lat="43.65383" lon="5.64552">
        <ele>321.39999389648</ele>
        <time>2013-05-04T07:42:29.000Z</time>
      </trkpt>
      <trkpt lat="43.65387" lon="5.64553">
        <ele>321.20001220703</ele>
        <time>2013-05-04T07:42:30.000Z</time>
      </trkpt>
      <trkpt lat="43.65413" lon="5.6454">
        <ele>319.60000610352</ele>
        <time>2013-05-04T07:42:38.000Z</time>
      </trkpt>
      <trkpt lat="43.6542" lon="5.64532">
        <ele>319.39999389648</ele>
        <time>2013-05-04T07:42:40.000Z</time>
      </trkpt>
      <trkpt lat="43.65433" lon="5.64522">
        <ele>319.39999389648</ele>
        <time>2013-05-04T07:42:43.000Z</time>
      </trkpt>
      <trkpt lat="43.65452" lon="5.64492">
        <ele>319</ele>
        <time>2013-05-04T07:42:49.000Z</time>
      </trkpt>
      <trkpt lat="43.65455" lon="5.64487">
        <ele>318.79998779297</ele>
        <time>2013-05-04T07:42:50.000Z</time>
      </trkpt>
      <trkpt lat="43.6546" lon="5.64477">
        <ele>318.39999389648</ele>
        <time>2013-05-04T07:42:52.000Z</time>
      </trkpt>
      <trkpt lat="43.65474" lon="5.64458">
        <ele>318</ele>
        <time>2013-05-04T07:42:57.000Z</time>
      </trkpt>
      <trkpt lat="43.65482" lon="5.64445">
        <ele>317.60000610352</ele>
        <time>2013-05-04T07:43:00.000Z</time>
      </trkpt>
      <trkpt lat="43.65495" lon="5.64422">
        <ele>317</ele>
        <time>2013-05-04T07:43:05.000Z</time>
      </trkpt>
      <trkpt lat="43.65501" lon="5.64396">
        <ele>316.60000610352</ele>
        <time>2013-05-04T07:43:09.000Z</time>
      </trkpt>
      <trkpt lat="43.65503" lon="5.64383">
        <ele>316.60000610352</ele>
        <time>2013-05-04T07:43:11.000Z</time>
      </trkpt>
      <trkpt lat="43.65499" lon="5.64356">
        <ele>315.39999389648</ele>
        <time>2013-05-04T07:43:17.000Z</time>
      </trkpt>
      <trkpt lat="43.65487" lon="5.64329">
        <ele>315</ele>
        <time>2013-05-04T07:43:23.000Z</time>
      </trkpt>
      <trkpt lat="43.65479" lon="5.64321">
        <ele>315.20001220703</ele>
        <time>2013-05-04T07:43:26.000Z</time>
      </trkpt>
      <trkpt lat="43.65464" lon="5.64323">
        <ele>314.60000610352</ele>
        <time>2013-05-04T07:43:30.000Z</time>
      </trkpt>
      <trkpt lat="43.65455" lon="5.64327">
        <ele>314</ele>
        <time>2013-05-04T07:43:32.000Z</time>
      </trkpt>
      <trkpt lat="43.6543" lon="5.64341">
        <ele>313.39999389648</ele>
        <time>2013-05-04T07:43:39.000Z</time>
      </trkpt>
      <trkpt lat="43.65419" lon="5.64354">
        <ele>313.39999389648</ele>
        <time>2013-05-04T07:43:45.000Z</time>
      </trkpt>
      <trkpt lat="43.65417" lon="5.64356">
        <ele>313.39999389648</ele>
        <time>2013-05-04T07:43:46.000Z</time>
      </trkpt>
      <trkpt lat="43.65414" lon="5.64362">
        <ele>313.39999389648</ele>
        <time>2013-05-04T07:43:48.000Z</time>
      </trkpt>
      <trkpt lat="43.65402" lon="5.64369">
        <ele>313.20001220703</ele>
        <time>2013-05-04T07:43:51.000Z</time>
      </trkpt>
      <trkpt lat="43.65384" lon="5.64374">
        <ele>312.60000610352</ele>
        <time>2013-05-04T07:43:55.000Z</time>
      </trkpt>
      <trkpt lat="43.6537" lon="5.64376">
        <ele>312.39999389648</ele>
        <time>2013-05-04T07:43:59.000Z</time>
      </trkpt>
      <trkpt lat="43.65366" lon="5.64378">
        <ele>312.20001220703</ele>
        <time>2013-05-04T07:44:00.000Z</time>
      </trkpt>
      <trkpt lat="43.65351" lon="5.64374">
        <ele>311.39999389648</ele>
        <time>2013-05-04T07:44:04.000Z</time>
      </trkpt>
      <trkpt lat="43.65328" lon="5.64356">
        <ele>310</ele>
        <time>2013-05-04T07:44:10.000Z</time>
      </trkpt>
      <trkpt lat="43.6532" lon="5.64347">
        <ele>310.60000610352</ele>
        <time>2013-05-04T07:44:12.000Z</time>
      </trkpt>
      <trkpt lat="43.65311" lon="5.64321">
        <ele>310.79998779297</ele>
        <time>2013-05-04T07:44:16.000Z</time>
      </trkpt>
      <trkpt lat="43.65308" lon="5.64285">
        <ele>310.79998779297</ele>
        <time>2013-05-04T07:44:22.000Z</time>
      </trkpt>
      <trkpt lat="43.65308" lon="5.64272">
        <ele>310.60000610352</ele>
        <time>2013-05-04T07:44:24.000Z</time>
      </trkpt>
      <trkpt lat="43.65317" lon="5.64241">
        <ele>309.39999389648</ele>
        <time>2013-05-04T07:44:31.000Z</time>
      </trkpt>
      <trkpt lat="43.65334" lon="5.64237">
        <ele>306.60000610352</ele>
        <time>2013-05-04T07:44:36.000Z</time>
      </trkpt>
      <trkpt lat="43.65349" lon="5.64236">
        <ele>307.39999389648</ele>
        <time>2013-05-04T07:44:39.000Z</time>
      </trkpt>
      <trkpt lat="43.6537" lon="5.64223">
        <ele>308.79998779297</ele>
        <time>2013-05-04T07:44:43.000Z</time>
      </trkpt>
      <trkpt lat="43.65384" lon="5.64205">
        <ele>308.60000610352</ele>
        <time>2013-05-04T07:44:47.000Z</time>
      </trkpt>
      <trkpt lat="43.65408" lon="5.64156">
        <ele>304.60000610352</ele>
        <time>2013-05-04T07:44:57.000Z</time>
      </trkpt>
      <trkpt lat="43.65414" lon="5.64138">
        <ele>304.39999389648</ele>
        <time>2013-05-04T07:45:00.000Z</time>
      </trkpt>
      <trkpt lat="43.65437" lon="5.64111">
        <ele>306.20001220703</ele>
        <time>2013-05-04T07:45:06.000Z</time>
      </trkpt>
      <trkpt lat="43.65441" lon="5.64105">
        <ele>306.20001220703</ele>
        <time>2013-05-04T07:45:07.000Z</time>
      </trkpt>
      <trkpt lat="43.65449" lon="5.64091">
        <ele>305.79998779297</ele>
        <time>2013-05-04T07:45:09.000Z</time>
      </trkpt>
      <trkpt lat="43.65463" lon="5.64067">
        <ele>304.79998779297</ele>
        <time>2013-05-04T07:45:13.000Z</time>
      </trkpt>
      <trkpt lat="43.65464" lon="5.64033">
        <ele>303.79998779297</ele>
        <time>2013-05-04T07:45:19.000Z</time>
      </trkpt>
      <trkpt lat="43.65459" lon="5.64017">
        <ele>303.39999389648</ele>
        <time>2013-05-04T07:45:22.000Z</time>
      </trkpt>
      <trkpt lat="43.65453" lon="5.63993">
        <ele>303</ele>
        <time>2013-05-04T07:45:26.000Z</time>
      </trkpt>
      <trkpt lat="43.65451" lon="5.63989">
        <ele>303.20001220703</ele>
        <time>2013-05-04T07:45:27.000Z</time>
      </trkpt>
      <trkpt lat="43.65441" lon="5.63965">
        <ele>302.39999389648</ele>
        <time>2013-05-04T07:45:33.000Z</time>
      </trkpt>
      <trkpt lat="43.65427" lon="5.63937">
        <ele>299.39999389648</ele>
        <time>2013-05-04T07:45:38.000Z</time>
      </trkpt>
      <trkpt lat="43.65424" lon="5.63911">
        <ele>297</ele>
        <time>2013-05-04T07:45:44.000Z</time>
      </trkpt>
      <trkpt lat="43.65428" lon="5.6387">
        <ele>294.39999389648</ele>
        <time>2013-05-04T07:45:51.000Z</time>
      </trkpt>
      <trkpt lat="43.65433" lon="5.63846">
        <ele>293.60000610352</ele>
        <time>2013-05-04T07:45:55.000Z</time>
      </trkpt>
      <trkpt lat="43.65438" lon="5.63817">
        <ele>294</ele>
        <time>2013-05-04T07:45:59.000Z</time>
      </trkpt>
      <trkpt lat="43.6544" lon="5.63794">
        <ele>294.39999389648</ele>
        <time>2013-05-04T07:46:02.000Z</time>
      </trkpt>
      <trkpt lat="43.65451" lon="5.63765">
        <ele>296.20001220703</ele>
        <time>2013-05-04T07:46:06.000Z</time>
      </trkpt>
      <trkpt lat="43.65454" lon="5.63748">
        <ele>296.20001220703</ele>
        <time>2013-05-04T07:46:09.000Z</time>
      </trkpt>
      <trkpt lat="43.65457" lon="5.63724">
        <ele>294.39999389648</ele>
        <time>2013-05-04T07:46:13.000Z</time>
      </trkpt>
      <trkpt lat="43.65459" lon="5.63674">
        <ele>289.20001220703</ele>
        <time>2013-05-04T07:46:19.000Z</time>
      </trkpt>
      <trkpt lat="43.65461" lon="5.63656">
        <ele>287.60000610352</ele>
        <time>2013-05-04T07:46:21.000Z</time>
      </trkpt>
      <trkpt lat="43.65464" lon="5.63631">
        <ele>284.79998779297</ele>
        <time>2013-05-04T07:46:24.000Z</time>
      </trkpt>
      <trkpt lat="43.65468" lon="5.63603">
        <ele>281.20001220703</ele>
        <time>2013-05-04T07:46:28.000Z</time>
      </trkpt>
      <trkpt lat="43.65468" lon="5.63596">
        <ele>280.20001220703</ele>
        <time>2013-05-04T07:46:29.000Z</time>
      </trkpt>
      <trkpt lat="43.6547" lon="5.63589">
        <ele>279</ele>
        <time>2013-05-04T07:46:30.000Z</time>
      </trkpt>
      <trkpt lat="43.65472" lon="5.63585">
        <ele>278.20001220703</ele>
        <time>2013-05-04T07:46:31.000Z</time>
      </trkpt>
      <trkpt lat="43.65474" lon="5.63584">
        <ele>277.79998779297</ele>
        <time>2013-05-04T07:46:32.000Z</time>
      </trkpt>
      <trkpt lat="43.65477" lon="5.63579">
        <ele>277.20001220703</ele>
        <time>2013-05-04T07:46:38.000Z</time>
      </trkpt>
      <trkpt lat="43.65484" lon="5.63557">
        <ele>276.20001220703</ele>
        <time>2013-05-04T07:46:43.000Z</time>
      </trkpt>
      <trkpt lat="43.6549" lon="5.63545">
        <ele>275</ele>
        <time>2013-05-04T07:46:46.000Z</time>
      </trkpt>
      <trkpt lat="43.65493" lon="5.63542">
        <ele>274.39999389648</ele>
        <time>2013-05-04T07:46:47.000Z</time>
      </trkpt>
      <trkpt lat="43.65503" lon="5.63532">
        <ele>272.60000610352</ele>
        <time>2013-05-04T07:46:50.000Z</time>
      </trkpt>
      <trkpt lat="43.65506" lon="5.63529">
        <ele>272.39999389648</ele>
        <time>2013-05-04T07:46:51.000Z</time>
      </trkpt>
      <trkpt lat="43.6552" lon="5.63524">
        <ele>271.60000610352</ele>
        <time>2013-05-04T07:46:54.000Z</time>
      </trkpt>
      <trkpt lat="43.6553" lon="5.63524">
        <ele>271.20001220703</ele>
        <time>2013-05-04T07:46:56.000Z</time>
      </trkpt>
      <trkpt lat="43.65567" lon="5.63524">
        <ele>269.60000610352</ele>
        <time>2013-05-04T07:47:03.000Z</time>
      </trkpt>
      <trkpt lat="43.65572" lon="5.63524">
        <ele>269.39999389648</ele>
        <time>2013-05-04T07:47:04.000Z</time>
      </trkpt>
      <trkpt lat="43.65588" lon="5.63527">
        <ele>269.39999389648</ele>
        <time>2013-05-04T07:47:07.000Z</time>
      </trkpt>
      <trkpt lat="43.65597" lon="5.63525">
        <ele>268.60000610352</ele>
        <time>2013-05-04T07:47:09.000Z</time>
      </trkpt>
      <trkpt lat="43.65611" lon="5.63512">
        <ele>264.60000610352</ele>
        <time>2013-05-04T07:47:13.000Z</time>
      </trkpt>
      <trkpt lat="43.65639" lon="5.63497">
        <ele>261.20001220703</ele>
        <time>2013-05-04T07:47:21.000Z</time>
      </trkpt>
      <trkpt lat="43.6565" lon="5.63493">
        <ele>262.60000610352</ele>
        <time>2013-05-04T07:47:24.000Z</time>
      </trkpt>
      <trkpt lat="43.65673" lon="5.63496">
        <ele>260</ele>
        <time>2013-05-04T07:47:29.000Z</time>
      </trkpt>
      <trkpt lat="43.65684" lon="5.63498">
        <ele>258.39999389648</ele>
        <time>2013-05-04T07:47:31.000Z</time>
      </trkpt>
      <trkpt lat="43.65702" lon="5.63502">
        <ele>256.39999389648</ele>
        <time>2013-05-04T07:47:35.000Z</time>
      </trkpt>
      <trkpt lat="43.65737" lon="5.63481">
        <ele>259.60000610352</ele>
        <time>2013-05-04T07:47:43.000Z</time>
      </trkpt>
      <trkpt lat="43.65764" lon="5.63484">
        <ele>255</ele>
        <time>2013-05-04T07:47:50.000Z</time>
      </trkpt>
      <trkpt lat="43.65768" lon="5.63486">
        <ele>253.80000305176</ele>
        <time>2013-05-04T07:47:51.000Z</time>
      </trkpt>
      <trkpt lat="43.65806" lon="5.63493">
        <ele>247.19999694824</ele>
        <time>2013-05-04T07:47:59.000Z</time>
      </trkpt>
      <trkpt lat="43.65826" lon="5.63495">
        <ele>244.39999389648</ele>
        <time>2013-05-04T07:48:03.000Z</time>
      </trkpt>
      <trkpt lat="43.65842" lon="5.63497">
        <ele>242.19999694824</ele>
        <time>2013-05-04T07:48:06.000Z</time>
      </trkpt>
      <trkpt lat="43.65863" lon="5.63498">
        <ele>239.80000305176</ele>
        <time>2013-05-04T07:48:11.000Z</time>
      </trkpt>
      <trkpt lat="43.6587" lon="5.63498">
        <ele>239</ele>
        <time>2013-05-04T07:48:13.000Z</time>
      </trkpt>
      <trkpt lat="43.65875" lon="5.63491">
        <ele>238.60000610352</ele>
        <time>2013-05-04T07:48:16.000Z</time>
      </trkpt>
      <trkpt lat="43.65882" lon="5.6349">
        <ele>237.80000305176</ele>
        <time>2013-05-04T07:48:22.000Z</time>
      </trkpt>
      <trkpt lat="43.65883" lon="5.63493">
        <ele>237.60000610352</ele>
        <time>2013-05-04T07:48:33.000Z</time>
      </trkpt>
      <trkpt lat="43.65884" lon="5.63496">
        <ele>237.39999389648</ele>
        <time>2013-05-04T07:48:35.000Z</time>
      </trkpt>
      <trkpt lat="43.65887" lon="5.63506">
        <ele>237.60000610352</ele>
        <time>2013-05-04T07:48:40.000Z</time>
      </trkpt>
      <trkpt lat="43.65885" lon="5.63511">
        <ele>238.39999389648</ele>
        <time>2013-05-04T07:48:41.000Z</time>
      </trkpt>
      <trkpt lat="43.65877" lon="5.63526">
        <ele>240.39999389648</ele>
        <time>2013-05-04T07:48:46.000Z</time>
      </trkpt>
      <trkpt lat="43.65875" lon="5.63533">
        <ele>241.19999694824</ele>
        <time>2013-05-04T07:48:49.000Z</time>
      </trkpt>
      <trkpt lat="43.65876" lon="5.63537">
        <ele>241.39999389648</ele>
        <time>2013-05-04T07:48:50.000Z</time>
      </trkpt>
      <trkpt lat="43.65877" lon="5.63542">
        <ele>241.80000305176</ele>
        <time>2013-05-04T07:48:51.000Z</time>
      </trkpt>
      <trkpt lat="43.65879" lon="5.63548">
        <ele>242.19999694824</ele>
        <time>2013-05-04T07:48:52.000Z</time>
      </trkpt>
      <trkpt lat="43.65881" lon="5.63553">
        <ele>242.60000610352</ele>
        <time>2013-05-04T07:48:53.000Z</time>
      </trkpt>
      <trkpt lat="43.65885" lon="5.63557">
        <ele>243</ele>
        <time>2013-05-04T07:48:55.000Z</time>
      </trkpt>
      <trkpt lat="43.65887" lon="5.63556">
        <ele>242.80000305176</ele>
        <time>2013-05-04T07:48:56.000Z</time>
      </trkpt>
      <trkpt lat="43.6589" lon="5.63555">
        <ele>242.60000610352</ele>
        <time>2013-05-04T07:48:57.000Z</time>
      </trkpt>
      <trkpt lat="43.65909" lon="5.63549">
        <ele>241.19999694824</ele>
        <time>2013-05-04T07:49:05.000Z</time>
      </trkpt>
      <trkpt lat="43.6591" lon="5.6355">
        <ele>241.39999389648</ele>
        <time>2013-05-04T07:49:06.000Z</time>
      </trkpt>
      <trkpt lat="43.65911" lon="5.63554">
        <ele>241.80000305176</ele>
        <time>2013-05-04T07:49:13.000Z</time>
      </trkpt>
      <trkpt lat="43.65906" lon="5.63564">
        <ele>243.19999694824</ele>
        <time>2013-05-04T07:49:23.000Z</time>
      </trkpt>
      <trkpt lat="43.65905" lon="5.63561">
        <ele>243</ele>
        <time>2013-05-04T07:49:42.000Z</time>
      </trkpt>
      <trkpt lat="43.65904" lon="5.63558">
        <ele>242.60000610352</ele>
        <time>2013-05-04T07:50:09.000Z</time>
      </trkpt>
      <trkpt lat="43.65907" lon="5.6356">
        <ele>242.80000305176</ele>
        <time>2013-05-04T07:50:29.000Z</time>
      </trkpt>
      <trkpt lat="43.65908" lon="5.63564">
        <ele>243.19999694824</ele>
        <time>2013-05-04T07:50:46.000Z</time>
      </trkpt>
      <trkpt lat="43.65907" lon="5.63567">
        <ele>243.60000610352</ele>
        <time>2013-05-04T07:50:54.000Z</time>
      </trkpt>
      <trkpt lat="43.65906" lon="5.63567">
        <ele>243.80000305176</ele>
        <time>2013-05-04T07:50:55.000Z</time>
      </trkpt>
      <trkpt lat="43.65905" lon="5.63569">
        <ele>243.80000305176</ele>
        <time>2013-05-04T07:50:56.000Z</time>
      </trkpt>
      <trkpt lat="43.65902" lon="5.63571">
        <ele>244.19999694824</ele>
        <time>2013-05-04T07:50:58.000Z</time>
      </trkpt>
      <trkpt lat="43.659" lon="5.63572">
        <ele>244.19999694824</ele>
        <time>2013-05-04T07:50:59.000Z</time>
      </trkpt>
      <trkpt lat="43.65898" lon="5.63572">
        <ele>244.39999389648</ele>
        <time>2013-05-04T07:51:00.000Z</time>
      </trkpt>
      <trkpt lat="43.65888" lon="5.63578">
        <ele>245</ele>
        <time>2013-05-04T07:51:04.000Z</time>
      </trkpt>
      <trkpt lat="43.65888" lon="5.63581">
        <ele>245.19999694824</ele>
        <time>2013-05-04T07:51:05.000Z</time>
      </trkpt>
      <trkpt lat="43.65889" lon="5.63584">
        <ele>245.60000610352</ele>
        <time>2013-05-04T07:51:06.000Z</time>
      </trkpt>
      <trkpt lat="43.65891" lon="5.63586">
        <ele>246.19999694824</ele>
        <time>2013-05-04T07:51:07.000Z</time>
      </trkpt>
      <trkpt lat="43.65894" lon="5.63587">
        <ele>246.39999389648</ele>
        <time>2013-05-04T07:51:08.000Z</time>
      </trkpt>
      <trkpt lat="43.65896" lon="5.63587">
        <ele>246.39999389648</ele>
        <time>2013-05-04T07:51:09.000Z</time>
      </trkpt>
      <trkpt lat="43.65899" lon="5.63586">
        <ele>246.39999389648</ele>
        <time>2013-05-04T07:51:10.000Z</time>
      </trkpt>
      <trkpt lat="43.65916" lon="5.63577">
        <ele>245</ele>
        <time>2013-05-04T07:51:18.000Z</time>
      </trkpt>
      <trkpt lat="43.6592" lon="5.63579">
        <ele>245</ele>
        <time>2013-05-04T07:51:20.000Z</time>
      </trkpt>
      <trkpt lat="43.65922" lon="5.63581">
        <ele>245.19999694824</ele>
        <time>2013-05-04T07:51:21.000Z</time>
      </trkpt>
      <trkpt lat="43.65923" lon="5.63584">
        <ele>245.39999389648</ele>
        <time>2013-05-04T07:51:22.000Z</time>
      </trkpt>
      <trkpt lat="43.65924" lon="5.63587">
        <ele>246.39999389648</ele>
        <time>2013-05-04T07:51:23.000Z</time>
      </trkpt>
      <trkpt lat="43.65923" lon="5.6359">
        <ele>247.39999389648</ele>
        <time>2013-05-04T07:51:24.000Z</time>
      </trkpt>
      <trkpt lat="43.65921" lon="5.63593">
        <ele>248.19999694824</ele>
        <time>2013-05-04T07:51:25.000Z</time>
      </trkpt>
      <trkpt lat="43.65919" lon="5.63595">
        <ele>249</ele>
        <time>2013-05-04T07:51:26.000Z</time>
      </trkpt>
      <trkpt lat="43.65916" lon="5.63596">
        <ele>249.60000610352</ele>
        <time>2013-05-04T07:51:27.000Z</time>
      </trkpt>
      <trkpt lat="43.65914" lon="5.63596">
        <ele>249.80000305176</ele>
        <time>2013-05-04T07:51:28.000Z</time>
      </trkpt>
      <trkpt lat="43.65911" lon="5.63597">
        <ele>249.80000305176</ele>
        <time>2013-05-04T07:51:29.000Z</time>
      </trkpt>
      <trkpt lat="43.65889" lon="5.63607">
        <ele>251.19999694824</ele>
        <time>2013-05-04T07:51:40.000Z</time>
      </trkpt>
      <trkpt lat="43.65882" lon="5.63618">
        <ele>253.19999694824</ele>
        <time>2013-05-04T07:51:45.000Z</time>
      </trkpt>
      <trkpt lat="43.65874" lon="5.63642">
        <ele>257.60000610352</ele>
        <time>2013-05-04T07:51:54.000Z</time>
      </trkpt>
      <trkpt lat="43.65863" lon="5.63667">
        <ele>260.79998779297</ele>
        <time>2013-05-04T07:52:04.000Z</time>
      </trkpt>
      <trkpt lat="43.65849" lon="5.63701">
        <ele>263</ele>
        <time>2013-05-04T07:52:15.000Z</time>
      </trkpt>
      <trkpt lat="43.65835" lon="5.63737">
        <ele>263.79998779297</ele>
        <time>2013-05-04T07:52:26.000Z</time>
      </trkpt>
      <trkpt lat="43.65825" lon="5.63769">
        <ele>268.60000610352</ele>
        <time>2013-05-04T07:52:36.000Z</time>
      </trkpt>
      <trkpt lat="43.65819" lon="5.63796">
        <ele>272.60000610352</ele>
        <time>2013-05-04T07:52:44.000Z</time>
      </trkpt>
      <trkpt lat="43.65819" lon="5.63825">
        <ele>275.60000610352</ele>
        <time>2013-05-04T07:52:53.000Z</time>
      </trkpt>
      <trkpt lat="43.65822" lon="5.63847">
        <ele>277.39999389648</ele>
        <time>2013-05-04T07:52:58.000Z</time>
      </trkpt>
      <trkpt lat="43.65824" lon="5.63862">
        <ele>278.39999389648</ele>
        <time>2013-05-04T07:53:02.000Z</time>
      </trkpt>
      <trkpt lat="43.65823" lon="5.63865">
        <ele>278.60000610352</ele>
        <time>2013-05-04T07:53:03.000Z</time>
      </trkpt>
      <trkpt lat="43.65824" lon="5.63869">
        <ele>278.79998779297</ele>
        <time>2013-05-04T07:53:04.000Z</time>
      </trkpt>
      <trkpt lat="43.65828" lon="5.639">
        <ele>280.79998779297</ele>
        <time>2013-05-04T07:53:14.000Z</time>
      </trkpt>
      <trkpt lat="43.65828" lon="5.63904">
        <ele>281</ele>
        <time>2013-05-04T07:53:15.000Z</time>
      </trkpt>
      <trkpt lat="43.65828" lon="5.63937">
        <ele>283.20001220703</ele>
        <time>2013-05-04T07:53:24.000Z</time>
      </trkpt>
      <trkpt lat="43.65821" lon="5.63972">
        <ele>286.39999389648</ele>
        <time>2013-05-04T07:53:34.000Z</time>
      </trkpt>
      <trkpt lat="43.6582" lon="5.64012">
        <ele>288.39999389648</ele>
        <time>2013-05-04T07:53:44.000Z</time>
      </trkpt>
      <trkpt lat="43.65819" lon="5.64058">
        <ele>290.20001220703</ele>
        <time>2013-05-04T07:53:56.000Z</time>
      </trkpt>
      <trkpt lat="43.65823" lon="5.64075">
        <ele>290.20001220703</ele>
        <time>2013-05-04T07:54:01.000Z</time>
      </trkpt>
      <trkpt lat="43.65826" lon="5.64076">
        <ele>290.20001220703</ele>
        <time>2013-05-04T07:54:02.000Z</time>
      </trkpt>
      <trkpt lat="43.65829" lon="5.64077">
        <ele>290</ele>
        <time>2013-05-04T07:54:03.000Z</time>
      </trkpt>
      <trkpt lat="43.65832" lon="5.64077">
        <ele>289.79998779297</ele>
        <time>2013-05-04T07:54:04.000Z</time>
      </trkpt>
      <trkpt lat="43.65834" lon="5.64075">
        <ele>289.79998779297</ele>
        <time>2013-05-04T07:54:05.000Z</time>
      </trkpt>
      <trkpt lat="43.65836" lon="5.64073">
        <ele>290.39999389648</ele>
        <time>2013-05-04T07:54:06.000Z</time>
      </trkpt>
      <trkpt lat="43.65837" lon="5.64069">
        <ele>290.60000610352</ele>
        <time>2013-05-04T07:54:07.000Z</time>
      </trkpt>
      <trkpt lat="43.65837" lon="5.64066">
        <ele>290.39999389648</ele>
        <time>2013-05-04T07:54:08.000Z</time>
      </trkpt>
      <trkpt lat="43.65837" lon="5.64062">
        <ele>290.20001220703</ele>
        <time>2013-05-04T07:54:09.000Z</time>
      </trkpt>
      <trkpt lat="43.65834" lon="5.64046">
        <ele>288.39999389648</ele>
        <time>2013-05-04T07:54:14.000Z</time>
      </trkpt>
      <trkpt lat="43.65834" lon="5.64043">
        <ele>288.20001220703</ele>
        <time>2013-05-04T07:54:15.000Z</time>
      </trkpt>
      <trkpt lat="43.65835" lon="5.6404">
        <ele>288.39999389648</ele>
        <time>2013-05-04T07:54:16.000Z</time>
      </trkpt>
      <trkpt lat="43.65836" lon="5.64037">
        <ele>288.79998779297</ele>
        <time>2013-05-04T07:54:17.000Z</time>
      </trkpt>
      <trkpt lat="43.65838" lon="5.64036">
        <ele>289.60000610352</ele>
        <time>2013-05-04T07:54:18.000Z</time>
      </trkpt>
      <trkpt lat="43.65841" lon="5.64036">
        <ele>290.60000610352</ele>
        <time>2013-05-04T07:54:19.000Z</time>
      </trkpt>
      <trkpt lat="43.65843" lon="5.64036">
        <ele>291.60000610352</ele>
        <time>2013-05-04T07:54:20.000Z</time>
      </trkpt>
      <trkpt lat="43.65845" lon="5.64038">
        <ele>292.39999389648</ele>
        <time>2013-05-04T07:54:21.000Z</time>
      </trkpt>
      <trkpt lat="43.65846" lon="5.6404">
        <ele>293</ele>
        <time>2013-05-04T07:54:22.000Z</time>
      </trkpt>
      <trkpt lat="43.65847" lon="5.64043">
        <ele>293.39999389648</ele>
        <time>2013-05-04T07:54:23.000Z</time>
      </trkpt>
      <trkpt lat="43.65848" lon="5.64046">
        <ele>293.60000610352</ele>
        <time>2013-05-04T07:54:24.000Z</time>
      </trkpt>
      <trkpt lat="43.65848" lon="5.6405">
        <ele>293.79998779297</ele>
        <time>2013-05-04T07:54:25.000Z</time>
      </trkpt>
      <trkpt lat="43.65848" lon="5.64053">
        <ele>294</ele>
        <time>2013-05-04T07:54:26.000Z</time>
      </trkpt>
      <trkpt lat="43.65848" lon="5.64072">
        <ele>295</ele>
        <time>2013-05-04T07:54:32.000Z</time>
      </trkpt>
      <trkpt lat="43.65849" lon="5.64086">
        <ele>295.60000610352</ele>
        <time>2013-05-04T07:54:36.000Z</time>
      </trkpt>
      <trkpt lat="43.65856" lon="5.64121">
        <ele>301</ele>
        <time>2013-05-04T07:54:45.000Z</time>
      </trkpt>
      <trkpt lat="43.65854" lon="5.64162">
        <ele>303.79998779297</ele>
        <time>2013-05-04T07:54:54.000Z</time>
      </trkpt>
      <trkpt lat="43.65841" lon="5.64188">
        <ele>302.60000610352</ele>
        <time>2013-05-04T07:55:01.000Z</time>
      </trkpt>
      <trkpt lat="43.65838" lon="5.64186">
        <ele>301.20001220703</ele>
        <time>2013-05-04T07:55:02.000Z</time>
      </trkpt>
      <trkpt lat="43.65835" lon="5.64183">
        <ele>300</ele>
        <time>2013-05-04T07:55:03.000Z</time>
      </trkpt>
      <trkpt lat="43.65832" lon="5.64178">
        <ele>299.20001220703</ele>
        <time>2013-05-04T07:55:04.000Z</time>
      </trkpt>
      <trkpt lat="43.6583" lon="5.64172">
        <ele>298.79998779297</ele>
        <time>2013-05-04T07:55:05.000Z</time>
      </trkpt>
      <trkpt lat="43.65809" lon="5.64131">
        <ele>297</ele>
        <time>2013-05-04T07:55:15.000Z</time>
      </trkpt>
      <trkpt lat="43.65782" lon="5.64125">
        <ele>298.79998779297</ele>
        <time>2013-05-04T07:55:24.000Z</time>
      </trkpt>
      <trkpt lat="43.65754" lon="5.64134">
        <ele>302.79998779297</ele>
        <time>2013-05-04T07:55:34.000Z</time>
      </trkpt>
      <trkpt lat="43.6573" lon="5.64135">
        <ele>305.39999389648</ele>
        <time>2013-05-04T07:55:43.000Z</time>
      </trkpt>
      <trkpt lat="43.65694" lon="5.64136">
        <ele>309.20001220703</ele>
        <time>2013-05-04T07:55:55.000Z</time>
      </trkpt>
      <trkpt lat="43.65663" lon="5.64135">
        <ele>312.20001220703</ele>
        <time>2013-05-04T07:56:05.000Z</time>
      </trkpt>
      <trkpt lat="43.65642" lon="5.64117">
        <ele>312.60000610352</ele>
        <time>2013-05-04T07:56:13.000Z</time>
      </trkpt>
      <trkpt lat="43.65616" lon="5.64088">
        <ele>313.79998779297</ele>
        <time>2013-05-04T07:56:24.000Z</time>
      </trkpt>
      <trkpt lat="43.656" lon="5.64083">
        <ele>315.79998779297</ele>
        <time>2013-05-04T07:56:31.000Z</time>
      </trkpt>
      <trkpt lat="43.65573" lon="5.64098">
        <ele>316.79998779297</ele>
        <time>2013-05-04T07:56:41.000Z</time>
      </trkpt>
      <trkpt lat="43.65548" lon="5.64118">
        <ele>315.60000610352</ele>
        <time>2013-05-04T07:56:51.000Z</time>
      </trkpt>
      <trkpt lat="43.65523" lon="5.64154">
        <ele>318.20001220703</ele>
        <time>2013-05-04T07:57:02.000Z</time>
      </trkpt>
      <trkpt lat="43.65497" lon="5.64176">
        <ele>319.60000610352</ele>
        <time>2013-05-04T07:57:12.000Z</time>
      </trkpt>
      <trkpt lat="43.65469" lon="5.64207">
        <ele>316</ele>
        <time>2013-05-04T07:57:24.000Z</time>
      </trkpt>
      <trkpt lat="43.6547" lon="5.6424">
        <ele>318</ele>
        <time>2013-05-04T07:57:32.000Z</time>
      </trkpt>
      <trkpt lat="43.65481" lon="5.64248">
        <ele>319.79998779297</ele>
        <time>2013-05-04T07:57:35.000Z</time>
      </trkpt>
      <trkpt lat="43.65513" lon="5.64267">
        <ele>321.39999389648</ele>
        <time>2013-05-04T07:57:42.000Z</time>
      </trkpt>
      <trkpt lat="43.65522" lon="5.64276">
        <ele>321.79998779297</ele>
        <time>2013-05-04T07:57:44.000Z</time>
      </trkpt>
      <trkpt lat="43.65527" lon="5.6428">
        <ele>322</ele>
        <time>2013-05-04T07:57:45.000Z</time>
      </trkpt>
      <trkpt lat="43.65533" lon="5.64283">
        <ele>322.39999389648</ele>
        <time>2013-05-04T07:57:46.000Z</time>
      </trkpt>
      <trkpt lat="43.65545" lon="5.64293">
        <ele>323.39999389648</ele>
        <time>2013-05-04T07:57:49.000Z</time>
      </trkpt>
      <trkpt lat="43.65552" lon="5.64299">
        <ele>324.20001220703</ele>
        <time>2013-05-04T07:57:51.000Z</time>
      </trkpt>
      <trkpt lat="43.65555" lon="5.643">
        <ele>324.60000610352</ele>
        <time>2013-05-04T07:57:52.000Z</time>
      </trkpt>
      <trkpt lat="43.65559" lon="5.64301">
        <ele>325</ele>
        <time>2013-05-04T07:57:53.000Z</time>
      </trkpt>
      <trkpt lat="43.65563" lon="5.643">
        <ele>325.39999389648</ele>
        <time>2013-05-04T07:57:54.000Z</time>
      </trkpt>
      <trkpt lat="43.65566" lon="5.64299">
        <ele>326</ele>
        <time>2013-05-04T07:57:55.000Z</time>
      </trkpt>
      <trkpt lat="43.65569" lon="5.64297">
        <ele>326.39999389648</ele>
        <time>2013-05-04T07:57:56.000Z</time>
      </trkpt>
      <trkpt lat="43.65572" lon="5.64295">
        <ele>326.60000610352</ele>
        <time>2013-05-04T07:57:57.000Z</time>
      </trkpt>
      <trkpt lat="43.65575" lon="5.64292">
        <ele>327</ele>
        <time>2013-05-04T07:57:58.000Z</time>
      </trkpt>
      <trkpt lat="43.65578" lon="5.6429">
        <ele>327.20001220703</ele>
        <time>2013-05-04T07:57:59.000Z</time>
      </trkpt>
      <trkpt lat="43.65581" lon="5.64289">
        <ele>327.60000610352</ele>
        <time>2013-05-04T07:58:00.000Z</time>
      </trkpt>
      <trkpt lat="43.65585" lon="5.64289">
        <ele>327.79998779297</ele>
        <time>2013-05-04T07:58:01.000Z</time>
      </trkpt>
      <trkpt lat="43.65589" lon="5.6429">
        <ele>328</ele>
        <time>2013-05-04T07:58:02.000Z</time>
      </trkpt>
      <trkpt lat="43.65598" lon="5.64305">
        <ele>328.60000610352</ele>
        <time>2013-05-04T07:58:06.000Z</time>
      </trkpt>
      <trkpt lat="43.65601" lon="5.64341">
        <ele>329.60000610352</ele>
        <time>2013-05-04T07:58:16.000Z</time>
      </trkpt>
      <trkpt lat="43.65602" lon="5.64343">
        <ele>329.60000610352</ele>
        <time>2013-05-04T07:58:17.000Z</time>
      </trkpt>
      <trkpt lat="43.65602" lon="5.64345">
        <ele>329.79998779297</ele>
        <time>2013-05-04T07:58:19.000Z</time>
      </trkpt>
      <trkpt lat="43.65599" lon="5.64346">
        <ele>329.60000610352</ele>
        <time>2013-05-04T07:58:31.000Z</time>
      </trkpt>
      <trkpt lat="43.65598" lon="5.64344">
        <ele>329.60000610352</ele>
        <time>2013-05-04T07:58:45.000Z</time>
      </trkpt>
      <trkpt lat="43.65599" lon="5.64347">
        <ele>329.60000610352</ele>
        <time>2013-05-04T07:59:01.000Z</time>
      </trkpt>
      <trkpt lat="43.65599" lon="5.64348">
        <ele>329.60000610352</ele>
        <time>2013-05-04T07:59:16.000Z</time>
      </trkpt>
      <trkpt lat="43.65599" lon="5.6435">
        <ele>329.60000610352</ele>
        <time>2013-05-04T07:59:32.000Z</time>
      </trkpt>
      <trkpt lat="43.65598" lon="5.64346">
        <ele>329.60000610352</ele>
        <time>2013-05-04T07:59:49.000Z</time>
      </trkpt>
      <trkpt lat="43.65598" lon="5.64345">
        <ele>329.60000610352</ele>
        <time>2013-05-04T08:00:08.000Z</time>
      </trkpt>
      <trkpt lat="43.65598" lon="5.64345">
        <ele>329.60000610352</ele>
        <time>2013-05-04T08:00:24.000Z</time>
      </trkpt>
      <trkpt lat="43.65598" lon="5.64344">
        <ele>329.60000610352</ele>
        <time>2013-05-04T08:00:41.000Z</time>
      </trkpt>
      <trkpt lat="43.65597" lon="5.64343">
        <ele>329.60000610352</ele>
        <time>2013-05-04T08:01:02.000Z</time>
      </trkpt>
      <trkpt lat="43.65598" lon="5.64345">
        <ele>329.60000610352</ele>
        <time>2013-05-04T08:01:18.000Z</time>
      </trkpt>
      <trkpt lat="43.65599" lon="5.64349">
        <ele>329.60000610352</ele>
        <time>2013-05-04T08:01:26.000Z</time>
      </trkpt>
      <trkpt lat="43.656" lon="5.6435">
        <ele>329.60000610352</ele>
        <time>2013-05-04T08:01:41.000Z</time>
      </trkpt>
      <trkpt lat="43.656" lon="5.64353">
        <ele>329.79998779297</ele>
        <time>2013-05-04T08:01:56.000Z</time>
      </trkpt>
      <trkpt lat="43.65601" lon="5.64355">
        <ele>329.79998779297</ele>
        <time>2013-05-04T08:01:57.000Z</time>
      </trkpt>
      <trkpt lat="43.65601" lon="5.64357">
        <ele>329.79998779297</ele>
        <time>2013-05-04T08:01:58.000Z</time>
      </trkpt>
      <trkpt lat="43.65603" lon="5.64389">
        <ele>330.20001220703</ele>
        <time>2013-05-04T08:02:05.000Z</time>
      </trkpt>
      <trkpt lat="43.65604" lon="5.64405">
        <ele>330.60000610352</ele>
        <time>2013-05-04T08:02:07.000Z</time>
      </trkpt>
      <trkpt lat="43.65604" lon="5.64413">
        <ele>330.60000610352</ele>
        <time>2013-05-04T08:02:08.000Z</time>
      </trkpt>
      <trkpt lat="43.65613" lon="5.64467">
        <ele>331.60000610352</ele>
        <time>2013-05-04T08:02:18.000Z</time>
      </trkpt>
      <trkpt lat="43.65619" lon="5.64525">
        <ele>332.60000610352</ele>
        <time>2013-05-04T08:02:29.000Z</time>
      </trkpt>
      <trkpt lat="43.65619" lon="5.64531">
        <ele>332.60000610352</ele>
        <time>2013-05-04T08:02:30.000Z</time>
      </trkpt>
      <trkpt lat="43.65607" lon="5.64596">
        <ele>332.39999389648</ele>
        <time>2013-05-04T08:02:42.000Z</time>
      </trkpt>
      <trkpt lat="43.65594" lon="5.64658">
        <ele>332.39999389648</ele>
        <time>2013-05-04T08:02:54.000Z</time>
      </trkpt>
      <trkpt lat="43.65594" lon="5.64667">
        <ele>332.60000610352</ele>
        <time>2013-05-04T08:02:56.000Z</time>
      </trkpt>
      <trkpt lat="43.65597" lon="5.6467">
        <ele>332.79998779297</ele>
        <time>2013-05-04T08:02:57.000Z</time>
      </trkpt>
      <trkpt lat="43.656" lon="5.64671">
        <ele>333.20001220703</ele>
        <time>2013-05-04T08:02:58.000Z</time>
      </trkpt>
      <trkpt lat="43.65603" lon="5.64671">
        <ele>333.39999389648</ele>
        <time>2013-05-04T08:02:59.000Z</time>
      </trkpt>
      <trkpt lat="43.65606" lon="5.6467">
        <ele>333.60000610352</ele>
        <time>2013-05-04T08:03:00.000Z</time>
      </trkpt>
      <trkpt lat="43.65634" lon="5.64681">
        <ele>336.20001220703</ele>
        <time>2013-05-04T08:03:10.000Z</time>
      </trkpt>
      <trkpt lat="43.65661" lon="5.64688">
        <ele>339</ele>
        <time>2013-05-04T08:03:21.000Z</time>
      </trkpt>
      <trkpt lat="43.65683" lon="5.64689">
        <ele>342.20001220703</ele>
        <time>2013-05-04T08:03:31.000Z</time>
      </trkpt>
      <trkpt lat="43.65703" lon="5.64679">
        <ele>344</ele>
        <time>2013-05-04T08:03:41.000Z</time>
      </trkpt>
      <trkpt lat="43.65713" lon="5.6467">
        <ele>344.39999389648</ele>
        <time>2013-05-04T08:03:46.000Z</time>
      </trkpt>
      <trkpt lat="43.65715" lon="5.64671">
        <ele>345</ele>
        <time>2013-05-04T08:03:47.000Z</time>
      </trkpt>
      <trkpt lat="43.65718" lon="5.64672">
        <ele>345.60000610352</ele>
        <time>2013-05-04T08:03:48.000Z</time>
      </trkpt>
      <trkpt lat="43.6572" lon="5.64673">
        <ele>346</ele>
        <time>2013-05-04T08:03:49.000Z</time>
      </trkpt>
      <trkpt lat="43.65721" lon="5.64675">
        <ele>346.39999389648</ele>
        <time>2013-05-04T08:03:50.000Z</time>
      </trkpt>
      <trkpt lat="43.65721" lon="5.64677">
        <ele>346.79998779297</ele>
        <time>2013-05-04T08:03:51.000Z</time>
      </trkpt>
      <trkpt lat="43.65722" lon="5.6468">
        <ele>347.20001220703</ele>
        <time>2013-05-04T08:03:52.000Z</time>
      </trkpt>
      <trkpt lat="43.65722" lon="5.64682">
        <ele>347.39999389648</ele>
        <time>2013-05-04T08:03:53.000Z</time>
      </trkpt>
      <trkpt lat="43.6573" lon="5.64697">
        <ele>350.60000610352</ele>
        <time>2013-05-04T08:04:00.000Z</time>
      </trkpt>
      <trkpt lat="43.65752" lon="5.647">
        <ele>354.39999389648</ele>
        <time>2013-05-04T08:04:11.000Z</time>
      </trkpt>
      <trkpt lat="43.65776" lon="5.64693">
        <ele>355.60000610352</ele>
        <time>2013-05-04T08:04:21.000Z</time>
      </trkpt>
      <trkpt lat="43.65802" lon="5.64683">
        <ele>357</ele>
        <time>2013-05-04T08:04:32.000Z</time>
      </trkpt>
      <trkpt lat="43.65812" lon="5.64681">
        <ele>357.79998779297</ele>
        <time>2013-05-04T08:04:36.000Z</time>
      </trkpt>
      <trkpt lat="43.65835" lon="5.647">
        <ele>360.79998779297</ele>
        <time>2013-05-04T08:04:46.000Z</time>
      </trkpt>
      <trkpt lat="43.6584" lon="5.64725">
        <ele>362</ele>
        <time>2013-05-04T08:04:54.000Z</time>
      </trkpt>
      <trkpt lat="43.65838" lon="5.64728">
        <ele>362.39999389648</ele>
        <time>2013-05-04T08:04:55.000Z</time>
      </trkpt>
      <trkpt lat="43.65824" lon="5.64759">
        <ele>363.79998779297</ele>
        <time>2013-05-04T08:05:06.000Z</time>
      </trkpt>
      <trkpt lat="43.65808" lon="5.64791">
        <ele>364.60000610352</ele>
        <time>2013-05-04T08:05:17.000Z</time>
      </trkpt>
      <trkpt lat="43.65805" lon="5.64797">
        <ele>364.79998779297</ele>
        <time>2013-05-04T08:05:19.000Z</time>
      </trkpt>
      <trkpt lat="43.65805" lon="5.648">
        <ele>365</ele>
        <time>2013-05-04T08:05:20.000Z</time>
      </trkpt>
      <trkpt lat="43.65806" lon="5.64805">
        <ele>365</ele>
        <time>2013-05-04T08:05:21.000Z</time>
      </trkpt>
      <trkpt lat="43.6581" lon="5.64825">
        <ele>365.79998779297</ele>
        <time>2013-05-04T08:05:26.000Z</time>
      </trkpt>
      <trkpt lat="43.6581" lon="5.64829">
        <ele>365.79998779297</ele>
        <time>2013-05-04T08:05:27.000Z</time>
      </trkpt>
      <trkpt lat="43.65808" lon="5.64837">
        <ele>366.20001220703</ele>
        <time>2013-05-04T08:05:29.000Z</time>
      </trkpt>
      <trkpt lat="43.65806" lon="5.6484">
        <ele>366.20001220703</ele>
        <time>2013-05-04T08:05:30.000Z</time>
      </trkpt>
      <trkpt lat="43.65803" lon="5.64842">
        <ele>366.39999389648</ele>
        <time>2013-05-04T08:05:31.000Z</time>
      </trkpt>
      <trkpt lat="43.65801" lon="5.64845">
        <ele>366.60000610352</ele>
        <time>2013-05-04T08:05:32.000Z</time>
      </trkpt>
      <trkpt lat="43.65798" lon="5.64847">
        <ele>366.79998779297</ele>
        <time>2013-05-04T08:05:33.000Z</time>
      </trkpt>
      <trkpt lat="43.65796" lon="5.64849">
        <ele>366.79998779297</ele>
        <time>2013-05-04T08:05:34.000Z</time>
      </trkpt>
      <trkpt lat="43.65794" lon="5.64851">
        <ele>367</ele>
        <time>2013-05-04T08:05:35.000Z</time>
      </trkpt>
      <trkpt lat="43.65792" lon="5.64851">
        <ele>367.20001220703</ele>
        <time>2013-05-04T08:05:36.000Z</time>
      </trkpt>
      <trkpt lat="43.65789" lon="5.64852">
        <ele>367.20001220703</ele>
        <time>2013-05-04T08:05:37.000Z</time>
      </trkpt>
      <trkpt lat="43.65786" lon="5.64853">
        <ele>367.39999389648</ele>
        <time>2013-05-04T08:05:38.000Z</time>
      </trkpt>
      <trkpt lat="43.65783" lon="5.64854">
        <ele>367.60000610352</ele>
        <time>2013-05-04T08:05:39.000Z</time>
      </trkpt>
      <trkpt lat="43.65779" lon="5.64856">
        <ele>367.79998779297</ele>
        <time>2013-05-04T08:05:40.000Z</time>
      </trkpt>
      <trkpt lat="43.65776" lon="5.64858">
        <ele>368</ele>
        <time>2013-05-04T08:05:41.000Z</time>
      </trkpt>
      <trkpt lat="43.65774" lon="5.64861">
        <ele>368.20001220703</ele>
        <time>2013-05-04T08:05:42.000Z</time>
      </trkpt>
      <trkpt lat="43.65772" lon="5.64864">
        <ele>368.39999389648</ele>
        <time>2013-05-04T08:05:43.000Z</time>
      </trkpt>
      <trkpt lat="43.6577" lon="5.64868">
        <ele>368.60000610352</ele>
        <time>2013-05-04T08:05:44.000Z</time>
      </trkpt>
      <trkpt lat="43.65743" lon="5.64889">
        <ele>369.39999389648</ele>
        <time>2013-05-04T08:05:55.000Z</time>
      </trkpt>
      <trkpt lat="43.65724" lon="5.64896">
        <ele>367.20001220703</ele>
        <time>2013-05-04T08:06:04.000Z</time>
      </trkpt>
      <trkpt lat="43.65709" lon="5.64918">
        <ele>366.39999389648</ele>
        <time>2013-05-04T08:06:12.000Z</time>
      </trkpt>
      <trkpt lat="43.65706" lon="5.64961">
        <ele>367</ele>
        <time>2013-05-04T08:06:24.000Z</time>
      </trkpt>
      <trkpt lat="43.65712" lon="5.65004">
        <ele>368.39999389648</ele>
        <time>2013-05-04T08:06:36.000Z</time>
      </trkpt>
      <trkpt lat="43.65709" lon="5.65038">
        <ele>369.39999389648</ele>
        <time>2013-05-04T08:06:46.000Z</time>
      </trkpt>
      <trkpt lat="43.65705" lon="5.65067">
        <ele>370</ele>
        <time>2013-05-04T08:06:56.000Z</time>
      </trkpt>
      <trkpt lat="43.65704" lon="5.65096">
        <ele>370.60000610352</ele>
        <time>2013-05-04T08:07:06.000Z</time>
      </trkpt>
      <trkpt lat="43.65702" lon="5.65129">
        <ele>370.39999389648</ele>
        <time>2013-05-04T08:07:17.000Z</time>
      </trkpt>
      <trkpt lat="43.657" lon="5.6517">
        <ele>370.20001220703</ele>
        <time>2013-05-04T08:07:29.000Z</time>
      </trkpt>
      <trkpt lat="43.65696" lon="5.65207">
        <ele>370</ele>
        <time>2013-05-04T08:07:39.000Z</time>
      </trkpt>
      <trkpt lat="43.65693" lon="5.6525">
        <ele>370</ele>
        <time>2013-05-04T08:07:49.000Z</time>
      </trkpt>
      <trkpt lat="43.65699" lon="5.65301">
        <ele>370.20001220703</ele>
        <time>2013-05-04T08:07:58.000Z</time>
      </trkpt>
      <trkpt lat="43.65702" lon="5.65365">
        <ele>369.60000610352</ele>
        <time>2013-05-04T08:08:10.000Z</time>
      </trkpt>
      <trkpt lat="43.65699" lon="5.65421">
        <ele>368.60000610352</ele>
        <time>2013-05-04T08:08:21.000Z</time>
      </trkpt>
      <trkpt lat="43.65697" lon="5.65455">
        <ele>370</ele>
        <time>2013-05-04T08:08:29.000Z</time>
      </trkpt>
      <trkpt lat="43.65694" lon="5.65471">
        <ele>370.39999389648</ele>
        <time>2013-05-04T08:08:33.000Z</time>
      </trkpt>
      <trkpt lat="43.65685" lon="5.6552">
        <ele>371.79998779297</ele>
        <time>2013-05-04T08:08:44.000Z</time>
      </trkpt>
      <trkpt lat="43.65676" lon="5.65578">
        <ele>373.20001220703</ele>
        <time>2013-05-04T08:08:56.000Z</time>
      </trkpt>
      <trkpt lat="43.65675" lon="5.65589">
        <ele>373.39999389648</ele>
        <time>2013-05-04T08:08:58.000Z</time>
      </trkpt>
      <trkpt lat="43.65673" lon="5.65594">
        <ele>373.60000610352</ele>
        <time>2013-05-04T08:08:59.000Z</time>
      </trkpt>
      <trkpt lat="43.65659" lon="5.65662">
        <ele>374.79998779297</ele>
        <time>2013-05-04T08:09:11.000Z</time>
      </trkpt>
      <trkpt lat="43.65653" lon="5.65678">
        <ele>374.39999389648</ele>
        <time>2013-05-04T08:09:14.000Z</time>
      </trkpt>
      <trkpt lat="43.65651" lon="5.65683">
        <ele>374</ele>
        <time>2013-05-04T08:09:15.000Z</time>
      </trkpt>
      <trkpt lat="43.65649" lon="5.65687">
        <ele>373.79998779297</ele>
        <time>2013-05-04T08:09:16.000Z</time>
      </trkpt>
      <trkpt lat="43.65648" lon="5.65692">
        <ele>373.79998779297</ele>
        <time>2013-05-04T08:09:17.000Z</time>
      </trkpt>
      <trkpt lat="43.65648" lon="5.65697">
        <ele>373.79998779297</ele>
        <time>2013-05-04T08:09:18.000Z</time>
      </trkpt>
      <trkpt lat="43.65648" lon="5.65702">
        <ele>373.79998779297</ele>
        <time>2013-05-04T08:09:19.000Z</time>
      </trkpt>
      <trkpt lat="43.65639" lon="5.65729">
        <ele>373</ele>
        <time>2013-05-04T08:09:25.000Z</time>
      </trkpt>
      <trkpt lat="43.65627" lon="5.6574">
        <ele>372</ele>
        <time>2013-05-04T08:09:30.000Z</time>
      </trkpt>
      <trkpt lat="43.65623" lon="5.65744">
        <ele>371.60000610352</ele>
        <time>2013-05-04T08:09:31.000Z</time>
      </trkpt>
      <trkpt lat="43.65621" lon="5.6575">
        <ele>371.60000610352</ele>
        <time>2013-05-04T08:09:32.000Z</time>
      </trkpt>
      <trkpt lat="43.65619" lon="5.65758">
        <ele>371.39999389648</ele>
        <time>2013-05-04T08:09:33.000Z</time>
      </trkpt>
      <trkpt lat="43.65618" lon="5.65766">
        <ele>371.20001220703</ele>
        <time>2013-05-04T08:09:34.000Z</time>
      </trkpt>
      <trkpt lat="43.65617" lon="5.65774">
        <ele>371</ele>
        <time>2013-05-04T08:09:35.000Z</time>
      </trkpt>
      <trkpt lat="43.65614" lon="5.65793">
        <ele>370.60000610352</ele>
        <time>2013-05-04T08:09:37.000Z</time>
      </trkpt>
      <trkpt lat="43.65611" lon="5.65803">
        <ele>370.39999389648</ele>
        <time>2013-05-04T08:09:38.000Z</time>
      </trkpt>
      <trkpt lat="43.656" lon="5.65832">
        <ele>369.20001220703</ele>
        <time>2013-05-04T08:09:41.000Z</time>
      </trkpt>
      <trkpt lat="43.65595" lon="5.65841">
        <ele>369.20001220703</ele>
        <time>2013-05-04T08:09:42.000Z</time>
      </trkpt>
      <trkpt lat="43.6559" lon="5.65849">
        <ele>369.20001220703</ele>
        <time>2013-05-04T08:09:43.000Z</time>
      </trkpt>
      <trkpt lat="43.65564" lon="5.65877">
        <ele>368</ele>
        <time>2013-05-04T08:09:47.000Z</time>
      </trkpt>
      <trkpt lat="43.65557" lon="5.65882">
        <ele>367.39999389648</ele>
        <time>2013-05-04T08:09:48.000Z</time>
      </trkpt>
      <trkpt lat="43.65549" lon="5.65886">
        <ele>366.79998779297</ele>
        <time>2013-05-04T08:09:49.000Z</time>
      </trkpt>
      <trkpt lat="43.65524" lon="5.65895">
        <ele>364.60000610352</ele>
        <time>2013-05-04T08:09:52.000Z</time>
      </trkpt>
      <trkpt lat="43.65509" lon="5.65903">
        <ele>363.20001220703</ele>
        <time>2013-05-04T08:09:54.000Z</time>
      </trkpt>
      <trkpt lat="43.65492" lon="5.65924">
        <ele>363</ele>
        <time>2013-05-04T08:09:57.000Z</time>
      </trkpt>
      <trkpt lat="43.65479" lon="5.65951">
        <ele>363.79998779297</ele>
        <time>2013-05-04T08:10:00.000Z</time>
      </trkpt>
      <trkpt lat="43.65443" lon="5.65978">
        <ele>362.79998779297</ele>
        <time>2013-05-04T08:10:06.000Z</time>
      </trkpt>
      <trkpt lat="43.65429" lon="5.65977">
        <ele>361.79998779297</ele>
        <time>2013-05-04T08:10:08.000Z</time>
      </trkpt>
      <trkpt lat="43.65362" lon="5.6596">
        <ele>360</ele>
        <time>2013-05-04T08:10:19.000Z</time>
      </trkpt>
      <trkpt lat="43.65356" lon="5.6596">
        <ele>360</ele>
        <time>2013-05-04T08:10:20.000Z</time>
      </trkpt>
      <trkpt lat="43.65351" lon="5.65961">
        <ele>360</ele>
        <time>2013-05-04T08:10:21.000Z</time>
      </trkpt>
      <trkpt lat="43.65345" lon="5.65964">
        <ele>360</ele>
        <time>2013-05-04T08:10:22.000Z</time>
      </trkpt>
      <trkpt lat="43.6534" lon="5.65967">
        <ele>360</ele>
        <time>2013-05-04T08:10:23.000Z</time>
      </trkpt>
      <trkpt lat="43.65335" lon="5.6597">
        <ele>360</ele>
        <time>2013-05-04T08:10:24.000Z</time>
      </trkpt>
      <trkpt lat="43.65314" lon="5.65987">
        <ele>360.39999389648</ele>
        <time>2013-05-04T08:10:29.000Z</time>
      </trkpt>
      <trkpt lat="43.65311" lon="5.6599">
        <ele>360.39999389648</ele>
        <time>2013-05-04T08:10:30.000Z</time>
      </trkpt>
      <trkpt lat="43.65306" lon="5.65993">
        <ele>360.39999389648</ele>
        <time>2013-05-04T08:10:31.000Z</time>
      </trkpt>
      <trkpt lat="43.65302" lon="5.65997">
        <ele>360.39999389648</ele>
        <time>2013-05-04T08:10:32.000Z</time>
      </trkpt>
      <trkpt lat="43.65298" lon="5.66002">
        <ele>360.39999389648</ele>
        <time>2013-05-04T08:10:33.000Z</time>
      </trkpt>
      <trkpt lat="43.65287" lon="5.6601">
        <ele>360.20001220703</ele>
        <time>2013-05-04T08:10:35.000Z</time>
      </trkpt>
      <trkpt lat="43.65275" lon="5.66015">
        <ele>360.20001220703</ele>
        <time>2013-05-04T08:10:37.000Z</time>
      </trkpt>
      <trkpt lat="43.65268" lon="5.66017">
        <ele>360.20001220703</ele>
        <time>2013-05-04T08:10:38.000Z</time>
      </trkpt>
      <trkpt lat="43.65261" lon="5.66018">
        <ele>360.20001220703</ele>
        <time>2013-05-04T08:10:39.000Z</time>
      </trkpt>
      <trkpt lat="43.65227" lon="5.66024">
        <ele>357.79998779297</ele>
        <time>2013-05-04T08:10:44.000Z</time>
      </trkpt>
      <trkpt lat="43.65221" lon="5.66027">
        <ele>357</ele>
        <time>2013-05-04T08:10:45.000Z</time>
      </trkpt>
      <trkpt lat="43.65215" lon="5.66032">
        <ele>356.39999389648</ele>
        <time>2013-05-04T08:10:46.000Z</time>
      </trkpt>
      <trkpt lat="43.65198" lon="5.66043">
        <ele>355</ele>
        <time>2013-05-04T08:10:49.000Z</time>
      </trkpt>
      <trkpt lat="43.65193" lon="5.66045">
        <ele>354.60000610352</ele>
        <time>2013-05-04T08:10:50.000Z</time>
      </trkpt>
      <trkpt lat="43.65189" lon="5.66048">
        <ele>354.39999389648</ele>
        <time>2013-05-04T08:10:51.000Z</time>
      </trkpt>
      <trkpt lat="43.65186" lon="5.66051">
        <ele>354.20001220703</ele>
        <time>2013-05-04T08:10:52.000Z</time>
      </trkpt>
      <trkpt lat="43.65184" lon="5.66055">
        <ele>354.20001220703</ele>
        <time>2013-05-04T08:10:53.000Z</time>
      </trkpt>
      <trkpt lat="43.65183" lon="5.66058">
        <ele>354.20001220703</ele>
        <time>2013-05-04T08:10:54.000Z</time>
      </trkpt>
      <trkpt lat="43.65182" lon="5.66062">
        <ele>354.20001220703</ele>
        <time>2013-05-04T08:10:55.000Z</time>
      </trkpt>
      <trkpt lat="43.65182" lon="5.66066">
        <ele>354.20001220703</ele>
        <time>2013-05-04T08:10:56.000Z</time>
      </trkpt>
      <trkpt lat="43.65183" lon="5.66069">
        <ele>354.39999389648</ele>
        <time>2013-05-04T08:10:57.000Z</time>
      </trkpt>
      <trkpt lat="43.65185" lon="5.66073">
        <ele>354.60000610352</ele>
        <time>2013-05-04T08:10:58.000Z</time>
      </trkpt>
      <trkpt lat="43.65187" lon="5.66075">
        <ele>354.79998779297</ele>
        <time>2013-05-04T08:10:59.000Z</time>
      </trkpt>
      <trkpt lat="43.65198" lon="5.66085">
        <ele>355.39999389648</ele>
        <time>2013-05-04T08:11:04.000Z</time>
      </trkpt>
      <trkpt lat="43.65215" lon="5.66112">
        <ele>357</ele>
        <time>2013-05-04T08:11:13.000Z</time>
      </trkpt>
      <trkpt lat="43.65217" lon="5.66116">
        <ele>357.20001220703</ele>
        <time>2013-05-04T08:11:14.000Z</time>
      </trkpt>
      <trkpt lat="43.65237" lon="5.66155">
        <ele>360.20001220703</ele>
        <time>2013-05-04T08:11:24.000Z</time>
      </trkpt>
      <trkpt lat="43.65259" lon="5.66196">
        <ele>363.20001220703</ele>
        <time>2013-05-04T08:11:35.000Z</time>
      </trkpt>
      <trkpt lat="43.65267" lon="5.66232">
        <ele>364.79998779297</ele>
        <time>2013-05-04T08:11:44.000Z</time>
      </trkpt>
      <trkpt lat="43.65283" lon="5.66267">
        <ele>366</ele>
        <time>2013-05-04T08:11:53.000Z</time>
      </trkpt>
      <trkpt lat="43.65323" lon="5.66285">
        <ele>367.79998779297</ele>
        <time>2013-05-04T08:12:06.000Z</time>
      </trkpt>
      <trkpt lat="43.65357" lon="5.66296">
        <ele>368</ele>
        <time>2013-05-04T08:12:15.000Z</time>
      </trkpt>
      <trkpt lat="43.6541" lon="5.66281">
        <ele>366.60000610352</ele>
        <time>2013-05-04T08:12:25.000Z</time>
      </trkpt>
      <trkpt lat="43.65425" lon="5.66279">
        <ele>366.79998779297</ele>
        <time>2013-05-04T08:12:28.000Z</time>
      </trkpt>
      <trkpt lat="43.6543" lon="5.66279">
        <ele>367</ele>
        <time>2013-05-04T08:12:29.000Z</time>
      </trkpt>
      <trkpt lat="43.65461" lon="5.66282">
        <ele>368.79998779297</ele>
        <time>2013-05-04T08:12:38.000Z</time>
      </trkpt>
      <trkpt lat="43.655" lon="5.66297">
        <ele>371.60000610352</ele>
        <time>2013-05-04T08:12:49.000Z</time>
      </trkpt>
      <trkpt lat="43.65539" lon="5.66314">
        <ele>374.60000610352</ele>
        <time>2013-05-04T08:13:01.000Z</time>
      </trkpt>
      <trkpt lat="43.65576" lon="5.66342">
        <ele>377.60000610352</ele>
        <time>2013-05-04T08:13:14.000Z</time>
      </trkpt>
      <trkpt lat="43.6559" lon="5.66358">
        <ele>378.39999389648</ele>
        <time>2013-05-04T08:13:21.000Z</time>
      </trkpt>
      <trkpt lat="43.65606" lon="5.66383">
        <ele>379.20001220703</ele>
        <time>2013-05-04T08:13:29.000Z</time>
      </trkpt>
      <trkpt lat="43.65629" lon="5.66421">
        <ele>381.20001220703</ele>
        <time>2013-05-04T08:13:40.000Z</time>
      </trkpt>
      <trkpt lat="43.65654" lon="5.66449">
        <ele>383.39999389648</ele>
        <time>2013-05-04T08:13:49.000Z</time>
      </trkpt>
      <trkpt lat="43.65678" lon="5.66484">
        <ele>384.79998779297</ele>
        <time>2013-05-04T08:14:00.000Z</time>
      </trkpt>
      <trkpt lat="43.6571" lon="5.66523">
        <ele>384.39999389648</ele>
        <time>2013-05-04T08:14:11.000Z</time>
      </trkpt>
      <trkpt lat="43.65739" lon="5.66543">
        <ele>383.39999389648</ele>
        <time>2013-05-04T08:14:21.000Z</time>
      </trkpt>
      <trkpt lat="43.65753" lon="5.66552">
        <ele>382.79998779297</ele>
        <time>2013-05-04T08:14:25.000Z</time>
      </trkpt>
      <trkpt lat="43.65756" lon="5.66557">
        <ele>382.79998779297</ele>
        <time>2013-05-04T08:14:26.000Z</time>
      </trkpt>
      <trkpt lat="43.65792" lon="5.66601">
        <ele>382.20001220703</ele>
        <time>2013-05-04T08:14:37.000Z</time>
      </trkpt>
      <trkpt lat="43.65797" lon="5.6661">
        <ele>382.39999389648</ele>
        <time>2013-05-04T08:14:39.000Z</time>
      </trkpt>
      <trkpt lat="43.65799" lon="5.66616">
        <ele>382.39999389648</ele>
        <time>2013-05-04T08:14:40.000Z</time>
      </trkpt>
      <trkpt lat="43.65802" lon="5.66621">
        <ele>382.60000610352</ele>
        <time>2013-05-04T08:14:41.000Z</time>
      </trkpt>
      <trkpt lat="43.65807" lon="5.66631">
        <ele>382.79998779297</ele>
        <time>2013-05-04T08:14:43.000Z</time>
      </trkpt>
      <trkpt lat="43.6581" lon="5.66635">
        <ele>382.79998779297</ele>
        <time>2013-05-04T08:14:44.000Z</time>
      </trkpt>
      <trkpt lat="43.65813" lon="5.6664">
        <ele>383</ele>
        <time>2013-05-04T08:14:45.000Z</time>
      </trkpt>
      <trkpt lat="43.65841" lon="5.66667">
        <ele>384.39999389648</ele>
        <time>2013-05-04T08:14:54.000Z</time>
      </trkpt>
      <trkpt lat="43.65843" lon="5.66668">
        <ele>384.60000610352</ele>
        <time>2013-05-04T08:14:55.000Z</time>
      </trkpt>
      <trkpt lat="43.65846" lon="5.66667">
        <ele>384.79998779297</ele>
        <time>2013-05-04T08:14:56.000Z</time>
      </trkpt>
      <trkpt lat="43.65848" lon="5.66665">
        <ele>384.79998779297</ele>
        <time>2013-05-04T08:14:57.000Z</time>
      </trkpt>
      <trkpt lat="43.65849" lon="5.66663">
        <ele>384.79998779297</ele>
        <time>2013-05-04T08:14:58.000Z</time>
      </trkpt>
      <trkpt lat="43.65851" lon="5.66662">
        <ele>384.79998779297</ele>
        <time>2013-05-04T08:14:59.000Z</time>
      </trkpt>
      <trkpt lat="43.65853" lon="5.6666">
        <ele>385</ele>
        <time>2013-05-04T08:15:00.000Z</time>
      </trkpt>
      <trkpt lat="43.65867" lon="5.66656">
        <ele>385.60000610352</ele>
        <time>2013-05-04T08:15:06.000Z</time>
      </trkpt>
      <trkpt lat="43.65869" lon="5.66655">
        <ele>385.60000610352</ele>
        <time>2013-05-04T08:15:07.000Z</time>
      </trkpt>
      <trkpt lat="43.65871" lon="5.66654">
        <ele>385.79998779297</ele>
        <time>2013-05-04T08:15:08.000Z</time>
      </trkpt>
      <trkpt lat="43.65874" lon="5.66653">
        <ele>385.79998779297</ele>
        <time>2013-05-04T08:15:09.000Z</time>
      </trkpt>
      <trkpt lat="43.65877" lon="5.66653">
        <ele>386</ele>
        <time>2013-05-04T08:15:10.000Z</time>
      </trkpt>
      <trkpt lat="43.65879" lon="5.66654">
        <ele>386.20001220703</ele>
        <time>2013-05-04T08:15:11.000Z</time>
      </trkpt>
      <trkpt lat="43.65882" lon="5.66655">
        <ele>386.60000610352</ele>
        <time>2013-05-04T08:15:12.000Z</time>
      </trkpt>
      <trkpt lat="43.65883" lon="5.66656">
        <ele>386.79998779297</ele>
        <time>2013-05-04T08:15:13.000Z</time>
      </trkpt>
      <trkpt lat="43.65885" lon="5.66657">
        <ele>386.79998779297</ele>
        <time>2013-05-04T08:15:14.000Z</time>
      </trkpt>
      <trkpt lat="43.65887" lon="5.66658">
        <ele>387</ele>
        <time>2013-05-04T08:15:15.000Z</time>
      </trkpt>
      <trkpt lat="43.65889" lon="5.6666">
        <ele>387.39999389648</ele>
        <time>2013-05-04T08:15:16.000Z</time>
      </trkpt>
      <trkpt lat="43.6589" lon="5.66663">
        <ele>387.60000610352</ele>
        <time>2013-05-04T08:15:17.000Z</time>
      </trkpt>
      <trkpt lat="43.6589" lon="5.66665">
        <ele>387.79998779297</ele>
        <time>2013-05-04T08:15:18.000Z</time>
      </trkpt>
      <trkpt lat="43.65891" lon="5.66668">
        <ele>388</ele>
        <time>2013-05-04T08:15:19.000Z</time>
      </trkpt>
      <trkpt lat="43.65892" lon="5.66671">
        <ele>388.20001220703</ele>
        <time>2013-05-04T08:15:20.000Z</time>
      </trkpt>
      <trkpt lat="43.65893" lon="5.66675">
        <ele>388.60000610352</ele>
        <time>2013-05-04T08:15:21.000Z</time>
      </trkpt>
      <trkpt lat="43.65911" lon="5.66687">
        <ele>390.20001220703</ele>
        <time>2013-05-04T08:15:28.000Z</time>
      </trkpt>
      <trkpt lat="43.65919" lon="5.66686">
        <ele>390.60000610352</ele>
        <time>2013-05-04T08:15:31.000Z</time>
      </trkpt>
      <trkpt lat="43.6593" lon="5.66687">
        <ele>390.79998779297</ele>
        <time>2013-05-04T08:15:34.000Z</time>
      </trkpt>
      <trkpt lat="43.65934" lon="5.66689">
        <ele>390.79998779297</ele>
        <time>2013-05-04T08:15:35.000Z</time>
      </trkpt>
      <trkpt lat="43.65962" lon="5.66698">
        <ele>391.60000610352</ele>
        <time>2013-05-04T08:15:43.000Z</time>
      </trkpt>
      <trkpt lat="43.6599" lon="5.6671">
        <ele>392.79998779297</ele>
        <time>2013-05-04T08:15:51.000Z</time>
      </trkpt>
      <trkpt lat="43.65992" lon="5.66713">
        <ele>393</ele>
        <time>2013-05-04T08:15:52.000Z</time>
      </trkpt>
      <trkpt lat="43.65992" lon="5.66716">
        <ele>393.39999389648</ele>
        <time>2013-05-04T08:15:53.000Z</time>
      </trkpt>
      <trkpt lat="43.65992" lon="5.6672">
        <ele>393.60000610352</ele>
        <time>2013-05-04T08:15:54.000Z</time>
      </trkpt>
      <trkpt lat="43.65993" lon="5.66723">
        <ele>393.79998779297</ele>
        <time>2013-05-04T08:15:55.000Z</time>
      </trkpt>
      <trkpt lat="43.65995" lon="5.66728">
        <ele>394.20001220703</ele>
        <time>2013-05-04T08:15:56.000Z</time>
      </trkpt>
      <trkpt lat="43.65998" lon="5.66733">
        <ele>394.60000610352</ele>
        <time>2013-05-04T08:15:57.000Z</time>
      </trkpt>
      <trkpt lat="43.66" lon="5.66737">
        <ele>395</ele>
        <time>2013-05-04T08:15:58.000Z</time>
      </trkpt>
      <trkpt lat="43.66002" lon="5.66741">
        <ele>395.20001220703</ele>
        <time>2013-05-04T08:15:59.000Z</time>
      </trkpt>
      <trkpt lat="43.66007" lon="5.66753">
        <ele>395.79998779297</ele>
        <time>2013-05-04T08:16:02.000Z</time>
      </trkpt>
      <trkpt lat="43.66016" lon="5.66789">
        <ele>396.20001220703</ele>
        <time>2013-05-04T08:16:10.000Z</time>
      </trkpt>
      <trkpt lat="43.66028" lon="5.66824">
        <ele>396.79998779297</ele>
        <time>2013-05-04T08:16:17.000Z</time>
      </trkpt>
      <trkpt lat="43.66031" lon="5.66829">
        <ele>396.79998779297</ele>
        <time>2013-05-04T08:16:18.000Z</time>
      </trkpt>
      <trkpt lat="43.66059" lon="5.66867">
        <ele>397.79998779297</ele>
        <time>2013-05-04T08:16:27.000Z</time>
      </trkpt>
      <trkpt lat="43.66074" lon="5.6689">
        <ele>398.79998779297</ele>
        <time>2013-05-04T08:16:33.000Z</time>
      </trkpt>
      <trkpt lat="43.66088" lon="5.66903">
        <ele>399.20001220703</ele>
        <time>2013-05-04T08:16:38.000Z</time>
      </trkpt>
      <trkpt lat="43.6609" lon="5.66907">
        <ele>399.20001220703</ele>
        <time>2013-05-04T08:16:39.000Z</time>
      </trkpt>
      <trkpt lat="43.6609" lon="5.66911">
        <ele>399.20001220703</ele>
        <time>2013-05-04T08:16:40.000Z</time>
      </trkpt>
      <trkpt lat="43.66103" lon="5.66947">
        <ele>399.39999389648</ele>
        <time>2013-05-04T08:16:49.000Z</time>
      </trkpt>
      <trkpt lat="43.66105" lon="5.66952">
        <ele>399.39999389648</ele>
        <time>2013-05-04T08:16:50.000Z</time>
      </trkpt>
      <trkpt lat="43.66106" lon="5.66957">
        <ele>399.39999389648</ele>
        <time>2013-05-04T08:16:51.000Z</time>
      </trkpt>
      <trkpt lat="43.66108" lon="5.66961">
        <ele>399.60000610352</ele>
        <time>2013-05-04T08:16:52.000Z</time>
      </trkpt>
      <trkpt lat="43.66109" lon="5.66966">
        <ele>399.60000610352</ele>
        <time>2013-05-04T08:16:53.000Z</time>
      </trkpt>
      <trkpt lat="43.66108" lon="5.66972">
        <ele>399.79998779297</ele>
        <time>2013-05-04T08:16:54.000Z</time>
      </trkpt>
      <trkpt lat="43.66107" lon="5.66977">
        <ele>400</ele>
        <time>2013-05-04T08:16:55.000Z</time>
      </trkpt>
      <trkpt lat="43.66106" lon="5.66983">
        <ele>400.20001220703</ele>
        <time>2013-05-04T08:16:56.000Z</time>
      </trkpt>
      <trkpt lat="43.66105" lon="5.66989">
        <ele>400.39999389648</ele>
        <time>2013-05-04T08:16:57.000Z</time>
      </trkpt>
      <trkpt lat="43.66104" lon="5.67">
        <ele>400.60000610352</ele>
        <time>2013-05-04T08:16:59.000Z</time>
      </trkpt>
      <trkpt lat="43.66105" lon="5.67006">
        <ele>400.60000610352</ele>
        <time>2013-05-04T08:17:00.000Z</time>
      </trkpt>
      <trkpt lat="43.66106" lon="5.67012">
        <ele>400.60000610352</ele>
        <time>2013-05-04T08:17:01.000Z</time>
      </trkpt>
      <trkpt lat="43.66108" lon="5.67018">
        <ele>400.39999389648</ele>
        <time>2013-05-04T08:17:02.000Z</time>
      </trkpt>
      <trkpt lat="43.66109" lon="5.67024">
        <ele>400.39999389648</ele>
        <time>2013-05-04T08:17:03.000Z</time>
      </trkpt>
      <trkpt lat="43.6611" lon="5.6703">
        <ele>400.20001220703</ele>
        <time>2013-05-04T08:17:04.000Z</time>
      </trkpt>
      <trkpt lat="43.66113" lon="5.67049">
        <ele>400.20001220703</ele>
        <time>2013-05-04T08:17:07.000Z</time>
      </trkpt>
      <trkpt lat="43.66115" lon="5.67057">
        <ele>400</ele>
        <time>2013-05-04T08:17:08.000Z</time>
      </trkpt>
      <trkpt lat="43.66118" lon="5.67065">
        <ele>400</ele>
        <time>2013-05-04T08:17:09.000Z</time>
      </trkpt>
      <trkpt lat="43.6612" lon="5.67073">
        <ele>400</ele>
        <time>2013-05-04T08:17:10.000Z</time>
      </trkpt>
      <trkpt lat="43.66121" lon="5.67082">
        <ele>400</ele>
        <time>2013-05-04T08:17:11.000Z</time>
      </trkpt>
      <trkpt lat="43.66123" lon="5.6709">
        <ele>400</ele>
        <time>2013-05-04T08:17:12.000Z</time>
      </trkpt>
      <trkpt lat="43.66126" lon="5.67097">
        <ele>400</ele>
        <time>2013-05-04T08:17:13.000Z</time>
      </trkpt>
      <trkpt lat="43.66129" lon="5.67104">
        <ele>400</ele>
        <time>2013-05-04T08:17:14.000Z</time>
      </trkpt>
      <trkpt lat="43.66132" lon="5.6711">
        <ele>400.20001220703</ele>
        <time>2013-05-04T08:17:15.000Z</time>
      </trkpt>
      <trkpt lat="43.66136" lon="5.67116">
        <ele>400.20001220703</ele>
        <time>2013-05-04T08:17:16.000Z</time>
      </trkpt>
      <trkpt lat="43.6614" lon="5.67122">
        <ele>400.20001220703</ele>
        <time>2013-05-04T08:17:17.000Z</time>
      </trkpt>
      <trkpt lat="43.66144" lon="5.67128">
        <ele>400.20001220703</ele>
        <time>2013-05-04T08:17:18.000Z</time>
      </trkpt>
      <trkpt lat="43.66149" lon="5.67133">
        <ele>400.20001220703</ele>
        <time>2013-05-04T08:17:19.000Z</time>
      </trkpt>
      <trkpt lat="43.66153" lon="5.67138">
        <ele>400.39999389648</ele>
        <time>2013-05-04T08:17:20.000Z</time>
      </trkpt>
      <trkpt lat="43.66157" lon="5.67143">
        <ele>400.39999389648</ele>
        <time>2013-05-04T08:17:21.000Z</time>
      </trkpt>
      <trkpt lat="43.66161" lon="5.67149">
        <ele>400.39999389648</ele>
        <time>2013-05-04T08:17:22.000Z</time>
      </trkpt>
      <trkpt lat="43.66164" lon="5.67154">
        <ele>400.60000610352</ele>
        <time>2013-05-04T08:17:23.000Z</time>
      </trkpt>
      <trkpt lat="43.66167" lon="5.6716">
        <ele>400.79998779297</ele>
        <time>2013-05-04T08:17:24.000Z</time>
      </trkpt>
      <trkpt lat="43.6617" lon="5.67166">
        <ele>400.79998779297</ele>
        <time>2013-05-04T08:17:25.000Z</time>
      </trkpt>
      <trkpt lat="43.66172" lon="5.67172">
        <ele>400.79998779297</ele>
        <time>2013-05-04T08:17:26.000Z</time>
      </trkpt>
      <trkpt lat="43.66173" lon="5.67178">
        <ele>401</ele>
        <time>2013-05-04T08:17:27.000Z</time>
      </trkpt>
      <trkpt lat="43.66174" lon="5.67185">
        <ele>401</ele>
        <time>2013-05-04T08:17:28.000Z</time>
      </trkpt>
      <trkpt lat="43.66176" lon="5.6719">
        <ele>401</ele>
        <time>2013-05-04T08:17:29.000Z</time>
      </trkpt>
      <trkpt lat="43.66178" lon="5.67195">
        <ele>401.20001220703</ele>
        <time>2013-05-04T08:17:30.000Z</time>
      </trkpt>
      <trkpt lat="43.66182" lon="5.67199">
        <ele>401.20001220703</ele>
        <time>2013-05-04T08:17:31.000Z</time>
      </trkpt>
      <trkpt lat="43.66187" lon="5.67203">
        <ele>401.20001220703</ele>
        <time>2013-05-04T08:17:32.000Z</time>
      </trkpt>
      <trkpt lat="43.66191" lon="5.67208">
        <ele>401.20001220703</ele>
        <time>2013-05-04T08:17:33.000Z</time>
      </trkpt>
      <trkpt lat="43.66195" lon="5.67215">
        <ele>401.39999389648</ele>
        <time>2013-05-04T08:17:34.000Z</time>
      </trkpt>
      <trkpt lat="43.66198" lon="5.67221">
        <ele>401.60000610352</ele>
        <time>2013-05-04T08:17:35.000Z</time>
      </trkpt>
      <trkpt lat="43.662" lon="5.67228">
        <ele>401.79998779297</ele>
        <time>2013-05-04T08:17:36.000Z</time>
      </trkpt>
      <trkpt lat="43.66201" lon="5.67234">
        <ele>401.79998779297</ele>
        <time>2013-05-04T08:17:37.000Z</time>
      </trkpt>
      <trkpt lat="43.66201" lon="5.67239">
        <ele>402</ele>
        <time>2013-05-04T08:17:38.000Z</time>
      </trkpt>
      <trkpt lat="43.662" lon="5.67243">
        <ele>402.20001220703</ele>
        <time>2013-05-04T08:17:39.000Z</time>
      </trkpt>
      <trkpt lat="43.66199" lon="5.67247">
        <ele>402.20001220703</ele>
        <time>2013-05-04T08:17:40.000Z</time>
      </trkpt>
      <trkpt lat="43.66198" lon="5.67251">
        <ele>402.39999389648</ele>
        <time>2013-05-04T08:17:41.000Z</time>
      </trkpt>
      <trkpt lat="43.66198" lon="5.67255">
        <ele>402.39999389648</ele>
        <time>2013-05-04T08:17:42.000Z</time>
      </trkpt>
      <trkpt lat="43.662" lon="5.6726">
        <ele>402.60000610352</ele>
        <time>2013-05-04T08:17:43.000Z</time>
      </trkpt>
      <trkpt lat="43.66201" lon="5.67265">
        <ele>402.79998779297</ele>
        <time>2013-05-04T08:17:44.000Z</time>
      </trkpt>
      <trkpt lat="43.66201" lon="5.67271">
        <ele>403</ele>
        <time>2013-05-04T08:17:45.000Z</time>
      </trkpt>
      <trkpt lat="43.662" lon="5.67277">
        <ele>403.20001220703</ele>
        <time>2013-05-04T08:17:46.000Z</time>
      </trkpt>
      <trkpt lat="43.66198" lon="5.67283">
        <ele>403.39999389648</ele>
        <time>2013-05-04T08:17:47.000Z</time>
      </trkpt>
      <trkpt lat="43.66197" lon="5.67289">
        <ele>403.60000610352</ele>
        <time>2013-05-04T08:17:48.000Z</time>
      </trkpt>
      <trkpt lat="43.66198" lon="5.67294">
        <ele>403.79998779297</ele>
        <time>2013-05-04T08:17:49.000Z</time>
      </trkpt>
      <trkpt lat="43.66201" lon="5.67299">
        <ele>404</ele>
        <time>2013-05-04T08:17:50.000Z</time>
      </trkpt>
      <trkpt lat="43.66204" lon="5.67303">
        <ele>404.20001220703</ele>
        <time>2013-05-04T08:17:51.000Z</time>
      </trkpt>
      <trkpt lat="43.66208" lon="5.67307">
        <ele>404.39999389648</ele>
        <time>2013-05-04T08:17:52.000Z</time>
      </trkpt>
      <trkpt lat="43.66212" lon="5.67312">
        <ele>404.79998779297</ele>
        <time>2013-05-04T08:17:53.000Z</time>
      </trkpt>
      <trkpt lat="43.66223" lon="5.67325">
        <ele>405.60000610352</ele>
        <time>2013-05-04T08:17:56.000Z</time>
      </trkpt>
      <trkpt lat="43.66226" lon="5.67332">
        <ele>406</ele>
        <time>2013-05-04T08:17:57.000Z</time>
      </trkpt>
      <trkpt lat="43.66229" lon="5.67338">
        <ele>406.20001220703</ele>
        <time>2013-05-04T08:17:58.000Z</time>
      </trkpt>
      <trkpt lat="43.66238" lon="5.67364">
        <ele>407</ele>
        <time>2013-05-04T08:18:02.000Z</time>
      </trkpt>
      <trkpt lat="43.66253" lon="5.67401">
        <ele>408.60000610352</ele>
        <time>2013-05-04T08:18:09.000Z</time>
      </trkpt>
      <trkpt lat="43.66269" lon="5.67447">
        <ele>408.60000610352</ele>
        <time>2013-05-04T08:18:19.000Z</time>
      </trkpt>
      <trkpt lat="43.66285" lon="5.67455">
        <ele>408.79998779297</ele>
        <time>2013-05-04T08:18:24.000Z</time>
      </trkpt>
      <trkpt lat="43.66288" lon="5.67452">
        <ele>408.79998779297</ele>
        <time>2013-05-04T08:18:25.000Z</time>
      </trkpt>
      <trkpt lat="43.66321" lon="5.67433">
        <ele>409.60000610352</ele>
        <time>2013-05-04T08:18:35.000Z</time>
      </trkpt>
      <trkpt lat="43.66348" lon="5.6745">
        <ele>410</ele>
        <time>2013-05-04T08:18:44.000Z</time>
      </trkpt>
      <trkpt lat="43.66366" lon="5.67468">
        <ele>410.20001220703</ele>
        <time>2013-05-04T08:18:54.000Z</time>
      </trkpt>
      <trkpt lat="43.66366" lon="5.67467">
        <ele>410.20001220703</ele>
        <time>2013-05-04T08:19:01.000Z</time>
      </trkpt>
      <trkpt lat="43.66368" lon="5.67466">
        <ele>410.39999389648</ele>
        <time>2013-05-04T08:19:20.000Z</time>
      </trkpt>
      <trkpt lat="43.6637" lon="5.67468">
        <ele>410.39999389648</ele>
        <time>2013-05-04T08:19:37.000Z</time>
      </trkpt>
      <trkpt lat="43.66372" lon="5.67472">
        <ele>410.39999389648</ele>
        <time>2013-05-04T08:19:46.000Z</time>
      </trkpt>
      <trkpt lat="43.66372" lon="5.67474">
        <ele>410.39999389648</ele>
        <time>2013-05-04T08:19:58.000Z</time>
      </trkpt>
      <trkpt lat="43.66371" lon="5.67474">
        <ele>410.39999389648</ele>
        <time>2013-05-04T08:20:16.000Z</time>
      </trkpt>
      <trkpt lat="43.66373" lon="5.67473">
        <ele>410.39999389648</ele>
        <time>2013-05-04T08:20:33.000Z</time>
      </trkpt>
      <trkpt lat="43.66373" lon="5.67473">
        <ele>410.39999389648</ele>
        <time>2013-05-04T08:20:52.000Z</time>
      </trkpt>
      <trkpt lat="43.66372" lon="5.67475">
        <ele>410.39999389648</ele>
        <time>2013-05-04T08:21:07.000Z</time>
      </trkpt>
      <trkpt lat="43.66373" lon="5.67472">
        <ele>410.39999389648</ele>
        <time>2013-05-04T08:21:28.000Z</time>
      </trkpt>
      <trkpt lat="43.66372" lon="5.67472">
        <ele>410.39999389648</ele>
        <time>2013-05-04T08:21:52.000Z</time>
      </trkpt>
      <trkpt lat="43.66374" lon="5.67471">
        <ele>410.39999389648</ele>
        <time>2013-05-04T08:22:07.000Z</time>
      </trkpt>
      <trkpt lat="43.66376" lon="5.67472">
        <ele>410.39999389648</ele>
        <time>2013-05-04T08:22:25.000Z</time>
      </trkpt>
      <trkpt lat="43.66379" lon="5.67477">
        <ele>410.39999389648</ele>
        <time>2013-05-04T08:22:36.000Z</time>
      </trkpt>
      <trkpt lat="43.66379" lon="5.67479">
        <ele>410.39999389648</ele>
        <time>2013-05-04T08:22:37.000Z</time>
      </trkpt>
      <trkpt lat="43.66379" lon="5.67481">
        <ele>410.39999389648</ele>
        <time>2013-05-04T08:22:38.000Z</time>
      </trkpt>
      <trkpt lat="43.6638" lon="5.67484">
        <ele>410.39999389648</ele>
        <time>2013-05-04T08:22:39.000Z</time>
      </trkpt>
      <trkpt lat="43.6638" lon="5.67488">
        <ele>410.39999389648</ele>
        <time>2013-05-04T08:22:40.000Z</time>
      </trkpt>
      <trkpt lat="43.66379" lon="5.67532">
        <ele>410</ele>
        <time>2013-05-04T08:22:50.000Z</time>
      </trkpt>
      <trkpt lat="43.66379" lon="5.67554">
        <ele>409.79998779297</ele>
        <time>2013-05-04T08:22:54.000Z</time>
      </trkpt>
      <trkpt lat="43.6638" lon="5.6756">
        <ele>409.79998779297</ele>
        <time>2013-05-04T08:22:55.000Z</time>
      </trkpt>
      <trkpt lat="43.66384" lon="5.67594">
        <ele>409.20001220703</ele>
        <time>2013-05-04T08:23:00.000Z</time>
      </trkpt>
      <trkpt lat="43.66386" lon="5.67601">
        <ele>409.20001220703</ele>
        <time>2013-05-04T08:23:01.000Z</time>
      </trkpt>
      <trkpt lat="43.66388" lon="5.67607">
        <ele>409</ele>
        <time>2013-05-04T08:23:02.000Z</time>
      </trkpt>
      <trkpt lat="43.66391" lon="5.67612">
        <ele>409</ele>
        <time>2013-05-04T08:23:03.000Z</time>
      </trkpt>
      <trkpt lat="43.66393" lon="5.67616">
        <ele>408.79998779297</ele>
        <time>2013-05-04T08:23:04.000Z</time>
      </trkpt>
      <trkpt lat="43.66414" lon="5.67637">
        <ele>408.60000610352</ele>
        <time>2013-05-04T08:23:12.000Z</time>
      </trkpt>
      <trkpt lat="43.66434" lon="5.67659">
        <ele>408.60000610352</ele>
        <time>2013-05-04T08:23:21.000Z</time>
      </trkpt>
      <trkpt lat="43.6645" lon="5.67674">
        <ele>409</ele>
        <time>2013-05-04T08:23:28.000Z</time>
      </trkpt>
      <trkpt lat="43.66477" lon="5.67701">
        <ele>409.20001220703</ele>
        <time>2013-05-04T08:23:38.000Z</time>
      </trkpt>
      <trkpt lat="43.66506" lon="5.67717">
        <ele>409.79998779297</ele>
        <time>2013-05-04T08:23:48.000Z</time>
      </trkpt>
      <trkpt lat="43.66528" lon="5.6775">
        <ele>410.20001220703</ele>
        <time>2013-05-04T08:23:58.000Z</time>
      </trkpt>
      <trkpt lat="43.66538" lon="5.67763">
        <ele>411.20001220703</ele>
        <time>2013-05-04T08:24:02.000Z</time>
      </trkpt>
      <trkpt lat="43.66541" lon="5.67764">
        <ele>411.39999389648</ele>
        <time>2013-05-04T08:24:03.000Z</time>
      </trkpt>
      <trkpt lat="43.66565" lon="5.67785">
        <ele>413.39999389648</ele>
        <time>2013-05-04T08:24:12.000Z</time>
      </trkpt>
      <trkpt lat="43.6658" lon="5.67807">
        <ele>415.39999389648</ele>
        <time>2013-05-04T08:24:21.000Z</time>
      </trkpt>
      <trkpt lat="43.66596" lon="5.67817">
        <ele>416.39999389648</ele>
        <time>2013-05-04T08:24:28.000Z</time>
      </trkpt>
      <trkpt lat="43.66599" lon="5.67816">
        <ele>416.39999389648</ele>
        <time>2013-05-04T08:24:29.000Z</time>
      </trkpt>
      <trkpt lat="43.66601" lon="5.67815">
        <ele>416.60000610352</ele>
        <time>2013-05-04T08:24:30.000Z</time>
      </trkpt>
      <trkpt lat="43.66604" lon="5.67817">
        <ele>416.60000610352</ele>
        <time>2013-05-04T08:24:31.000Z</time>
      </trkpt>
      <trkpt lat="43.66606" lon="5.67819">
        <ele>416.79998779297</ele>
        <time>2013-05-04T08:24:32.000Z</time>
      </trkpt>
      <trkpt lat="43.66609" lon="5.67821">
        <ele>417</ele>
        <time>2013-05-04T08:24:33.000Z</time>
      </trkpt>
      <trkpt lat="43.66611" lon="5.67823">
        <ele>417.20001220703</ele>
        <time>2013-05-04T08:24:34.000Z</time>
      </trkpt>
      <trkpt lat="43.66642" lon="5.67836">
        <ele>418.39999389648</ele>
        <time>2013-05-04T08:24:44.000Z</time>
      </trkpt>
      <trkpt lat="43.66689" lon="5.67848">
        <ele>419.60000610352</ele>
        <time>2013-05-04T08:24:56.000Z</time>
      </trkpt>
      <trkpt lat="43.66693" lon="5.67849">
        <ele>419.60000610352</ele>
        <time>2013-05-04T08:24:57.000Z</time>
      </trkpt>
      <trkpt lat="43.66747" lon="5.67863">
        <ele>420</ele>
        <time>2013-05-04T08:25:10.000Z</time>
      </trkpt>
      <trkpt lat="43.66801" lon="5.67879">
        <ele>420.79998779297</ele>
        <time>2013-05-04T08:25:23.000Z</time>
      </trkpt>
      <trkpt lat="43.66838" lon="5.67896">
        <ele>421.79998779297</ele>
        <time>2013-05-04T08:25:34.000Z</time>
      </trkpt>
      <trkpt lat="43.66861" lon="5.67906">
        <ele>423</ele>
        <time>2013-05-04T08:25:45.000Z</time>
      </trkpt>
      <trkpt lat="43.66874" lon="5.67929">
        <ele>423.79998779297</ele>
        <time>2013-05-04T08:25:56.000Z</time>
      </trkpt>
      <trkpt lat="43.6687" lon="5.67957">
        <ele>423.20001220703</ele>
        <time>2013-05-04T08:26:05.000Z</time>
      </trkpt>
      <trkpt lat="43.66865" lon="5.67992">
        <ele>423</ele>
        <time>2013-05-04T08:26:16.000Z</time>
      </trkpt>
      <trkpt lat="43.66864" lon="5.68035">
        <ele>422.60000610352</ele>
        <time>2013-05-04T08:26:27.000Z</time>
      </trkpt>
      <trkpt lat="43.66858" lon="5.68087">
        <ele>422</ele>
        <time>2013-05-04T08:26:40.000Z</time>
      </trkpt>
      <trkpt lat="43.66854" lon="5.68115">
        <ele>420.60000610352</ele>
        <time>2013-05-04T08:26:48.000Z</time>
      </trkpt>
      <trkpt lat="43.6685" lon="5.6815">
        <ele>418.79998779297</ele>
        <time>2013-05-04T08:26:55.000Z</time>
      </trkpt>
      <trkpt lat="43.66843" lon="5.68208">
        <ele>415.39999389648</ele>
        <time>2013-05-04T08:27:05.000Z</time>
      </trkpt>
      <trkpt lat="43.66843" lon="5.68219">
        <ele>414.79998779297</ele>
        <time>2013-05-04T08:27:07.000Z</time>
      </trkpt>
      <trkpt lat="43.66842" lon="5.68225">
        <ele>414.39999389648</ele>
        <time>2013-05-04T08:27:08.000Z</time>
      </trkpt>
      <trkpt lat="43.66841" lon="5.68231">
        <ele>414.20001220703</ele>
        <time>2013-05-04T08:27:09.000Z</time>
      </trkpt>
      <trkpt lat="43.6684" lon="5.68237">
        <ele>413.79998779297</ele>
        <time>2013-05-04T08:27:10.000Z</time>
      </trkpt>
      <trkpt lat="43.66839" lon="5.68244">
        <ele>413.39999389648</ele>
        <time>2013-05-04T08:27:11.000Z</time>
      </trkpt>
      <trkpt lat="43.66833" lon="5.68295">
        <ele>410.20001220703</ele>
        <time>2013-05-04T08:27:18.000Z</time>
      </trkpt>
      <trkpt lat="43.66834" lon="5.68303">
        <ele>409.79998779297</ele>
        <time>2013-05-04T08:27:19.000Z</time>
      </trkpt>
      <trkpt lat="43.66836" lon="5.68311">
        <ele>409.39999389648</ele>
        <time>2013-05-04T08:27:20.000Z</time>
      </trkpt>
      <trkpt lat="43.66839" lon="5.68319">
        <ele>409</ele>
        <time>2013-05-04T08:27:21.000Z</time>
      </trkpt>
      <trkpt lat="43.66843" lon="5.68325">
        <ele>408.79998779297</ele>
        <time>2013-05-04T08:27:22.000Z</time>
      </trkpt>
      <trkpt lat="43.66847" lon="5.68332">
        <ele>408.60000610352</ele>
        <time>2013-05-04T08:27:23.000Z</time>
      </trkpt>
      <trkpt lat="43.66849" lon="5.68339">
        <ele>408.39999389648</ele>
        <time>2013-05-04T08:27:24.000Z</time>
      </trkpt>
      <trkpt lat="43.66849" lon="5.68346">
        <ele>408.20001220703</ele>
        <time>2013-05-04T08:27:25.000Z</time>
      </trkpt>
      <trkpt lat="43.66847" lon="5.68353">
        <ele>408</ele>
        <time>2013-05-04T08:27:26.000Z</time>
      </trkpt>
      <trkpt lat="43.66844" lon="5.6836">
        <ele>407.60000610352</ele>
        <time>2013-05-04T08:27:27.000Z</time>
      </trkpt>
      <trkpt lat="43.66841" lon="5.68365">
        <ele>407.39999389648</ele>
        <time>2013-05-04T08:27:28.000Z</time>
      </trkpt>
      <trkpt lat="43.66837" lon="5.68371">
        <ele>407.20001220703</ele>
        <time>2013-05-04T08:27:29.000Z</time>
      </trkpt>
      <trkpt lat="43.66833" lon="5.68376">
        <ele>406.79998779297</ele>
        <time>2013-05-04T08:27:30.000Z</time>
      </trkpt>
      <trkpt lat="43.66817" lon="5.68396">
        <ele>406.79998779297</ele>
        <time>2013-05-04T08:27:34.000Z</time>
      </trkpt>
      <trkpt lat="43.66815" lon="5.68401">
        <ele>406.79998779297</ele>
        <time>2013-05-04T08:27:35.000Z</time>
      </trkpt>
      <trkpt lat="43.66813" lon="5.68407">
        <ele>406.79998779297</ele>
        <time>2013-05-04T08:27:36.000Z</time>
      </trkpt>
      <trkpt lat="43.66813" lon="5.68413">
        <ele>406.60000610352</ele>
        <time>2013-05-04T08:27:37.000Z</time>
      </trkpt>
      <trkpt lat="43.66814" lon="5.68419">
        <ele>406.60000610352</ele>
        <time>2013-05-04T08:27:38.000Z</time>
      </trkpt>
      <trkpt lat="43.66817" lon="5.68424">
        <ele>406.79998779297</ele>
        <time>2013-05-04T08:27:39.000Z</time>
      </trkpt>
      <trkpt lat="43.6682" lon="5.68429">
        <ele>406.79998779297</ele>
        <time>2013-05-04T08:27:40.000Z</time>
      </trkpt>
      <trkpt lat="43.66823" lon="5.68434">
        <ele>406.79998779297</ele>
        <time>2013-05-04T08:27:41.000Z</time>
      </trkpt>
      <trkpt lat="43.66827" lon="5.68439">
        <ele>407</ele>
        <time>2013-05-04T08:27:42.000Z</time>
      </trkpt>
      <trkpt lat="43.66831" lon="5.68444">
        <ele>407</ele>
        <time>2013-05-04T08:27:43.000Z</time>
      </trkpt>
      <trkpt lat="43.66835" lon="5.6845">
        <ele>407</ele>
        <time>2013-05-04T08:27:44.000Z</time>
      </trkpt>
      <trkpt lat="43.66888" lon="5.68522">
        <ele>408.39999389648</ele>
        <time>2013-05-04T08:27:56.000Z</time>
      </trkpt>
      <trkpt lat="43.66933" lon="5.68583">
        <ele>406.79998779297</ele>
        <time>2013-05-04T08:28:08.000Z</time>
      </trkpt>
      <trkpt lat="43.66959" lon="5.68636">
        <ele>404.60000610352</ele>
        <time>2013-05-04T08:28:18.000Z</time>
      </trkpt>
      <trkpt lat="43.66965" lon="5.68647">
        <ele>404.20001220703</ele>
        <time>2013-05-04T08:28:20.000Z</time>
      </trkpt>
      <trkpt lat="43.66969" lon="5.68652">
        <ele>404</ele>
        <time>2013-05-04T08:28:21.000Z</time>
      </trkpt>
      <trkpt lat="43.66973" lon="5.68657">
        <ele>403.79998779297</ele>
        <time>2013-05-04T08:28:22.000Z</time>
      </trkpt>
      <trkpt lat="43.66978" lon="5.68661">
        <ele>403.60000610352</ele>
        <time>2013-05-04T08:28:23.000Z</time>
      </trkpt>
      <trkpt lat="43.66983" lon="5.68665">
        <ele>403.60000610352</ele>
        <time>2013-05-04T08:28:24.000Z</time>
      </trkpt>
      <trkpt lat="43.67045" lon="5.68725">
        <ele>402.79998779297</ele>
        <time>2013-05-04T08:28:36.000Z</time>
      </trkpt>
      <trkpt lat="43.6705" lon="5.68729">
        <ele>402.79998779297</ele>
        <time>2013-05-04T08:28:37.000Z</time>
      </trkpt>
      <trkpt lat="43.67074" lon="5.68745">
        <ele>402.79998779297</ele>
        <time>2013-05-04T08:28:42.000Z</time>
      </trkpt>
      <trkpt lat="43.67091" lon="5.68758">
        <ele>402.60000610352</ele>
        <time>2013-05-04T08:28:46.000Z</time>
      </trkpt>
      <trkpt lat="43.67096" lon="5.68762">
        <ele>402.60000610352</ele>
        <time>2013-05-04T08:28:47.000Z</time>
      </trkpt>
      <trkpt lat="43.67101" lon="5.68766">
        <ele>402.39999389648</ele>
        <time>2013-05-04T08:28:48.000Z</time>
      </trkpt>
      <trkpt lat="43.67106" lon="5.68771">
        <ele>402.20001220703</ele>
        <time>2013-05-04T08:28:49.000Z</time>
      </trkpt>
      <trkpt lat="43.67112" lon="5.68777">
        <ele>401.79998779297</ele>
        <time>2013-05-04T08:28:50.000Z</time>
      </trkpt>
      <trkpt lat="43.67117" lon="5.68784">
        <ele>401.60000610352</ele>
        <time>2013-05-04T08:28:51.000Z</time>
      </trkpt>
      <trkpt lat="43.6717" lon="5.68857">
        <ele>398</ele>
        <time>2013-05-04T08:29:01.000Z</time>
      </trkpt>
      <trkpt lat="43.67217" lon="5.68906">
        <ele>397.39999389648</ele>
        <time>2013-05-04T08:29:11.000Z</time>
      </trkpt>
      <trkpt lat="43.67226" lon="5.68919">
        <ele>397.60000610352</ele>
        <time>2013-05-04T08:29:14.000Z</time>
      </trkpt>
      <trkpt lat="43.6723" lon="5.68929">
        <ele>397.60000610352</ele>
        <time>2013-05-04T08:29:16.000Z</time>
      </trkpt>
      <trkpt lat="43.67243" lon="5.6897">
        <ele>397.39999389648</ele>
        <time>2013-05-04T08:29:22.000Z</time>
      </trkpt>
      <trkpt lat="43.6725" lon="5.68993">
        <ele>397</ele>
        <time>2013-05-04T08:29:25.000Z</time>
      </trkpt>
      <trkpt lat="43.67255" lon="5.69007">
        <ele>396.39999389648</ele>
        <time>2013-05-04T08:29:27.000Z</time>
      </trkpt>
      <trkpt lat="43.67273" lon="5.6905">
        <ele>393.39999389648</ele>
        <time>2013-05-04T08:29:33.000Z</time>
      </trkpt>
      <trkpt lat="43.67286" lon="5.69071">
        <ele>391.39999389648</ele>
        <time>2013-05-04T08:29:36.000Z</time>
      </trkpt>
      <trkpt lat="43.67296" lon="5.69086">
        <ele>390</ele>
        <time>2013-05-04T08:29:38.000Z</time>
      </trkpt>
      <trkpt lat="43.6733" lon="5.69132">
        <ele>385.20001220703</ele>
        <time>2013-05-04T08:29:44.000Z</time>
      </trkpt>
      <trkpt lat="43.67359" lon="5.6918">
        <ele>382.39999389648</ele>
        <time>2013-05-04T08:29:49.000Z</time>
      </trkpt>
      <trkpt lat="43.67383" lon="5.69234">
        <ele>381.60000610352</ele>
        <time>2013-05-04T08:29:54.000Z</time>
      </trkpt>
      <trkpt lat="43.67392" lon="5.69252">
        <ele>381.20001220703</ele>
        <time>2013-05-04T08:29:56.000Z</time>
      </trkpt>
      <trkpt lat="43.67396" lon="5.69259">
        <ele>381.20001220703</ele>
        <time>2013-05-04T08:29:57.000Z</time>
      </trkpt>
      <trkpt lat="43.67401" lon="5.69263">
        <ele>381.20001220703</ele>
        <time>2013-05-04T08:29:58.000Z</time>
      </trkpt>
      <trkpt lat="43.67404" lon="5.69266">
        <ele>381</ele>
        <time>2013-05-04T08:29:59.000Z</time>
      </trkpt>
      <trkpt lat="43.67408" lon="5.69269">
        <ele>380.79998779297</ele>
        <time>2013-05-04T08:30:00.000Z</time>
      </trkpt>
      <trkpt lat="43.67411" lon="5.69271">
        <ele>380.79998779297</ele>
        <time>2013-05-04T08:30:01.000Z</time>
      </trkpt>
      <trkpt lat="43.67419" lon="5.69278">
        <ele>380.60000610352</ele>
        <time>2013-05-04T08:30:03.000Z</time>
      </trkpt>
      <trkpt lat="43.67422" lon="5.69282">
        <ele>380.79998779297</ele>
        <time>2013-05-04T08:30:04.000Z</time>
      </trkpt>
      <trkpt lat="43.67434" lon="5.69299">
        <ele>381.39999389648</ele>
        <time>2013-05-04T08:30:07.000Z</time>
      </trkpt>
      <trkpt lat="43.67442" lon="5.69312">
        <ele>381.79998779297</ele>
        <time>2013-05-04T08:30:09.000Z</time>
      </trkpt>
      <trkpt lat="43.67447" lon="5.69317">
        <ele>382</ele>
        <time>2013-05-04T08:30:10.000Z</time>
      </trkpt>
      <trkpt lat="43.67452" lon="5.6932">
        <ele>382.20001220703</ele>
        <time>2013-05-04T08:30:11.000Z</time>
      </trkpt>
      <trkpt lat="43.67457" lon="5.69323">
        <ele>382.20001220703</ele>
        <time>2013-05-04T08:30:12.000Z</time>
      </trkpt>
      <trkpt lat="43.67463" lon="5.69325">
        <ele>382.39999389648</ele>
        <time>2013-05-04T08:30:13.000Z</time>
      </trkpt>
      <trkpt lat="43.67468" lon="5.69326">
        <ele>382.39999389648</ele>
        <time>2013-05-04T08:30:14.000Z</time>
      </trkpt>
      <trkpt lat="43.67472" lon="5.69326">
        <ele>382.60000610352</ele>
        <time>2013-05-04T08:30:15.000Z</time>
      </trkpt>
      <trkpt lat="43.67496" lon="5.69322">
        <ele>382.79998779297</ele>
        <time>2013-05-04T08:30:21.000Z</time>
      </trkpt>
      <trkpt lat="43.67511" lon="5.6933">
        <ele>384.39999389648</ele>
        <time>2013-05-04T08:30:25.000Z</time>
      </trkpt>
      <trkpt lat="43.67514" lon="5.69335">
        <ele>384.79998779297</ele>
        <time>2013-05-04T08:30:26.000Z</time>
      </trkpt>
      <trkpt lat="43.67517" lon="5.69339">
        <ele>385</ele>
        <time>2013-05-04T08:30:27.000Z</time>
      </trkpt>
      <trkpt lat="43.67519" lon="5.69343">
        <ele>385.39999389648</ele>
        <time>2013-05-04T08:30:28.000Z</time>
      </trkpt>
      <trkpt lat="43.67522" lon="5.69348">
        <ele>385.79998779297</ele>
        <time>2013-05-04T08:30:29.000Z</time>
      </trkpt>
      <trkpt lat="43.67525" lon="5.69352">
        <ele>386</ele>
        <time>2013-05-04T08:30:30.000Z</time>
      </trkpt>
      <trkpt lat="43.67532" lon="5.69366">
        <ele>386.79998779297</ele>
        <time>2013-05-04T08:30:33.000Z</time>
      </trkpt>
      <trkpt lat="43.67559" lon="5.69418">
        <ele>388.20001220703</ele>
        <time>2013-05-04T08:30:44.000Z</time>
      </trkpt>
      <trkpt lat="43.67561" lon="5.69422">
        <ele>388.39999389648</ele>
        <time>2013-05-04T08:30:45.000Z</time>
      </trkpt>
      <trkpt lat="43.67582" lon="5.69468">
        <ele>390.39999389648</ele>
        <time>2013-05-04T08:30:56.000Z</time>
      </trkpt>
      <trkpt lat="43.67594" lon="5.69494">
        <ele>391.60000610352</ele>
        <time>2013-05-04T08:31:03.000Z</time>
      </trkpt>
      <trkpt lat="43.67611" lon="5.69524">
        <ele>393.60000610352</ele>
        <time>2013-05-04T08:31:12.000Z</time>
      </trkpt>
      <trkpt lat="43.67636" lon="5.69564">
        <ele>396.39999389648</ele>
        <time>2013-05-04T08:31:24.000Z</time>
      </trkpt>
      <trkpt lat="43.67655" lon="5.69592">
        <ele>398</ele>
        <time>2013-05-04T08:31:33.000Z</time>
      </trkpt>
      <trkpt lat="43.67676" lon="5.69643">
        <ele>400</ele>
        <time>2013-05-04T08:31:45.000Z</time>
      </trkpt>
      <trkpt lat="43.67692" lon="5.69693">
        <ele>400</ele>
        <time>2013-05-04T08:31:56.000Z</time>
      </trkpt>
      <trkpt lat="43.6771" lon="5.6971">
        <ele>399.39999389648</ele>
        <time>2013-05-04T08:32:02.000Z</time>
      </trkpt>
      <trkpt lat="43.67715" lon="5.69715">
        <ele>399</ele>
        <time>2013-05-04T08:32:03.000Z</time>
      </trkpt>
      <trkpt lat="43.67719" lon="5.69723">
        <ele>398.79998779297</ele>
        <time>2013-05-04T08:32:04.000Z</time>
      </trkpt>
      <trkpt lat="43.67732" lon="5.69755">
        <ele>397.60000610352</ele>
        <time>2013-05-04T08:32:07.000Z</time>
      </trkpt>
      <trkpt lat="43.67735" lon="5.69767">
        <ele>398</ele>
        <time>2013-05-04T08:32:08.000Z</time>
      </trkpt>
      <trkpt lat="43.67737" lon="5.69779">
        <ele>398.20001220703</ele>
        <time>2013-05-04T08:32:09.000Z</time>
      </trkpt>
      <trkpt lat="43.67746" lon="5.69808">
        <ele>399</ele>
        <time>2013-05-04T08:32:12.000Z</time>
      </trkpt>
      <trkpt lat="43.6775" lon="5.69815">
        <ele>399.20001220703</ele>
        <time>2013-05-04T08:32:13.000Z</time>
      </trkpt>
      <trkpt lat="43.6776" lon="5.69837">
        <ele>400</ele>
        <time>2013-05-04T08:32:17.000Z</time>
      </trkpt>
      <trkpt lat="43.67775" lon="5.69871">
        <ele>401.20001220703</ele>
        <time>2013-05-04T08:32:25.000Z</time>
      </trkpt>
      <trkpt lat="43.67794" lon="5.69913">
        <ele>403.39999389648</ele>
        <time>2013-05-04T08:32:36.000Z</time>
      </trkpt>
      <trkpt lat="43.6782" lon="5.69953">
        <ele>406</ele>
        <time>2013-05-04T08:32:48.000Z</time>
      </trkpt>
      <trkpt lat="43.67843" lon="5.69974">
        <ele>407.39999389648</ele>
        <time>2013-05-04T08:32:58.000Z</time>
      </trkpt>
      <trkpt lat="43.67847" lon="5.69987">
        <ele>408</ele>
        <time>2013-05-04T08:33:02.000Z</time>
      </trkpt>
      <trkpt lat="43.67847" lon="5.6999">
        <ele>408</ele>
        <time>2013-05-04T08:33:03.000Z</time>
      </trkpt>
      <trkpt lat="43.67845" lon="5.69993">
        <ele>408</ele>
        <time>2013-05-04T08:33:04.000Z</time>
      </trkpt>
      <trkpt lat="43.67844" lon="5.69995">
        <ele>408.20001220703</ele>
        <time>2013-05-04T08:33:05.000Z</time>
      </trkpt>
      <trkpt lat="43.67842" lon="5.69998">
        <ele>408.20001220703</ele>
        <time>2013-05-04T08:33:06.000Z</time>
      </trkpt>
      <trkpt lat="43.67841" lon="5.7">
        <ele>408.20001220703</ele>
        <time>2013-05-04T08:33:07.000Z</time>
      </trkpt>
      <trkpt lat="43.6784" lon="5.70003">
        <ele>408.39999389648</ele>
        <time>2013-05-04T08:33:08.000Z</time>
      </trkpt>
      <trkpt lat="43.67839" lon="5.70005">
        <ele>408.60000610352</ele>
        <time>2013-05-04T08:33:09.000Z</time>
      </trkpt>
      <trkpt lat="43.67825" lon="5.7003">
        <ele>410.60000610352</ele>
        <time>2013-05-04T08:33:19.000Z</time>
      </trkpt>
      <trkpt lat="43.67821" lon="5.70043">
        <ele>411.79998779297</ele>
        <time>2013-05-04T08:33:23.000Z</time>
      </trkpt>
      <trkpt lat="43.67822" lon="5.70046">
        <ele>412</ele>
        <time>2013-05-04T08:33:24.000Z</time>
      </trkpt>
      <trkpt lat="43.67824" lon="5.70049">
        <ele>412.39999389648</ele>
        <time>2013-05-04T08:33:25.000Z</time>
      </trkpt>
      <trkpt lat="43.67826" lon="5.7005">
        <ele>412.60000610352</ele>
        <time>2013-05-04T08:33:26.000Z</time>
      </trkpt>
      <trkpt lat="43.67828" lon="5.7005">
        <ele>412.60000610352</ele>
        <time>2013-05-04T08:33:27.000Z</time>
      </trkpt>
      <trkpt lat="43.67831" lon="5.7005">
        <ele>412.60000610352</ele>
        <time>2013-05-04T08:33:28.000Z</time>
      </trkpt>
      <trkpt lat="43.67849" lon="5.70048">
        <ele>413.39999389648</ele>
        <time>2013-05-04T08:33:35.000Z</time>
      </trkpt>
      <trkpt lat="43.67851" lon="5.70048">
        <ele>413.39999389648</ele>
        <time>2013-05-04T08:33:36.000Z</time>
      </trkpt>
      <trkpt lat="43.67858" lon="5.70047">
        <ele>413.79998779297</ele>
        <time>2013-05-04T08:33:39.000Z</time>
      </trkpt>
      <trkpt lat="43.67861" lon="5.70049">
        <ele>414.20001220703</ele>
        <time>2013-05-04T08:33:40.000Z</time>
      </trkpt>
      <trkpt lat="43.67863" lon="5.70051">
        <ele>414.60000610352</ele>
        <time>2013-05-04T08:33:41.000Z</time>
      </trkpt>
      <trkpt lat="43.67865" lon="5.70054">
        <ele>415</ele>
        <time>2013-05-04T08:33:42.000Z</time>
      </trkpt>
      <trkpt lat="43.67865" lon="5.70057">
        <ele>415.39999389648</ele>
        <time>2013-05-04T08:33:43.000Z</time>
      </trkpt>
      <trkpt lat="43.67866" lon="5.70061">
        <ele>415.79998779297</ele>
        <time>2013-05-04T08:33:44.000Z</time>
      </trkpt>
      <trkpt lat="43.67866" lon="5.70065">
        <ele>416.20001220703</ele>
        <time>2013-05-04T08:33:45.000Z</time>
      </trkpt>
      <trkpt lat="43.67866" lon="5.70068">
        <ele>416.60000610352</ele>
        <time>2013-05-04T08:33:46.000Z</time>
      </trkpt>
      <trkpt lat="43.67877" lon="5.70107">
        <ele>421.60000610352</ele>
        <time>2013-05-04T08:33:57.000Z</time>
      </trkpt>
      <trkpt lat="43.67877" lon="5.70111">
        <ele>422.20001220703</ele>
        <time>2013-05-04T08:33:58.000Z</time>
      </trkpt>
      <trkpt lat="43.67876" lon="5.70115">
        <ele>422.60000610352</ele>
        <time>2013-05-04T08:33:59.000Z</time>
      </trkpt>
      <trkpt lat="43.67875" lon="5.70119">
        <ele>423</ele>
        <time>2013-05-04T08:34:00.000Z</time>
      </trkpt>
      <trkpt lat="43.67874" lon="5.70122">
        <ele>423.20001220703</ele>
        <time>2013-05-04T08:34:01.000Z</time>
      </trkpt>
      <trkpt lat="43.67872" lon="5.70125">
        <ele>423.39999389648</ele>
        <time>2013-05-04T08:34:02.000Z</time>
      </trkpt>
      <trkpt lat="43.6787" lon="5.70128">
        <ele>423.60000610352</ele>
        <time>2013-05-04T08:34:03.000Z</time>
      </trkpt>
      <trkpt lat="43.67867" lon="5.7013">
        <ele>423.79998779297</ele>
        <time>2013-05-04T08:34:04.000Z</time>
      </trkpt>
      <trkpt lat="43.67864" lon="5.70132">
        <ele>423.79998779297</ele>
        <time>2013-05-04T08:34:05.000Z</time>
      </trkpt>
      <trkpt lat="43.67861" lon="5.70135">
        <ele>423.79998779297</ele>
        <time>2013-05-04T08:34:06.000Z</time>
      </trkpt>
      <trkpt lat="43.67857" lon="5.70138">
        <ele>424</ele>
        <time>2013-05-04T08:34:07.000Z</time>
      </trkpt>
      <trkpt lat="43.67853" lon="5.70141">
        <ele>424.20001220703</ele>
        <time>2013-05-04T08:34:08.000Z</time>
      </trkpt>
      <trkpt lat="43.6785" lon="5.70145">
        <ele>424.39999389648</ele>
        <time>2013-05-04T08:34:09.000Z</time>
      </trkpt>
      <trkpt lat="43.67847" lon="5.70147">
        <ele>424.39999389648</ele>
        <time>2013-05-04T08:34:10.000Z</time>
      </trkpt>
      <trkpt lat="43.67821" lon="5.70171">
        <ele>425.60000610352</ele>
        <time>2013-05-04T08:34:21.000Z</time>
      </trkpt>
      <trkpt lat="43.67798" lon="5.70208">
        <ele>428</ele>
        <time>2013-05-04T08:34:33.000Z</time>
      </trkpt>
      <trkpt lat="43.67785" lon="5.70242">
        <ele>430.20001220703</ele>
        <time>2013-05-04T08:34:43.000Z</time>
      </trkpt>
      <trkpt lat="43.67775" lon="5.70277">
        <ele>431.60000610352</ele>
        <time>2013-05-04T08:34:53.000Z</time>
      </trkpt>
      <trkpt lat="43.6776" lon="5.70315">
        <ele>433.60000610352</ele>
        <time>2013-05-04T08:35:05.000Z</time>
      </trkpt>
      <trkpt lat="43.67749" lon="5.70343">
        <ele>434.39999389648</ele>
        <time>2013-05-04T08:35:15.000Z</time>
      </trkpt>
      <trkpt lat="43.6774" lon="5.70353">
        <ele>434.39999389648</ele>
        <time>2013-05-04T08:35:20.000Z</time>
      </trkpt>
      <trkpt lat="43.67739" lon="5.70354">
        <ele>434.60000610352</ele>
        <time>2013-05-04T08:35:21.000Z</time>
      </trkpt>
      <trkpt lat="43.67737" lon="5.70356">
        <ele>434.60000610352</ele>
        <time>2013-05-04T08:35:22.000Z</time>
      </trkpt>
      <trkpt lat="43.67736" lon="5.70358">
        <ele>434.60000610352</ele>
        <time>2013-05-04T08:35:23.000Z</time>
      </trkpt>
      <trkpt lat="43.67734" lon="5.7036">
        <ele>434.79998779297</ele>
        <time>2013-05-04T08:35:24.000Z</time>
      </trkpt>
      <trkpt lat="43.67732" lon="5.70361">
        <ele>434.79998779297</ele>
        <time>2013-05-04T08:35:25.000Z</time>
      </trkpt>
      <trkpt lat="43.67717" lon="5.70374">
        <ele>436.39999389648</ele>
        <time>2013-05-04T08:35:34.000Z</time>
      </trkpt>
      <trkpt lat="43.677" lon="5.70394">
        <ele>439.20001220703</ele>
        <time>2013-05-04T08:35:46.000Z</time>
      </trkpt>
      <trkpt lat="43.67682" lon="5.70407">
        <ele>443</ele>
        <time>2013-05-04T08:35:57.000Z</time>
      </trkpt>
      <trkpt lat="43.67663" lon="5.70408">
        <ele>446.60000610352</ele>
        <time>2013-05-04T08:36:08.000Z</time>
      </trkpt>
      <trkpt lat="43.6764" lon="5.70407">
        <ele>451.60000610352</ele>
        <time>2013-05-04T08:36:20.000Z</time>
      </trkpt>
      <trkpt lat="43.6763" lon="5.70406">
        <ele>453.60000610352</ele>
        <time>2013-05-04T08:36:25.000Z</time>
      </trkpt>
      <trkpt lat="43.67607" lon="5.70398">
        <ele>457.39999389648</ele>
        <time>2013-05-04T08:36:37.000Z</time>
      </trkpt>
      <trkpt lat="43.67582" lon="5.70386">
        <ele>459.79998779297</ele>
        <time>2013-05-04T08:36:48.000Z</time>
      </trkpt>
      <trkpt lat="43.67553" lon="5.70362">
        <ele>460.79998779297</ele>
        <time>2013-05-04T08:37:01.000Z</time>
      </trkpt>
      <trkpt lat="43.67528" lon="5.7035">
        <ele>463.39999389648</ele>
        <time>2013-05-04T08:37:12.000Z</time>
      </trkpt>
      <trkpt lat="43.67513" lon="5.70351">
        <ele>466.39999389648</ele>
        <time>2013-05-04T08:37:19.000Z</time>
      </trkpt>
      <trkpt lat="43.67512" lon="5.70353">
        <ele>467.20001220703</ele>
        <time>2013-05-04T08:37:20.000Z</time>
      </trkpt>
      <trkpt lat="43.67512" lon="5.70356">
        <ele>467.79998779297</ele>
        <time>2013-05-04T08:37:21.000Z</time>
      </trkpt>
      <trkpt lat="43.67513" lon="5.70358">
        <ele>468</ele>
        <time>2013-05-04T08:37:22.000Z</time>
      </trkpt>
      <trkpt lat="43.67514" lon="5.7036">
        <ele>468</ele>
        <time>2013-05-04T08:37:23.000Z</time>
      </trkpt>
      <trkpt lat="43.67516" lon="5.70361">
        <ele>468.20001220703</ele>
        <time>2013-05-04T08:37:24.000Z</time>
      </trkpt>
      <trkpt lat="43.6753" lon="5.70381">
        <ele>469.60000610352</ele>
        <time>2013-05-04T08:37:34.000Z</time>
      </trkpt>
      <trkpt lat="43.67549" lon="5.70397">
        <ele>469.20001220703</ele>
        <time>2013-05-04T08:37:45.000Z</time>
      </trkpt>
      <trkpt lat="43.67562" lon="5.70425">
        <ele>471.20001220703</ele>
        <time>2013-05-04T08:37:56.000Z</time>
      </trkpt>
      <trkpt lat="43.67574" lon="5.70457">
        <ele>470.39999389648</ele>
        <time>2013-05-04T08:38:08.000Z</time>
      </trkpt>
      <trkpt lat="43.67577" lon="5.70484">
        <ele>471</ele>
        <time>2013-05-04T08:38:17.000Z</time>
      </trkpt>
      <trkpt lat="43.67574" lon="5.70494">
        <ele>472.60000610352</ele>
        <time>2013-05-04T08:38:21.000Z</time>
      </trkpt>
      <trkpt lat="43.67572" lon="5.70497">
        <ele>473.20001220703</ele>
        <time>2013-05-04T08:38:22.000Z</time>
      </trkpt>
      <trkpt lat="43.67571" lon="5.70499">
        <ele>473.79998779297</ele>
        <time>2013-05-04T08:38:23.000Z</time>
      </trkpt>
      <trkpt lat="43.67569" lon="5.70501">
        <ele>474.20001220703</ele>
        <time>2013-05-04T08:38:24.000Z</time>
      </trkpt>
      <trkpt lat="43.67567" lon="5.70503">
        <ele>474.60000610352</ele>
        <time>2013-05-04T08:38:25.000Z</time>
      </trkpt>
      <trkpt lat="43.67565" lon="5.70504">
        <ele>474.79998779297</ele>
        <time>2013-05-04T08:38:26.000Z</time>
      </trkpt>
      <trkpt lat="43.67563" lon="5.70506">
        <ele>475</ele>
        <time>2013-05-04T08:38:27.000Z</time>
      </trkpt>
      <trkpt lat="43.67561" lon="5.70508">
        <ele>475.39999389648</ele>
        <time>2013-05-04T08:38:28.000Z</time>
      </trkpt>
      <trkpt lat="43.6756" lon="5.7051">
        <ele>475.60000610352</ele>
        <time>2013-05-04T08:38:29.000Z</time>
      </trkpt>
      <trkpt lat="43.67537" lon="5.70526">
        <ele>480.39999389648</ele>
        <time>2013-05-04T08:38:41.000Z</time>
      </trkpt>
      <trkpt lat="43.6752" lon="5.70537">
        <ele>484.79998779297</ele>
        <time>2013-05-04T08:38:50.000Z</time>
      </trkpt>
      <trkpt lat="43.675" lon="5.70553">
        <ele>490.20001220703</ele>
        <time>2013-05-04T08:39:01.000Z</time>
      </trkpt>
      <trkpt lat="43.67477" lon="5.70571">
        <ele>492.20001220703</ele>
        <time>2013-05-04T08:39:14.000Z</time>
      </trkpt>
      <trkpt lat="43.67458" lon="5.70583">
        <ele>494.79998779297</ele>
        <time>2013-05-04T08:39:24.000Z</time>
      </trkpt>
      <trkpt lat="43.67437" lon="5.70588">
        <ele>498.79998779297</ele>
        <time>2013-05-04T08:39:36.000Z</time>
      </trkpt>
      <trkpt lat="43.67417" lon="5.70593">
        <ele>502.39999389648</ele>
        <time>2013-05-04T08:39:47.000Z</time>
      </trkpt>
      <trkpt lat="43.6739" lon="5.70599">
        <ele>504.20001220703</ele>
        <time>2013-05-04T08:40:00.000Z</time>
      </trkpt>
      <trkpt lat="43.67366" lon="5.70596">
        <ele>506</ele>
        <time>2013-05-04T08:40:11.000Z</time>
      </trkpt>
      <trkpt lat="43.67342" lon="5.70593">
        <ele>507.60000610352</ele>
        <time>2013-05-04T08:40:22.000Z</time>
      </trkpt>
      <trkpt lat="43.67341" lon="5.70595">
        <ele>507.79998779297</ele>
        <time>2013-05-04T08:40:23.000Z</time>
      </trkpt>
      <trkpt lat="43.67339" lon="5.70597">
        <ele>508</ele>
        <time>2013-05-04T08:40:24.000Z</time>
      </trkpt>
      <trkpt lat="43.67337" lon="5.70599">
        <ele>508.20001220703</ele>
        <time>2013-05-04T08:40:25.000Z</time>
      </trkpt>
      <trkpt lat="43.67336" lon="5.70601">
        <ele>508.39999389648</ele>
        <time>2013-05-04T08:40:26.000Z</time>
      </trkpt>
      <trkpt lat="43.67334" lon="5.70603">
        <ele>508.60000610352</ele>
        <time>2013-05-04T08:40:27.000Z</time>
      </trkpt>
      <trkpt lat="43.67332" lon="5.70606">
        <ele>508.79998779297</ele>
        <time>2013-05-04T08:40:28.000Z</time>
      </trkpt>
      <trkpt lat="43.6733" lon="5.70609">
        <ele>508.79998779297</ele>
        <time>2013-05-04T08:40:29.000Z</time>
      </trkpt>
      <trkpt lat="43.67328" lon="5.70611">
        <ele>509</ele>
        <time>2013-05-04T08:40:30.000Z</time>
      </trkpt>
      <trkpt lat="43.67326" lon="5.70614">
        <ele>509</ele>
        <time>2013-05-04T08:40:31.000Z</time>
      </trkpt>
      <trkpt lat="43.67324" lon="5.70617">
        <ele>509.20001220703</ele>
        <time>2013-05-04T08:40:32.000Z</time>
      </trkpt>
      <trkpt lat="43.67322" lon="5.70621">
        <ele>509.39999389648</ele>
        <time>2013-05-04T08:40:33.000Z</time>
      </trkpt>
      <trkpt lat="43.6728" lon="5.70666">
        <ele>512.20001220703</ele>
        <time>2013-05-04T08:40:45.000Z</time>
      </trkpt>
      <trkpt lat="43.6725" lon="5.70701">
        <ele>515.40002441406</ele>
        <time>2013-05-04T08:40:55.000Z</time>
      </trkpt>
      <trkpt lat="43.67228" lon="5.70728">
        <ele>517</ele>
        <time>2013-05-04T08:41:04.000Z</time>
      </trkpt>
      <trkpt lat="43.67218" lon="5.70736">
        <ele>517.20001220703</ele>
        <time>2013-05-04T08:41:13.000Z</time>
      </trkpt>
      <trkpt lat="43.67218" lon="5.70738">
        <ele>517.40002441406</ele>
        <time>2013-05-04T08:41:27.000Z</time>
      </trkpt>
      <trkpt lat="43.67219" lon="5.70739">
        <ele>517.40002441406</ele>
        <time>2013-05-04T08:41:36.000Z</time>
      </trkpt>
      <trkpt lat="43.67222" lon="5.7074">
        <ele>517.59997558594</ele>
        <time>2013-05-04T08:42:16.000Z</time>
      </trkpt>
      <trkpt lat="43.67222" lon="5.70738">
        <ele>517.40002441406</ele>
        <time>2013-05-04T08:42:51.000Z</time>
      </trkpt>
      <trkpt lat="43.67218" lon="5.70738">
        <ele>517.40002441406</ele>
        <time>2013-05-04T08:43:02.000Z</time>
      </trkpt>
      <trkpt lat="43.67215" lon="5.7074">
        <ele>517.40002441406</ele>
        <time>2013-05-04T08:43:12.000Z</time>
      </trkpt>
      <trkpt lat="43.67214" lon="5.70741">
        <ele>517.40002441406</ele>
        <time>2013-05-04T08:43:35.000Z</time>
      </trkpt>
      <trkpt lat="43.67214" lon="5.7074">
        <ele>517.40002441406</ele>
        <time>2013-05-04T08:43:54.000Z</time>
      </trkpt>
      <trkpt lat="43.67214" lon="5.7074">
        <ele>517.40002441406</ele>
        <time>2013-05-04T08:44:13.000Z</time>
      </trkpt>
      <trkpt lat="43.67213" lon="5.70741">
        <ele>517.40002441406</ele>
        <time>2013-05-04T08:44:33.000Z</time>
      </trkpt>
      <trkpt lat="43.67213" lon="5.70744">
        <ele>517.59997558594</ele>
        <time>2013-05-04T08:44:42.000Z</time>
      </trkpt>
      <trkpt lat="43.67215" lon="5.7074">
        <ele>517.40002441406</ele>
        <time>2013-05-04T08:45:06.000Z</time>
      </trkpt>
      <trkpt lat="43.67215" lon="5.70739">
        <ele>517.40002441406</ele>
        <time>2013-05-04T08:45:24.000Z</time>
      </trkpt>
      <trkpt lat="43.67215" lon="5.70742">
        <ele>517.59997558594</ele>
        <time>2013-05-04T08:45:55.000Z</time>
      </trkpt>
      <trkpt lat="43.67216" lon="5.70741">
        <ele>517.59997558594</ele>
        <time>2013-05-04T08:46:22.000Z</time>
      </trkpt>
      <trkpt lat="43.67215" lon="5.7074">
        <ele>517.40002441406</ele>
        <time>2013-05-04T08:46:47.000Z</time>
      </trkpt>
      <trkpt lat="43.67215" lon="5.70739">
        <ele>517.40002441406</ele>
        <time>2013-05-04T08:47:14.000Z</time>
      </trkpt>
      <trkpt lat="43.67212" lon="5.70742">
        <ele>517.40002441406</ele>
        <time>2013-05-04T08:47:25.000Z</time>
      </trkpt>
      <trkpt lat="43.67205" lon="5.70748">
        <ele>517.79998779297</ele>
        <time>2013-05-04T08:47:30.000Z</time>
      </trkpt>
      <trkpt lat="43.67204" lon="5.7075">
        <ele>517.79998779297</ele>
        <time>2013-05-04T08:47:31.000Z</time>
      </trkpt>
      <trkpt lat="43.67177" lon="5.70789">
        <ele>516.20001220703</ele>
        <time>2013-05-04T08:47:44.000Z</time>
      </trkpt>
      <trkpt lat="43.67168" lon="5.70806">
        <ele>516.20001220703</ele>
        <time>2013-05-04T08:47:48.000Z</time>
      </trkpt>
      <trkpt lat="43.6714" lon="5.70855">
        <ele>512.40002441406</ele>
        <time>2013-05-04T08:47:57.000Z</time>
      </trkpt>
      <trkpt lat="43.67137" lon="5.70861">
        <ele>511.79998779297</ele>
        <time>2013-05-04T08:47:58.000Z</time>
      </trkpt>
      <trkpt lat="43.67118" lon="5.7089">
        <ele>508.79998779297</ele>
        <time>2013-05-04T08:48:03.000Z</time>
      </trkpt>
      <trkpt lat="43.67097" lon="5.70918">
        <ele>505.79998779297</ele>
        <time>2013-05-04T08:48:08.000Z</time>
      </trkpt>
      <trkpt lat="43.67093" lon="5.70926">
        <ele>505.39999389648</ele>
        <time>2013-05-04T08:48:09.000Z</time>
      </trkpt>
      <trkpt lat="43.6709" lon="5.70934">
        <ele>504.79998779297</ele>
        <time>2013-05-04T08:48:10.000Z</time>
      </trkpt>
      <trkpt lat="43.67088" lon="5.70942">
        <ele>504.60000610352</ele>
        <time>2013-05-04T08:48:11.000Z</time>
      </trkpt>
      <trkpt lat="43.67086" lon="5.7095">
        <ele>504.20001220703</ele>
        <time>2013-05-04T08:48:12.000Z</time>
      </trkpt>
      <trkpt lat="43.67085" lon="5.70958">
        <ele>504</ele>
        <time>2013-05-04T08:48:13.000Z</time>
      </trkpt>
      <trkpt lat="43.67083" lon="5.70966">
        <ele>503.79998779297</ele>
        <time>2013-05-04T08:48:14.000Z</time>
      </trkpt>
      <trkpt lat="43.67082" lon="5.70973">
        <ele>503.39999389648</ele>
        <time>2013-05-04T08:48:15.000Z</time>
      </trkpt>
      <trkpt lat="43.6708" lon="5.7098">
        <ele>503</ele>
        <time>2013-05-04T08:48:16.000Z</time>
      </trkpt>
      <trkpt lat="43.67077" lon="5.70985">
        <ele>502.39999389648</ele>
        <time>2013-05-04T08:48:17.000Z</time>
      </trkpt>
      <trkpt lat="43.67072" lon="5.70988">
        <ele>501.79998779297</ele>
        <time>2013-05-04T08:48:18.000Z</time>
      </trkpt>
      <trkpt lat="43.67067" lon="5.7099">
        <ele>501</ele>
        <time>2013-05-04T08:48:19.000Z</time>
      </trkpt>
      <trkpt lat="43.67061" lon="5.7099">
        <ele>500.20001220703</ele>
        <time>2013-05-04T08:48:20.000Z</time>
      </trkpt>
      <trkpt lat="43.67056" lon="5.7099">
        <ele>499.60000610352</ele>
        <time>2013-05-04T08:48:21.000Z</time>
      </trkpt>
      <trkpt lat="43.6705" lon="5.70992">
        <ele>498.79998779297</ele>
        <time>2013-05-04T08:48:22.000Z</time>
      </trkpt>
      <trkpt lat="43.67044" lon="5.70995">
        <ele>498.20001220703</ele>
        <time>2013-05-04T08:48:23.000Z</time>
      </trkpt>
      <trkpt lat="43.67038" lon="5.70999">
        <ele>497.39999389648</ele>
        <time>2013-05-04T08:48:24.000Z</time>
      </trkpt>
      <trkpt lat="43.67034" lon="5.71005">
        <ele>496.60000610352</ele>
        <time>2013-05-04T08:48:25.000Z</time>
      </trkpt>
      <trkpt lat="43.67032" lon="5.71013">
        <ele>496</ele>
        <time>2013-05-04T08:48:26.000Z</time>
      </trkpt>
      <trkpt lat="43.67031" lon="5.71022">
        <ele>495.39999389648</ele>
        <time>2013-05-04T08:48:27.000Z</time>
      </trkpt>
      <trkpt lat="43.6703" lon="5.7103">
        <ele>494.79998779297</ele>
        <time>2013-05-04T08:48:28.000Z</time>
      </trkpt>
      <trkpt lat="43.67028" lon="5.71036">
        <ele>494.20001220703</ele>
        <time>2013-05-04T08:48:29.000Z</time>
      </trkpt>
      <trkpt lat="43.67024" lon="5.71042">
        <ele>493.60000610352</ele>
        <time>2013-05-04T08:48:30.000Z</time>
      </trkpt>
      <trkpt lat="43.67019" lon="5.71045">
        <ele>493</ele>
        <time>2013-05-04T08:48:31.000Z</time>
      </trkpt>
      <trkpt lat="43.67013" lon="5.71046">
        <ele>492.39999389648</ele>
        <time>2013-05-04T08:48:32.000Z</time>
      </trkpt>
      <trkpt lat="43.67007" lon="5.71046">
        <ele>491.79998779297</ele>
        <time>2013-05-04T08:48:33.000Z</time>
      </trkpt>
      <trkpt lat="43.67" lon="5.71045">
        <ele>491.20001220703</ele>
        <time>2013-05-04T08:48:34.000Z</time>
      </trkpt>
      <trkpt lat="43.66994" lon="5.71044">
        <ele>490.39999389648</ele>
        <time>2013-05-04T08:48:35.000Z</time>
      </trkpt>
      <trkpt lat="43.66987" lon="5.71042">
        <ele>489.20001220703</ele>
        <time>2013-05-04T08:48:36.000Z</time>
      </trkpt>
      <trkpt lat="43.66981" lon="5.7104">
        <ele>488.20001220703</ele>
        <time>2013-05-04T08:48:37.000Z</time>
      </trkpt>
      <trkpt lat="43.66974" lon="5.71038">
        <ele>487.20001220703</ele>
        <time>2013-05-04T08:48:38.000Z</time>
      </trkpt>
      <trkpt lat="43.66969" lon="5.71039">
        <ele>486.20001220703</ele>
        <time>2013-05-04T08:48:39.000Z</time>
      </trkpt>
      <trkpt lat="43.66963" lon="5.71042">
        <ele>485.20001220703</ele>
        <time>2013-05-04T08:48:40.000Z</time>
      </trkpt>
      <trkpt lat="43.66959" lon="5.71047">
        <ele>484.39999389648</ele>
        <time>2013-05-04T08:48:41.000Z</time>
      </trkpt>
      <trkpt lat="43.66956" lon="5.71055">
        <ele>484</ele>
        <time>2013-05-04T08:48:42.000Z</time>
      </trkpt>
      <trkpt lat="43.66954" lon="5.71063">
        <ele>483.79998779297</ele>
        <time>2013-05-04T08:48:43.000Z</time>
      </trkpt>
      <trkpt lat="43.66953" lon="5.71072">
        <ele>483.60000610352</ele>
        <time>2013-05-04T08:48:44.000Z</time>
      </trkpt>
      <trkpt lat="43.66953" lon="5.7108">
        <ele>483.79998779297</ele>
        <time>2013-05-04T08:48:45.000Z</time>
      </trkpt>
      <trkpt lat="43.66953" lon="5.71087">
        <ele>483.20001220703</ele>
        <time>2013-05-04T08:48:46.000Z</time>
      </trkpt>
      <trkpt lat="43.6695" lon="5.71093">
        <ele>482.39999389648</ele>
        <time>2013-05-04T08:48:47.000Z</time>
      </trkpt>
      <trkpt lat="43.66946" lon="5.71096">
        <ele>481.60000610352</ele>
        <time>2013-05-04T08:48:48.000Z</time>
      </trkpt>
      <trkpt lat="43.66941" lon="5.71096">
        <ele>481.20001220703</ele>
        <time>2013-05-04T08:48:49.000Z</time>
      </trkpt>
      <trkpt lat="43.66936" lon="5.71093">
        <ele>480.60000610352</ele>
        <time>2013-05-04T08:48:50.000Z</time>
      </trkpt>
      <trkpt lat="43.66932" lon="5.71088">
        <ele>480.39999389648</ele>
        <time>2013-05-04T08:48:51.000Z</time>
      </trkpt>
      <trkpt lat="43.66928" lon="5.71082">
        <ele>480.39999389648</ele>
        <time>2013-05-04T08:48:52.000Z</time>
      </trkpt>
      <trkpt lat="43.66924" lon="5.71076">
        <ele>479.60000610352</ele>
        <time>2013-05-04T08:48:53.000Z</time>
      </trkpt>
      <trkpt lat="43.6692" lon="5.71071">
        <ele>479</ele>
        <time>2013-05-04T08:48:54.000Z</time>
      </trkpt>
      <trkpt lat="43.66917" lon="5.71069">
        <ele>478.39999389648</ele>
        <time>2013-05-04T08:48:55.000Z</time>
      </trkpt>
      <trkpt lat="43.66913" lon="5.7107">
        <ele>478</ele>
        <time>2013-05-04T08:48:56.000Z</time>
      </trkpt>
      <trkpt lat="43.66911" lon="5.71074">
        <ele>477.79998779297</ele>
        <time>2013-05-04T08:48:57.000Z</time>
      </trkpt>
      <trkpt lat="43.6691" lon="5.7108">
        <ele>477.79998779297</ele>
        <time>2013-05-04T08:48:58.000Z</time>
      </trkpt>
      <trkpt lat="43.6691" lon="5.71086">
        <ele>477.79998779297</ele>
        <time>2013-05-04T08:48:59.000Z</time>
      </trkpt>
      <trkpt lat="43.66911" lon="5.71093">
        <ele>477.39999389648</ele>
        <time>2013-05-04T08:49:00.000Z</time>
      </trkpt>
      <trkpt lat="43.66912" lon="5.711">
        <ele>477</ele>
        <time>2013-05-04T08:49:01.000Z</time>
      </trkpt>
      <trkpt lat="43.66915" lon="5.71116">
        <ele>476.20001220703</ele>
        <time>2013-05-04T08:49:03.000Z</time>
      </trkpt>
      <trkpt lat="43.66915" lon="5.71123">
        <ele>475.79998779297</ele>
        <time>2013-05-04T08:49:04.000Z</time>
      </trkpt>
      <trkpt lat="43.66914" lon="5.71129">
        <ele>475.39999389648</ele>
        <time>2013-05-04T08:49:05.000Z</time>
      </trkpt>
      <trkpt lat="43.66911" lon="5.71134">
        <ele>474.60000610352</ele>
        <time>2013-05-04T08:49:06.000Z</time>
      </trkpt>
      <trkpt lat="43.66906" lon="5.71136">
        <ele>473.79998779297</ele>
        <time>2013-05-04T08:49:07.000Z</time>
      </trkpt>
      <trkpt lat="43.669" lon="5.71135">
        <ele>473.20001220703</ele>
        <time>2013-05-04T08:49:08.000Z</time>
      </trkpt>
      <trkpt lat="43.66893" lon="5.71133">
        <ele>472.39999389648</ele>
        <time>2013-05-04T08:49:09.000Z</time>
      </trkpt>
      <trkpt lat="43.66886" lon="5.71128">
        <ele>471.79998779297</ele>
        <time>2013-05-04T08:49:10.000Z</time>
      </trkpt>
      <trkpt lat="43.6688" lon="5.71123">
        <ele>471.39999389648</ele>
        <time>2013-05-04T08:49:11.000Z</time>
      </trkpt>
      <trkpt lat="43.66874" lon="5.71116">
        <ele>471</ele>
        <time>2013-05-04T08:49:12.000Z</time>
      </trkpt>
      <trkpt lat="43.66868" lon="5.71109">
        <ele>470.60000610352</ele>
        <time>2013-05-04T08:49:13.000Z</time>
      </trkpt>
      <trkpt lat="43.66863" lon="5.71103">
        <ele>470.20001220703</ele>
        <time>2013-05-04T08:49:14.000Z</time>
      </trkpt>
      <trkpt lat="43.66858" lon="5.71099">
        <ele>469.79998779297</ele>
        <time>2013-05-04T08:49:15.000Z</time>
      </trkpt>
      <trkpt lat="43.66854" lon="5.71098">
        <ele>469.20001220703</ele>
        <time>2013-05-04T08:49:16.000Z</time>
      </trkpt>
      <trkpt lat="43.6685" lon="5.711">
        <ele>468.60000610352</ele>
        <time>2013-05-04T08:49:17.000Z</time>
      </trkpt>
      <trkpt lat="43.66848" lon="5.71105">
        <ele>468.20001220703</ele>
        <time>2013-05-04T08:49:18.000Z</time>
      </trkpt>
      <trkpt lat="43.66848" lon="5.71112">
        <ele>467.79998779297</ele>
        <time>2013-05-04T08:49:19.000Z</time>
      </trkpt>
      <trkpt lat="43.6685" lon="5.71119">
        <ele>467.79998779297</ele>
        <time>2013-05-04T08:49:20.000Z</time>
      </trkpt>
      <trkpt lat="43.66851" lon="5.71127">
        <ele>467.60000610352</ele>
        <time>2013-05-04T08:49:21.000Z</time>
      </trkpt>
      <trkpt lat="43.66861" lon="5.71165">
        <ele>467</ele>
        <time>2013-05-04T08:49:26.000Z</time>
      </trkpt>
      <trkpt lat="43.66861" lon="5.71172">
        <ele>466.60000610352</ele>
        <time>2013-05-04T08:49:27.000Z</time>
      </trkpt>
      <trkpt lat="43.6686" lon="5.71178">
        <ele>465.79998779297</ele>
        <time>2013-05-04T08:49:28.000Z</time>
      </trkpt>
      <trkpt lat="43.66856" lon="5.71182">
        <ele>465.20001220703</ele>
        <time>2013-05-04T08:49:29.000Z</time>
      </trkpt>
      <trkpt lat="43.6685" lon="5.71183">
        <ele>464.39999389648</ele>
        <time>2013-05-04T08:49:30.000Z</time>
      </trkpt>
      <trkpt lat="43.66844" lon="5.71182">
        <ele>463.79998779297</ele>
        <time>2013-05-04T08:49:31.000Z</time>
      </trkpt>
      <trkpt lat="43.66837" lon="5.7118">
        <ele>463.20001220703</ele>
        <time>2013-05-04T08:49:32.000Z</time>
      </trkpt>
      <trkpt lat="43.6683" lon="5.71179">
        <ele>462.60000610352</ele>
        <time>2013-05-04T08:49:33.000Z</time>
      </trkpt>
      <trkpt lat="43.66797" lon="5.71182">
        <ele>460.60000610352</ele>
        <time>2013-05-04T08:49:37.000Z</time>
      </trkpt>
      <trkpt lat="43.66762" lon="5.71192">
        <ele>457.79998779297</ele>
        <time>2013-05-04T08:49:41.000Z</time>
      </trkpt>
      <trkpt lat="43.66721" lon="5.71217">
        <ele>454.20001220703</ele>
        <time>2013-05-04T08:49:46.000Z</time>
      </trkpt>
      <trkpt lat="43.66715" lon="5.7122">
        <ele>453.79998779297</ele>
        <time>2013-05-04T08:49:47.000Z</time>
      </trkpt>
      <trkpt lat="43.6671" lon="5.71224">
        <ele>453.39999389648</ele>
        <time>2013-05-04T08:49:48.000Z</time>
      </trkpt>
      <trkpt lat="43.66706" lon="5.71228">
        <ele>453</ele>
        <time>2013-05-04T08:49:49.000Z</time>
      </trkpt>
      <trkpt lat="43.66703" lon="5.71234">
        <ele>452.60000610352</ele>
        <time>2013-05-04T08:49:50.000Z</time>
      </trkpt>
      <trkpt lat="43.66701" lon="5.71241">
        <ele>452.20001220703</ele>
        <time>2013-05-04T08:49:51.000Z</time>
      </trkpt>
      <trkpt lat="43.667" lon="5.71248">
        <ele>451.79998779297</ele>
        <time>2013-05-04T08:49:52.000Z</time>
      </trkpt>
      <trkpt lat="43.66698" lon="5.71254">
        <ele>451</ele>
        <time>2013-05-04T08:49:53.000Z</time>
      </trkpt>
      <trkpt lat="43.66694" lon="5.7126">
        <ele>450.20001220703</ele>
        <time>2013-05-04T08:49:54.000Z</time>
      </trkpt>
      <trkpt lat="43.6669" lon="5.71264">
        <ele>449.39999389648</ele>
        <time>2013-05-04T08:49:55.000Z</time>
      </trkpt>
      <trkpt lat="43.66684" lon="5.71267">
        <ele>449</ele>
        <time>2013-05-04T08:49:56.000Z</time>
      </trkpt>
      <trkpt lat="43.66678" lon="5.71269">
        <ele>448.60000610352</ele>
        <time>2013-05-04T08:49:57.000Z</time>
      </trkpt>
      <trkpt lat="43.66672" lon="5.71271">
        <ele>448.20001220703</ele>
        <time>2013-05-04T08:49:58.000Z</time>
      </trkpt>
      <trkpt lat="43.66666" lon="5.71275">
        <ele>447.60000610352</ele>
        <time>2013-05-04T08:49:59.000Z</time>
      </trkpt>
      <trkpt lat="43.6663" lon="5.71301">
        <ele>446</ele>
        <time>2013-05-04T08:50:05.000Z</time>
      </trkpt>
      <trkpt lat="43.66615" lon="5.71308">
        <ele>445.79998779297</ele>
        <time>2013-05-04T08:50:07.000Z</time>
      </trkpt>
      <trkpt lat="43.66558" lon="5.71334">
        <ele>446.79998779297</ele>
        <time>2013-05-04T08:50:14.000Z</time>
      </trkpt>
      <trkpt lat="43.6655" lon="5.71339">
        <ele>447.39999389648</ele>
        <time>2013-05-04T08:50:15.000Z</time>
      </trkpt>
      <trkpt lat="43.66544" lon="5.71346">
        <ele>447.20001220703</ele>
        <time>2013-05-04T08:50:16.000Z</time>
      </trkpt>
      <trkpt lat="43.66539" lon="5.71355">
        <ele>446.79998779297</ele>
        <time>2013-05-04T08:50:17.000Z</time>
      </trkpt>
      <trkpt lat="43.66536" lon="5.71364">
        <ele>446.20001220703</ele>
        <time>2013-05-04T08:50:18.000Z</time>
      </trkpt>
      <trkpt lat="43.66535" lon="5.71373">
        <ele>445.39999389648</ele>
        <time>2013-05-04T08:50:19.000Z</time>
      </trkpt>
      <trkpt lat="43.66537" lon="5.71381">
        <ele>444.20001220703</ele>
        <time>2013-05-04T08:50:20.000Z</time>
      </trkpt>
      <trkpt lat="43.6654" lon="5.71388">
        <ele>443.20001220703</ele>
        <time>2013-05-04T08:50:21.000Z</time>
      </trkpt>
      <trkpt lat="43.66545" lon="5.71394">
        <ele>442</ele>
        <time>2013-05-04T08:50:22.000Z</time>
      </trkpt>
      <trkpt lat="43.66551" lon="5.71399">
        <ele>441</ele>
        <time>2013-05-04T08:50:23.000Z</time>
      </trkpt>
      <trkpt lat="43.66558" lon="5.71403">
        <ele>439.79998779297</ele>
        <time>2013-05-04T08:50:24.000Z</time>
      </trkpt>
      <trkpt lat="43.66566" lon="5.71406">
        <ele>438.60000610352</ele>
        <time>2013-05-04T08:50:25.000Z</time>
      </trkpt>
      <trkpt lat="43.66575" lon="5.7141">
        <ele>437.39999389648</ele>
        <time>2013-05-04T08:50:26.000Z</time>
      </trkpt>
      <trkpt lat="43.66584" lon="5.71411">
        <ele>436.39999389648</ele>
        <time>2013-05-04T08:50:27.000Z</time>
      </trkpt>
      <trkpt lat="43.66593" lon="5.71409">
        <ele>435.60000610352</ele>
        <time>2013-05-04T08:50:28.000Z</time>
      </trkpt>
      <trkpt lat="43.66622" lon="5.71408">
        <ele>432.79998779297</ele>
        <time>2013-05-04T08:50:31.000Z</time>
      </trkpt>
      <trkpt lat="43.66631" lon="5.71408">
        <ele>431.79998779297</ele>
        <time>2013-05-04T08:50:32.000Z</time>
      </trkpt>
      <trkpt lat="43.6664" lon="5.71412">
        <ele>430.39999389648</ele>
        <time>2013-05-04T08:50:33.000Z</time>
      </trkpt>
      <trkpt lat="43.66649" lon="5.71418">
        <ele>428.79998779297</ele>
        <time>2013-05-04T08:50:34.000Z</time>
      </trkpt>
      <trkpt lat="43.66676" lon="5.71436">
        <ele>427</ele>
        <time>2013-05-04T08:50:37.000Z</time>
      </trkpt>
      <trkpt lat="43.66683" lon="5.71444">
        <ele>427.20001220703</ele>
        <time>2013-05-04T08:50:38.000Z</time>
      </trkpt>
      <trkpt lat="43.66689" lon="5.71453">
        <ele>427</ele>
        <time>2013-05-04T08:50:39.000Z</time>
      </trkpt>
      <trkpt lat="43.66693" lon="5.71465">
        <ele>426.60000610352</ele>
        <time>2013-05-04T08:50:40.000Z</time>
      </trkpt>
      <trkpt lat="43.66696" lon="5.71478">
        <ele>426.20001220703</ele>
        <time>2013-05-04T08:50:41.000Z</time>
      </trkpt>
      <trkpt lat="43.66699" lon="5.71491">
        <ele>425.39999389648</ele>
        <time>2013-05-04T08:50:42.000Z</time>
      </trkpt>
      <trkpt lat="43.66702" lon="5.71503">
        <ele>425</ele>
        <time>2013-05-04T08:50:43.000Z</time>
      </trkpt>
      <trkpt lat="43.66711" lon="5.7153">
        <ele>424.60000610352</ele>
        <time>2013-05-04T08:50:46.000Z</time>
      </trkpt>
      <trkpt lat="43.66716" lon="5.71536">
        <ele>424.20001220703</ele>
        <time>2013-05-04T08:50:47.000Z</time>
      </trkpt>
      <trkpt lat="43.66734" lon="5.71556">
        <ele>421.39999389648</ele>
        <time>2013-05-04T08:50:50.000Z</time>
      </trkpt>
      <trkpt lat="43.6674" lon="5.71565">
        <ele>420</ele>
        <time>2013-05-04T08:50:51.000Z</time>
      </trkpt>
      <trkpt lat="43.66758" lon="5.71593">
        <ele>418</ele>
        <time>2013-05-04T08:50:54.000Z</time>
      </trkpt>
      <trkpt lat="43.66777" lon="5.71615">
        <ele>418.20001220703</ele>
        <time>2013-05-04T08:50:57.000Z</time>
      </trkpt>
      <trkpt lat="43.66782" lon="5.71623">
        <ele>417.79998779297</ele>
        <time>2013-05-04T08:50:58.000Z</time>
      </trkpt>
      <trkpt lat="43.66787" lon="5.71631">
        <ele>417</ele>
        <time>2013-05-04T08:50:59.000Z</time>
      </trkpt>
      <trkpt lat="43.66805" lon="5.71676">
        <ele>411.39999389648</ele>
        <time>2013-05-04T08:51:06.000Z</time>
      </trkpt>
      <trkpt lat="43.66806" lon="5.7168">
        <ele>411</ele>
        <time>2013-05-04T08:51:07.000Z</time>
      </trkpt>
      <trkpt lat="43.66809" lon="5.71689">
        <ele>409.79998779297</ele>
        <time>2013-05-04T08:51:10.000Z</time>
      </trkpt>
      <trkpt lat="43.6681" lon="5.71693">
        <ele>409.79998779297</ele>
        <time>2013-05-04T08:51:11.000Z</time>
      </trkpt>
      <trkpt lat="43.6681" lon="5.71696">
        <ele>409.60000610352</ele>
        <time>2013-05-04T08:51:12.000Z</time>
      </trkpt>
      <trkpt lat="43.6681" lon="5.71698">
        <ele>409.60000610352</ele>
        <time>2013-05-04T08:51:13.000Z</time>
      </trkpt>
      <trkpt lat="43.6681" lon="5.71701">
        <ele>409.60000610352</ele>
        <time>2013-05-04T08:51:14.000Z</time>
      </trkpt>
      <trkpt lat="43.66809" lon="5.71704">
        <ele>409.60000610352</ele>
        <time>2013-05-04T08:51:15.000Z</time>
      </trkpt>
      <trkpt lat="43.66808" lon="5.71721">
        <ele>409.79998779297</ele>
        <time>2013-05-04T08:51:22.000Z</time>
      </trkpt>
      <trkpt lat="43.66803" lon="5.71744">
        <ele>411</ele>
        <time>2013-05-04T08:51:32.000Z</time>
      </trkpt>
      <trkpt lat="43.66785" lon="5.71771">
        <ele>416</ele>
        <time>2013-05-04T08:51:45.000Z</time>
      </trkpt>
      <trkpt lat="43.66763" lon="5.71802">
        <ele>420.20001220703</ele>
        <time>2013-05-04T08:51:58.000Z</time>
      </trkpt>
      <trkpt lat="43.6674" lon="5.7182">
        <ele>424</ele>
        <time>2013-05-04T08:52:09.000Z</time>
      </trkpt>
      <trkpt lat="43.66733" lon="5.7184">
        <ele>425.20001220703</ele>
        <time>2013-05-04T08:52:17.000Z</time>
      </trkpt>
      <trkpt lat="43.66733" lon="5.71842">
        <ele>425.39999389648</ele>
        <time>2013-05-04T08:52:18.000Z</time>
      </trkpt>
      <trkpt lat="43.66733" lon="5.71845">
        <ele>425.60000610352</ele>
        <time>2013-05-04T08:52:19.000Z</time>
      </trkpt>
      <trkpt lat="43.66733" lon="5.71872">
        <ele>427.60000610352</ele>
        <time>2013-05-04T08:52:32.000Z</time>
      </trkpt>
      <trkpt lat="43.66733" lon="5.71874">
        <ele>427.79998779297</ele>
        <time>2013-05-04T08:52:33.000Z</time>
      </trkpt>
      <trkpt lat="43.66733" lon="5.71878">
        <ele>428.20001220703</ele>
        <time>2013-05-04T08:52:36.000Z</time>
      </trkpt>
      <trkpt lat="43.66732" lon="5.71879">
        <ele>428.39999389648</ele>
        <time>2013-05-04T08:52:37.000Z</time>
      </trkpt>
      <trkpt lat="43.66732" lon="5.71882">
        <ele>428.60000610352</ele>
        <time>2013-05-04T08:52:39.000Z</time>
      </trkpt>
      <trkpt lat="43.66733" lon="5.71887">
        <ele>429</ele>
        <time>2013-05-04T08:52:42.000Z</time>
      </trkpt>
      <trkpt lat="43.66732" lon="5.71888">
        <ele>429.20001220703</ele>
        <time>2013-05-04T08:52:43.000Z</time>
      </trkpt>
      <trkpt lat="43.66731" lon="5.71892">
        <ele>429.60000610352</ele>
        <time>2013-05-04T08:52:50.000Z</time>
      </trkpt>
      <trkpt lat="43.6673" lon="5.71894">
        <ele>429.79998779297</ele>
        <time>2013-05-04T08:53:07.000Z</time>
      </trkpt>
      <trkpt lat="43.66731" lon="5.71894">
        <ele>429.79998779297</ele>
        <time>2013-05-04T08:53:21.000Z</time>
      </trkpt>
      <trkpt lat="43.6673" lon="5.71894">
        <ele>429.79998779297</ele>
        <time>2013-05-04T08:53:45.000Z</time>
      </trkpt>
      <trkpt lat="43.6673" lon="5.71894">
        <ele>429.79998779297</ele>
        <time>2013-05-04T08:54:03.000Z</time>
      </trkpt>
      <trkpt lat="43.66731" lon="5.71893">
        <ele>429.79998779297</ele>
        <time>2013-05-04T08:54:26.000Z</time>
      </trkpt>
      <trkpt lat="43.6673" lon="5.71894">
        <ele>429.79998779297</ele>
        <time>2013-05-04T08:55:00.000Z</time>
      </trkpt>
      <trkpt lat="43.66735" lon="5.71896">
        <ele>429.20001220703</ele>
        <time>2013-05-04T08:55:11.000Z</time>
      </trkpt>
      <trkpt lat="43.66736" lon="5.71895">
        <ele>429</ele>
        <time>2013-05-04T08:55:12.000Z</time>
      </trkpt>
      <trkpt lat="43.66739" lon="5.71895">
        <ele>428.60000610352</ele>
        <time>2013-05-04T08:55:14.000Z</time>
      </trkpt>
      <trkpt lat="43.66769" lon="5.71908">
        <ele>426</ele>
        <time>2013-05-04T08:55:25.000Z</time>
      </trkpt>
      <trkpt lat="43.66796" lon="5.71933">
        <ele>425.20001220703</ele>
        <time>2013-05-04T08:55:35.000Z</time>
      </trkpt>
      <trkpt lat="43.6682" lon="5.71954">
        <ele>424.20001220703</ele>
        <time>2013-05-04T08:55:43.000Z</time>
      </trkpt>
      <trkpt lat="43.66828" lon="5.71985">
        <ele>425.60000610352</ele>
        <time>2013-05-04T08:55:51.000Z</time>
      </trkpt>
      <trkpt lat="43.66831" lon="5.71994">
        <ele>425.79998779297</ele>
        <time>2013-05-04T08:55:53.000Z</time>
      </trkpt>
      <trkpt lat="43.66835" lon="5.72034">
        <ele>425.20001220703</ele>
        <time>2013-05-04T08:56:01.000Z</time>
      </trkpt>
      <trkpt lat="43.6684" lon="5.72053">
        <ele>424.20001220703</ele>
        <time>2013-05-04T08:56:05.000Z</time>
      </trkpt>
      <trkpt lat="43.66836" lon="5.72074">
        <ele>424.60000610352</ele>
        <time>2013-05-04T08:56:11.000Z</time>
      </trkpt>
      <trkpt lat="43.66829" lon="5.721">
        <ele>422.79998779297</ele>
        <time>2013-05-04T08:56:18.000Z</time>
      </trkpt>
      <trkpt lat="43.66815" lon="5.72111">
        <ele>422.39999389648</ele>
        <time>2013-05-04T08:56:22.000Z</time>
      </trkpt>
      <trkpt lat="43.66807" lon="5.72114">
        <ele>422.60000610352</ele>
        <time>2013-05-04T08:56:24.000Z</time>
      </trkpt>
      <trkpt lat="43.66792" lon="5.72132">
        <ele>420.79998779297</ele>
        <time>2013-05-04T08:56:29.000Z</time>
      </trkpt>
      <trkpt lat="43.66778" lon="5.72146">
        <ele>419.20001220703</ele>
        <time>2013-05-04T08:56:33.000Z</time>
      </trkpt>
      <trkpt lat="43.66776" lon="5.72165">
        <ele>415.79998779297</ele>
        <time>2013-05-04T08:56:38.000Z</time>
      </trkpt>
      <trkpt lat="43.66761" lon="5.72173">
        <ele>415.39999389648</ele>
        <time>2013-05-04T08:56:44.000Z</time>
      </trkpt>
      <trkpt lat="43.66752" lon="5.72186">
        <ele>414</ele>
        <time>2013-05-04T08:56:49.000Z</time>
      </trkpt>
      <trkpt lat="43.66747" lon="5.72192">
        <ele>413.60000610352</ele>
        <time>2013-05-04T08:56:51.000Z</time>
      </trkpt>
      <trkpt lat="43.66743" lon="5.72195">
        <ele>413.20001220703</ele>
        <time>2013-05-04T08:56:52.000Z</time>
      </trkpt>
      <trkpt lat="43.6674" lon="5.72199">
        <ele>413</ele>
        <time>2013-05-04T08:56:53.000Z</time>
      </trkpt>
      <trkpt lat="43.66732" lon="5.72214">
        <ele>411</ele>
        <time>2013-05-04T08:56:56.000Z</time>
      </trkpt>
      <trkpt lat="43.66728" lon="5.72219">
        <ele>410.39999389648</ele>
        <time>2013-05-04T08:56:57.000Z</time>
      </trkpt>
      <trkpt lat="43.66724" lon="5.72223">
        <ele>410</ele>
        <time>2013-05-04T08:56:58.000Z</time>
      </trkpt>
      <trkpt lat="43.6672" lon="5.72229">
        <ele>409.20001220703</ele>
        <time>2013-05-04T08:56:59.000Z</time>
      </trkpt>
      <trkpt lat="43.66713" lon="5.72239">
        <ele>407.79998779297</ele>
        <time>2013-05-04T08:57:01.000Z</time>
      </trkpt>
      <trkpt lat="43.66711" lon="5.72243">
        <ele>407.20001220703</ele>
        <time>2013-05-04T08:57:02.000Z</time>
      </trkpt>
      <trkpt lat="43.6671" lon="5.72247">
        <ele>406.39999389648</ele>
        <time>2013-05-04T08:57:03.000Z</time>
      </trkpt>
      <trkpt lat="43.66709" lon="5.72252">
        <ele>405.39999389648</ele>
        <time>2013-05-04T08:57:04.000Z</time>
      </trkpt>
      <trkpt lat="43.66708" lon="5.72258">
        <ele>404.20001220703</ele>
        <time>2013-05-04T08:57:05.000Z</time>
      </trkpt>
      <trkpt lat="43.66706" lon="5.72264">
        <ele>403</ele>
        <time>2013-05-04T08:57:06.000Z</time>
      </trkpt>
      <trkpt lat="43.66703" lon="5.7227">
        <ele>401.79998779297</ele>
        <time>2013-05-04T08:57:07.000Z</time>
      </trkpt>
      <trkpt lat="43.66702" lon="5.72276">
        <ele>400.60000610352</ele>
        <time>2013-05-04T08:57:08.000Z</time>
      </trkpt>
      <trkpt lat="43.66701" lon="5.72282">
        <ele>399.39999389648</ele>
        <time>2013-05-04T08:57:09.000Z</time>
      </trkpt>
      <trkpt lat="43.667" lon="5.72288">
        <ele>398.20001220703</ele>
        <time>2013-05-04T08:57:10.000Z</time>
      </trkpt>
      <trkpt lat="43.667" lon="5.72293">
        <ele>397.20001220703</ele>
        <time>2013-05-04T08:57:11.000Z</time>
      </trkpt>
      <trkpt lat="43.667" lon="5.72297">
        <ele>396.20001220703</ele>
        <time>2013-05-04T08:57:12.000Z</time>
      </trkpt>
      <trkpt lat="43.667" lon="5.72301">
        <ele>395.39999389648</ele>
        <time>2013-05-04T08:57:13.000Z</time>
      </trkpt>
      <trkpt lat="43.66701" lon="5.72306">
        <ele>394.39999389648</ele>
        <time>2013-05-04T08:57:14.000Z</time>
      </trkpt>
      <trkpt lat="43.66701" lon="5.72311">
        <ele>393.39999389648</ele>
        <time>2013-05-04T08:57:15.000Z</time>
      </trkpt>
      <trkpt lat="43.66701" lon="5.72315">
        <ele>392.60000610352</ele>
        <time>2013-05-04T08:57:16.000Z</time>
      </trkpt>
      <trkpt lat="43.66701" lon="5.72327">
        <ele>390</ele>
        <time>2013-05-04T08:57:19.000Z</time>
      </trkpt>
      <trkpt lat="43.66701" lon="5.72335">
        <ele>388.20001220703</ele>
        <time>2013-05-04T08:57:21.000Z</time>
      </trkpt>
      <trkpt lat="43.66702" lon="5.7234">
        <ele>387.39999389648</ele>
        <time>2013-05-04T08:57:22.000Z</time>
      </trkpt>
      <trkpt lat="43.66704" lon="5.72344">
        <ele>386.60000610352</ele>
        <time>2013-05-04T08:57:23.000Z</time>
      </trkpt>
      <trkpt lat="43.66706" lon="5.72346">
        <ele>386</ele>
        <time>2013-05-04T08:57:24.000Z</time>
      </trkpt>
      <trkpt lat="43.66708" lon="5.72347">
        <ele>385.79998779297</ele>
        <time>2013-05-04T08:57:25.000Z</time>
      </trkpt>
      <trkpt lat="43.6671" lon="5.72349">
        <ele>385.39999389648</ele>
        <time>2013-05-04T08:57:26.000Z</time>
      </trkpt>
      <trkpt lat="43.66712" lon="5.72352">
        <ele>384.60000610352</ele>
        <time>2013-05-04T08:57:27.000Z</time>
      </trkpt>
      <trkpt lat="43.66714" lon="5.72356">
        <ele>383.79998779297</ele>
        <time>2013-05-04T08:57:28.000Z</time>
      </trkpt>
      <trkpt lat="43.66716" lon="5.7236">
        <ele>383</ele>
        <time>2013-05-04T08:57:29.000Z</time>
      </trkpt>
      <trkpt lat="43.66717" lon="5.72363">
        <ele>382.20001220703</ele>
        <time>2013-05-04T08:57:30.000Z</time>
      </trkpt>
      <trkpt lat="43.66718" lon="5.72367">
        <ele>381.60000610352</ele>
        <time>2013-05-04T08:57:31.000Z</time>
      </trkpt>
      <trkpt lat="43.66719" lon="5.7237">
        <ele>381</ele>
        <time>2013-05-04T08:57:32.000Z</time>
      </trkpt>
      <trkpt lat="43.6672" lon="5.72372">
        <ele>380.39999389648</ele>
        <time>2013-05-04T08:57:33.000Z</time>
      </trkpt>
      <trkpt lat="43.6672" lon="5.72374">
        <ele>380</ele>
        <time>2013-05-04T08:57:34.000Z</time>
      </trkpt>
      <trkpt lat="43.66722" lon="5.72376">
        <ele>379.60000610352</ele>
        <time>2013-05-04T08:57:35.000Z</time>
      </trkpt>
      <trkpt lat="43.66724" lon="5.72377">
        <ele>379.20001220703</ele>
        <time>2013-05-04T08:57:36.000Z</time>
      </trkpt>
      <trkpt lat="43.66726" lon="5.7238">
        <ele>378.60000610352</ele>
        <time>2013-05-04T08:57:37.000Z</time>
      </trkpt>
      <trkpt lat="43.66729" lon="5.72382">
        <ele>378</ele>
        <time>2013-05-04T08:57:38.000Z</time>
      </trkpt>
      <trkpt lat="43.66733" lon="5.72385">
        <ele>377.20001220703</ele>
        <time>2013-05-04T08:57:39.000Z</time>
      </trkpt>
      <trkpt lat="43.66737" lon="5.72389">
        <ele>376.20001220703</ele>
        <time>2013-05-04T08:57:40.000Z</time>
      </trkpt>
      <trkpt lat="43.6674" lon="5.72392">
        <ele>375.39999389648</ele>
        <time>2013-05-04T08:57:41.000Z</time>
      </trkpt>
      <trkpt lat="43.66744" lon="5.72394">
        <ele>374.79998779297</ele>
        <time>2013-05-04T08:57:42.000Z</time>
      </trkpt>
      <trkpt lat="43.66749" lon="5.72396">
        <ele>374.20001220703</ele>
        <time>2013-05-04T08:57:43.000Z</time>
      </trkpt>
      <trkpt lat="43.66752" lon="5.72397">
        <ele>373.79998779297</ele>
        <time>2013-05-04T08:57:44.000Z</time>
      </trkpt>
      <trkpt lat="43.66755" lon="5.72398">
        <ele>373.39999389648</ele>
        <time>2013-05-04T08:57:45.000Z</time>
      </trkpt>
      <trkpt lat="43.66757" lon="5.72399">
        <ele>373</ele>
        <time>2013-05-04T08:57:46.000Z</time>
      </trkpt>
      <trkpt lat="43.66768" lon="5.72414">
        <ele>369</ele>
        <time>2013-05-04T08:57:50.000Z</time>
      </trkpt>
      <trkpt lat="43.66776" lon="5.72423">
        <ele>367.20001220703</ele>
        <time>2013-05-04T08:57:52.000Z</time>
      </trkpt>
      <trkpt lat="43.6678" lon="5.72428">
        <ele>366.39999389648</ele>
        <time>2013-05-04T08:57:53.000Z</time>
      </trkpt>
      <trkpt lat="43.66785" lon="5.72432">
        <ele>365.79998779297</ele>
        <time>2013-05-04T08:57:54.000Z</time>
      </trkpt>
      <trkpt lat="43.66789" lon="5.72436">
        <ele>365</ele>
        <time>2013-05-04T08:57:55.000Z</time>
      </trkpt>
      <trkpt lat="43.66791" lon="5.72441">
        <ele>364.20001220703</ele>
        <time>2013-05-04T08:57:56.000Z</time>
      </trkpt>
      <trkpt lat="43.66793" lon="5.72446">
        <ele>363.60000610352</ele>
        <time>2013-05-04T08:57:57.000Z</time>
      </trkpt>
      <trkpt lat="43.66798" lon="5.72453">
        <ele>362.60000610352</ele>
        <time>2013-05-04T08:58:00.000Z</time>
      </trkpt>
      <trkpt lat="43.66796" lon="5.72455">
        <ele>362.60000610352</ele>
        <time>2013-05-04T08:58:07.000Z</time>
      </trkpt>
      <trkpt lat="43.66796" lon="5.72457">
        <ele>362.39999389648</ele>
        <time>2013-05-04T08:58:21.000Z</time>
      </trkpt>
      <trkpt lat="43.66795" lon="5.72457">
        <ele>362.20001220703</ele>
        <time>2013-05-04T08:58:36.000Z</time>
      </trkpt>
      <trkpt lat="43.66793" lon="5.72461">
        <ele>362</ele>
        <time>2013-05-04T08:58:46.000Z</time>
      </trkpt>
      <trkpt lat="43.6679" lon="5.72461">
        <ele>362.20001220703</ele>
        <time>2013-05-04T08:58:47.000Z</time>
      </trkpt>
      <trkpt lat="43.66785" lon="5.72462">
        <ele>362.39999389648</ele>
        <time>2013-05-04T08:58:48.000Z</time>
      </trkpt>
      <trkpt lat="43.66781" lon="5.72465">
        <ele>362.39999389648</ele>
        <time>2013-05-04T08:58:49.000Z</time>
      </trkpt>
      <trkpt lat="43.66777" lon="5.72468">
        <ele>362.20001220703</ele>
        <time>2013-05-04T08:58:50.000Z</time>
      </trkpt>
      <trkpt lat="43.66766" lon="5.72477">
        <ele>361.79998779297</ele>
        <time>2013-05-04T08:58:52.000Z</time>
      </trkpt>
      <trkpt lat="43.66761" lon="5.72481">
        <ele>361.60000610352</ele>
        <time>2013-05-04T08:58:53.000Z</time>
      </trkpt>
      <trkpt lat="43.66758" lon="5.72486">
        <ele>361.20001220703</ele>
        <time>2013-05-04T08:58:54.000Z</time>
      </trkpt>
      <trkpt lat="43.66756" lon="5.72491">
        <ele>360.60000610352</ele>
        <time>2013-05-04T08:58:55.000Z</time>
      </trkpt>
      <trkpt lat="43.66756" lon="5.72495">
        <ele>360.20001220703</ele>
        <time>2013-05-04T08:58:56.000Z</time>
      </trkpt>
      <trkpt lat="43.66755" lon="5.72498">
        <ele>359.79998779297</ele>
        <time>2013-05-04T08:58:57.000Z</time>
      </trkpt>
      <trkpt lat="43.66752" lon="5.72506">
        <ele>359.20001220703</ele>
        <time>2013-05-04T08:59:00.000Z</time>
      </trkpt>
      <trkpt lat="43.66746" lon="5.7251">
        <ele>359.39999389648</ele>
        <time>2013-05-04T08:59:02.000Z</time>
      </trkpt>
      <trkpt lat="43.66743" lon="5.72514">
        <ele>359.20001220703</ele>
        <time>2013-05-04T08:59:03.000Z</time>
      </trkpt>
      <trkpt lat="43.66742" lon="5.7252">
        <ele>358.60000610352</ele>
        <time>2013-05-04T08:59:04.000Z</time>
      </trkpt>
      <trkpt lat="43.66741" lon="5.72526">
        <ele>358.20001220703</ele>
        <time>2013-05-04T08:59:05.000Z</time>
      </trkpt>
      <trkpt lat="43.66741" lon="5.72533">
        <ele>357.60000610352</ele>
        <time>2013-05-04T08:59:06.000Z</time>
      </trkpt>
      <trkpt lat="43.66741" lon="5.7254">
        <ele>356.79998779297</ele>
        <time>2013-05-04T08:59:07.000Z</time>
      </trkpt>
      <trkpt lat="43.66739" lon="5.72548">
        <ele>356.20001220703</ele>
        <time>2013-05-04T08:59:08.000Z</time>
      </trkpt>
      <trkpt lat="43.66736" lon="5.72554">
        <ele>355.79998779297</ele>
        <time>2013-05-04T08:59:09.000Z</time>
      </trkpt>
      <trkpt lat="43.66734" lon="5.72561">
        <ele>355.39999389648</ele>
        <time>2013-05-04T08:59:10.000Z</time>
      </trkpt>
      <trkpt lat="43.66732" lon="5.72567">
        <ele>355.20001220703</ele>
        <time>2013-05-04T08:59:11.000Z</time>
      </trkpt>
      <trkpt lat="43.6673" lon="5.72572">
        <ele>355</ele>
        <time>2013-05-04T08:59:12.000Z</time>
      </trkpt>
      <trkpt lat="43.66728" lon="5.72574">
        <ele>354.79998779297</ele>
        <time>2013-05-04T08:59:13.000Z</time>
      </trkpt>
      <trkpt lat="43.66725" lon="5.72582">
        <ele>354.60000610352</ele>
        <time>2013-05-04T08:59:21.000Z</time>
      </trkpt>
      <trkpt lat="43.66728" lon="5.72586">
        <ele>354</ele>
        <time>2013-05-04T08:59:26.000Z</time>
      </trkpt>
      <trkpt lat="43.6673" lon="5.72587">
        <ele>353.60000610352</ele>
        <time>2013-05-04T08:59:27.000Z</time>
      </trkpt>
      <trkpt lat="43.66734" lon="5.72586">
        <ele>353.20001220703</ele>
        <time>2013-05-04T08:59:28.000Z</time>
      </trkpt>
      <trkpt lat="43.66738" lon="5.72586">
        <ele>352.39999389648</ele>
        <time>2013-05-04T08:59:29.000Z</time>
      </trkpt>
      <trkpt lat="43.66741" lon="5.72589">
        <ele>352</ele>
        <time>2013-05-04T08:59:30.000Z</time>
      </trkpt>
      <trkpt lat="43.66743" lon="5.72593">
        <ele>351.39999389648</ele>
        <time>2013-05-04T08:59:31.000Z</time>
      </trkpt>
      <trkpt lat="43.66745" lon="5.72596">
        <ele>350.79998779297</ele>
        <time>2013-05-04T08:59:32.000Z</time>
      </trkpt>
      <trkpt lat="43.66749" lon="5.726">
        <ele>350.20001220703</ele>
        <time>2013-05-04T08:59:33.000Z</time>
      </trkpt>
      <trkpt lat="43.66752" lon="5.72604">
        <ele>349.79998779297</ele>
        <time>2013-05-04T08:59:34.000Z</time>
      </trkpt>
      <trkpt lat="43.66754" lon="5.72608">
        <ele>349.60000610352</ele>
        <time>2013-05-04T08:59:35.000Z</time>
      </trkpt>
      <trkpt lat="43.66756" lon="5.72612">
        <ele>349.39999389648</ele>
        <time>2013-05-04T08:59:36.000Z</time>
      </trkpt>
      <trkpt lat="43.66759" lon="5.72614">
        <ele>349.39999389648</ele>
        <time>2013-05-04T08:59:37.000Z</time>
      </trkpt>
      <trkpt lat="43.66762" lon="5.72616">
        <ele>349.60000610352</ele>
        <time>2013-05-04T08:59:38.000Z</time>
      </trkpt>
      <trkpt lat="43.66765" lon="5.72617">
        <ele>349.60000610352</ele>
        <time>2013-05-04T08:59:39.000Z</time>
      </trkpt>
      <trkpt lat="43.66767" lon="5.72618">
        <ele>349.60000610352</ele>
        <time>2013-05-04T08:59:40.000Z</time>
      </trkpt>
      <trkpt lat="43.66769" lon="5.72621">
        <ele>349.60000610352</ele>
        <time>2013-05-04T08:59:41.000Z</time>
      </trkpt>
      <trkpt lat="43.66769" lon="5.72626">
        <ele>349.20001220703</ele>
        <time>2013-05-04T08:59:42.000Z</time>
      </trkpt>
      <trkpt lat="43.6677" lon="5.72632">
        <ele>349</ele>
        <time>2013-05-04T08:59:43.000Z</time>
      </trkpt>
      <trkpt lat="43.66771" lon="5.72639">
        <ele>348.60000610352</ele>
        <time>2013-05-04T08:59:44.000Z</time>
      </trkpt>
      <trkpt lat="43.66772" lon="5.72647">
        <ele>348.39999389648</ele>
        <time>2013-05-04T08:59:45.000Z</time>
      </trkpt>
      <trkpt lat="43.66773" lon="5.72654">
        <ele>348</ele>
        <time>2013-05-04T08:59:46.000Z</time>
      </trkpt>
      <trkpt lat="43.66774" lon="5.72662">
        <ele>347.60000610352</ele>
        <time>2013-05-04T08:59:47.000Z</time>
      </trkpt>
      <trkpt lat="43.66775" lon="5.7267">
        <ele>347.39999389648</ele>
        <time>2013-05-04T08:59:48.000Z</time>
      </trkpt>
      <trkpt lat="43.66775" lon="5.72677">
        <ele>347.20001220703</ele>
        <time>2013-05-04T08:59:49.000Z</time>
      </trkpt>
      <trkpt lat="43.66776" lon="5.72685">
        <ele>347.20001220703</ele>
        <time>2013-05-04T08:59:50.000Z</time>
      </trkpt>
      <trkpt lat="43.66778" lon="5.72693">
        <ele>347.20001220703</ele>
        <time>2013-05-04T08:59:51.000Z</time>
      </trkpt>
      <trkpt lat="43.66779" lon="5.72702">
        <ele>347</ele>
        <time>2013-05-04T08:59:52.000Z</time>
      </trkpt>
      <trkpt lat="43.66781" lon="5.72711">
        <ele>346.79998779297</ele>
        <time>2013-05-04T08:59:53.000Z</time>
      </trkpt>
      <trkpt lat="43.66784" lon="5.72717">
        <ele>346.60000610352</ele>
        <time>2013-05-04T08:59:54.000Z</time>
      </trkpt>
      <trkpt lat="43.66787" lon="5.72722">
        <ele>346.39999389648</ele>
        <time>2013-05-04T08:59:55.000Z</time>
      </trkpt>
      <trkpt lat="43.66787" lon="5.72728">
        <ele>346.39999389648</ele>
        <time>2013-05-04T08:59:56.000Z</time>
      </trkpt>
      <trkpt lat="43.66787" lon="5.72735">
        <ele>346.20001220703</ele>
        <time>2013-05-04T08:59:57.000Z</time>
      </trkpt>
      <trkpt lat="43.66788" lon="5.72742">
        <ele>345.79998779297</ele>
        <time>2013-05-04T08:59:58.000Z</time>
      </trkpt>
      <trkpt lat="43.6679" lon="5.72748">
        <ele>345.60000610352</ele>
        <time>2013-05-04T08:59:59.000Z</time>
      </trkpt>
      <trkpt lat="43.66792" lon="5.72755">
        <ele>345.60000610352</ele>
        <time>2013-05-04T09:00:00.000Z</time>
      </trkpt>
      <trkpt lat="43.66793" lon="5.72762">
        <ele>345.60000610352</ele>
        <time>2013-05-04T09:00:01.000Z</time>
      </trkpt>
      <trkpt lat="43.66795" lon="5.72769">
        <ele>345.60000610352</ele>
        <time>2013-05-04T09:00:02.000Z</time>
      </trkpt>
      <trkpt lat="43.66799" lon="5.72777">
        <ele>345.39999389648</ele>
        <time>2013-05-04T09:00:03.000Z</time>
      </trkpt>
      <trkpt lat="43.66804" lon="5.72784">
        <ele>345</ele>
        <time>2013-05-04T09:00:04.000Z</time>
      </trkpt>
      <trkpt lat="43.66812" lon="5.72794">
        <ele>344</ele>
        <time>2013-05-04T09:00:06.000Z</time>
      </trkpt>
      <trkpt lat="43.66816" lon="5.72797">
        <ele>343.39999389648</ele>
        <time>2013-05-04T09:00:07.000Z</time>
      </trkpt>
      <trkpt lat="43.6682" lon="5.728">
        <ele>343</ele>
        <time>2013-05-04T09:00:08.000Z</time>
      </trkpt>
      <trkpt lat="43.66824" lon="5.72802">
        <ele>342.39999389648</ele>
        <time>2013-05-04T09:00:09.000Z</time>
      </trkpt>
      <trkpt lat="43.66827" lon="5.72802">
        <ele>341.79998779297</ele>
        <time>2013-05-04T09:00:10.000Z</time>
      </trkpt>
      <trkpt lat="43.66832" lon="5.72801">
        <ele>341.39999389648</ele>
        <time>2013-05-04T09:00:11.000Z</time>
      </trkpt>
      <trkpt lat="43.66836" lon="5.728">
        <ele>340.79998779297</ele>
        <time>2013-05-04T09:00:12.000Z</time>
      </trkpt>
      <trkpt lat="43.66841" lon="5.72802">
        <ele>340.20001220703</ele>
        <time>2013-05-04T09:00:13.000Z</time>
      </trkpt>
      <trkpt lat="43.66844" lon="5.72805">
        <ele>339.60000610352</ele>
        <time>2013-05-04T09:00:14.000Z</time>
      </trkpt>
      <trkpt lat="43.66848" lon="5.72808">
        <ele>338.79998779297</ele>
        <time>2013-05-04T09:00:15.000Z</time>
      </trkpt>
      <trkpt lat="43.66851" lon="5.72811">
        <ele>338.39999389648</ele>
        <time>2013-05-04T09:00:16.000Z</time>
      </trkpt>
      <trkpt lat="43.66854" lon="5.72813">
        <ele>338</ele>
        <time>2013-05-04T09:00:17.000Z</time>
      </trkpt>
      <trkpt lat="43.66855" lon="5.72815">
        <ele>337.60000610352</ele>
        <time>2013-05-04T09:00:23.000Z</time>
      </trkpt>
      <trkpt lat="43.66859" lon="5.7282">
        <ele>336.60000610352</ele>
        <time>2013-05-04T09:00:36.000Z</time>
      </trkpt>
      <trkpt lat="43.66861" lon="5.72825">
        <ele>336.20001220703</ele>
        <time>2013-05-04T09:00:40.000Z</time>
      </trkpt>
      <trkpt lat="43.66866" lon="5.72839">
        <ele>334.60000610352</ele>
        <time>2013-05-04T09:00:43.000Z</time>
      </trkpt>
      <trkpt lat="43.66869" lon="5.72845">
        <ele>333.79998779297</ele>
        <time>2013-05-04T09:00:44.000Z</time>
      </trkpt>
      <trkpt lat="43.66878" lon="5.72862">
        <ele>331.20001220703</ele>
        <time>2013-05-04T09:00:48.000Z</time>
      </trkpt>
      <trkpt lat="43.66886" lon="5.72881">
        <ele>328</ele>
        <time>2013-05-04T09:00:53.000Z</time>
      </trkpt>
      <trkpt lat="43.66902" lon="5.72909">
        <ele>321.39999389648</ele>
        <time>2013-05-04T09:00:57.000Z</time>
      </trkpt>
      <trkpt lat="43.6691" lon="5.72921">
        <ele>318.20001220703</ele>
        <time>2013-05-04T09:00:59.000Z</time>
      </trkpt>
      <trkpt lat="43.66921" lon="5.72926">
        <ele>315.79998779297</ele>
        <time>2013-05-04T09:01:02.000Z</time>
      </trkpt>
      <trkpt lat="43.66926" lon="5.72926">
        <ele>314.79998779297</ele>
        <time>2013-05-04T09:01:03.000Z</time>
      </trkpt>
      <trkpt lat="43.6693" lon="5.72928">
        <ele>314.20001220703</ele>
        <time>2013-05-04T09:01:04.000Z</time>
      </trkpt>
      <trkpt lat="43.66934" lon="5.72933">
        <ele>313.79998779297</ele>
        <time>2013-05-04T09:01:05.000Z</time>
      </trkpt>
      <trkpt lat="43.66936" lon="5.7294">
        <ele>313.79998779297</ele>
        <time>2013-05-04T09:01:06.000Z</time>
      </trkpt>
      <trkpt lat="43.66938" lon="5.72947">
        <ele>313.60000610352</ele>
        <time>2013-05-04T09:01:07.000Z</time>
      </trkpt>
      <trkpt lat="43.66942" lon="5.72953">
        <ele>313.39999389648</ele>
        <time>2013-05-04T09:01:08.000Z</time>
      </trkpt>
      <trkpt lat="43.66946" lon="5.72958">
        <ele>312.60000610352</ele>
        <time>2013-05-04T09:01:09.000Z</time>
      </trkpt>
      <trkpt lat="43.66952" lon="5.72961">
        <ele>311.60000610352</ele>
        <time>2013-05-04T09:01:10.000Z</time>
      </trkpt>
      <trkpt lat="43.66958" lon="5.72966">
        <ele>310.60000610352</ele>
        <time>2013-05-04T09:01:11.000Z</time>
      </trkpt>
      <trkpt lat="43.66964" lon="5.7297">
        <ele>309.79998779297</ele>
        <time>2013-05-04T09:01:12.000Z</time>
      </trkpt>
      <trkpt lat="43.6697" lon="5.72974">
        <ele>308.60000610352</ele>
        <time>2013-05-04T09:01:13.000Z</time>
      </trkpt>
      <trkpt lat="43.66977" lon="5.72976">
        <ele>307.20001220703</ele>
        <time>2013-05-04T09:01:14.000Z</time>
      </trkpt>
      <trkpt lat="43.66984" lon="5.72978">
        <ele>305.79998779297</ele>
        <time>2013-05-04T09:01:15.000Z</time>
      </trkpt>
      <trkpt lat="43.66992" lon="5.72978">
        <ele>304.39999389648</ele>
        <time>2013-05-04T09:01:16.000Z</time>
      </trkpt>
      <trkpt lat="43.67" lon="5.72977">
        <ele>302.60000610352</ele>
        <time>2013-05-04T09:01:17.000Z</time>
      </trkpt>
      <trkpt lat="43.67008" lon="5.72979">
        <ele>302.20001220703</ele>
        <time>2013-05-04T09:01:18.000Z</time>
      </trkpt>
      <trkpt lat="43.67024" lon="5.72982">
        <ele>301.20001220703</ele>
        <time>2013-05-04T09:01:20.000Z</time>
      </trkpt>
      <trkpt lat="43.67032" lon="5.72981">
        <ele>300.60000610352</ele>
        <time>2013-05-04T09:01:21.000Z</time>
      </trkpt>
      <trkpt lat="43.6704" lon="5.72979">
        <ele>300.20001220703</ele>
        <time>2013-05-04T09:01:22.000Z</time>
      </trkpt>
      <trkpt lat="43.67055" lon="5.72974">
        <ele>299.39999389648</ele>
        <time>2013-05-04T09:01:24.000Z</time>
      </trkpt>
      <trkpt lat="43.67059" lon="5.7297">
        <ele>299.39999389648</ele>
        <time>2013-05-04T09:01:25.000Z</time>
      </trkpt>
      <trkpt lat="43.67062" lon="5.72964">
        <ele>299.39999389648</ele>
        <time>2013-05-04T09:01:26.000Z</time>
      </trkpt>
      <trkpt lat="43.67064" lon="5.72957">
        <ele>299.39999389648</ele>
        <time>2013-05-04T09:01:27.000Z</time>
      </trkpt>
      <trkpt lat="43.67066" lon="5.72951">
        <ele>299.39999389648</ele>
        <time>2013-05-04T09:01:28.000Z</time>
      </trkpt>
      <trkpt lat="43.67069" lon="5.72945">
        <ele>299.39999389648</ele>
        <time>2013-05-04T09:01:29.000Z</time>
      </trkpt>
      <trkpt lat="43.67073" lon="5.72942">
        <ele>299.39999389648</ele>
        <time>2013-05-04T09:01:30.000Z</time>
      </trkpt>
      <trkpt lat="43.67079" lon="5.72941">
        <ele>299.20001220703</ele>
        <time>2013-05-04T09:01:31.000Z</time>
      </trkpt>
      <trkpt lat="43.67084" lon="5.72945">
        <ele>299</ele>
        <time>2013-05-04T09:01:32.000Z</time>
      </trkpt>
      <trkpt lat="43.6709" lon="5.72951">
        <ele>298.79998779297</ele>
        <time>2013-05-04T09:01:33.000Z</time>
      </trkpt>
      <trkpt lat="43.67109" lon="5.72974">
        <ele>297.39999389648</ele>
        <time>2013-05-04T09:01:37.000Z</time>
      </trkpt>
      <trkpt lat="43.67115" lon="5.72978">
        <ele>297</ele>
        <time>2013-05-04T09:01:38.000Z</time>
      </trkpt>
      <trkpt lat="43.67121" lon="5.72983">
        <ele>296.39999389648</ele>
        <time>2013-05-04T09:01:39.000Z</time>
      </trkpt>
      <trkpt lat="43.67127" lon="5.72989">
        <ele>295.79998779297</ele>
        <time>2013-05-04T09:01:40.000Z</time>
      </trkpt>
      <trkpt lat="43.67132" lon="5.72997">
        <ele>294.79998779297</ele>
        <time>2013-05-04T09:01:41.000Z</time>
      </trkpt>
      <trkpt lat="43.67136" lon="5.73005">
        <ele>294</ele>
        <time>2013-05-04T09:01:42.000Z</time>
      </trkpt>
      <trkpt lat="43.6714" lon="5.73013">
        <ele>293</ele>
        <time>2013-05-04T09:01:43.000Z</time>
      </trkpt>
      <trkpt lat="43.67145" lon="5.73021">
        <ele>291.79998779297</ele>
        <time>2013-05-04T09:01:44.000Z</time>
      </trkpt>
      <trkpt lat="43.6715" lon="5.7303">
        <ele>290.60000610352</ele>
        <time>2013-05-04T09:01:45.000Z</time>
      </trkpt>
      <trkpt lat="43.67154" lon="5.73038">
        <ele>289.39999389648</ele>
        <time>2013-05-04T09:01:46.000Z</time>
      </trkpt>
      <trkpt lat="43.67157" lon="5.73049">
        <ele>288</ele>
        <time>2013-05-04T09:01:47.000Z</time>
      </trkpt>
      <trkpt lat="43.6716" lon="5.73059">
        <ele>286.60000610352</ele>
        <time>2013-05-04T09:01:48.000Z</time>
      </trkpt>
      <trkpt lat="43.67164" lon="5.73079">
        <ele>283.79998779297</ele>
        <time>2013-05-04T09:01:50.000Z</time>
      </trkpt>
      <trkpt lat="43.67164" lon="5.73089">
        <ele>283.39999389648</ele>
        <time>2013-05-04T09:01:51.000Z</time>
      </trkpt>
      <trkpt lat="43.67161" lon="5.73099">
        <ele>284.20001220703</ele>
        <time>2013-05-04T09:01:52.000Z</time>
      </trkpt>
      <trkpt lat="43.67157" lon="5.73108">
        <ele>284.79998779297</ele>
        <time>2013-05-04T09:01:53.000Z</time>
      </trkpt>
      <trkpt lat="43.67154" lon="5.73116">
        <ele>285.60000610352</ele>
        <time>2013-05-04T09:01:54.000Z</time>
      </trkpt>
      <trkpt lat="43.67151" lon="5.73125">
        <ele>286.20001220703</ele>
        <time>2013-05-04T09:01:55.000Z</time>
      </trkpt>
      <trkpt lat="43.67148" lon="5.73135">
        <ele>286.60000610352</ele>
        <time>2013-05-04T09:01:56.000Z</time>
      </trkpt>
      <trkpt lat="43.67144" lon="5.73144">
        <ele>287.20001220703</ele>
        <time>2013-05-04T09:01:57.000Z</time>
      </trkpt>
      <trkpt lat="43.6714" lon="5.73153">
        <ele>287.79998779297</ele>
        <time>2013-05-04T09:01:58.000Z</time>
      </trkpt>
      <trkpt lat="43.67137" lon="5.73161">
        <ele>288.20001220703</ele>
        <time>2013-05-04T09:01:59.000Z</time>
      </trkpt>
      <trkpt lat="43.67133" lon="5.73176">
        <ele>288.60000610352</ele>
        <time>2013-05-04T09:02:01.000Z</time>
      </trkpt>
      <trkpt lat="43.6713" lon="5.73181">
        <ele>288.60000610352</ele>
        <time>2013-05-04T09:02:02.000Z</time>
      </trkpt>
      <trkpt lat="43.67128" lon="5.73184">
        <ele>288.79998779297</ele>
        <time>2013-05-04T09:02:03.000Z</time>
      </trkpt>
      <trkpt lat="43.67126" lon="5.73184">
        <ele>288.79998779297</ele>
        <time>2013-05-04T09:02:04.000Z</time>
      </trkpt>
      <trkpt lat="43.67125" lon="5.73184">
        <ele>289</ele>
        <time>2013-05-04T09:02:05.000Z</time>
      </trkpt>
      <trkpt lat="43.67123" lon="5.73183">
        <ele>289.20001220703</ele>
        <time>2013-05-04T09:02:06.000Z</time>
      </trkpt>
      <trkpt lat="43.67121" lon="5.73183">
        <ele>289.39999389648</ele>
        <time>2013-05-04T09:02:07.000Z</time>
      </trkpt>
      <trkpt lat="43.6712" lon="5.73183">
        <ele>289.39999389648</ele>
        <time>2013-05-04T09:02:08.000Z</time>
      </trkpt>
      <trkpt lat="43.67118" lon="5.73183">
        <ele>289.60000610352</ele>
        <time>2013-05-04T09:02:09.000Z</time>
      </trkpt>
      <trkpt lat="43.67117" lon="5.73185">
        <ele>289.60000610352</ele>
        <time>2013-05-04T09:02:10.000Z</time>
      </trkpt>
      <trkpt lat="43.67116" lon="5.73186">
        <ele>289.60000610352</ele>
        <time>2013-05-04T09:02:11.000Z</time>
      </trkpt>
      <trkpt lat="43.67115" lon="5.73187">
        <ele>289.79998779297</ele>
        <time>2013-05-04T09:02:12.000Z</time>
      </trkpt>
      <trkpt lat="43.67114" lon="5.73188">
        <ele>289.79998779297</ele>
        <time>2013-05-04T09:02:13.000Z</time>
      </trkpt>
      <trkpt lat="43.67113" lon="5.73188">
        <ele>290</ele>
        <time>2013-05-04T09:02:21.000Z</time>
      </trkpt>
      <trkpt lat="43.67113" lon="5.73188">
        <ele>289.79998779297</ele>
        <time>2013-05-04T09:02:42.000Z</time>
      </trkpt>
      <trkpt lat="43.67113" lon="5.73188">
        <ele>289.79998779297</ele>
        <time>2013-05-04T09:03:06.000Z</time>
      </trkpt>
      <trkpt lat="43.67114" lon="5.73186">
        <ele>289.79998779297</ele>
        <time>2013-05-04T09:03:25.000Z</time>
      </trkpt>
      <trkpt lat="43.67114" lon="5.73185">
        <ele>289.79998779297</ele>
        <time>2013-05-04T09:03:41.000Z</time>
      </trkpt>
      <trkpt lat="43.67114" lon="5.73186">
        <ele>289.79998779297</ele>
        <time>2013-05-04T09:04:05.000Z</time>
      </trkpt>
      <trkpt lat="43.67115" lon="5.73185">
        <ele>289.79998779297</ele>
        <time>2013-05-04T09:04:23.000Z</time>
      </trkpt>
      <trkpt lat="43.67114" lon="5.73185">
        <ele>289.79998779297</ele>
        <time>2013-05-04T09:04:41.000Z</time>
      </trkpt>
      <trkpt lat="43.67114" lon="5.73185">
        <ele>289.79998779297</ele>
        <time>2013-05-04T09:05:03.000Z</time>
      </trkpt>
      <trkpt lat="43.67113" lon="5.73187">
        <ele>289.79998779297</ele>
        <time>2013-05-04T09:05:22.000Z</time>
      </trkpt>
      <trkpt lat="43.6711" lon="5.73189">
        <ele>290.20001220703</ele>
        <time>2013-05-04T09:05:33.000Z</time>
      </trkpt>
      <trkpt lat="43.6709" lon="5.73198">
        <ele>291.60000610352</ele>
        <time>2013-05-04T09:05:44.000Z</time>
      </trkpt>
      <trkpt lat="43.67072" lon="5.73212">
        <ele>293.20001220703</ele>
        <time>2013-05-04T09:05:52.000Z</time>
      </trkpt>
      <trkpt lat="43.6705" lon="5.73227">
        <ele>295.39999389648</ele>
        <time>2013-05-04T09:06:01.000Z</time>
      </trkpt>
      <trkpt lat="43.67029" lon="5.73254">
        <ele>297.79998779297</ele>
        <time>2013-05-04T09:06:11.000Z</time>
      </trkpt>
      <trkpt lat="43.67001" lon="5.73287">
        <ele>298.60000610352</ele>
        <time>2013-05-04T09:06:21.000Z</time>
      </trkpt>
      <trkpt lat="43.66971" lon="5.73313">
        <ele>299.39999389648</ele>
        <time>2013-05-04T09:06:32.000Z</time>
      </trkpt>
      <trkpt lat="43.66948" lon="5.73346">
        <ele>299.60000610352</ele>
        <time>2013-05-04T09:06:41.000Z</time>
      </trkpt>
      <trkpt lat="43.66935" lon="5.73362">
        <ele>299.60000610352</ele>
        <time>2013-05-04T09:06:45.000Z</time>
      </trkpt>
      <trkpt lat="43.66913" lon="5.73386">
        <ele>299.79998779297</ele>
        <time>2013-05-04T09:06:51.000Z</time>
      </trkpt>
      <trkpt lat="43.66904" lon="5.73398">
        <ele>299.20001220703</ele>
        <time>2013-05-04T09:06:54.000Z</time>
      </trkpt>
      <trkpt lat="43.66901" lon="5.73402">
        <ele>299.20001220703</ele>
        <time>2013-05-04T09:06:55.000Z</time>
      </trkpt>
      <trkpt lat="43.66897" lon="5.73405">
        <ele>299.20001220703</ele>
        <time>2013-05-04T09:06:56.000Z</time>
      </trkpt>
      <trkpt lat="43.6689" lon="5.7341">
        <ele>299.20001220703</ele>
        <time>2013-05-04T09:06:58.000Z</time>
      </trkpt>
      <trkpt lat="43.66887" lon="5.73414">
        <ele>299</ele>
        <time>2013-05-04T09:06:59.000Z</time>
      </trkpt>
      <trkpt lat="43.66884" lon="5.73418">
        <ele>298.79998779297</ele>
        <time>2013-05-04T09:07:00.000Z</time>
      </trkpt>
      <trkpt lat="43.66876" lon="5.73431">
        <ele>298.20001220703</ele>
        <time>2013-05-04T09:07:03.000Z</time>
      </trkpt>
      <trkpt lat="43.66873" lon="5.73435">
        <ele>298</ele>
        <time>2013-05-04T09:07:04.000Z</time>
      </trkpt>
      <trkpt lat="43.66859" lon="5.73456">
        <ele>296.79998779297</ele>
        <time>2013-05-04T09:07:09.000Z</time>
      </trkpt>
      <trkpt lat="43.66857" lon="5.73461">
        <ele>296.60000610352</ele>
        <time>2013-05-04T09:07:10.000Z</time>
      </trkpt>
      <trkpt lat="43.66856" lon="5.73466">
        <ele>296.20001220703</ele>
        <time>2013-05-04T09:07:11.000Z</time>
      </trkpt>
      <trkpt lat="43.66856" lon="5.73472">
        <ele>295.60000610352</ele>
        <time>2013-05-04T09:07:12.000Z</time>
      </trkpt>
      <trkpt lat="43.66857" lon="5.73478">
        <ele>295</ele>
        <time>2013-05-04T09:07:13.000Z</time>
      </trkpt>
      <trkpt lat="43.66859" lon="5.73484">
        <ele>294.39999389648</ele>
        <time>2013-05-04T09:07:14.000Z</time>
      </trkpt>
      <trkpt lat="43.66862" lon="5.73491">
        <ele>293.60000610352</ele>
        <time>2013-05-04T09:07:15.000Z</time>
      </trkpt>
      <trkpt lat="43.66865" lon="5.73497">
        <ele>293</ele>
        <time>2013-05-04T09:07:16.000Z</time>
      </trkpt>
      <trkpt lat="43.66869" lon="5.73503">
        <ele>292.39999389648</ele>
        <time>2013-05-04T09:07:17.000Z</time>
      </trkpt>
      <trkpt lat="43.66876" lon="5.73516">
        <ele>291.79998779297</ele>
        <time>2013-05-04T09:07:19.000Z</time>
      </trkpt>
      <trkpt lat="43.66877" lon="5.73523">
        <ele>291.39999389648</ele>
        <time>2013-05-04T09:07:20.000Z</time>
      </trkpt>
      <trkpt lat="43.66877" lon="5.73531">
        <ele>291.20001220703</ele>
        <time>2013-05-04T09:07:21.000Z</time>
      </trkpt>
      <trkpt lat="43.66874" lon="5.73547">
        <ele>290.79998779297</ele>
        <time>2013-05-04T09:07:23.000Z</time>
      </trkpt>
      <trkpt lat="43.6687" lon="5.73554">
        <ele>290.60000610352</ele>
        <time>2013-05-04T09:07:24.000Z</time>
      </trkpt>
      <trkpt lat="43.66859" lon="5.73569">
        <ele>290.20001220703</ele>
        <time>2013-05-04T09:07:27.000Z</time>
      </trkpt>
      <trkpt lat="43.66857" lon="5.73576">
        <ele>290</ele>
        <time>2013-05-04T09:07:28.000Z</time>
      </trkpt>
      <trkpt lat="43.66855" lon="5.73582">
        <ele>289.60000610352</ele>
        <time>2013-05-04T09:07:29.000Z</time>
      </trkpt>
      <trkpt lat="43.66845" lon="5.73606">
        <ele>288.79998779297</ele>
        <time>2013-05-04T09:07:33.000Z</time>
      </trkpt>
      <trkpt lat="43.66837" lon="5.7362">
        <ele>288.60000610352</ele>
        <time>2013-05-04T09:07:36.000Z</time>
      </trkpt>
      <trkpt lat="43.66835" lon="5.73624">
        <ele>288.39999389648</ele>
        <time>2013-05-04T09:07:37.000Z</time>
      </trkpt>
      <trkpt lat="43.66835" lon="5.73629">
        <ele>288.20001220703</ele>
        <time>2013-05-04T09:07:38.000Z</time>
      </trkpt>
      <trkpt lat="43.66835" lon="5.73646">
        <ele>287.60000610352</ele>
        <time>2013-05-04T09:07:44.000Z</time>
      </trkpt>
      <trkpt lat="43.66835" lon="5.73647">
        <ele>287.60000610352</ele>
        <time>2013-05-04T09:07:45.000Z</time>
      </trkpt>
      <trkpt lat="43.66836" lon="5.73648">
        <ele>287.60000610352</ele>
        <time>2013-05-04T09:07:46.000Z</time>
      </trkpt>
      <trkpt lat="43.66836" lon="5.73651">
        <ele>287.39999389648</ele>
        <time>2013-05-04T09:07:48.000Z</time>
      </trkpt>
      <trkpt lat="43.66835" lon="5.73652">
        <ele>287.39999389648</ele>
        <time>2013-05-04T09:07:49.000Z</time>
      </trkpt>
      <trkpt lat="43.66833" lon="5.73652">
        <ele>287.39999389648</ele>
        <time>2013-05-04T09:07:59.000Z</time>
      </trkpt>
      <trkpt lat="43.66832" lon="5.73653">
        <ele>287.39999389648</ele>
        <time>2013-05-04T09:08:24.000Z</time>
      </trkpt>
      <trkpt lat="43.66832" lon="5.73654">
        <ele>287.39999389648</ele>
        <time>2013-05-04T09:08:27.000Z</time>
      </trkpt>
      <trkpt lat="43.66833" lon="5.73656">
        <ele>287.20001220703</ele>
        <time>2013-05-04T09:08:28.000Z</time>
      </trkpt>
      <trkpt lat="43.66834" lon="5.73658">
        <ele>287.20001220703</ele>
        <time>2013-05-04T09:08:29.000Z</time>
      </trkpt>
      <trkpt lat="43.66833" lon="5.7366">
        <ele>287.20001220703</ele>
        <time>2013-05-04T09:08:30.000Z</time>
      </trkpt>
      <trkpt lat="43.66831" lon="5.73663">
        <ele>287.20001220703</ele>
        <time>2013-05-04T09:08:31.000Z</time>
      </trkpt>
      <trkpt lat="43.66829" lon="5.73663">
        <ele>287.20001220703</ele>
        <time>2013-05-04T09:08:32.000Z</time>
      </trkpt>
      <trkpt lat="43.66826" lon="5.73663">
        <ele>287.20001220703</ele>
        <time>2013-05-04T09:08:33.000Z</time>
      </trkpt>
      <trkpt lat="43.66823" lon="5.73664">
        <ele>287.39999389648</ele>
        <time>2013-05-04T09:08:34.000Z</time>
      </trkpt>
      <trkpt lat="43.66821" lon="5.73665">
        <ele>287.39999389648</ele>
        <time>2013-05-04T09:08:35.000Z</time>
      </trkpt>
      <trkpt lat="43.66818" lon="5.73665">
        <ele>287.39999389648</ele>
        <time>2013-05-04T09:08:36.000Z</time>
      </trkpt>
      <trkpt lat="43.66783" lon="5.73679">
        <ele>288.39999389648</ele>
        <time>2013-05-04T09:08:46.000Z</time>
      </trkpt>
      <trkpt lat="43.66734" lon="5.73704">
        <ele>289.60000610352</ele>
        <time>2013-05-04T09:08:56.000Z</time>
      </trkpt>
      <trkpt lat="43.66693" lon="5.73732">
        <ele>290.60000610352</ele>
        <time>2013-05-04T09:09:05.000Z</time>
      </trkpt>
      <trkpt lat="43.66656" lon="5.7376">
        <ele>291.79998779297</ele>
        <time>2013-05-04T09:09:14.000Z</time>
      </trkpt>
      <trkpt lat="43.66611" lon="5.73792">
        <ele>293.60000610352</ele>
        <time>2013-05-04T09:09:26.000Z</time>
      </trkpt>
      <trkpt lat="43.66573" lon="5.73819">
        <ele>293.39999389648</ele>
        <time>2013-05-04T09:09:37.000Z</time>
      </trkpt>
      <trkpt lat="43.66541" lon="5.73839">
        <ele>295</ele>
        <time>2013-05-04T09:09:46.000Z</time>
      </trkpt>
      <trkpt lat="43.66524" lon="5.73852">
        <ele>296.20001220703</ele>
        <time>2013-05-04T09:09:51.000Z</time>
      </trkpt>
      <trkpt lat="43.66497" lon="5.73867">
        <ele>297.39999389648</ele>
        <time>2013-05-04T09:09:58.000Z</time>
      </trkpt>
      <trkpt lat="43.66458" lon="5.73882">
        <ele>299.20001220703</ele>
        <time>2013-05-04T09:10:08.000Z</time>
      </trkpt>
      <trkpt lat="43.66417" lon="5.73901">
        <ele>301.20001220703</ele>
        <time>2013-05-04T09:10:19.000Z</time>
      </trkpt>
      <trkpt lat="43.66376" lon="5.73925">
        <ele>301.79998779297</ele>
        <time>2013-05-04T09:10:30.000Z</time>
      </trkpt>
      <trkpt lat="43.66346" lon="5.73956">
        <ele>301.60000610352</ele>
        <time>2013-05-04T09:10:40.000Z</time>
      </trkpt>
      <trkpt lat="43.66314" lon="5.73996">
        <ele>301</ele>
        <time>2013-05-04T09:10:51.000Z</time>
      </trkpt>
      <trkpt lat="43.6628" lon="5.74018">
        <ele>304.79998779297</ele>
        <time>2013-05-04T09:11:01.000Z</time>
      </trkpt>
      <trkpt lat="43.66241" lon="5.74021">
        <ele>306.79998779297</ele>
        <time>2013-05-04T09:11:12.000Z</time>
      </trkpt>
      <trkpt lat="43.66198" lon="5.74015">
        <ele>307.39999389648</ele>
        <time>2013-05-04T09:11:23.000Z</time>
      </trkpt>
      <trkpt lat="43.66153" lon="5.7402">
        <ele>309.20001220703</ele>
        <time>2013-05-04T09:11:35.000Z</time>
      </trkpt>
      <trkpt lat="43.66114" lon="5.74022">
        <ele>310.20001220703</ele>
        <time>2013-05-04T09:11:45.000Z</time>
      </trkpt>
      <trkpt lat="43.66075" lon="5.74025">
        <ele>311.60000610352</ele>
        <time>2013-05-04T09:11:54.000Z</time>
      </trkpt>
      <trkpt lat="43.66071" lon="5.74025">
        <ele>311.79998779297</ele>
        <time>2013-05-04T09:11:55.000Z</time>
      </trkpt>
      <trkpt lat="43.66046" lon="5.74027">
        <ele>313</ele>
        <time>2013-05-04T09:12:01.000Z</time>
      </trkpt>
      <trkpt lat="43.66042" lon="5.74027">
        <ele>313.20001220703</ele>
        <time>2013-05-04T09:12:02.000Z</time>
      </trkpt>
      <trkpt lat="43.66025" lon="5.74031">
        <ele>314</ele>
        <time>2013-05-04T09:12:06.000Z</time>
      </trkpt>
      <trkpt lat="43.65989" lon="5.74053">
        <ele>316.20001220703</ele>
        <time>2013-05-04T09:12:16.000Z</time>
      </trkpt>
      <trkpt lat="43.65954" lon="5.74067">
        <ele>317.39999389648</ele>
        <time>2013-05-04T09:12:26.000Z</time>
      </trkpt>
      <trkpt lat="43.6591" lon="5.74073">
        <ele>318.20001220703</ele>
        <time>2013-05-04T09:12:38.000Z</time>
      </trkpt>
      <trkpt lat="43.65873" lon="5.74099">
        <ele>321</ele>
        <time>2013-05-04T09:12:49.000Z</time>
      </trkpt>
      <trkpt lat="43.65858" lon="5.74129">
        <ele>322.39999389648</ele>
        <time>2013-05-04T09:12:57.000Z</time>
      </trkpt>
      <trkpt lat="43.65839" lon="5.74154">
        <ele>321.60000610352</ele>
        <time>2013-05-04T09:13:05.000Z</time>
      </trkpt>
      <trkpt lat="43.65835" lon="5.74155">
        <ele>321.39999389648</ele>
        <time>2013-05-04T09:13:06.000Z</time>
      </trkpt>
      <trkpt lat="43.65832" lon="5.74153">
        <ele>321.39999389648</ele>
        <time>2013-05-04T09:13:07.000Z</time>
      </trkpt>
      <trkpt lat="43.65829" lon="5.7415">
        <ele>321.79998779297</ele>
        <time>2013-05-04T09:13:08.000Z</time>
      </trkpt>
      <trkpt lat="43.65826" lon="5.74147">
        <ele>322.20001220703</ele>
        <time>2013-05-04T09:13:09.000Z</time>
      </trkpt>
      <trkpt lat="43.65823" lon="5.74144">
        <ele>322.60000610352</ele>
        <time>2013-05-04T09:13:10.000Z</time>
      </trkpt>
      <trkpt lat="43.6579" lon="5.74106">
        <ele>325.60000610352</ele>
        <time>2013-05-04T09:13:21.000Z</time>
      </trkpt>
      <trkpt lat="43.65771" lon="5.74094">
        <ele>326.79998779297</ele>
        <time>2013-05-04T09:13:26.000Z</time>
      </trkpt>
      <trkpt lat="43.65767" lon="5.7409">
        <ele>327</ele>
        <time>2013-05-04T09:13:27.000Z</time>
      </trkpt>
      <trkpt lat="43.65765" lon="5.74084">
        <ele>327</ele>
        <time>2013-05-04T09:13:28.000Z</time>
      </trkpt>
      <trkpt lat="43.65765" lon="5.74078">
        <ele>327.60000610352</ele>
        <time>2013-05-04T09:13:29.000Z</time>
      </trkpt>
      <trkpt lat="43.65765" lon="5.74071">
        <ele>328.20001220703</ele>
        <time>2013-05-04T09:13:30.000Z</time>
      </trkpt>
      <trkpt lat="43.65765" lon="5.74065">
        <ele>328.79998779297</ele>
        <time>2013-05-04T09:13:31.000Z</time>
      </trkpt>
      <trkpt lat="43.65765" lon="5.74059">
        <ele>329.39999389648</ele>
        <time>2013-05-04T09:13:32.000Z</time>
      </trkpt>
      <trkpt lat="43.65763" lon="5.74054">
        <ele>330</ele>
        <time>2013-05-04T09:13:33.000Z</time>
      </trkpt>
      <trkpt lat="43.65761" lon="5.74049">
        <ele>330.39999389648</ele>
        <time>2013-05-04T09:13:34.000Z</time>
      </trkpt>
      <trkpt lat="43.65757" lon="5.74046">
        <ele>330.79998779297</ele>
        <time>2013-05-04T09:13:35.000Z</time>
      </trkpt>
      <trkpt lat="43.65754" lon="5.74043">
        <ele>331.20001220703</ele>
        <time>2013-05-04T09:13:36.000Z</time>
      </trkpt>
      <trkpt lat="43.6575" lon="5.74041">
        <ele>331.60000610352</ele>
        <time>2013-05-04T09:13:37.000Z</time>
      </trkpt>
      <trkpt lat="43.65745" lon="5.74038">
        <ele>332.20001220703</ele>
        <time>2013-05-04T09:13:38.000Z</time>
      </trkpt>
      <trkpt lat="43.65737" lon="5.74032">
        <ele>333.20001220703</ele>
        <time>2013-05-04T09:13:40.000Z</time>
      </trkpt>
      <trkpt lat="43.65733" lon="5.74029">
        <ele>333.60000610352</ele>
        <time>2013-05-04T09:13:41.000Z</time>
      </trkpt>
      <trkpt lat="43.65729" lon="5.74025">
        <ele>333.79998779297</ele>
        <time>2013-05-04T09:13:42.000Z</time>
      </trkpt>
      <trkpt lat="43.65719" lon="5.74013">
        <ele>334.20001220703</ele>
        <time>2013-05-04T09:13:45.000Z</time>
      </trkpt>
      <trkpt lat="43.65716" lon="5.7401">
        <ele>334.20001220703</ele>
        <time>2013-05-04T09:13:46.000Z</time>
      </trkpt>
      <trkpt lat="43.65712" lon="5.74009">
        <ele>334.20001220703</ele>
        <time>2013-05-04T09:13:47.000Z</time>
      </trkpt>
      <trkpt lat="43.65709" lon="5.74007">
        <ele>334.20001220703</ele>
        <time>2013-05-04T09:13:48.000Z</time>
      </trkpt>
      <trkpt lat="43.65705" lon="5.74007">
        <ele>334.20001220703</ele>
        <time>2013-05-04T09:13:49.000Z</time>
      </trkpt>
      <trkpt lat="43.65662" lon="5.73995">
        <ele>333.60000610352</ele>
        <time>2013-05-04T09:14:00.000Z</time>
      </trkpt>
      <trkpt lat="43.6564" lon="5.7397">
        <ele>336.20001220703</ele>
        <time>2013-05-04T09:14:08.000Z</time>
      </trkpt>
      <trkpt lat="43.65638" lon="5.73959">
        <ele>336.60000610352</ele>
        <time>2013-05-04T09:14:10.000Z</time>
      </trkpt>
      <trkpt lat="43.65632" lon="5.73926">
        <ele>338</ele>
        <time>2013-05-04T09:14:16.000Z</time>
      </trkpt>
      <trkpt lat="43.65629" lon="5.73921">
        <ele>338</ele>
        <time>2013-05-04T09:14:17.000Z</time>
      </trkpt>
      <trkpt lat="43.65626" lon="5.73917">
        <ele>338</ele>
        <time>2013-05-04T09:14:18.000Z</time>
      </trkpt>
      <trkpt lat="43.65623" lon="5.73913">
        <ele>338</ele>
        <time>2013-05-04T09:14:19.000Z</time>
      </trkpt>
      <trkpt lat="43.6562" lon="5.7391">
        <ele>338.20001220703</ele>
        <time>2013-05-04T09:14:20.000Z</time>
      </trkpt>
      <trkpt lat="43.65616" lon="5.73907">
        <ele>338.20001220703</ele>
        <time>2013-05-04T09:14:21.000Z</time>
      </trkpt>
      <trkpt lat="43.65582" lon="5.73874">
        <ele>336.39999389648</ele>
        <time>2013-05-04T09:14:32.000Z</time>
      </trkpt>
      <trkpt lat="43.65554" lon="5.73833">
        <ele>337.20001220703</ele>
        <time>2013-05-04T09:14:45.000Z</time>
      </trkpt>
      <trkpt lat="43.65545" lon="5.73817">
        <ele>338.39999389648</ele>
        <time>2013-05-04T09:14:52.000Z</time>
      </trkpt>
      <trkpt lat="43.65544" lon="5.73816">
        <ele>338.60000610352</ele>
        <time>2013-05-04T09:14:53.000Z</time>
      </trkpt>
      <trkpt lat="43.65543" lon="5.73814">
        <ele>338.60000610352</ele>
        <time>2013-05-04T09:14:54.000Z</time>
      </trkpt>
      <trkpt lat="43.65542" lon="5.73813">
        <ele>338.79998779297</ele>
        <time>2013-05-04T09:14:55.000Z</time>
      </trkpt>
      <trkpt lat="43.65541" lon="5.73813">
        <ele>338.79998779297</ele>
        <time>2013-05-04T09:14:56.000Z</time>
      </trkpt>
      <trkpt lat="43.65538" lon="5.73812">
        <ele>338.79998779297</ele>
        <time>2013-05-04T09:15:08.000Z</time>
      </trkpt>
      <trkpt lat="43.65536" lon="5.73812">
        <ele>338.79998779297</ele>
        <time>2013-05-04T09:15:33.000Z</time>
      </trkpt>
      <trkpt lat="43.65538" lon="5.73813">
        <ele>338.79998779297</ele>
        <time>2013-05-04T09:15:56.000Z</time>
      </trkpt>
      <trkpt lat="43.65538" lon="5.73812">
        <ele>338.79998779297</ele>
        <time>2013-05-04T09:16:11.000Z</time>
      </trkpt>
      <trkpt lat="43.65535" lon="5.73812">
        <ele>338.79998779297</ele>
        <time>2013-05-04T09:16:26.000Z</time>
      </trkpt>
      <trkpt lat="43.65516" lon="5.73816">
        <ele>338.79998779297</ele>
        <time>2013-05-04T09:16:34.000Z</time>
      </trkpt>
      <trkpt lat="43.65482" lon="5.73821">
        <ele>339</ele>
        <time>2013-05-04T09:16:45.000Z</time>
      </trkpt>
      <trkpt lat="43.65455" lon="5.73833">
        <ele>338.39999389648</ele>
        <time>2013-05-04T09:16:55.000Z</time>
      </trkpt>
      <trkpt lat="43.65417" lon="5.73837">
        <ele>339.39999389648</ele>
        <time>2013-05-04T09:17:07.000Z</time>
      </trkpt>
      <trkpt lat="43.65384" lon="5.73837">
        <ele>340.60000610352</ele>
        <time>2013-05-04T09:17:19.000Z</time>
      </trkpt>
      <trkpt lat="43.65355" lon="5.73858">
        <ele>343.60000610352</ele>
        <time>2013-05-04T09:17:30.000Z</time>
      </trkpt>
      <trkpt lat="43.65324" lon="5.73882">
        <ele>346.39999389648</ele>
        <time>2013-05-04T09:17:42.000Z</time>
      </trkpt>
      <trkpt lat="43.65303" lon="5.73912">
        <ele>348.39999389648</ele>
        <time>2013-05-04T09:17:52.000Z</time>
      </trkpt>
      <trkpt lat="43.65286" lon="5.73951">
        <ele>352.20001220703</ele>
        <time>2013-05-04T09:18:04.000Z</time>
      </trkpt>
      <trkpt lat="43.65263" lon="5.73961">
        <ele>351.60000610352</ele>
        <time>2013-05-04T09:18:14.000Z</time>
      </trkpt>
      <trkpt lat="43.65237" lon="5.73959">
        <ele>350.79998779297</ele>
        <time>2013-05-04T09:18:25.000Z</time>
      </trkpt>
      <trkpt lat="43.65217" lon="5.73968">
        <ele>352</ele>
        <time>2013-05-04T09:18:35.000Z</time>
      </trkpt>
      <trkpt lat="43.65199" lon="5.73988">
        <ele>354</ele>
        <time>2013-05-04T09:18:43.000Z</time>
      </trkpt>
      <trkpt lat="43.65187" lon="5.74009">
        <ele>357</ele>
        <time>2013-05-04T09:18:48.000Z</time>
      </trkpt>
      <trkpt lat="43.65181" lon="5.74022">
        <ele>360</ele>
        <time>2013-05-04T09:18:52.000Z</time>
      </trkpt>
      <trkpt lat="43.65177" lon="5.74027">
        <ele>361</ele>
        <time>2013-05-04T09:18:55.000Z</time>
      </trkpt>
      <trkpt lat="43.65164" lon="5.74035">
        <ele>363.20001220703</ele>
        <time>2013-05-04T09:19:05.000Z</time>
      </trkpt>
      <trkpt lat="43.65155" lon="5.74037">
        <ele>364</ele>
        <time>2013-05-04T09:19:12.000Z</time>
      </trkpt>
      <trkpt lat="43.65153" lon="5.74039">
        <ele>364.39999389648</ele>
        <time>2013-05-04T09:19:13.000Z</time>
      </trkpt>
      <trkpt lat="43.65152" lon="5.7404">
        <ele>364.60000610352</ele>
        <time>2013-05-04T09:19:14.000Z</time>
      </trkpt>
      <trkpt lat="43.65151" lon="5.7404">
        <ele>364.79998779297</ele>
        <time>2013-05-04T09:19:15.000Z</time>
      </trkpt>
      <trkpt lat="43.6515" lon="5.7404">
        <ele>364.79998779297</ele>
        <time>2013-05-04T09:19:16.000Z</time>
      </trkpt>
      <trkpt lat="43.65147" lon="5.74041">
        <ele>365</ele>
        <time>2013-05-04T09:19:18.000Z</time>
      </trkpt>
      <trkpt lat="43.65136" lon="5.74047">
        <ele>366.60000610352</ele>
        <time>2013-05-04T09:19:27.000Z</time>
      </trkpt>
      <trkpt lat="43.65125" lon="5.74058">
        <ele>369</ele>
        <time>2013-05-04T09:19:36.000Z</time>
      </trkpt>
      <trkpt lat="43.6511" lon="5.74078">
        <ele>372.60000610352</ele>
        <time>2013-05-04T09:19:48.000Z</time>
      </trkpt>
      <trkpt lat="43.65099" lon="5.74105">
        <ele>377.60000610352</ele>
        <time>2013-05-04T09:20:00.000Z</time>
      </trkpt>
      <trkpt lat="43.6509" lon="5.74124">
        <ele>381.20001220703</ele>
        <time>2013-05-04T09:20:09.000Z</time>
      </trkpt>
      <trkpt lat="43.65079" lon="5.74143">
        <ele>385</ele>
        <time>2013-05-04T09:20:19.000Z</time>
      </trkpt>
      <trkpt lat="43.65062" lon="5.74168">
        <ele>390</ele>
        <time>2013-05-04T09:20:31.000Z</time>
      </trkpt>
      <trkpt lat="43.65056" lon="5.74194">
        <ele>394</ele>
        <time>2013-05-04T09:20:42.000Z</time>
      </trkpt>
      <trkpt lat="43.65047" lon="5.74223">
        <ele>398</ele>
        <time>2013-05-04T09:20:52.000Z</time>
      </trkpt>
      <trkpt lat="43.6504" lon="5.74243">
        <ele>400.60000610352</ele>
        <time>2013-05-04T09:21:00.000Z</time>
      </trkpt>
      <trkpt lat="43.65024" lon="5.74255">
        <ele>400.79998779297</ele>
        <time>2013-05-04T09:21:09.000Z</time>
      </trkpt>
      <trkpt lat="43.64991" lon="5.74261">
        <ele>400.20001220703</ele>
        <time>2013-05-04T09:21:20.000Z</time>
      </trkpt>
      <trkpt lat="43.64953" lon="5.74266">
        <ele>401.20001220703</ele>
        <time>2013-05-04T09:21:32.000Z</time>
      </trkpt>
      <trkpt lat="43.64929" lon="5.74271">
        <ele>401.60000610352</ele>
        <time>2013-05-04T09:21:39.000Z</time>
      </trkpt>
      <trkpt lat="43.64888" lon="5.74273">
        <ele>402.39999389648</ele>
        <time>2013-05-04T09:21:50.000Z</time>
      </trkpt>
      <trkpt lat="43.6484" lon="5.74283">
        <ele>403</ele>
        <time>2013-05-04T09:22:04.000Z</time>
      </trkpt>
      <trkpt lat="43.64785" lon="5.74287">
        <ele>407.39999389648</ele>
        <time>2013-05-04T09:22:17.000Z</time>
      </trkpt>
      <trkpt lat="43.6478" lon="5.74288">
        <ele>407.79998779297</ele>
        <time>2013-05-04T09:22:18.000Z</time>
      </trkpt>
      <trkpt lat="43.64753" lon="5.74296">
        <ele>410</ele>
        <time>2013-05-04T09:22:24.000Z</time>
      </trkpt>
      <trkpt lat="43.64748" lon="5.74297">
        <ele>410.20001220703</ele>
        <time>2013-05-04T09:22:25.000Z</time>
      </trkpt>
      <trkpt lat="43.64744" lon="5.74298">
        <ele>410.39999389648</ele>
        <time>2013-05-04T09:22:26.000Z</time>
      </trkpt>
      <trkpt lat="43.64711" lon="5.74304">
        <ele>412</ele>
        <time>2013-05-04T09:22:36.000Z</time>
      </trkpt>
      <trkpt lat="43.64679" lon="5.74309">
        <ele>413.79998779297</ele>
        <time>2013-05-04T09:22:47.000Z</time>
      </trkpt>
      <trkpt lat="43.64648" lon="5.7431">
        <ele>414.79998779297</ele>
        <time>2013-05-04T09:22:57.000Z</time>
      </trkpt>
      <trkpt lat="43.64608" lon="5.7431">
        <ele>414.79998779297</ele>
        <time>2013-05-04T09:23:09.000Z</time>
      </trkpt>
      <trkpt lat="43.64566" lon="5.74312">
        <ele>416</ele>
        <time>2013-05-04T09:23:21.000Z</time>
      </trkpt>
      <trkpt lat="43.64523" lon="5.74314">
        <ele>418.60000610352</ele>
        <time>2013-05-04T09:23:33.000Z</time>
      </trkpt>
      <trkpt lat="43.64487" lon="5.74313">
        <ele>420.39999389648</ele>
        <time>2013-05-04T09:23:43.000Z</time>
      </trkpt>
      <trkpt lat="43.64464" lon="5.74313">
        <ele>421.20001220703</ele>
        <time>2013-05-04T09:23:49.000Z</time>
      </trkpt>
      <trkpt lat="43.64459" lon="5.74314">
        <ele>421.20001220703</ele>
        <time>2013-05-04T09:23:50.000Z</time>
      </trkpt>
      <trkpt lat="43.64417" lon="5.74316">
        <ele>422.60000610352</ele>
        <time>2013-05-04T09:24:00.000Z</time>
      </trkpt>
      <trkpt lat="43.64389" lon="5.74319">
        <ele>423.20001220703</ele>
        <time>2013-05-04T09:24:08.000Z</time>
      </trkpt>
      <trkpt lat="43.64343" lon="5.74323">
        <ele>424</ele>
        <time>2013-05-04T09:24:21.000Z</time>
      </trkpt>
      <trkpt lat="43.643" lon="5.7432">
        <ele>424.60000610352</ele>
        <time>2013-05-04T09:24:34.000Z</time>
      </trkpt>
      <trkpt lat="43.64267" lon="5.74322">
        <ele>425</ele>
        <time>2013-05-04T09:24:45.000Z</time>
      </trkpt>
      <trkpt lat="43.64235" lon="5.74322">
        <ele>424.39999389648</ele>
        <time>2013-05-04T09:24:55.000Z</time>
      </trkpt>
      <trkpt lat="43.64183" lon="5.74323">
        <ele>422</ele>
        <time>2013-05-04T09:25:05.000Z</time>
      </trkpt>
      <trkpt lat="43.64133" lon="5.74328">
        <ele>418.60000610352</ele>
        <time>2013-05-04T09:25:15.000Z</time>
      </trkpt>
      <trkpt lat="43.64096" lon="5.7433">
        <ele>416</ele>
        <time>2013-05-04T09:25:21.000Z</time>
      </trkpt>
      <trkpt lat="43.64024" lon="5.74333">
        <ele>415.60000610352</ele>
        <time>2013-05-04T09:25:33.000Z</time>
      </trkpt>
      <trkpt lat="43.63966" lon="5.74335">
        <ele>418.20001220703</ele>
        <time>2013-05-04T09:25:46.000Z</time>
      </trkpt>
      <trkpt lat="43.63928" lon="5.74338">
        <ele>420.79998779297</ele>
        <time>2013-05-04T09:25:57.000Z</time>
      </trkpt>
      <trkpt lat="43.6391" lon="5.74337">
        <ele>421.20001220703</ele>
        <time>2013-05-04T09:26:04.000Z</time>
      </trkpt>
      <trkpt lat="43.63909" lon="5.74335">
        <ele>421.20001220703</ele>
        <time>2013-05-04T09:26:05.000Z</time>
      </trkpt>
      <trkpt lat="43.63909" lon="5.74333">
        <ele>421.20001220703</ele>
        <time>2013-05-04T09:26:06.000Z</time>
      </trkpt>
      <trkpt lat="43.63909" lon="5.7433">
        <ele>421.20001220703</ele>
        <time>2013-05-04T09:26:15.000Z</time>
      </trkpt>
      <trkpt lat="43.63909" lon="5.74329">
        <ele>421.20001220703</ele>
        <time>2013-05-04T09:26:32.000Z</time>
      </trkpt>
      <trkpt lat="43.63908" lon="5.74331">
        <ele>421.20001220703</ele>
        <time>2013-05-04T09:26:50.000Z</time>
      </trkpt>
      <trkpt lat="43.63909" lon="5.74333">
        <ele>421.20001220703</ele>
        <time>2013-05-04T09:27:12.000Z</time>
      </trkpt>
      <trkpt lat="43.63909" lon="5.74335">
        <ele>421.20001220703</ele>
        <time>2013-05-04T09:27:35.000Z</time>
      </trkpt>
      <trkpt lat="43.63909" lon="5.74333">
        <ele>421.20001220703</ele>
        <time>2013-05-04T09:27:55.000Z</time>
      </trkpt>
      <trkpt lat="43.6391" lon="5.74326">
        <ele>421.39999389648</ele>
        <time>2013-05-04T09:28:19.000Z</time>
      </trkpt>
      <trkpt lat="43.6391" lon="5.74324">
        <ele>421.39999389648</ele>
        <time>2013-05-04T09:28:20.000Z</time>
      </trkpt>
      <trkpt lat="43.6391" lon="5.74321">
        <ele>421.39999389648</ele>
        <time>2013-05-04T09:28:21.000Z</time>
      </trkpt>
      <trkpt lat="43.63911" lon="5.74319">
        <ele>421.60000610352</ele>
        <time>2013-05-04T09:28:22.000Z</time>
      </trkpt>
      <trkpt lat="43.63919" lon="5.74288">
        <ele>422.20001220703</ele>
        <time>2013-05-04T09:28:33.000Z</time>
      </trkpt>
      <trkpt lat="43.63935" lon="5.74241">
        <ele>422.39999389648</ele>
        <time>2013-05-04T09:28:45.000Z</time>
      </trkpt>
      <trkpt lat="43.63954" lon="5.74187">
        <ele>423.60000610352</ele>
        <time>2013-05-04T09:28:57.000Z</time>
      </trkpt>
      <trkpt lat="43.63957" lon="5.74145">
        <ele>425.20001220703</ele>
        <time>2013-05-04T09:29:06.000Z</time>
      </trkpt>
      <trkpt lat="43.63953" lon="5.74107">
        <ele>426.60000610352</ele>
        <time>2013-05-04T09:29:15.000Z</time>
      </trkpt>
      <trkpt lat="43.63961" lon="5.74069">
        <ele>428.39999389648</ele>
        <time>2013-05-04T09:29:24.000Z</time>
      </trkpt>
      <trkpt lat="43.63975" lon="5.74029">
        <ele>431.20001220703</ele>
        <time>2013-05-04T09:29:34.000Z</time>
      </trkpt>
      <trkpt lat="43.63988" lon="5.7398">
        <ele>434.60000610352</ele>
        <time>2013-05-04T09:29:46.000Z</time>
      </trkpt>
      <trkpt lat="43.63996" lon="5.73932">
        <ele>437.60000610352</ele>
        <time>2013-05-04T09:29:58.000Z</time>
      </trkpt>
      <trkpt lat="43.63996" lon="5.73891">
        <ele>440</ele>
        <time>2013-05-04T09:30:09.000Z</time>
      </trkpt>
      <trkpt lat="43.63998" lon="5.73853">
        <ele>442.39999389648</ele>
        <time>2013-05-04T09:30:19.000Z</time>
      </trkpt>
      <trkpt lat="43.64003" lon="5.73815">
        <ele>444.60000610352</ele>
        <time>2013-05-04T09:30:30.000Z</time>
      </trkpt>
      <trkpt lat="43.64012" lon="5.73775">
        <ele>445.60000610352</ele>
        <time>2013-05-04T09:30:41.000Z</time>
      </trkpt>
      <trkpt lat="43.64021" lon="5.73745">
        <ele>446</ele>
        <time>2013-05-04T09:30:50.000Z</time>
      </trkpt>
      <trkpt lat="43.64033" lon="5.73725">
        <ele>445.79998779297</ele>
        <time>2013-05-04T09:30:59.000Z</time>
      </trkpt>
      <trkpt lat="43.6405" lon="5.73698">
        <ele>444.79998779297</ele>
        <time>2013-05-04T09:31:10.000Z</time>
      </trkpt>
      <trkpt lat="43.64056" lon="5.73651">
        <ele>444.60000610352</ele>
        <time>2013-05-04T09:31:23.000Z</time>
      </trkpt>
      <trkpt lat="43.6406" lon="5.73594">
        <ele>442.79998779297</ele>
        <time>2013-05-04T09:31:34.000Z</time>
      </trkpt>
      <trkpt lat="43.64062" lon="5.73557">
        <ele>441.60000610352</ele>
        <time>2013-05-04T09:31:39.000Z</time>
      </trkpt>
      <trkpt lat="43.64063" lon="5.73548">
        <ele>441.20001220703</ele>
        <time>2013-05-04T09:31:40.000Z</time>
      </trkpt>
      <trkpt lat="43.64064" lon="5.7354">
        <ele>440.79998779297</ele>
        <time>2013-05-04T09:31:41.000Z</time>
      </trkpt>
      <trkpt lat="43.64066" lon="5.73521">
        <ele>440</ele>
        <time>2013-05-04T09:31:43.000Z</time>
      </trkpt>
      <trkpt lat="43.64069" lon="5.73482">
        <ele>439.60000610352</ele>
        <time>2013-05-04T09:31:48.000Z</time>
      </trkpt>
      <trkpt lat="43.64078" lon="5.73425">
        <ele>440.39999389648</ele>
        <time>2013-05-04T09:31:57.000Z</time>
      </trkpt>
      <trkpt lat="43.6408" lon="5.73419">
        <ele>440.20001220703</ele>
        <time>2013-05-04T09:31:58.000Z</time>
      </trkpt>
      <trkpt lat="43.64084" lon="5.73414">
        <ele>440.20001220703</ele>
        <time>2013-05-04T09:31:59.000Z</time>
      </trkpt>
      <trkpt lat="43.64096" lon="5.73397">
        <ele>442.79998779297</ele>
        <time>2013-05-04T09:32:03.000Z</time>
      </trkpt>
      <trkpt lat="43.64098" lon="5.73392">
        <ele>443.39999389648</ele>
        <time>2013-05-04T09:32:04.000Z</time>
      </trkpt>
      <trkpt lat="43.641" lon="5.73386">
        <ele>444</ele>
        <time>2013-05-04T09:32:05.000Z</time>
      </trkpt>
      <trkpt lat="43.64101" lon="5.73381">
        <ele>444.60000610352</ele>
        <time>2013-05-04T09:32:06.000Z</time>
      </trkpt>
      <trkpt lat="43.64102" lon="5.73374">
        <ele>445.20001220703</ele>
        <time>2013-05-04T09:32:07.000Z</time>
      </trkpt>
      <trkpt lat="43.64102" lon="5.73368">
        <ele>445.60000610352</ele>
        <time>2013-05-04T09:32:08.000Z</time>
      </trkpt>
      <trkpt lat="43.64102" lon="5.73362">
        <ele>446.20001220703</ele>
        <time>2013-05-04T09:32:09.000Z</time>
      </trkpt>
      <trkpt lat="43.64102" lon="5.73343">
        <ele>447.79998779297</ele>
        <time>2013-05-04T09:32:12.000Z</time>
      </trkpt>
      <trkpt lat="43.64099" lon="5.73324">
        <ele>448.79998779297</ele>
        <time>2013-05-04T09:32:15.000Z</time>
      </trkpt>
      <trkpt lat="43.641" lon="5.73318">
        <ele>448.79998779297</ele>
        <time>2013-05-04T09:32:16.000Z</time>
      </trkpt>
      <trkpt lat="43.64101" lon="5.733">
        <ele>449.39999389648</ele>
        <time>2013-05-04T09:32:19.000Z</time>
      </trkpt>
      <trkpt lat="43.64101" lon="5.73294">
        <ele>449.39999389648</ele>
        <time>2013-05-04T09:32:20.000Z</time>
      </trkpt>
      <trkpt lat="43.64102" lon="5.73288">
        <ele>449.60000610352</ele>
        <time>2013-05-04T09:32:21.000Z</time>
      </trkpt>
      <trkpt lat="43.64103" lon="5.73283">
        <ele>449.79998779297</ele>
        <time>2013-05-04T09:32:22.000Z</time>
      </trkpt>
      <trkpt lat="43.64105" lon="5.73278">
        <ele>449.79998779297</ele>
        <time>2013-05-04T09:32:23.000Z</time>
      </trkpt>
      <trkpt lat="43.64107" lon="5.73273">
        <ele>450</ele>
        <time>2013-05-04T09:32:24.000Z</time>
      </trkpt>
      <trkpt lat="43.64111" lon="5.73263">
        <ele>450</ele>
        <time>2013-05-04T09:32:26.000Z</time>
      </trkpt>
      <trkpt lat="43.64138" lon="5.73206">
        <ele>450.60000610352</ele>
        <time>2013-05-04T09:32:38.000Z</time>
      </trkpt>
      <trkpt lat="43.64163" lon="5.73165">
        <ele>449.39999389648</ele>
        <time>2013-05-04T09:32:48.000Z</time>
      </trkpt>
      <trkpt lat="43.64185" lon="5.73128">
        <ele>454.60000610352</ele>
        <time>2013-05-04T09:33:00.000Z</time>
      </trkpt>
      <trkpt lat="43.64196" lon="5.73101">
        <ele>457.20001220703</ele>
        <time>2013-05-04T09:33:06.000Z</time>
      </trkpt>
      <trkpt lat="43.64197" lon="5.73095">
        <ele>457.60000610352</ele>
        <time>2013-05-04T09:33:07.000Z</time>
      </trkpt>
      <trkpt lat="43.64207" lon="5.73058">
        <ele>459.20001220703</ele>
        <time>2013-05-04T09:33:16.000Z</time>
      </trkpt>
      <trkpt lat="43.64206" lon="5.73056">
        <ele>459.20001220703</ele>
        <time>2013-05-04T09:33:24.000Z</time>
      </trkpt>
      <trkpt lat="43.64207" lon="5.73054">
        <ele>459.20001220703</ele>
        <time>2013-05-04T09:33:44.000Z</time>
      </trkpt>
      <trkpt lat="43.64207" lon="5.73055">
        <ele>459.20001220703</ele>
        <time>2013-05-04T09:34:03.000Z</time>
      </trkpt>
      <trkpt lat="43.64209" lon="5.73053">
        <ele>459.20001220703</ele>
        <time>2013-05-04T09:34:21.000Z</time>
      </trkpt>
      <trkpt lat="43.64208" lon="5.73055">
        <ele>459.20001220703</ele>
        <time>2013-05-04T09:34:45.000Z</time>
      </trkpt>
      <trkpt lat="43.64209" lon="5.73056">
        <ele>459.20001220703</ele>
        <time>2013-05-04T09:35:04.000Z</time>
      </trkpt>
      <trkpt lat="43.64206" lon="5.73052">
        <ele>459.20001220703</ele>
        <time>2013-05-04T09:35:23.000Z</time>
      </trkpt>
      <trkpt lat="43.64202" lon="5.73032">
        <ele>459.39999389648</ele>
        <time>2013-05-04T09:35:31.000Z</time>
      </trkpt>
      <trkpt lat="43.64202" lon="5.7302">
        <ele>459.60000610352</ele>
        <time>2013-05-04T09:35:41.000Z</time>
      </trkpt>
      <trkpt lat="43.642" lon="5.73007">
        <ele>460</ele>
        <time>2013-05-04T09:35:50.000Z</time>
      </trkpt>
      <trkpt lat="43.64201" lon="5.73005">
        <ele>460</ele>
        <time>2013-05-04T09:35:51.000Z</time>
      </trkpt>
      <trkpt lat="43.64202" lon="5.73002">
        <ele>460</ele>
        <time>2013-05-04T09:35:52.000Z</time>
      </trkpt>
      <trkpt lat="43.64214" lon="5.72985">
        <ele>460.20001220703</ele>
        <time>2013-05-04T09:35:58.000Z</time>
      </trkpt>
      <trkpt lat="43.64214" lon="5.7298">
        <ele>460.39999389648</ele>
        <time>2013-05-04T09:35:59.000Z</time>
      </trkpt>
      <trkpt lat="43.64214" lon="5.72976">
        <ele>460.60000610352</ele>
        <time>2013-05-04T09:36:00.000Z</time>
      </trkpt>
      <trkpt lat="43.64213" lon="5.72971">
        <ele>460.79998779297</ele>
        <time>2013-05-04T09:36:01.000Z</time>
      </trkpt>
      <trkpt lat="43.64212" lon="5.72967">
        <ele>461</ele>
        <time>2013-05-04T09:36:02.000Z</time>
      </trkpt>
      <trkpt lat="43.64216" lon="5.72939">
        <ele>461.79998779297</ele>
        <time>2013-05-04T09:36:08.000Z</time>
      </trkpt>
      <trkpt lat="43.64224" lon="5.72908">
        <ele>462.60000610352</ele>
        <time>2013-05-04T09:36:15.000Z</time>
      </trkpt>
      <trkpt lat="43.64225" lon="5.72905">
        <ele>462.60000610352</ele>
        <time>2013-05-04T09:36:16.000Z</time>
      </trkpt>
      <trkpt lat="43.64228" lon="5.72903">
        <ele>462.60000610352</ele>
        <time>2013-05-04T09:36:17.000Z</time>
      </trkpt>
      <trkpt lat="43.64237" lon="5.72894">
        <ele>462.39999389648</ele>
        <time>2013-05-04T09:36:22.000Z</time>
      </trkpt>
      <trkpt lat="43.64236" lon="5.72887">
        <ele>462.79998779297</ele>
        <time>2013-05-04T09:36:24.000Z</time>
      </trkpt>
      <trkpt lat="43.64235" lon="5.72868">
        <ele>463.60000610352</ele>
        <time>2013-05-04T09:36:30.000Z</time>
      </trkpt>
      <trkpt lat="43.64229" lon="5.72858">
        <ele>464.39999389648</ele>
        <time>2013-05-04T09:36:33.000Z</time>
      </trkpt>
      <trkpt lat="43.6423" lon="5.72854">
        <ele>464.60000610352</ele>
        <time>2013-05-04T09:36:34.000Z</time>
      </trkpt>
      <trkpt lat="43.6423" lon="5.7285">
        <ele>464.60000610352</ele>
        <time>2013-05-04T09:36:35.000Z</time>
      </trkpt>
      <trkpt lat="43.64237" lon="5.7281">
        <ele>466</ele>
        <time>2013-05-04T09:36:44.000Z</time>
      </trkpt>
      <trkpt lat="43.64237" lon="5.72807">
        <ele>466.20001220703</ele>
        <time>2013-05-04T09:36:45.000Z</time>
      </trkpt>
      <trkpt lat="43.64238" lon="5.72803">
        <ele>466.39999389648</ele>
        <time>2013-05-04T09:36:46.000Z</time>
      </trkpt>
      <trkpt lat="43.6424" lon="5.72799">
        <ele>466.39999389648</ele>
        <time>2013-05-04T09:36:47.000Z</time>
      </trkpt>
      <trkpt lat="43.64241" lon="5.72795">
        <ele>466.60000610352</ele>
        <time>2013-05-04T09:36:48.000Z</time>
      </trkpt>
      <trkpt lat="43.64241" lon="5.7279">
        <ele>466.79998779297</ele>
        <time>2013-05-04T09:36:49.000Z</time>
      </trkpt>
      <trkpt lat="43.6424" lon="5.72785">
        <ele>467</ele>
        <time>2013-05-04T09:36:50.000Z</time>
      </trkpt>
      <trkpt lat="43.64239" lon="5.72781">
        <ele>467.39999389648</ele>
        <time>2013-05-04T09:36:51.000Z</time>
      </trkpt>
      <trkpt lat="43.64238" lon="5.72776">
        <ele>467.60000610352</ele>
        <time>2013-05-04T09:36:52.000Z</time>
      </trkpt>
      <trkpt lat="43.64237" lon="5.72772">
        <ele>468</ele>
        <time>2013-05-04T09:36:53.000Z</time>
      </trkpt>
      <trkpt lat="43.64234" lon="5.72743">
        <ele>469.79998779297</ele>
        <time>2013-05-04T09:37:00.000Z</time>
      </trkpt>
      <trkpt lat="43.64236" lon="5.72721">
        <ele>470.79998779297</ele>
        <time>2013-05-04T09:37:05.000Z</time>
      </trkpt>
      <trkpt lat="43.64238" lon="5.72718">
        <ele>470.79998779297</ele>
        <time>2013-05-04T09:37:06.000Z</time>
      </trkpt>
      <trkpt lat="43.6424" lon="5.72715">
        <ele>470.79998779297</ele>
        <time>2013-05-04T09:37:07.000Z</time>
      </trkpt>
      <trkpt lat="43.64244" lon="5.72709">
        <ele>470.60000610352</ele>
        <time>2013-05-04T09:37:09.000Z</time>
      </trkpt>
      <trkpt lat="43.64247" lon="5.72707">
        <ele>470.39999389648</ele>
        <time>2013-05-04T09:37:10.000Z</time>
      </trkpt>
      <trkpt lat="43.6425" lon="5.72707">
        <ele>470</ele>
        <time>2013-05-04T09:37:11.000Z</time>
      </trkpt>
      <trkpt lat="43.64253" lon="5.72705">
        <ele>470.60000610352</ele>
        <time>2013-05-04T09:37:12.000Z</time>
      </trkpt>
      <trkpt lat="43.64256" lon="5.72703">
        <ele>471.20001220703</ele>
        <time>2013-05-04T09:37:13.000Z</time>
      </trkpt>
      <trkpt lat="43.64276" lon="5.72683">
        <ele>474.79998779297</ele>
        <time>2013-05-04T09:37:21.000Z</time>
      </trkpt>
      <trkpt lat="43.64276" lon="5.72679">
        <ele>474.79998779297</ele>
        <time>2013-05-04T09:37:22.000Z</time>
      </trkpt>
      <trkpt lat="43.64276" lon="5.72674">
        <ele>475</ele>
        <time>2013-05-04T09:37:23.000Z</time>
      </trkpt>
      <trkpt lat="43.64276" lon="5.7267">
        <ele>475</ele>
        <time>2013-05-04T09:37:24.000Z</time>
      </trkpt>
      <trkpt lat="43.64277" lon="5.72667">
        <ele>475.20001220703</ele>
        <time>2013-05-04T09:37:25.000Z</time>
      </trkpt>
      <trkpt lat="43.64278" lon="5.72663">
        <ele>475.39999389648</ele>
        <time>2013-05-04T09:37:26.000Z</time>
      </trkpt>
      <trkpt lat="43.6428" lon="5.72661">
        <ele>475.79998779297</ele>
        <time>2013-05-04T09:37:27.000Z</time>
      </trkpt>
      <trkpt lat="43.64283" lon="5.7266">
        <ele>476.20001220703</ele>
        <time>2013-05-04T09:37:28.000Z</time>
      </trkpt>
      <trkpt lat="43.64295" lon="5.72651">
        <ele>477.60000610352</ele>
        <time>2013-05-04T09:37:33.000Z</time>
      </trkpt>
      <trkpt lat="43.64297" lon="5.72649">
        <ele>477.79998779297</ele>
        <time>2013-05-04T09:37:34.000Z</time>
      </trkpt>
      <trkpt lat="43.64299" lon="5.72645">
        <ele>478.20001220703</ele>
        <time>2013-05-04T09:37:35.000Z</time>
      </trkpt>
      <trkpt lat="43.643" lon="5.72641">
        <ele>478.20001220703</ele>
        <time>2013-05-04T09:37:36.000Z</time>
      </trkpt>
      <trkpt lat="43.64302" lon="5.72636">
        <ele>478.39999389648</ele>
        <time>2013-05-04T09:37:37.000Z</time>
      </trkpt>
      <trkpt lat="43.64304" lon="5.72599">
        <ele>478.79998779297</ele>
        <time>2013-05-04T09:37:45.000Z</time>
      </trkpt>
      <trkpt lat="43.64304" lon="5.72595">
        <ele>478.79998779297</ele>
        <time>2013-05-04T09:37:46.000Z</time>
      </trkpt>
      <trkpt lat="43.64304" lon="5.72591">
        <ele>479</ele>
        <time>2013-05-04T09:37:47.000Z</time>
      </trkpt>
      <trkpt lat="43.64305" lon="5.72588">
        <ele>478.79998779297</ele>
        <time>2013-05-04T09:37:48.000Z</time>
      </trkpt>
      <trkpt lat="43.64307" lon="5.72585">
        <ele>478.79998779297</ele>
        <time>2013-05-04T09:37:49.000Z</time>
      </trkpt>
      <trkpt lat="43.64309" lon="5.72574">
        <ele>479.20001220703</ele>
        <time>2013-05-04T09:37:52.000Z</time>
      </trkpt>
      <trkpt lat="43.64309" lon="5.72571">
        <ele>479.39999389648</ele>
        <time>2013-05-04T09:37:53.000Z</time>
      </trkpt>
      <trkpt lat="43.64308" lon="5.72567">
        <ele>479.60000610352</ele>
        <time>2013-05-04T09:37:54.000Z</time>
      </trkpt>
      <trkpt lat="43.64307" lon="5.72563">
        <ele>479.79998779297</ele>
        <time>2013-05-04T09:37:55.000Z</time>
      </trkpt>
      <trkpt lat="43.64307" lon="5.7256">
        <ele>479.79998779297</ele>
        <time>2013-05-04T09:37:56.000Z</time>
      </trkpt>
      <trkpt lat="43.64307" lon="5.72556">
        <ele>480</ele>
        <time>2013-05-04T09:37:57.000Z</time>
      </trkpt>
      <trkpt lat="43.64308" lon="5.72553">
        <ele>480.20001220703</ele>
        <time>2013-05-04T09:37:58.000Z</time>
      </trkpt>
      <trkpt lat="43.64306" lon="5.72511">
        <ele>482</ele>
        <time>2013-05-04T09:38:09.000Z</time>
      </trkpt>
      <trkpt lat="43.6429" lon="5.72491">
        <ele>483.60000610352</ele>
        <time>2013-05-04T09:38:16.000Z</time>
      </trkpt>
      <trkpt lat="43.64285" lon="5.7248">
        <ele>484.39999389648</ele>
        <time>2013-05-04T09:38:19.000Z</time>
      </trkpt>
      <trkpt lat="43.64284" lon="5.7245">
        <ele>486.20001220703</ele>
        <time>2013-05-04T09:38:27.000Z</time>
      </trkpt>
      <trkpt lat="43.6429" lon="5.72422">
        <ele>488</ele>
        <time>2013-05-04T09:38:35.000Z</time>
      </trkpt>
      <trkpt lat="43.64289" lon="5.72415">
        <ele>488.39999389648</ele>
        <time>2013-05-04T09:38:37.000Z</time>
      </trkpt>
      <trkpt lat="43.64287" lon="5.72409">
        <ele>488.79998779297</ele>
        <time>2013-05-04T09:38:39.000Z</time>
      </trkpt>
      <trkpt lat="43.64288" lon="5.72406">
        <ele>488.79998779297</ele>
        <time>2013-05-04T09:38:40.000Z</time>
      </trkpt>
      <trkpt lat="43.64293" lon="5.72374">
        <ele>490.39999389648</ele>
        <time>2013-05-04T09:38:49.000Z</time>
      </trkpt>
      <trkpt lat="43.64301" lon="5.72341">
        <ele>492.20001220703</ele>
        <time>2013-05-04T09:38:58.000Z</time>
      </trkpt>
      <trkpt lat="43.64309" lon="5.72303">
        <ele>494</ele>
        <time>2013-05-04T09:39:07.000Z</time>
      </trkpt>
      <trkpt lat="43.6431" lon="5.72268">
        <ele>495.60000610352</ele>
        <time>2013-05-04T09:39:15.000Z</time>
      </trkpt>
      <trkpt lat="43.64311" lon="5.72237">
        <ele>497.39999389648</ele>
        <time>2013-05-04T09:39:23.000Z</time>
      </trkpt>
      <trkpt lat="43.64309" lon="5.72225">
        <ele>498.20001220703</ele>
        <time>2013-05-04T09:39:27.000Z</time>
      </trkpt>
      <trkpt lat="43.64309" lon="5.72222">
        <ele>498.39999389648</ele>
        <time>2013-05-04T09:39:28.000Z</time>
      </trkpt>
      <trkpt lat="43.64309" lon="5.7222">
        <ele>498.60000610352</ele>
        <time>2013-05-04T09:39:29.000Z</time>
      </trkpt>
      <trkpt lat="43.64308" lon="5.72218">
        <ele>498.60000610352</ele>
        <time>2013-05-04T09:39:30.000Z</time>
      </trkpt>
      <trkpt lat="43.64307" lon="5.72215">
        <ele>498.79998779297</ele>
        <time>2013-05-04T09:39:31.000Z</time>
      </trkpt>
      <trkpt lat="43.64299" lon="5.72204">
        <ele>499.39999389648</ele>
        <time>2013-05-04T09:39:36.000Z</time>
      </trkpt>
      <trkpt lat="43.64298" lon="5.722">
        <ele>499.39999389648</ele>
        <time>2013-05-04T09:39:37.000Z</time>
      </trkpt>
      <trkpt lat="43.64292" lon="5.72186">
        <ele>500</ele>
        <time>2013-05-04T09:39:42.000Z</time>
      </trkpt>
      <trkpt lat="43.64292" lon="5.72183">
        <ele>500.20001220703</ele>
        <time>2013-05-04T09:39:43.000Z</time>
      </trkpt>
      <trkpt lat="43.64291" lon="5.72181">
        <ele>500.20001220703</ele>
        <time>2013-05-04T09:39:44.000Z</time>
      </trkpt>
      <trkpt lat="43.6429" lon="5.72179">
        <ele>500.20001220703</ele>
        <time>2013-05-04T09:39:45.000Z</time>
      </trkpt>
      <trkpt lat="43.64289" lon="5.72177">
        <ele>500.20001220703</ele>
        <time>2013-05-04T09:39:46.000Z</time>
      </trkpt>
      <trkpt lat="43.64275" lon="5.72148">
        <ele>501.60000610352</ele>
        <time>2013-05-04T09:39:57.000Z</time>
      </trkpt>
      <trkpt lat="43.64272" lon="5.72133">
        <ele>502.79998779297</ele>
        <time>2013-05-04T09:40:02.000Z</time>
      </trkpt>
      <trkpt lat="43.64271" lon="5.72131">
        <ele>502.79998779297</ele>
        <time>2013-05-04T09:40:03.000Z</time>
      </trkpt>
      <trkpt lat="43.64269" lon="5.72129">
        <ele>502.79998779297</ele>
        <time>2013-05-04T09:40:04.000Z</time>
      </trkpt>
      <trkpt lat="43.64268" lon="5.72127">
        <ele>502.79998779297</ele>
        <time>2013-05-04T09:40:05.000Z</time>
      </trkpt>
      <trkpt lat="43.64267" lon="5.72124">
        <ele>502.79998779297</ele>
        <time>2013-05-04T09:40:06.000Z</time>
      </trkpt>
      <trkpt lat="43.64267" lon="5.72121">
        <ele>503.20001220703</ele>
        <time>2013-05-04T09:40:07.000Z</time>
      </trkpt>
      <trkpt lat="43.64267" lon="5.72118">
        <ele>503.39999389648</ele>
        <time>2013-05-04T09:40:08.000Z</time>
      </trkpt>
      <trkpt lat="43.64267" lon="5.72115">
        <ele>503.60000610352</ele>
        <time>2013-05-04T09:40:09.000Z</time>
      </trkpt>
      <trkpt lat="43.64267" lon="5.72112">
        <ele>503.79998779297</ele>
        <time>2013-05-04T09:40:10.000Z</time>
      </trkpt>
      <trkpt lat="43.64267" lon="5.72109">
        <ele>504.20001220703</ele>
        <time>2013-05-04T09:40:11.000Z</time>
      </trkpt>
      <trkpt lat="43.64267" lon="5.72106">
        <ele>504.39999389648</ele>
        <time>2013-05-04T09:40:12.000Z</time>
      </trkpt>
      <trkpt lat="43.64267" lon="5.72103">
        <ele>504.60000610352</ele>
        <time>2013-05-04T09:40:13.000Z</time>
      </trkpt>
      <trkpt lat="43.64266" lon="5.72098">
        <ele>505</ele>
        <time>2013-05-04T09:40:15.000Z</time>
      </trkpt>
      <trkpt lat="43.64265" lon="5.72095">
        <ele>505</ele>
        <time>2013-05-04T09:40:16.000Z</time>
      </trkpt>
      <trkpt lat="43.64264" lon="5.72093">
        <ele>505</ele>
        <time>2013-05-04T09:40:17.000Z</time>
      </trkpt>
      <trkpt lat="43.64263" lon="5.7209">
        <ele>505</ele>
        <time>2013-05-04T09:40:18.000Z</time>
      </trkpt>
      <trkpt lat="43.64262" lon="5.72088">
        <ele>505</ele>
        <time>2013-05-04T09:40:19.000Z</time>
      </trkpt>
      <trkpt lat="43.64262" lon="5.72086">
        <ele>505.20001220703</ele>
        <time>2013-05-04T09:40:20.000Z</time>
      </trkpt>
      <trkpt lat="43.64262" lon="5.72083">
        <ele>505.20001220703</ele>
        <time>2013-05-04T09:40:21.000Z</time>
      </trkpt>
      <trkpt lat="43.64262" lon="5.72081">
        <ele>505.60000610352</ele>
        <time>2013-05-04T09:40:22.000Z</time>
      </trkpt>
      <trkpt lat="43.64264" lon="5.7208">
        <ele>506</ele>
        <time>2013-05-04T09:40:23.000Z</time>
      </trkpt>
      <trkpt lat="43.64265" lon="5.72078">
        <ele>506.39999389648</ele>
        <time>2013-05-04T09:40:24.000Z</time>
      </trkpt>
      <trkpt lat="43.64267" lon="5.72077">
        <ele>507</ele>
        <time>2013-05-04T09:40:25.000Z</time>
      </trkpt>
      <trkpt lat="43.64269" lon="5.72075">
        <ele>507.39999389648</ele>
        <time>2013-05-04T09:40:26.000Z</time>
      </trkpt>
      <trkpt lat="43.64269" lon="5.72072">
        <ele>507.79998779297</ele>
        <time>2013-05-04T09:40:27.000Z</time>
      </trkpt>
      <trkpt lat="43.64269" lon="5.72069">
        <ele>508</ele>
        <time>2013-05-04T09:40:28.000Z</time>
      </trkpt>
      <trkpt lat="43.64269" lon="5.72066">
        <ele>508.20001220703</ele>
        <time>2013-05-04T09:40:29.000Z</time>
      </trkpt>
      <trkpt lat="43.64264" lon="5.72041">
        <ele>509.20001220703</ele>
        <time>2013-05-04T09:40:38.000Z</time>
      </trkpt>
      <trkpt lat="43.6426" lon="5.72028">
        <ele>509.20001220703</ele>
        <time>2013-05-04T09:40:43.000Z</time>
      </trkpt>
      <trkpt lat="43.64258" lon="5.72026">
        <ele>509</ele>
        <time>2013-05-04T09:40:44.000Z</time>
      </trkpt>
      <trkpt lat="43.64256" lon="5.72024">
        <ele>508.60000610352</ele>
        <time>2013-05-04T09:40:45.000Z</time>
      </trkpt>
      <trkpt lat="43.64242" lon="5.72003">
        <ele>509.79998779297</ele>
        <time>2013-05-04T09:40:54.000Z</time>
      </trkpt>
      <trkpt lat="43.64242" lon="5.72">
        <ele>510</ele>
        <time>2013-05-04T09:40:55.000Z</time>
      </trkpt>
      <trkpt lat="43.64242" lon="5.71997">
        <ele>510.39999389648</ele>
        <time>2013-05-04T09:40:56.000Z</time>
      </trkpt>
      <trkpt lat="43.64242" lon="5.71994">
        <ele>510.79998779297</ele>
        <time>2013-05-04T09:40:57.000Z</time>
      </trkpt>
      <trkpt lat="43.64241" lon="5.71991">
        <ele>511.20001220703</ele>
        <time>2013-05-04T09:40:58.000Z</time>
      </trkpt>
      <trkpt lat="43.64239" lon="5.71989">
        <ele>511.79998779297</ele>
        <time>2013-05-04T09:40:59.000Z</time>
      </trkpt>
      <trkpt lat="43.64227" lon="5.71965">
        <ele>515.59997558594</ele>
        <time>2013-05-04T09:41:09.000Z</time>
      </trkpt>
      <trkpt lat="43.64218" lon="5.71948">
        <ele>517.79998779297</ele>
        <time>2013-05-04T09:41:18.000Z</time>
      </trkpt>
      <trkpt lat="43.64218" lon="5.71945">
        <ele>518</ele>
        <time>2013-05-04T09:41:19.000Z</time>
      </trkpt>
      <trkpt lat="43.64213" lon="5.71931">
        <ele>519.40002441406</ele>
        <time>2013-05-04T09:41:25.000Z</time>
      </trkpt>
      <trkpt lat="43.64212" lon="5.71928">
        <ele>519.59997558594</ele>
        <time>2013-05-04T09:41:26.000Z</time>
      </trkpt>
      <trkpt lat="43.64211" lon="5.71926">
        <ele>519.79998779297</ele>
        <time>2013-05-04T09:41:27.000Z</time>
      </trkpt>
      <trkpt lat="43.64204" lon="5.71916">
        <ele>520.40002441406</ele>
        <time>2013-05-04T09:41:33.000Z</time>
      </trkpt>
      <trkpt lat="43.64205" lon="5.71914">
        <ele>520.79998779297</ele>
        <time>2013-05-04T09:41:34.000Z</time>
      </trkpt>
      <trkpt lat="43.64205" lon="5.71911">
        <ele>521</ele>
        <time>2013-05-04T09:41:35.000Z</time>
      </trkpt>
      <trkpt lat="43.64206" lon="5.71908">
        <ele>521.59997558594</ele>
        <time>2013-05-04T09:41:36.000Z</time>
      </trkpt>
      <trkpt lat="43.64206" lon="5.71904">
        <ele>522</ele>
        <time>2013-05-04T09:41:37.000Z</time>
      </trkpt>
      <trkpt lat="43.64204" lon="5.71902">
        <ele>522.40002441406</ele>
        <time>2013-05-04T09:41:38.000Z</time>
      </trkpt>
      <trkpt lat="43.64203" lon="5.71899">
        <ele>522.59997558594</ele>
        <time>2013-05-04T09:41:39.000Z</time>
      </trkpt>
      <trkpt lat="43.64201" lon="5.71898">
        <ele>522.59997558594</ele>
        <time>2013-05-04T09:41:40.000Z</time>
      </trkpt>
      <trkpt lat="43.642" lon="5.71896">
        <ele>522.79998779297</ele>
        <time>2013-05-04T09:41:41.000Z</time>
      </trkpt>
      <trkpt lat="43.64198" lon="5.71895">
        <ele>522.79998779297</ele>
        <time>2013-05-04T09:41:42.000Z</time>
      </trkpt>
      <trkpt lat="43.64183" lon="5.7187">
        <ele>524</ele>
        <time>2013-05-04T09:41:53.000Z</time>
      </trkpt>
      <trkpt lat="43.6418" lon="5.71857">
        <ele>524.59997558594</ele>
        <time>2013-05-04T09:42:01.000Z</time>
      </trkpt>
      <trkpt lat="43.64178" lon="5.71855">
        <ele>524.40002441406</ele>
        <time>2013-05-04T09:42:02.000Z</time>
      </trkpt>
      <trkpt lat="43.64176" lon="5.71854">
        <ele>524.40002441406</ele>
        <time>2013-05-04T09:42:03.000Z</time>
      </trkpt>
      <trkpt lat="43.64172" lon="5.71848">
        <ele>524.20001220703</ele>
        <time>2013-05-04T09:42:09.000Z</time>
      </trkpt>
      <trkpt lat="43.64173" lon="5.71839">
        <ele>524.79998779297</ele>
        <time>2013-05-04T09:42:16.000Z</time>
      </trkpt>
      <trkpt lat="43.6417" lon="5.71828">
        <ele>525.20001220703</ele>
        <time>2013-05-04T09:42:21.000Z</time>
      </trkpt>
      <trkpt lat="43.64153" lon="5.71808">
        <ele>527.20001220703</ele>
        <time>2013-05-04T09:42:32.000Z</time>
      </trkpt>
      <trkpt lat="43.64149" lon="5.71799">
        <ele>528.40002441406</ele>
        <time>2013-05-04T09:42:37.000Z</time>
      </trkpt>
      <trkpt lat="43.64149" lon="5.71797">
        <ele>528.59997558594</ele>
        <time>2013-05-04T09:42:38.000Z</time>
      </trkpt>
      <trkpt lat="43.64148" lon="5.71795">
        <ele>528.79998779297</ele>
        <time>2013-05-04T09:42:39.000Z</time>
      </trkpt>
      <trkpt lat="43.64148" lon="5.71793">
        <ele>529</ele>
        <time>2013-05-04T09:42:40.000Z</time>
      </trkpt>
      <trkpt lat="43.64147" lon="5.71791">
        <ele>529.40002441406</ele>
        <time>2013-05-04T09:42:41.000Z</time>
      </trkpt>
      <trkpt lat="43.64147" lon="5.71789">
        <ele>529.59997558594</ele>
        <time>2013-05-04T09:42:42.000Z</time>
      </trkpt>
      <trkpt lat="43.64146" lon="5.71787">
        <ele>530</ele>
        <time>2013-05-04T09:42:43.000Z</time>
      </trkpt>
      <trkpt lat="43.64142" lon="5.7178">
        <ele>531</ele>
        <time>2013-05-04T09:42:47.000Z</time>
      </trkpt>
      <trkpt lat="43.6414" lon="5.71779">
        <ele>531.20001220703</ele>
        <time>2013-05-04T09:42:48.000Z</time>
      </trkpt>
      <trkpt lat="43.64139" lon="5.71778">
        <ele>531.40002441406</ele>
        <time>2013-05-04T09:42:49.000Z</time>
      </trkpt>
      <trkpt lat="43.64137" lon="5.71777">
        <ele>531.79998779297</ele>
        <time>2013-05-04T09:42:50.000Z</time>
      </trkpt>
      <trkpt lat="43.64135" lon="5.71775">
        <ele>532</ele>
        <time>2013-05-04T09:42:51.000Z</time>
      </trkpt>
      <trkpt lat="43.64134" lon="5.71774">
        <ele>532.40002441406</ele>
        <time>2013-05-04T09:42:52.000Z</time>
      </trkpt>
      <trkpt lat="43.6413" lon="5.71765">
        <ele>533.79998779297</ele>
        <time>2013-05-04T09:43:01.000Z</time>
      </trkpt>
      <trkpt lat="43.64128" lon="5.71769">
        <ele>533.40002441406</ele>
        <time>2013-05-04T09:43:15.000Z</time>
      </trkpt>
      <trkpt lat="43.64123" lon="5.71772">
        <ele>533.40002441406</ele>
        <time>2013-05-04T09:43:38.000Z</time>
      </trkpt>
      <trkpt lat="43.6412" lon="5.71775">
        <ele>533.20001220703</ele>
        <time>2013-05-04T09:44:01.000Z</time>
      </trkpt>
      <trkpt lat="43.64126" lon="5.7177">
        <ele>533.40002441406</ele>
        <time>2013-05-04T09:44:17.000Z</time>
      </trkpt>
      <trkpt lat="43.64128" lon="5.71768">
        <ele>533.40002441406</ele>
        <time>2013-05-04T09:44:42.000Z</time>
      </trkpt>
      <trkpt lat="43.64129" lon="5.71766">
        <ele>533.59997558594</ele>
        <time>2013-05-04T09:45:07.000Z</time>
      </trkpt>
      <trkpt lat="43.64128" lon="5.71767">
        <ele>533.59997558594</ele>
        <time>2013-05-04T09:45:33.000Z</time>
      </trkpt>
      <trkpt lat="43.64131" lon="5.71766">
        <ele>533.40002441406</ele>
        <time>2013-05-04T09:45:59.000Z</time>
      </trkpt>
      <trkpt lat="43.64129" lon="5.71765">
        <ele>533.79998779297</ele>
        <time>2013-05-04T09:46:21.000Z</time>
      </trkpt>
      <trkpt lat="43.64128" lon="5.71767">
        <ele>533.59997558594</ele>
        <time>2013-05-04T09:46:33.000Z</time>
      </trkpt>
      <trkpt lat="43.64126" lon="5.71767">
        <ele>533.79998779297</ele>
        <time>2013-05-04T09:46:49.000Z</time>
      </trkpt>
      <trkpt lat="43.64126" lon="5.71768">
        <ele>533.59997558594</ele>
        <time>2013-05-04T09:47:13.000Z</time>
      </trkpt>
      <trkpt lat="43.64127" lon="5.71771">
        <ele>533.20001220703</ele>
        <time>2013-05-04T09:47:24.000Z</time>
      </trkpt>
      <trkpt lat="43.64125" lon="5.71773">
        <ele>533</ele>
        <time>2013-05-04T09:47:36.000Z</time>
      </trkpt>
      <trkpt lat="43.64127" lon="5.7177">
        <ele>533.40002441406</ele>
        <time>2013-05-04T09:47:50.000Z</time>
      </trkpt>
      <trkpt lat="43.64124" lon="5.71779">
        <ele>532.59997558594</ele>
        <time>2013-05-04T09:48:01.000Z</time>
      </trkpt>
      <trkpt lat="43.64119" lon="5.7178">
        <ele>532.79998779297</ele>
        <time>2013-05-04T09:48:12.000Z</time>
      </trkpt>
      <trkpt lat="43.64113" lon="5.71781">
        <ele>533.20001220703</ele>
        <time>2013-05-04T09:48:23.000Z</time>
      </trkpt>
      <trkpt lat="43.64108" lon="5.71783">
        <ele>533.20001220703</ele>
        <time>2013-05-04T09:48:34.000Z</time>
      </trkpt>
      <trkpt lat="43.64105" lon="5.71787">
        <ele>533</ele>
        <time>2013-05-04T09:48:44.000Z</time>
      </trkpt>
      <trkpt lat="43.64102" lon="5.71791">
        <ele>532.59997558594</ele>
        <time>2013-05-04T09:48:55.000Z</time>
      </trkpt>
      <trkpt lat="43.64099" lon="5.7179">
        <ele>533</ele>
        <time>2013-05-04T09:49:05.000Z</time>
      </trkpt>
      <trkpt lat="43.64093" lon="5.7179">
        <ele>533.40002441406</ele>
        <time>2013-05-04T09:49:17.000Z</time>
      </trkpt>
      <trkpt lat="43.64088" lon="5.71794">
        <ele>533.20001220703</ele>
        <time>2013-05-04T09:49:26.000Z</time>
      </trkpt>
      <trkpt lat="43.64085" lon="5.71799">
        <ele>532.79998779297</ele>
        <time>2013-05-04T09:49:33.000Z</time>
      </trkpt>
      <trkpt lat="43.64084" lon="5.718">
        <ele>532.59997558594</ele>
        <time>2013-05-04T09:49:34.000Z</time>
      </trkpt>
      <trkpt lat="43.64077" lon="5.71804">
        <ele>530.59997558594</ele>
        <time>2013-05-04T09:49:45.000Z</time>
      </trkpt>
      <trkpt lat="43.64075" lon="5.71809">
        <ele>529.20001220703</ele>
        <time>2013-05-04T09:49:55.000Z</time>
      </trkpt>
      <trkpt lat="43.64074" lon="5.71813">
        <ele>528.40002441406</ele>
        <time>2013-05-04T09:50:09.000Z</time>
      </trkpt>
      <trkpt lat="43.6407" lon="5.71817">
        <ele>526.79998779297</ele>
        <time>2013-05-04T09:50:18.000Z</time>
      </trkpt>
      <trkpt lat="43.64067" lon="5.71824">
        <ele>524.79998779297</ele>
        <time>2013-05-04T09:50:30.000Z</time>
      </trkpt>
      <trkpt lat="43.64064" lon="5.71825">
        <ele>524</ele>
        <time>2013-05-04T09:50:33.000Z</time>
      </trkpt>
      <trkpt lat="43.64063" lon="5.71822">
        <ele>524.20001220703</ele>
        <time>2013-05-04T09:50:40.000Z</time>
      </trkpt>
      <trkpt lat="43.64062" lon="5.7182">
        <ele>524.20001220703</ele>
        <time>2013-05-04T09:50:41.000Z</time>
      </trkpt>
      <trkpt lat="43.64061" lon="5.71819">
        <ele>524.20001220703</ele>
        <time>2013-05-04T09:50:42.000Z</time>
      </trkpt>
      <trkpt lat="43.64058" lon="5.71814">
        <ele>524.20001220703</ele>
        <time>2013-05-04T09:50:49.000Z</time>
      </trkpt>
      <trkpt lat="43.64044" lon="5.71805">
        <ele>522</ele>
        <time>2013-05-04T09:50:56.000Z</time>
      </trkpt>
      <trkpt lat="43.64031" lon="5.71797">
        <ele>520</ele>
        <time>2013-05-04T09:51:03.000Z</time>
      </trkpt>
      <trkpt lat="43.64019" lon="5.7179">
        <ele>518.40002441406</ele>
        <time>2013-05-04T09:51:08.000Z</time>
      </trkpt>
      <trkpt lat="43.64018" lon="5.71789">
        <ele>518.40002441406</ele>
        <time>2013-05-04T09:51:09.000Z</time>
      </trkpt>
      <trkpt lat="43.64015" lon="5.71784">
        <ele>518.40002441406</ele>
        <time>2013-05-04T09:51:18.000Z</time>
      </trkpt>
      <trkpt lat="43.6401" lon="5.71784">
        <ele>517.40002441406</ele>
        <time>2013-05-04T09:51:24.000Z</time>
      </trkpt>
      <trkpt lat="43.64007" lon="5.71785">
        <ele>516.40002441406</ele>
        <time>2013-05-04T09:51:27.000Z</time>
      </trkpt>
      <trkpt lat="43.64007" lon="5.71783">
        <ele>516.79998779297</ele>
        <time>2013-05-04T09:51:36.000Z</time>
      </trkpt>
      <trkpt lat="43.64004" lon="5.71781">
        <ele>516.59997558594</ele>
        <time>2013-05-04T09:51:40.000Z</time>
      </trkpt>
      <trkpt lat="43.64003" lon="5.71779">
        <ele>516.59997558594</ele>
        <time>2013-05-04T09:51:41.000Z</time>
      </trkpt>
      <trkpt lat="43.64001" lon="5.71777">
        <ele>516.40002441406</ele>
        <time>2013-05-04T09:51:42.000Z</time>
      </trkpt>
      <trkpt lat="43.63998" lon="5.71776">
        <ele>516</ele>
        <time>2013-05-04T09:51:43.000Z</time>
      </trkpt>
      <trkpt lat="43.63996" lon="5.71775">
        <ele>515.59997558594</ele>
        <time>2013-05-04T09:51:44.000Z</time>
      </trkpt>
      <trkpt lat="43.63993" lon="5.71773">
        <ele>515.40002441406</ele>
        <time>2013-05-04T09:51:45.000Z</time>
      </trkpt>
      <trkpt lat="43.63991" lon="5.71771">
        <ele>515.40002441406</ele>
        <time>2013-05-04T09:51:46.000Z</time>
      </trkpt>
      <trkpt lat="43.63982" lon="5.71758">
        <ele>515.79998779297</ele>
        <time>2013-05-04T09:51:50.000Z</time>
      </trkpt>
      <trkpt lat="43.63971" lon="5.71746">
        <ele>516</ele>
        <time>2013-05-04T09:51:53.000Z</time>
      </trkpt>
      <trkpt lat="43.63964" lon="5.71741">
        <ele>515.20001220703</ele>
        <time>2013-05-04T09:51:55.000Z</time>
      </trkpt>
      <trkpt lat="43.63959" lon="5.7174">
        <ele>514.40002441406</ele>
        <time>2013-05-04T09:51:56.000Z</time>
      </trkpt>
      <trkpt lat="43.63955" lon="5.71739">
        <ele>513.79998779297</ele>
        <time>2013-05-04T09:51:57.000Z</time>
      </trkpt>
      <trkpt lat="43.63951" lon="5.71737">
        <ele>513.20001220703</ele>
        <time>2013-05-04T09:51:58.000Z</time>
      </trkpt>
      <trkpt lat="43.63947" lon="5.71734">
        <ele>513</ele>
        <time>2013-05-04T09:51:59.000Z</time>
      </trkpt>
      <trkpt lat="43.63945" lon="5.71732">
        <ele>513</ele>
        <time>2013-05-04T09:52:00.000Z</time>
      </trkpt>
      <trkpt lat="43.63943" lon="5.71731">
        <ele>512.79998779297</ele>
        <time>2013-05-04T09:52:01.000Z</time>
      </trkpt>
      <trkpt lat="43.63942" lon="5.71731">
        <ele>512.59997558594</ele>
        <time>2013-05-04T09:52:02.000Z</time>
      </trkpt>
      <trkpt lat="43.63939" lon="5.71729">
        <ele>512.40002441406</ele>
        <time>2013-05-04T09:52:12.000Z</time>
      </trkpt>
      <trkpt lat="43.63925" lon="5.71736">
        <ele>507.39999389648</ele>
        <time>2013-05-04T09:52:16.000Z</time>
      </trkpt>
      <trkpt lat="43.63921" lon="5.71737">
        <ele>506.20001220703</ele>
        <time>2013-05-04T09:52:17.000Z</time>
      </trkpt>
      <trkpt lat="43.63911" lon="5.71744">
        <ele>503.79998779297</ele>
        <time>2013-05-04T09:52:20.000Z</time>
      </trkpt>
      <trkpt lat="43.63908" lon="5.71748">
        <ele>502.60000610352</ele>
        <time>2013-05-04T09:52:21.000Z</time>
      </trkpt>
      <trkpt lat="43.63906" lon="5.71753">
        <ele>501.60000610352</ele>
        <time>2013-05-04T09:52:22.000Z</time>
      </trkpt>
      <trkpt lat="43.63899" lon="5.71767">
        <ele>498.79998779297</ele>
        <time>2013-05-04T09:52:25.000Z</time>
      </trkpt>
      <trkpt lat="43.63891" lon="5.71773">
        <ele>497.60000610352</ele>
        <time>2013-05-04T09:52:27.000Z</time>
      </trkpt>
      <trkpt lat="43.63887" lon="5.71776">
        <ele>497</ele>
        <time>2013-05-04T09:52:28.000Z</time>
      </trkpt>
      <trkpt lat="43.63883" lon="5.7178">
        <ele>496</ele>
        <time>2013-05-04T09:52:29.000Z</time>
      </trkpt>
      <trkpt lat="43.63873" lon="5.71792">
        <ele>493.20001220703</ele>
        <time>2013-05-04T09:52:32.000Z</time>
      </trkpt>
      <trkpt lat="43.63865" lon="5.71799">
        <ele>491.60000610352</ele>
        <time>2013-05-04T09:52:34.000Z</time>
      </trkpt>
      <trkpt lat="43.63861" lon="5.71801">
        <ele>491</ele>
        <time>2013-05-04T09:52:35.000Z</time>
      </trkpt>
      <trkpt lat="43.63844" lon="5.71802">
        <ele>490.79998779297</ele>
        <time>2013-05-04T09:52:41.000Z</time>
      </trkpt>
      <trkpt lat="43.63829" lon="5.71801">
        <ele>491</ele>
        <time>2013-05-04T09:52:46.000Z</time>
      </trkpt>
      <trkpt lat="43.63796" lon="5.71807">
        <ele>489.79998779297</ele>
        <time>2013-05-04T09:52:55.000Z</time>
      </trkpt>
      <trkpt lat="43.63769" lon="5.71815">
        <ele>488</ele>
        <time>2013-05-04T09:53:01.000Z</time>
      </trkpt>
      <trkpt lat="43.63748" lon="5.71826">
        <ele>485.20001220703</ele>
        <time>2013-05-04T09:53:05.000Z</time>
      </trkpt>
      <trkpt lat="43.63742" lon="5.71828">
        <ele>484.39999389648</ele>
        <time>2013-05-04T09:53:06.000Z</time>
      </trkpt>
      <trkpt lat="43.63735" lon="5.71829">
        <ele>484</ele>
        <time>2013-05-04T09:53:07.000Z</time>
      </trkpt>
      <trkpt lat="43.63728" lon="5.71829">
        <ele>484</ele>
        <time>2013-05-04T09:53:08.000Z</time>
      </trkpt>
      <trkpt lat="43.63721" lon="5.71828">
        <ele>484</ele>
        <time>2013-05-04T09:53:09.000Z</time>
      </trkpt>
      <trkpt lat="43.63687" lon="5.71823">
        <ele>484.60000610352</ele>
        <time>2013-05-04T09:53:15.000Z</time>
      </trkpt>
      <trkpt lat="43.63683" lon="5.71822">
        <ele>484.79998779297</ele>
        <time>2013-05-04T09:53:16.000Z</time>
      </trkpt>
      <trkpt lat="43.63678" lon="5.71822">
        <ele>484.79998779297</ele>
        <time>2013-05-04T09:53:17.000Z</time>
      </trkpt>
      <trkpt lat="43.63673" lon="5.71822">
        <ele>484.39999389648</ele>
        <time>2013-05-04T09:53:18.000Z</time>
      </trkpt>
      <trkpt lat="43.63668" lon="5.71824">
        <ele>483.79998779297</ele>
        <time>2013-05-04T09:53:19.000Z</time>
      </trkpt>
      <trkpt lat="43.63663" lon="5.71827">
        <ele>482.79998779297</ele>
        <time>2013-05-04T09:53:20.000Z</time>
      </trkpt>
      <trkpt lat="43.63659" lon="5.71832">
        <ele>481.39999389648</ele>
        <time>2013-05-04T09:53:21.000Z</time>
      </trkpt>
      <trkpt lat="43.63654" lon="5.71836">
        <ele>480.20001220703</ele>
        <time>2013-05-04T09:53:22.000Z</time>
      </trkpt>
      <trkpt lat="43.63649" lon="5.7184">
        <ele>479.20001220703</ele>
        <time>2013-05-04T09:53:23.000Z</time>
      </trkpt>
      <trkpt lat="43.63643" lon="5.71844">
        <ele>478.20001220703</ele>
        <time>2013-05-04T09:53:24.000Z</time>
      </trkpt>
      <trkpt lat="43.63637" lon="5.71847">
        <ele>477.20001220703</ele>
        <time>2013-05-04T09:53:25.000Z</time>
      </trkpt>
      <trkpt lat="43.63633" lon="5.71851">
        <ele>476.20001220703</ele>
        <time>2013-05-04T09:53:26.000Z</time>
      </trkpt>
      <trkpt lat="43.63629" lon="5.71856">
        <ele>475.20001220703</ele>
        <time>2013-05-04T09:53:27.000Z</time>
      </trkpt>
      <trkpt lat="43.63625" lon="5.71861">
        <ele>474.20001220703</ele>
        <time>2013-05-04T09:53:28.000Z</time>
      </trkpt>
      <trkpt lat="43.63621" lon="5.71867">
        <ele>473</ele>
        <time>2013-05-04T09:53:29.000Z</time>
      </trkpt>
      <trkpt lat="43.63619" lon="5.71873">
        <ele>472.20001220703</ele>
        <time>2013-05-04T09:53:30.000Z</time>
      </trkpt>
      <trkpt lat="43.63614" lon="5.71878">
        <ele>471</ele>
        <time>2013-05-04T09:53:32.000Z</time>
      </trkpt>
      <trkpt lat="43.6361" lon="5.71879">
        <ele>470.79998779297</ele>
        <time>2013-05-04T09:53:33.000Z</time>
      </trkpt>
      <trkpt lat="43.63607" lon="5.71877">
        <ele>470.60000610352</ele>
        <time>2013-05-04T09:53:34.000Z</time>
      </trkpt>
      <trkpt lat="43.63603" lon="5.71875">
        <ele>470.60000610352</ele>
        <time>2013-05-04T09:53:35.000Z</time>
      </trkpt>
      <trkpt lat="43.63599" lon="5.71872">
        <ele>470.60000610352</ele>
        <time>2013-05-04T09:53:36.000Z</time>
      </trkpt>
      <trkpt lat="43.63595" lon="5.71872">
        <ele>470.20001220703</ele>
        <time>2013-05-04T09:53:37.000Z</time>
      </trkpt>
      <trkpt lat="43.6359" lon="5.71874">
        <ele>469.60000610352</ele>
        <time>2013-05-04T09:53:38.000Z</time>
      </trkpt>
      <trkpt lat="43.63585" lon="5.71879">
        <ele>468.60000610352</ele>
        <time>2013-05-04T09:53:39.000Z</time>
      </trkpt>
      <trkpt lat="43.63581" lon="5.71885">
        <ele>467.39999389648</ele>
        <time>2013-05-04T09:53:40.000Z</time>
      </trkpt>
      <trkpt lat="43.63577" lon="5.71891">
        <ele>466.39999389648</ele>
        <time>2013-05-04T09:53:41.000Z</time>
      </trkpt>
      <trkpt lat="43.63573" lon="5.71893">
        <ele>465.79998779297</ele>
        <time>2013-05-04T09:53:42.000Z</time>
      </trkpt>
      <trkpt lat="43.6357" lon="5.71893">
        <ele>465.39999389648</ele>
        <time>2013-05-04T09:53:43.000Z</time>
      </trkpt>
      <trkpt lat="43.63566" lon="5.71891">
        <ele>465.39999389648</ele>
        <time>2013-05-04T09:53:44.000Z</time>
      </trkpt>
      <trkpt lat="43.63563" lon="5.71888">
        <ele>465.39999389648</ele>
        <time>2013-05-04T09:53:45.000Z</time>
      </trkpt>
      <trkpt lat="43.63561" lon="5.71883">
        <ele>465.60000610352</ele>
        <time>2013-05-04T09:53:46.000Z</time>
      </trkpt>
      <trkpt lat="43.6356" lon="5.71878">
        <ele>466</ele>
        <time>2013-05-04T09:53:47.000Z</time>
      </trkpt>
      <trkpt lat="43.63559" lon="5.71873">
        <ele>466.39999389648</ele>
        <time>2013-05-04T09:53:48.000Z</time>
      </trkpt>
      <trkpt lat="43.63564" lon="5.71846">
        <ele>469.79998779297</ele>
        <time>2013-05-04T09:53:55.000Z</time>
      </trkpt>
      <trkpt lat="43.63565" lon="5.7184">
        <ele>470.60000610352</ele>
        <time>2013-05-04T09:53:56.000Z</time>
      </trkpt>
      <trkpt lat="43.63565" lon="5.71835">
        <ele>471</ele>
        <time>2013-05-04T09:53:57.000Z</time>
      </trkpt>
      <trkpt lat="43.63563" lon="5.71829">
        <ele>471.79998779297</ele>
        <time>2013-05-04T09:53:58.000Z</time>
      </trkpt>
      <trkpt lat="43.63547" lon="5.71804">
        <ele>473.79998779297</ele>
        <time>2013-05-04T09:54:05.000Z</time>
      </trkpt>
      <trkpt lat="43.63527" lon="5.71787">
        <ele>474</ele>
        <time>2013-05-04T09:54:14.000Z</time>
      </trkpt>
      <trkpt lat="43.63512" lon="5.71774">
        <ele>473.79998779297</ele>
        <time>2013-05-04T09:54:21.000Z</time>
      </trkpt>
      <trkpt lat="43.63499" lon="5.71752">
        <ele>475.39999389648</ele>
        <time>2013-05-04T09:54:27.000Z</time>
      </trkpt>
      <trkpt lat="43.63496" lon="5.71748">
        <ele>476.20001220703</ele>
        <time>2013-05-04T09:54:28.000Z</time>
      </trkpt>
      <trkpt lat="43.63466" lon="5.71717">
        <ele>481</ele>
        <time>2013-05-04T09:54:38.000Z</time>
      </trkpt>
      <trkpt lat="43.63453" lon="5.71697">
        <ele>484.79998779297</ele>
        <time>2013-05-04T09:54:46.000Z</time>
      </trkpt>
      <trkpt lat="43.63451" lon="5.71694">
        <ele>485.20001220703</ele>
        <time>2013-05-04T09:54:47.000Z</time>
      </trkpt>
      <trkpt lat="43.63449" lon="5.71693">
        <ele>485.39999389648</ele>
        <time>2013-05-04T09:54:48.000Z</time>
      </trkpt>
      <trkpt lat="43.63447" lon="5.71693">
        <ele>485.60000610352</ele>
        <time>2013-05-04T09:54:49.000Z</time>
      </trkpt>
      <trkpt lat="43.63445" lon="5.71693">
        <ele>485.60000610352</ele>
        <time>2013-05-04T09:54:50.000Z</time>
      </trkpt>
      <trkpt lat="43.63444" lon="5.71693">
        <ele>485.60000610352</ele>
        <time>2013-05-04T09:54:51.000Z</time>
      </trkpt>
      <trkpt lat="43.63443" lon="5.71692">
        <ele>485.60000610352</ele>
        <time>2013-05-04T09:54:52.000Z</time>
      </trkpt>
      <trkpt lat="43.63442" lon="5.71692">
        <ele>485.79998779297</ele>
        <time>2013-05-04T09:54:53.000Z</time>
      </trkpt>
      <trkpt lat="43.63442" lon="5.71691">
        <ele>486</ele>
        <time>2013-05-04T09:54:54.000Z</time>
      </trkpt>
      <trkpt lat="43.63441" lon="5.71689">
        <ele>486.20001220703</ele>
        <time>2013-05-04T09:54:55.000Z</time>
      </trkpt>
      <trkpt lat="43.63441" lon="5.71687">
        <ele>486.60000610352</ele>
        <time>2013-05-04T09:54:56.000Z</time>
      </trkpt>
      <trkpt lat="43.63442" lon="5.71686">
        <ele>486.79998779297</ele>
        <time>2013-05-04T09:54:57.000Z</time>
      </trkpt>
      <trkpt lat="43.63444" lon="5.71674">
        <ele>489</ele>
        <time>2013-05-04T09:55:05.000Z</time>
      </trkpt>
      <trkpt lat="43.63449" lon="5.71662">
        <ele>490.60000610352</ele>
        <time>2013-05-04T09:55:15.000Z</time>
      </trkpt>
      <trkpt lat="43.63458" lon="5.71643">
        <ele>493</ele>
        <time>2013-05-04T09:55:26.000Z</time>
      </trkpt>
      <trkpt lat="43.63459" lon="5.71641">
        <ele>493.20001220703</ele>
        <time>2013-05-04T09:55:27.000Z</time>
      </trkpt>
      <trkpt lat="43.63467" lon="5.71628">
        <ele>494.79998779297</ele>
        <time>2013-05-04T09:55:37.000Z</time>
      </trkpt>
      <trkpt lat="43.63468" lon="5.71626">
        <ele>495</ele>
        <time>2013-05-04T09:55:38.000Z</time>
      </trkpt>
      <trkpt lat="43.63469" lon="5.71624">
        <ele>495.39999389648</ele>
        <time>2013-05-04T09:55:39.000Z</time>
      </trkpt>
      <trkpt lat="43.63477" lon="5.71602">
        <ele>498.20001220703</ele>
        <time>2013-05-04T09:55:46.000Z</time>
      </trkpt>
      <trkpt lat="43.63477" lon="5.71599">
        <ele>498.79998779297</ele>
        <time>2013-05-04T09:55:47.000Z</time>
      </trkpt>
      <trkpt lat="43.63477" lon="5.71597">
        <ele>499</ele>
        <time>2013-05-04T09:55:48.000Z</time>
      </trkpt>
      <trkpt lat="43.63479" lon="5.7159">
        <ele>500</ele>
        <time>2013-05-04T09:55:52.000Z</time>
      </trkpt>
      <trkpt lat="43.63483" lon="5.71574">
        <ele>502</ele>
        <time>2013-05-04T09:56:03.000Z</time>
      </trkpt>
      <trkpt lat="43.63485" lon="5.7156">
        <ele>503.60000610352</ele>
        <time>2013-05-04T09:56:14.000Z</time>
      </trkpt>
      <trkpt lat="43.63485" lon="5.71557">
        <ele>504</ele>
        <time>2013-05-04T09:56:16.000Z</time>
      </trkpt>
      <trkpt lat="43.63485" lon="5.71543">
        <ele>505.60000610352</ele>
        <time>2013-05-04T09:56:27.000Z</time>
      </trkpt>
      <trkpt lat="43.63486" lon="5.71534">
        <ele>506.60000610352</ele>
        <time>2013-05-04T09:56:38.000Z</time>
      </trkpt>
      <trkpt lat="43.63488" lon="5.71518">
        <ele>508.60000610352</ele>
        <time>2013-05-04T09:56:52.000Z</time>
      </trkpt>
      <trkpt lat="43.6349" lon="5.71505">
        <ele>510.20001220703</ele>
        <time>2013-05-04T09:57:03.000Z</time>
      </trkpt>
      <trkpt lat="43.63492" lon="5.71495">
        <ele>511.60000610352</ele>
        <time>2013-05-04T09:57:13.000Z</time>
      </trkpt>
      <trkpt lat="43.63491" lon="5.71483">
        <ele>512.40002441406</ele>
        <time>2013-05-04T09:57:24.000Z</time>
      </trkpt>
      <trkpt lat="43.63491" lon="5.71482">
        <ele>512.59997558594</ele>
        <time>2013-05-04T09:57:27.000Z</time>
      </trkpt>
      <trkpt lat="43.63491" lon="5.71477">
        <ele>513</ele>
        <time>2013-05-04T09:57:32.000Z</time>
      </trkpt>
      <trkpt lat="43.63491" lon="5.71476">
        <ele>513.20001220703</ele>
        <time>2013-05-04T09:57:33.000Z</time>
      </trkpt>
      <trkpt lat="43.63498" lon="5.71462">
        <ele>514.79998779297</ele>
        <time>2013-05-04T09:57:43.000Z</time>
      </trkpt>
      <trkpt lat="43.63505" lon="5.71449">
        <ele>517.20001220703</ele>
        <time>2013-05-04T09:57:51.000Z</time>
      </trkpt>
      <trkpt lat="43.6351" lon="5.71441">
        <ele>518.59997558594</ele>
        <time>2013-05-04T09:57:55.000Z</time>
      </trkpt>
      <trkpt lat="43.63515" lon="5.71425">
        <ele>520.40002441406</ele>
        <time>2013-05-04T09:58:04.000Z</time>
      </trkpt>
      <trkpt lat="43.63517" lon="5.71423">
        <ele>520.79998779297</ele>
        <time>2013-05-04T09:58:23.000Z</time>
      </trkpt>
      <trkpt lat="43.63517" lon="5.71423">
        <ele>520.79998779297</ele>
        <time>2013-05-04T09:58:43.000Z</time>
      </trkpt>
      <trkpt lat="43.63517" lon="5.71421">
        <ele>520.79998779297</ele>
        <time>2013-05-04T09:59:00.000Z</time>
      </trkpt>
      <trkpt lat="43.63518" lon="5.71421">
        <ele>521</ele>
        <time>2013-05-04T09:59:18.000Z</time>
      </trkpt>
      <trkpt lat="43.63516" lon="5.7142">
        <ele>520.79998779297</ele>
        <time>2013-05-04T09:59:35.000Z</time>
      </trkpt>
      <trkpt lat="43.63514" lon="5.71421">
        <ele>520.40002441406</ele>
        <time>2013-05-04T09:59:51.000Z</time>
      </trkpt>
      <trkpt lat="43.63513" lon="5.7142">
        <ele>520.40002441406</ele>
        <time>2013-05-04T10:00:14.000Z</time>
      </trkpt>
      <trkpt lat="43.63514" lon="5.71422">
        <ele>520.40002441406</ele>
        <time>2013-05-04T10:00:37.000Z</time>
      </trkpt>
      <trkpt lat="43.63516" lon="5.71421">
        <ele>520.79998779297</ele>
        <time>2013-05-04T10:00:56.000Z</time>
      </trkpt>
      <trkpt lat="43.63517" lon="5.71417">
        <ele>521.20001220703</ele>
        <time>2013-05-04T10:01:09.000Z</time>
      </trkpt>
      <trkpt lat="43.63518" lon="5.71416">
        <ele>521.20001220703</ele>
        <time>2013-05-04T10:01:10.000Z</time>
      </trkpt>
      <trkpt lat="43.63526" lon="5.71387">
        <ele>520.79998779297</ele>
        <time>2013-05-04T10:01:17.000Z</time>
      </trkpt>
      <trkpt lat="43.63528" lon="5.7136">
        <ele>519.40002441406</ele>
        <time>2013-05-04T10:01:21.000Z</time>
      </trkpt>
      <trkpt lat="43.63528" lon="5.71352">
        <ele>519</ele>
        <time>2013-05-04T10:01:22.000Z</time>
      </trkpt>
      <trkpt lat="43.63531" lon="5.71338">
        <ele>518.20001220703</ele>
        <time>2013-05-04T10:01:24.000Z</time>
      </trkpt>
      <trkpt lat="43.63534" lon="5.71333">
        <ele>518</ele>
        <time>2013-05-04T10:01:25.000Z</time>
      </trkpt>
      <trkpt lat="43.63538" lon="5.71329">
        <ele>517.59997558594</ele>
        <time>2013-05-04T10:01:26.000Z</time>
      </trkpt>
      <trkpt lat="43.63542" lon="5.71325">
        <ele>517.40002441406</ele>
        <time>2013-05-04T10:01:27.000Z</time>
      </trkpt>
      <trkpt lat="43.63547" lon="5.71321">
        <ele>516.79998779297</ele>
        <time>2013-05-04T10:01:28.000Z</time>
      </trkpt>
      <trkpt lat="43.63552" lon="5.71316">
        <ele>516.20001220703</ele>
        <time>2013-05-04T10:01:29.000Z</time>
      </trkpt>
      <trkpt lat="43.63556" lon="5.7131">
        <ele>515.40002441406</ele>
        <time>2013-05-04T10:01:30.000Z</time>
      </trkpt>
      <trkpt lat="43.6356" lon="5.71302">
        <ele>514.40002441406</ele>
        <time>2013-05-04T10:01:31.000Z</time>
      </trkpt>
      <trkpt lat="43.63563" lon="5.71295">
        <ele>513.40002441406</ele>
        <time>2013-05-04T10:01:32.000Z</time>
      </trkpt>
      <trkpt lat="43.63567" lon="5.71288">
        <ele>512.40002441406</ele>
        <time>2013-05-04T10:01:33.000Z</time>
      </trkpt>
      <trkpt lat="43.63571" lon="5.71281">
        <ele>511.20001220703</ele>
        <time>2013-05-04T10:01:34.000Z</time>
      </trkpt>
      <trkpt lat="43.63586" lon="5.71251">
        <ele>506.60000610352</ele>
        <time>2013-05-04T10:01:38.000Z</time>
      </trkpt>
      <trkpt lat="43.63592" lon="5.71245">
        <ele>506.60000610352</ele>
        <time>2013-05-04T10:01:39.000Z</time>
      </trkpt>
      <trkpt lat="43.63598" lon="5.71238">
        <ele>506.60000610352</ele>
        <time>2013-05-04T10:01:40.000Z</time>
      </trkpt>
      <trkpt lat="43.63616" lon="5.71215">
        <ele>505.39999389648</ele>
        <time>2013-05-04T10:01:43.000Z</time>
      </trkpt>
      <trkpt lat="43.63643" lon="5.7118">
        <ele>501</ele>
        <time>2013-05-04T10:01:47.000Z</time>
      </trkpt>
      <trkpt lat="43.63654" lon="5.71164">
        <ele>498.20001220703</ele>
        <time>2013-05-04T10:01:49.000Z</time>
      </trkpt>
      <trkpt lat="43.63658" lon="5.71156">
        <ele>497.20001220703</ele>
        <time>2013-05-04T10:01:50.000Z</time>
      </trkpt>
      <trkpt lat="43.6366" lon="5.71147">
        <ele>495.79998779297</ele>
        <time>2013-05-04T10:01:51.000Z</time>
      </trkpt>
      <trkpt lat="43.63664" lon="5.71113">
        <ele>491</ele>
        <time>2013-05-04T10:01:54.000Z</time>
      </trkpt>
      <trkpt lat="43.63667" lon="5.71101">
        <ele>489.60000610352</ele>
        <time>2013-05-04T10:01:55.000Z</time>
      </trkpt>
      <trkpt lat="43.63673" lon="5.71081">
        <ele>488.20001220703</ele>
        <time>2013-05-04T10:01:57.000Z</time>
      </trkpt>
      <trkpt lat="43.63678" lon="5.71074">
        <ele>488.79998779297</ele>
        <time>2013-05-04T10:01:58.000Z</time>
      </trkpt>
      <trkpt lat="43.63683" lon="5.71068">
        <ele>489.60000610352</ele>
        <time>2013-05-04T10:01:59.000Z</time>
      </trkpt>
      <trkpt lat="43.63688" lon="5.71065">
        <ele>490.39999389648</ele>
        <time>2013-05-04T10:02:00.000Z</time>
      </trkpt>
      <trkpt lat="43.63692" lon="5.71062">
        <ele>491.20001220703</ele>
        <time>2013-05-04T10:02:01.000Z</time>
      </trkpt>
      <trkpt lat="43.63707" lon="5.71053">
        <ele>493.79998779297</ele>
        <time>2013-05-04T10:02:06.000Z</time>
      </trkpt>
      <trkpt lat="43.63718" lon="5.7104">
        <ele>495.39999389648</ele>
        <time>2013-05-04T10:02:13.000Z</time>
      </trkpt>
      <trkpt lat="43.63718" lon="5.71037">
        <ele>495.20001220703</ele>
        <time>2013-05-04T10:02:14.000Z</time>
      </trkpt>
      <trkpt lat="43.63718" lon="5.71034">
        <ele>495.20001220703</ele>
        <time>2013-05-04T10:02:15.000Z</time>
      </trkpt>
      <trkpt lat="43.63719" lon="5.71031">
        <ele>495</ele>
        <time>2013-05-04T10:02:16.000Z</time>
      </trkpt>
      <trkpt lat="43.63719" lon="5.71028">
        <ele>495</ele>
        <time>2013-05-04T10:02:17.000Z</time>
      </trkpt>
      <trkpt lat="43.63726" lon="5.71002">
        <ele>494.79998779297</ele>
        <time>2013-05-04T10:02:28.000Z</time>
      </trkpt>
      <trkpt lat="43.63742" lon="5.70985">
        <ele>497.20001220703</ele>
        <time>2013-05-04T10:02:39.000Z</time>
      </trkpt>
      <trkpt lat="43.63758" lon="5.70968">
        <ele>499</ele>
        <time>2013-05-04T10:02:49.000Z</time>
      </trkpt>
      <trkpt lat="43.63776" lon="5.70949">
        <ele>501.20001220703</ele>
        <time>2013-05-04T10:02:59.000Z</time>
      </trkpt>
      <trkpt lat="43.63796" lon="5.70925">
        <ele>502.39999389648</ele>
        <time>2013-05-04T10:03:10.000Z</time>
      </trkpt>
      <trkpt lat="43.63816" lon="5.70894">
        <ele>503.39999389648</ele>
        <time>2013-05-04T10:03:20.000Z</time>
      </trkpt>
      <trkpt lat="43.6384" lon="5.70858">
        <ele>503.39999389648</ele>
        <time>2013-05-04T10:03:31.000Z</time>
      </trkpt>
      <trkpt lat="43.63855" lon="5.70833">
        <ele>504.60000610352</ele>
        <time>2013-05-04T10:03:39.000Z</time>
      </trkpt>
      <trkpt lat="43.63869" lon="5.70808">
        <ele>507.60000610352</ele>
        <time>2013-05-04T10:03:48.000Z</time>
      </trkpt>
      <trkpt lat="43.63887" lon="5.70785">
        <ele>509.60000610352</ele>
        <time>2013-05-04T10:04:00.000Z</time>
      </trkpt>
      <trkpt lat="43.63904" lon="5.70755">
        <ele>508.79998779297</ele>
        <time>2013-05-04T10:04:11.000Z</time>
      </trkpt>
      <trkpt lat="43.63923" lon="5.70724">
        <ele>511.20001220703</ele>
        <time>2013-05-04T10:04:22.000Z</time>
      </trkpt>
      <trkpt lat="43.63939" lon="5.70691">
        <ele>514.59997558594</ele>
        <time>2013-05-04T10:04:33.000Z</time>
      </trkpt>
      <trkpt lat="43.63955" lon="5.70664">
        <ele>516.20001220703</ele>
        <time>2013-05-04T10:04:43.000Z</time>
      </trkpt>
      <trkpt lat="43.6396" lon="5.70659">
        <ele>517.20001220703</ele>
        <time>2013-05-04T10:04:46.000Z</time>
      </trkpt>
      <trkpt lat="43.63973" lon="5.70644">
        <ele>519.40002441406</ele>
        <time>2013-05-04T10:04:55.000Z</time>
      </trkpt>
      <trkpt lat="43.63988" lon="5.70625">
        <ele>520.20001220703</ele>
        <time>2013-05-04T10:05:05.000Z</time>
      </trkpt>
      <trkpt lat="43.64001" lon="5.70606">
        <ele>520</ele>
        <time>2013-05-04T10:05:15.000Z</time>
      </trkpt>
      <trkpt lat="43.64014" lon="5.70571">
        <ele>524.59997558594</ele>
        <time>2013-05-04T10:05:28.000Z</time>
      </trkpt>
      <trkpt lat="43.64018" lon="5.70565">
        <ele>526.40002441406</ele>
        <time>2013-05-04T10:05:32.000Z</time>
      </trkpt>
      <trkpt lat="43.64019" lon="5.70564">
        <ele>527</ele>
        <time>2013-05-04T10:05:33.000Z</time>
      </trkpt>
      <trkpt lat="43.64021" lon="5.70562">
        <ele>527.40002441406</ele>
        <time>2013-05-04T10:05:34.000Z</time>
      </trkpt>
      <trkpt lat="43.64022" lon="5.70561">
        <ele>527.79998779297</ele>
        <time>2013-05-04T10:05:35.000Z</time>
      </trkpt>
      <trkpt lat="43.64023" lon="5.7056">
        <ele>528.20001220703</ele>
        <time>2013-05-04T10:05:36.000Z</time>
      </trkpt>
      <trkpt lat="43.64024" lon="5.70559">
        <ele>528.59997558594</ele>
        <time>2013-05-04T10:05:37.000Z</time>
      </trkpt>
      <trkpt lat="43.64025" lon="5.70558">
        <ele>528.79998779297</ele>
        <time>2013-05-04T10:05:38.000Z</time>
      </trkpt>
      <trkpt lat="43.64026" lon="5.70557">
        <ele>529.20001220703</ele>
        <time>2013-05-04T10:05:39.000Z</time>
      </trkpt>
      <trkpt lat="43.64027" lon="5.70555">
        <ele>529.59997558594</ele>
        <time>2013-05-04T10:05:40.000Z</time>
      </trkpt>
      <trkpt lat="43.64028" lon="5.70553">
        <ele>530</ele>
        <time>2013-05-04T10:05:41.000Z</time>
      </trkpt>
      <trkpt lat="43.64037" lon="5.70534">
        <ele>532.59997558594</ele>
        <time>2013-05-04T10:05:50.000Z</time>
      </trkpt>
      <trkpt lat="43.64051" lon="5.70513">
        <ele>534.79998779297</ele>
        <time>2013-05-04T10:06:02.000Z</time>
      </trkpt>
      <trkpt lat="43.64063" lon="5.70494">
        <ele>535.59997558594</ele>
        <time>2013-05-04T10:06:13.000Z</time>
      </trkpt>
      <trkpt lat="43.64078" lon="5.70473">
        <ele>536.40002441406</ele>
        <time>2013-05-04T10:06:25.000Z</time>
      </trkpt>
      <trkpt lat="43.64086" lon="5.7046">
        <ele>537</ele>
        <time>2013-05-04T10:06:32.000Z</time>
      </trkpt>
      <trkpt lat="43.641" lon="5.70441">
        <ele>541</ele>
        <time>2013-05-04T10:06:44.000Z</time>
      </trkpt>
      <trkpt lat="43.64113" lon="5.70424">
        <ele>543.59997558594</ele>
        <time>2013-05-04T10:06:55.000Z</time>
      </trkpt>
      <trkpt lat="43.64116" lon="5.7042">
        <ele>544</ele>
        <time>2013-05-04T10:06:57.000Z</time>
      </trkpt>
      <trkpt lat="43.64117" lon="5.70419">
        <ele>544.20001220703</ele>
        <time>2013-05-04T10:06:58.000Z</time>
      </trkpt>
      <trkpt lat="43.64118" lon="5.70417">
        <ele>544.40002441406</ele>
        <time>2013-05-04T10:06:59.000Z</time>
      </trkpt>
      <trkpt lat="43.64119" lon="5.70415">
        <ele>544.79998779297</ele>
        <time>2013-05-04T10:07:00.000Z</time>
      </trkpt>
      <trkpt lat="43.6412" lon="5.70412">
        <ele>545.40002441406</ele>
        <time>2013-05-04T10:07:01.000Z</time>
      </trkpt>
      <trkpt lat="43.64121" lon="5.7041">
        <ele>545.79998779297</ele>
        <time>2013-05-04T10:07:02.000Z</time>
      </trkpt>
      <trkpt lat="43.64122" lon="5.70408">
        <ele>546.20001220703</ele>
        <time>2013-05-04T10:07:03.000Z</time>
      </trkpt>
      <trkpt lat="43.64134" lon="5.70387">
        <ele>550.20001220703</ele>
        <time>2013-05-04T10:07:15.000Z</time>
      </trkpt>
      <trkpt lat="43.64135" lon="5.70385">
        <ele>550.40002441406</ele>
        <time>2013-05-04T10:07:16.000Z</time>
      </trkpt>
      <trkpt lat="43.64136" lon="5.70383">
        <ele>550.79998779297</ele>
        <time>2013-05-04T10:07:17.000Z</time>
      </trkpt>
      <trkpt lat="43.64137" lon="5.7038">
        <ele>551</ele>
        <time>2013-05-04T10:07:18.000Z</time>
      </trkpt>
      <trkpt lat="43.64137" lon="5.70378">
        <ele>551.20001220703</ele>
        <time>2013-05-04T10:07:19.000Z</time>
      </trkpt>
      <trkpt lat="43.64138" lon="5.70375">
        <ele>551.40002441406</ele>
        <time>2013-05-04T10:07:20.000Z</time>
      </trkpt>
      <trkpt lat="43.64148" lon="5.70349">
        <ele>553.20001220703</ele>
        <time>2013-05-04T10:07:32.000Z</time>
      </trkpt>
      <trkpt lat="43.6416" lon="5.70326">
        <ele>554.40002441406</ele>
        <time>2013-05-04T10:07:44.000Z</time>
      </trkpt>
      <trkpt lat="43.64175" lon="5.7031">
        <ele>558.40002441406</ele>
        <time>2013-05-04T10:07:56.000Z</time>
      </trkpt>
      <trkpt lat="43.64184" lon="5.70301">
        <ele>562</ele>
        <time>2013-05-04T10:08:03.000Z</time>
      </trkpt>
      <trkpt lat="43.6419" lon="5.70293">
        <ele>564</ele>
        <time>2013-05-04T10:08:08.000Z</time>
      </trkpt>
      <trkpt lat="43.64198" lon="5.70281">
        <ele>566.40002441406</ele>
        <time>2013-05-04T10:08:16.000Z</time>
      </trkpt>
      <trkpt lat="43.64209" lon="5.70265">
        <ele>568.59997558594</ele>
        <time>2013-05-04T10:08:27.000Z</time>
      </trkpt>
      <trkpt lat="43.64219" lon="5.70255">
        <ele>569.79998779297</ele>
        <time>2013-05-04T10:08:38.000Z</time>
      </trkpt>
      <trkpt lat="43.64218" lon="5.70231">
        <ele>572.79998779297</ele>
        <time>2013-05-04T10:08:50.000Z</time>
      </trkpt>
      <trkpt lat="43.64225" lon="5.70216">
        <ele>575.40002441406</ele>
        <time>2013-05-04T10:09:02.000Z</time>
      </trkpt>
      <trkpt lat="43.64237" lon="5.70202">
        <ele>577</ele>
        <time>2013-05-04T10:09:14.000Z</time>
      </trkpt>
      <trkpt lat="43.6424" lon="5.70195">
        <ele>577.59997558594</ele>
        <time>2013-05-04T10:09:19.000Z</time>
      </trkpt>
      <trkpt lat="43.64243" lon="5.70193">
        <ele>577.59997558594</ele>
        <time>2013-05-04T10:09:21.000Z</time>
      </trkpt>
      <trkpt lat="43.64249" lon="5.70189">
        <ele>577.40002441406</ele>
        <time>2013-05-04T10:09:26.000Z</time>
      </trkpt>
      <trkpt lat="43.64251" lon="5.70188">
        <ele>577.40002441406</ele>
        <time>2013-05-04T10:09:27.000Z</time>
      </trkpt>
      <trkpt lat="43.64252" lon="5.70187">
        <ele>577.79998779297</ele>
        <time>2013-05-04T10:09:28.000Z</time>
      </trkpt>
      <trkpt lat="43.64253" lon="5.70186">
        <ele>578</ele>
        <time>2013-05-04T10:09:29.000Z</time>
      </trkpt>
      <trkpt lat="43.64254" lon="5.70184">
        <ele>578.40002441406</ele>
        <time>2013-05-04T10:09:30.000Z</time>
      </trkpt>
      <trkpt lat="43.64255" lon="5.70183">
        <ele>578.59997558594</ele>
        <time>2013-05-04T10:09:31.000Z</time>
      </trkpt>
      <trkpt lat="43.64256" lon="5.70182">
        <ele>579</ele>
        <time>2013-05-04T10:09:32.000Z</time>
      </trkpt>
      <trkpt lat="43.64258" lon="5.70181">
        <ele>579.40002441406</ele>
        <time>2013-05-04T10:09:33.000Z</time>
      </trkpt>
      <trkpt lat="43.64259" lon="5.7018">
        <ele>579.59997558594</ele>
        <time>2013-05-04T10:09:34.000Z</time>
      </trkpt>
      <trkpt lat="43.6426" lon="5.70178">
        <ele>579.79998779297</ele>
        <time>2013-05-04T10:09:35.000Z</time>
      </trkpt>
      <trkpt lat="43.64261" lon="5.70176">
        <ele>580.20001220703</ele>
        <time>2013-05-04T10:09:37.000Z</time>
      </trkpt>
      <trkpt lat="43.64265" lon="5.70172">
        <ele>581</ele>
        <time>2013-05-04T10:09:41.000Z</time>
      </trkpt>
      <trkpt lat="43.64266" lon="5.70171">
        <ele>581.20001220703</ele>
        <time>2013-05-04T10:09:42.000Z</time>
      </trkpt>
      <trkpt lat="43.64277" lon="5.70164">
        <ele>583.59997558594</ele>
        <time>2013-05-04T10:09:52.000Z</time>
      </trkpt>
      <trkpt lat="43.64281" lon="5.70164">
        <ele>584.20001220703</ele>
        <time>2013-05-04T10:09:55.000Z</time>
      </trkpt>
      <trkpt lat="43.64282" lon="5.70165">
        <ele>584.20001220703</ele>
        <time>2013-05-04T10:09:56.000Z</time>
      </trkpt>
      <trkpt lat="43.64283" lon="5.70165">
        <ele>584.40002441406</ele>
        <time>2013-05-04T10:09:57.000Z</time>
      </trkpt>
      <trkpt lat="43.64291" lon="5.70169">
        <ele>585.40002441406</ele>
        <time>2013-05-04T10:10:04.000Z</time>
      </trkpt>
      <trkpt lat="43.64294" lon="5.70167">
        <ele>585.79998779297</ele>
        <time>2013-05-04T10:10:07.000Z</time>
      </trkpt>
      <trkpt lat="43.64295" lon="5.70166">
        <ele>586</ele>
        <time>2013-05-04T10:10:08.000Z</time>
      </trkpt>
      <trkpt lat="43.64296" lon="5.70165">
        <ele>586.40002441406</ele>
        <time>2013-05-04T10:10:09.000Z</time>
      </trkpt>
      <trkpt lat="43.64297" lon="5.70163">
        <ele>586.79998779297</ele>
        <time>2013-05-04T10:10:10.000Z</time>
      </trkpt>
      <trkpt lat="43.64297" lon="5.70162">
        <ele>587</ele>
        <time>2013-05-04T10:10:11.000Z</time>
      </trkpt>
      <trkpt lat="43.64298" lon="5.70161">
        <ele>587.20001220703</ele>
        <time>2013-05-04T10:10:12.000Z</time>
      </trkpt>
      <trkpt lat="43.64298" lon="5.70159">
        <ele>587.59997558594</ele>
        <time>2013-05-04T10:10:13.000Z</time>
      </trkpt>
      <trkpt lat="43.64306" lon="5.70147">
        <ele>590.40002441406</ele>
        <time>2013-05-04T10:10:24.000Z</time>
      </trkpt>
      <trkpt lat="43.64312" lon="5.70131">
        <ele>592.79998779297</ele>
        <time>2013-05-04T10:10:35.000Z</time>
      </trkpt>
      <trkpt lat="43.64315" lon="5.70124">
        <ele>593.79998779297</ele>
        <time>2013-05-04T10:10:40.000Z</time>
      </trkpt>
      <trkpt lat="43.64315" lon="5.70122">
        <ele>594</ele>
        <time>2013-05-04T10:10:41.000Z</time>
      </trkpt>
      <trkpt lat="43.64317" lon="5.7011">
        <ele>595.40002441406</ele>
        <time>2013-05-04T10:10:51.000Z</time>
      </trkpt>
      <trkpt lat="43.64319" lon="5.701">
        <ele>596.20001220703</ele>
        <time>2013-05-04T10:11:00.000Z</time>
      </trkpt>
      <trkpt lat="43.64323" lon="5.7009">
        <ele>597</ele>
        <time>2013-05-04T10:11:10.000Z</time>
      </trkpt>
      <trkpt lat="43.64328" lon="5.70089">
        <ele>596.79998779297</ele>
        <time>2013-05-04T10:11:17.000Z</time>
      </trkpt>
      <trkpt lat="43.64329" lon="5.7009">
        <ele>596.59997558594</ele>
        <time>2013-05-04T10:11:18.000Z</time>
      </trkpt>
      <trkpt lat="43.64331" lon="5.70091">
        <ele>596.59997558594</ele>
        <time>2013-05-04T10:11:19.000Z</time>
      </trkpt>
      <trkpt lat="43.64332" lon="5.70091">
        <ele>596.59997558594</ele>
        <time>2013-05-04T10:11:20.000Z</time>
      </trkpt>
      <trkpt lat="43.64333" lon="5.70092">
        <ele>596.40002441406</ele>
        <time>2013-05-04T10:11:21.000Z</time>
      </trkpt>
      <trkpt lat="43.64335" lon="5.70093">
        <ele>596.40002441406</ele>
        <time>2013-05-04T10:11:23.000Z</time>
      </trkpt>
      <trkpt lat="43.64336" lon="5.70094">
        <ele>596.40002441406</ele>
        <time>2013-05-04T10:11:24.000Z</time>
      </trkpt>
      <trkpt lat="43.6434" lon="5.70096">
        <ele>596.20001220703</ele>
        <time>2013-05-04T10:11:28.000Z</time>
      </trkpt>
      <trkpt lat="43.64341" lon="5.70097">
        <ele>596.20001220703</ele>
        <time>2013-05-04T10:11:29.000Z</time>
      </trkpt>
      <trkpt lat="43.64352" lon="5.70103">
        <ele>596</ele>
        <time>2013-05-04T10:11:40.000Z</time>
      </trkpt>
      <trkpt lat="43.64357" lon="5.7011">
        <ele>596</ele>
        <time>2013-05-04T10:11:46.000Z</time>
      </trkpt>
      <trkpt lat="43.64357" lon="5.70111">
        <ele>595.79998779297</ele>
        <time>2013-05-04T10:11:47.000Z</time>
      </trkpt>
      <trkpt lat="43.64357" lon="5.70112">
        <ele>595.79998779297</ele>
        <time>2013-05-04T10:11:48.000Z</time>
      </trkpt>
      <trkpt lat="43.64357" lon="5.70113">
        <ele>595.79998779297</ele>
        <time>2013-05-04T10:11:52.000Z</time>
      </trkpt>
      <trkpt lat="43.6436" lon="5.70113">
        <ele>596</ele>
        <time>2013-05-04T10:12:00.000Z</time>
      </trkpt>
      <trkpt lat="43.64366" lon="5.70108">
        <ele>596.20001220703</ele>
        <time>2013-05-04T10:12:08.000Z</time>
      </trkpt>
      <trkpt lat="43.64375" lon="5.70104">
        <ele>596.59997558594</ele>
        <time>2013-05-04T10:12:19.000Z</time>
      </trkpt>
      <trkpt lat="43.64382" lon="5.70107">
        <ele>596.59997558594</ele>
        <time>2013-05-04T10:12:27.000Z</time>
      </trkpt>
      <trkpt lat="43.64383" lon="5.70108">
        <ele>596.59997558594</ele>
        <time>2013-05-04T10:12:28.000Z</time>
      </trkpt>
      <trkpt lat="43.64386" lon="5.70107">
        <ele>596.79998779297</ele>
        <time>2013-05-04T10:12:34.000Z</time>
      </trkpt>
      <trkpt lat="43.64387" lon="5.70106">
        <ele>596.79998779297</ele>
        <time>2013-05-04T10:12:35.000Z</time>
      </trkpt>
      <trkpt lat="43.64384" lon="5.70104">
        <ele>596.79998779297</ele>
        <time>2013-05-04T10:12:44.000Z</time>
      </trkpt>
      <trkpt lat="43.64383" lon="5.70105">
        <ele>596.59997558594</ele>
        <time>2013-05-04T10:13:08.000Z</time>
      </trkpt>
      <trkpt lat="43.64386" lon="5.70106">
        <ele>596.79998779297</ele>
        <time>2013-05-04T10:13:28.000Z</time>
      </trkpt>
      <trkpt lat="43.64385" lon="5.70106">
        <ele>596.79998779297</ele>
        <time>2013-05-04T10:13:53.000Z</time>
      </trkpt>
      <trkpt lat="43.64386" lon="5.70105">
        <ele>596.79998779297</ele>
        <time>2013-05-04T10:14:15.000Z</time>
      </trkpt>
      <trkpt lat="43.64384" lon="5.70105">
        <ele>596.79998779297</ele>
        <time>2013-05-04T10:14:39.000Z</time>
      </trkpt>
      <trkpt lat="43.64384" lon="5.70103">
        <ele>596.79998779297</ele>
        <time>2013-05-04T10:15:00.000Z</time>
      </trkpt>
      <trkpt lat="43.64383" lon="5.70101">
        <ele>596.79998779297</ele>
        <time>2013-05-04T10:15:21.000Z</time>
      </trkpt>
      <trkpt lat="43.64384" lon="5.70102">
        <ele>596.79998779297</ele>
        <time>2013-05-04T10:15:22.000Z</time>
      </trkpt>
      <trkpt lat="43.64384" lon="5.70102">
        <ele>596.79998779297</ele>
        <time>2013-05-04T10:15:23.000Z</time>
      </trkpt>
      <trkpt lat="43.64386" lon="5.70103">
        <ele>596.79998779297</ele>
        <time>2013-05-04T10:15:40.000Z</time>
      </trkpt>
      <trkpt lat="43.64387" lon="5.70105">
        <ele>596.79998779297</ele>
        <time>2013-05-04T10:16:12.000Z</time>
      </trkpt>
      <trkpt lat="43.64385" lon="5.70104">
        <ele>596.79998779297</ele>
        <time>2013-05-04T10:16:34.000Z</time>
      </trkpt>
      <trkpt lat="43.64385" lon="5.70103">
        <ele>596.79998779297</ele>
        <time>2013-05-04T10:16:55.000Z</time>
      </trkpt>
      <trkpt lat="43.64383" lon="5.70105">
        <ele>596.59997558594</ele>
        <time>2013-05-04T10:17:17.000Z</time>
      </trkpt>
      <trkpt lat="43.64384" lon="5.70104">
        <ele>596.79998779297</ele>
        <time>2013-05-04T10:17:42.000Z</time>
      </trkpt>
      <trkpt lat="43.64385" lon="5.70103">
        <ele>596.79998779297</ele>
        <time>2013-05-04T10:17:59.000Z</time>
      </trkpt>
      <trkpt lat="43.64387" lon="5.70107">
        <ele>596.79998779297</ele>
        <time>2013-05-04T10:18:14.000Z</time>
      </trkpt>
      <trkpt lat="43.64387" lon="5.70109">
        <ele>596.79998779297</ele>
        <time>2013-05-04T10:18:32.000Z</time>
      </trkpt>
      <trkpt lat="43.64388" lon="5.70108">
        <ele>596.79998779297</ele>
        <time>2013-05-04T10:18:52.000Z</time>
      </trkpt>
      <trkpt lat="43.64388" lon="5.7011">
        <ele>596.79998779297</ele>
        <time>2013-05-04T10:18:57.000Z</time>
      </trkpt>
      <trkpt lat="43.64389" lon="5.7011">
        <ele>596.79998779297</ele>
        <time>2013-05-04T10:18:58.000Z</time>
      </trkpt>
      <trkpt lat="43.64389" lon="5.70107">
        <ele>596.79998779297</ele>
        <time>2013-05-04T10:19:00.000Z</time>
      </trkpt>
      <trkpt lat="43.64384" lon="5.70102">
        <ele>596.79998779297</ele>
        <time>2013-05-04T10:19:08.000Z</time>
      </trkpt>
      <trkpt lat="43.64386" lon="5.70099">
        <ele>596.79998779297</ele>
        <time>2013-05-04T10:19:15.000Z</time>
      </trkpt>
      <trkpt lat="43.64384" lon="5.70092">
        <ele>596.79998779297</ele>
        <time>2013-05-04T10:19:27.000Z</time>
      </trkpt>
      <trkpt lat="43.64381" lon="5.70072">
        <ele>599.20001220703</ele>
        <time>2013-05-04T10:19:37.000Z</time>
      </trkpt>
      <trkpt lat="43.64385" lon="5.70054">
        <ele>603</ele>
        <time>2013-05-04T10:19:48.000Z</time>
      </trkpt>
      <trkpt lat="43.64393" lon="5.70036">
        <ele>606.59997558594</ele>
        <time>2013-05-04T10:20:01.000Z</time>
      </trkpt>
      <trkpt lat="43.64393" lon="5.70034">
        <ele>607</ele>
        <time>2013-05-04T10:20:02.000Z</time>
      </trkpt>
      <trkpt lat="43.64393" lon="5.70032">
        <ele>607.40002441406</ele>
        <time>2013-05-04T10:20:03.000Z</time>
      </trkpt>
      <trkpt lat="43.64393" lon="5.7003">
        <ele>607.79998779297</ele>
        <time>2013-05-04T10:20:04.000Z</time>
      </trkpt>
      <trkpt lat="43.644" lon="5.7001">
        <ele>611.79998779297</ele>
        <time>2013-05-04T10:20:17.000Z</time>
      </trkpt>
      <trkpt lat="43.64406" lon="5.69992">
        <ele>614.40002441406</ele>
        <time>2013-05-04T10:20:29.000Z</time>
      </trkpt>
      <trkpt lat="43.64409" lon="5.69986">
        <ele>614.79998779297</ele>
        <time>2013-05-04T10:20:33.000Z</time>
      </trkpt>
      <trkpt lat="43.6441" lon="5.69984">
        <ele>615</ele>
        <time>2013-05-04T10:20:34.000Z</time>
      </trkpt>
      <trkpt lat="43.6441" lon="5.69983">
        <ele>615</ele>
        <time>2013-05-04T10:20:35.000Z</time>
      </trkpt>
      <trkpt lat="43.6441" lon="5.69981">
        <ele>615.20001220703</ele>
        <time>2013-05-04T10:20:36.000Z</time>
      </trkpt>
      <trkpt lat="43.6441" lon="5.6998">
        <ele>615.40002441406</ele>
        <time>2013-05-04T10:20:37.000Z</time>
      </trkpt>
      <trkpt lat="43.64415" lon="5.69957">
        <ele>617.20001220703</ele>
        <time>2013-05-04T10:20:50.000Z</time>
      </trkpt>
      <trkpt lat="43.64415" lon="5.69944">
        <ele>618.59997558594</ele>
        <time>2013-05-04T10:20:57.000Z</time>
      </trkpt>
      <trkpt lat="43.64415" lon="5.69942">
        <ele>618.79998779297</ele>
        <time>2013-05-04T10:20:58.000Z</time>
      </trkpt>
      <trkpt lat="43.64414" lon="5.6994">
        <ele>619</ele>
        <time>2013-05-04T10:20:59.000Z</time>
      </trkpt>
      <trkpt lat="43.64414" lon="5.69938">
        <ele>619.20001220703</ele>
        <time>2013-05-04T10:21:00.000Z</time>
      </trkpt>
      <trkpt lat="43.64413" lon="5.69936">
        <ele>619.59997558594</ele>
        <time>2013-05-04T10:21:01.000Z</time>
      </trkpt>
      <trkpt lat="43.64413" lon="5.69934">
        <ele>619.79998779297</ele>
        <time>2013-05-04T10:21:02.000Z</time>
      </trkpt>
      <trkpt lat="43.64406" lon="5.69915">
        <ele>622.79998779297</ele>
        <time>2013-05-04T10:21:12.000Z</time>
      </trkpt>
      <trkpt lat="43.64399" lon="5.699">
        <ele>624.40002441406</ele>
        <time>2013-05-04T10:21:21.000Z</time>
      </trkpt>
      <trkpt lat="43.64398" lon="5.69898">
        <ele>624.59997558594</ele>
        <time>2013-05-04T10:21:22.000Z</time>
      </trkpt>
      <trkpt lat="43.64397" lon="5.69897">
        <ele>624.79998779297</ele>
        <time>2013-05-04T10:21:23.000Z</time>
      </trkpt>
      <trkpt lat="43.64396" lon="5.69896">
        <ele>625</ele>
        <time>2013-05-04T10:21:24.000Z</time>
      </trkpt>
      <trkpt lat="43.64395" lon="5.69895">
        <ele>625.40002441406</ele>
        <time>2013-05-04T10:21:25.000Z</time>
      </trkpt>
      <trkpt lat="43.64394" lon="5.69894">
        <ele>625.59997558594</ele>
        <time>2013-05-04T10:21:26.000Z</time>
      </trkpt>
      <trkpt lat="43.64393" lon="5.69892">
        <ele>625.79998779297</ele>
        <time>2013-05-04T10:21:27.000Z</time>
      </trkpt>
      <trkpt lat="43.64392" lon="5.69891">
        <ele>626</ele>
        <time>2013-05-04T10:21:28.000Z</time>
      </trkpt>
      <trkpt lat="43.64386" lon="5.69886">
        <ele>627.40002441406</ele>
        <time>2013-05-04T10:21:33.000Z</time>
      </trkpt>
      <trkpt lat="43.64384" lon="5.69885">
        <ele>627.79998779297</ele>
        <time>2013-05-04T10:21:34.000Z</time>
      </trkpt>
      <trkpt lat="43.64383" lon="5.69884">
        <ele>628</ele>
        <time>2013-05-04T10:21:35.000Z</time>
      </trkpt>
      <trkpt lat="43.64382" lon="5.69884">
        <ele>628.40002441406</ele>
        <time>2013-05-04T10:21:36.000Z</time>
      </trkpt>
      <trkpt lat="43.6438" lon="5.69883">
        <ele>628.79998779297</ele>
        <time>2013-05-04T10:21:37.000Z</time>
      </trkpt>
      <trkpt lat="43.64379" lon="5.69882">
        <ele>629</ele>
        <time>2013-05-04T10:21:38.000Z</time>
      </trkpt>
      <trkpt lat="43.64378" lon="5.69881">
        <ele>629.40002441406</ele>
        <time>2013-05-04T10:21:39.000Z</time>
      </trkpt>
      <trkpt lat="43.64376" lon="5.6988">
        <ele>629.79998779297</ele>
        <time>2013-05-04T10:21:40.000Z</time>
      </trkpt>
      <trkpt lat="43.64375" lon="5.69879">
        <ele>630</ele>
        <time>2013-05-04T10:21:41.000Z</time>
      </trkpt>
      <trkpt lat="43.64373" lon="5.69878">
        <ele>630.40002441406</ele>
        <time>2013-05-04T10:21:42.000Z</time>
      </trkpt>
      <trkpt lat="43.64358" lon="5.69872">
        <ele>634</ele>
        <time>2013-05-04T10:21:53.000Z</time>
      </trkpt>
      <trkpt lat="43.64357" lon="5.69872">
        <ele>634.40002441406</ele>
        <time>2013-05-04T10:21:54.000Z</time>
      </trkpt>
      <trkpt lat="43.64348" lon="5.69887">
        <ele>635.40002441406</ele>
        <time>2013-05-04T10:22:03.000Z</time>
      </trkpt>
      <trkpt lat="43.64331" lon="5.69898">
        <ele>637.59997558594</ele>
        <time>2013-05-04T10:22:15.000Z</time>
      </trkpt>
      <trkpt lat="43.64316" lon="5.69909">
        <ele>638.40002441406</ele>
        <time>2013-05-04T10:22:26.000Z</time>
      </trkpt>
      <trkpt lat="43.64299" lon="5.6991">
        <ele>640.20001220703</ele>
        <time>2013-05-04T10:22:38.000Z</time>
      </trkpt>
      <trkpt lat="43.64286" lon="5.69897">
        <ele>641.79998779297</ele>
        <time>2013-05-04T10:22:49.000Z</time>
      </trkpt>
      <trkpt lat="43.64272" lon="5.6989">
        <ele>643.20001220703</ele>
        <time>2013-05-04T10:23:00.000Z</time>
      </trkpt>
      <trkpt lat="43.6427" lon="5.69891">
        <ele>643.40002441406</ele>
        <time>2013-05-04T10:23:01.000Z</time>
      </trkpt>
      <trkpt lat="43.64269" lon="5.6989">
        <ele>643.40002441406</ele>
        <time>2013-05-04T10:23:02.000Z</time>
      </trkpt>
      <trkpt lat="43.64267" lon="5.6989">
        <ele>643.59997558594</ele>
        <time>2013-05-04T10:23:03.000Z</time>
      </trkpt>
      <trkpt lat="43.64265" lon="5.69889">
        <ele>643.59997558594</ele>
        <time>2013-05-04T10:23:04.000Z</time>
      </trkpt>
      <trkpt lat="43.64264" lon="5.6989">
        <ele>643.79998779297</ele>
        <time>2013-05-04T10:23:05.000Z</time>
      </trkpt>
      <trkpt lat="43.64259" lon="5.6989">
        <ele>644.20001220703</ele>
        <time>2013-05-04T10:23:08.000Z</time>
      </trkpt>
      <trkpt lat="43.64258" lon="5.6989">
        <ele>644.40002441406</ele>
        <time>2013-05-04T10:23:09.000Z</time>
      </trkpt>
      <trkpt lat="43.64245" lon="5.69886">
        <ele>643.20001220703</ele>
        <time>2013-05-04T10:23:17.000Z</time>
      </trkpt>
      <trkpt lat="43.64244" lon="5.69883">
        <ele>643</ele>
        <time>2013-05-04T10:23:18.000Z</time>
      </trkpt>
      <trkpt lat="43.64244" lon="5.69878">
        <ele>642.59997558594</ele>
        <time>2013-05-04T10:23:20.000Z</time>
      </trkpt>
      <trkpt lat="43.64244" lon="5.69877">
        <ele>642.59997558594</ele>
        <time>2013-05-04T10:23:21.000Z</time>
      </trkpt>
      <trkpt lat="43.64245" lon="5.69874">
        <ele>642.59997558594</ele>
        <time>2013-05-04T10:23:22.000Z</time>
      </trkpt>
      <trkpt lat="43.64251" lon="5.6985">
        <ele>643.40002441406</ele>
        <time>2013-05-04T10:23:33.000Z</time>
      </trkpt>
      <trkpt lat="43.6425" lon="5.69848">
        <ele>643.40002441406</ele>
        <time>2013-05-04T10:23:34.000Z</time>
      </trkpt>
      <trkpt lat="43.64249" lon="5.69847">
        <ele>643</ele>
        <time>2013-05-04T10:23:35.000Z</time>
      </trkpt>
      <trkpt lat="43.64247" lon="5.69845">
        <ele>642.20001220703</ele>
        <time>2013-05-04T10:23:36.000Z</time>
      </trkpt>
      <trkpt lat="43.64245" lon="5.69845">
        <ele>641.40002441406</ele>
        <time>2013-05-04T10:23:37.000Z</time>
      </trkpt>
      <trkpt lat="43.64244" lon="5.69846">
        <ele>640.79998779297</ele>
        <time>2013-05-04T10:23:38.000Z</time>
      </trkpt>
      <trkpt lat="43.64242" lon="5.69846">
        <ele>640.20001220703</ele>
        <time>2013-05-04T10:23:39.000Z</time>
      </trkpt>
      <trkpt lat="43.64241" lon="5.69845">
        <ele>639.59997558594</ele>
        <time>2013-05-04T10:23:40.000Z</time>
      </trkpt>
      <trkpt lat="43.6424" lon="5.69843">
        <ele>639</ele>
        <time>2013-05-04T10:23:41.000Z</time>
      </trkpt>
      <trkpt lat="43.64239" lon="5.69841">
        <ele>638.59997558594</ele>
        <time>2013-05-04T10:23:42.000Z</time>
      </trkpt>
      <trkpt lat="43.64239" lon="5.69839">
        <ele>638.20001220703</ele>
        <time>2013-05-04T10:23:43.000Z</time>
      </trkpt>
      <trkpt lat="43.64238" lon="5.69838">
        <ele>638</ele>
        <time>2013-05-04T10:23:44.000Z</time>
      </trkpt>
      <trkpt lat="43.64237" lon="5.69836">
        <ele>637.20001220703</ele>
        <time>2013-05-04T10:23:45.000Z</time>
      </trkpt>
      <trkpt lat="43.64235" lon="5.69835">
        <ele>636.20001220703</ele>
        <time>2013-05-04T10:23:46.000Z</time>
      </trkpt>
      <trkpt lat="43.64233" lon="5.69834">
        <ele>635.40002441406</ele>
        <time>2013-05-04T10:23:47.000Z</time>
      </trkpt>
      <trkpt lat="43.64231" lon="5.69832">
        <ele>634.40002441406</ele>
        <time>2013-05-04T10:23:48.000Z</time>
      </trkpt>
      <trkpt lat="43.64223" lon="5.69827">
        <ele>630</ele>
        <time>2013-05-04T10:23:53.000Z</time>
      </trkpt>
      <trkpt lat="43.64217" lon="5.69824">
        <ele>626.79998779297</ele>
        <time>2013-05-04T10:23:57.000Z</time>
      </trkpt>
      <trkpt lat="43.64216" lon="5.69823">
        <ele>626.20001220703</ele>
        <time>2013-05-04T10:23:58.000Z</time>
      </trkpt>
      <trkpt lat="43.64215" lon="5.69822">
        <ele>625.40002441406</ele>
        <time>2013-05-04T10:23:59.000Z</time>
      </trkpt>
      <trkpt lat="43.64214" lon="5.6982">
        <ele>624.79998779297</ele>
        <time>2013-05-04T10:24:00.000Z</time>
      </trkpt>
      <trkpt lat="43.64214" lon="5.69817">
        <ele>624.20001220703</ele>
        <time>2013-05-04T10:24:01.000Z</time>
      </trkpt>
      <trkpt lat="43.64214" lon="5.69815">
        <ele>623.79998779297</ele>
        <time>2013-05-04T10:24:02.000Z</time>
      </trkpt>
      <trkpt lat="43.64214" lon="5.69811">
        <ele>623.59997558594</ele>
        <time>2013-05-04T10:24:03.000Z</time>
      </trkpt>
      <trkpt lat="43.64215" lon="5.69807">
        <ele>623.40002441406</ele>
        <time>2013-05-04T10:24:04.000Z</time>
      </trkpt>
      <trkpt lat="43.64217" lon="5.69801">
        <ele>623.40002441406</ele>
        <time>2013-05-04T10:24:05.000Z</time>
      </trkpt>
      <trkpt lat="43.64224" lon="5.69784">
        <ele>624.59997558594</ele>
        <time>2013-05-04T10:24:08.000Z</time>
      </trkpt>
      <trkpt lat="43.64227" lon="5.69772">
        <ele>624.59997558594</ele>
        <time>2013-05-04T10:24:10.000Z</time>
      </trkpt>
      <trkpt lat="43.64228" lon="5.69761">
        <ele>623.59997558594</ele>
        <time>2013-05-04T10:24:12.000Z</time>
      </trkpt>
      <trkpt lat="43.64229" lon="5.69755">
        <ele>623.40002441406</ele>
        <time>2013-05-04T10:24:13.000Z</time>
      </trkpt>
      <trkpt lat="43.64231" lon="5.6975">
        <ele>623.79998779297</ele>
        <time>2013-05-04T10:24:14.000Z</time>
      </trkpt>
      <trkpt lat="43.64237" lon="5.69737">
        <ele>623.59997558594</ele>
        <time>2013-05-04T10:24:16.000Z</time>
      </trkpt>
      <trkpt lat="43.6424" lon="5.69731">
        <ele>624.20001220703</ele>
        <time>2013-05-04T10:24:17.000Z</time>
      </trkpt>
      <trkpt lat="43.64244" lon="5.69726">
        <ele>625.59997558594</ele>
        <time>2013-05-04T10:24:18.000Z</time>
      </trkpt>
      <trkpt lat="43.64248" lon="5.69723">
        <ele>627.40002441406</ele>
        <time>2013-05-04T10:24:19.000Z</time>
      </trkpt>
      <trkpt lat="43.64257" lon="5.69717">
        <ele>628.40002441406</ele>
        <time>2013-05-04T10:24:21.000Z</time>
      </trkpt>
      <trkpt lat="43.6426" lon="5.69714">
        <ele>628.40002441406</ele>
        <time>2013-05-04T10:24:22.000Z</time>
      </trkpt>
      <trkpt lat="43.6427" lon="5.69695">
        <ele>626.59997558594</ele>
        <time>2013-05-04T10:24:28.000Z</time>
      </trkpt>
      <trkpt lat="43.64271" lon="5.6968">
        <ele>624</ele>
        <time>2013-05-04T10:24:31.000Z</time>
      </trkpt>
      <trkpt lat="43.64274" lon="5.69655">
        <ele>617.79998779297</ele>
        <time>2013-05-04T10:24:36.000Z</time>
      </trkpt>
      <trkpt lat="43.64279" lon="5.69649">
        <ele>617</ele>
        <time>2013-05-04T10:24:38.000Z</time>
      </trkpt>
      <trkpt lat="43.64283" lon="5.69647">
        <ele>617.79998779297</ele>
        <time>2013-05-04T10:24:39.000Z</time>
      </trkpt>
      <trkpt lat="43.64286" lon="5.69645">
        <ele>618.40002441406</ele>
        <time>2013-05-04T10:24:40.000Z</time>
      </trkpt>
      <trkpt lat="43.64288" lon="5.69642">
        <ele>617.79998779297</ele>
        <time>2013-05-04T10:24:41.000Z</time>
      </trkpt>
      <trkpt lat="43.64291" lon="5.69637">
        <ele>617.20001220703</ele>
        <time>2013-05-04T10:24:42.000Z</time>
      </trkpt>
      <trkpt lat="43.64295" lon="5.69634">
        <ele>617.20001220703</ele>
        <time>2013-05-04T10:24:43.000Z</time>
      </trkpt>
      <trkpt lat="43.64298" lon="5.6963">
        <ele>617</ele>
        <time>2013-05-04T10:24:44.000Z</time>
      </trkpt>
      <trkpt lat="43.643" lon="5.69625">
        <ele>616.20001220703</ele>
        <time>2013-05-04T10:24:45.000Z</time>
      </trkpt>
      <trkpt lat="43.64302" lon="5.69621">
        <ele>615.40002441406</ele>
        <time>2013-05-04T10:24:46.000Z</time>
      </trkpt>
      <trkpt lat="43.64304" lon="5.69617">
        <ele>614.79998779297</ele>
        <time>2013-05-04T10:24:47.000Z</time>
      </trkpt>
      <trkpt lat="43.64309" lon="5.69607">
        <ele>613.20001220703</ele>
        <time>2013-05-04T10:24:51.000Z</time>
      </trkpt>
      <trkpt lat="43.64309" lon="5.69602">
        <ele>611.79998779297</ele>
        <time>2013-05-04T10:24:59.000Z</time>
      </trkpt>
      <trkpt lat="43.64309" lon="5.69601">
        <ele>611.59997558594</ele>
        <time>2013-05-04T10:25:00.000Z</time>
      </trkpt>
      <trkpt lat="43.64312" lon="5.69597">
        <ele>611.20001220703</ele>
        <time>2013-05-04T10:25:09.000Z</time>
      </trkpt>
      <trkpt lat="43.64312" lon="5.69593">
        <ele>609.79998779297</ele>
        <time>2013-05-04T10:25:12.000Z</time>
      </trkpt>
      <trkpt lat="43.64311" lon="5.69592">
        <ele>609</ele>
        <time>2013-05-04T10:25:13.000Z</time>
      </trkpt>
      <trkpt lat="43.64311" lon="5.6959">
        <ele>608.59997558594</ele>
        <time>2013-05-04T10:25:14.000Z</time>
      </trkpt>
      <trkpt lat="43.64314" lon="5.69586">
        <ele>608.40002441406</ele>
        <time>2013-05-04T10:25:18.000Z</time>
      </trkpt>
      <trkpt lat="43.64316" lon="5.69585">
        <ele>608.79998779297</ele>
        <time>2013-05-04T10:25:19.000Z</time>
      </trkpt>
      <trkpt lat="43.64318" lon="5.69584">
        <ele>609.20001220703</ele>
        <time>2013-05-04T10:25:20.000Z</time>
      </trkpt>
      <trkpt lat="43.6432" lon="5.69582">
        <ele>609.40002441406</ele>
        <time>2013-05-04T10:25:21.000Z</time>
      </trkpt>
      <trkpt lat="43.64322" lon="5.6958">
        <ele>609.59997558594</ele>
        <time>2013-05-04T10:25:22.000Z</time>
      </trkpt>
      <trkpt lat="43.64325" lon="5.69572">
        <ele>607.79998779297</ele>
        <time>2013-05-04T10:25:26.000Z</time>
      </trkpt>
      <trkpt lat="43.64326" lon="5.69569">
        <ele>607</ele>
        <time>2013-05-04T10:25:27.000Z</time>
      </trkpt>
      <trkpt lat="43.64327" lon="5.69566">
        <ele>606.40002441406</ele>
        <time>2013-05-04T10:25:28.000Z</time>
      </trkpt>
      <trkpt lat="43.64328" lon="5.69562">
        <ele>605.40002441406</ele>
        <time>2013-05-04T10:25:29.000Z</time>
      </trkpt>
      <trkpt lat="43.64329" lon="5.69558">
        <ele>604.59997558594</ele>
        <time>2013-05-04T10:25:30.000Z</time>
      </trkpt>
      <trkpt lat="43.64331" lon="5.69555">
        <ele>604.20001220703</ele>
        <time>2013-05-04T10:25:31.000Z</time>
      </trkpt>
      <trkpt lat="43.64336" lon="5.69545">
        <ele>602.79998779297</ele>
        <time>2013-05-04T10:25:34.000Z</time>
      </trkpt>
      <trkpt lat="43.64338" lon="5.69543">
        <ele>602.79998779297</ele>
        <time>2013-05-04T10:25:35.000Z</time>
      </trkpt>
      <trkpt lat="43.6434" lon="5.69536">
        <ele>601.59997558594</ele>
        <time>2013-05-04T10:25:37.000Z</time>
      </trkpt>
      <trkpt lat="43.64343" lon="5.69529">
        <ele>600.40002441406</ele>
        <time>2013-05-04T10:25:39.000Z</time>
      </trkpt>
      <trkpt lat="43.64347" lon="5.69517">
        <ele>598.40002441406</ele>
        <time>2013-05-04T10:25:42.000Z</time>
      </trkpt>
      <trkpt lat="43.64353" lon="5.69498">
        <ele>594.79998779297</ele>
        <time>2013-05-04T10:25:46.000Z</time>
      </trkpt>
      <trkpt lat="43.64355" lon="5.69488">
        <ele>592.59997558594</ele>
        <time>2013-05-04T10:25:48.000Z</time>
      </trkpt>
      <trkpt lat="43.64356" lon="5.69475">
        <ele>588.59997558594</ele>
        <time>2013-05-04T10:25:51.000Z</time>
      </trkpt>
      <trkpt lat="43.64356" lon="5.69457">
        <ele>583</ele>
        <time>2013-05-04T10:25:55.000Z</time>
      </trkpt>
      <trkpt lat="43.64355" lon="5.6944">
        <ele>576.59997558594</ele>
        <time>2013-05-04T10:25:59.000Z</time>
      </trkpt>
      <trkpt lat="43.64355" lon="5.69435">
        <ele>575</ele>
        <time>2013-05-04T10:26:00.000Z</time>
      </trkpt>
      <trkpt lat="43.64356" lon="5.6943">
        <ele>573.79998779297</ele>
        <time>2013-05-04T10:26:01.000Z</time>
      </trkpt>
      <trkpt lat="43.64358" lon="5.69426">
        <ele>573.20001220703</ele>
        <time>2013-05-04T10:26:02.000Z</time>
      </trkpt>
      <trkpt lat="43.64363" lon="5.69417">
        <ele>572.40002441406</ele>
        <time>2013-05-04T10:26:04.000Z</time>
      </trkpt>
      <trkpt lat="43.64372" lon="5.69402">
        <ele>571.59997558594</ele>
        <time>2013-05-04T10:26:07.000Z</time>
      </trkpt>
      <trkpt lat="43.64381" lon="5.69383">
        <ele>569.79998779297</ele>
        <time>2013-05-04T10:26:10.000Z</time>
      </trkpt>
      <trkpt lat="43.64385" lon="5.69377">
        <ele>569.20001220703</ele>
        <time>2013-05-04T10:26:11.000Z</time>
      </trkpt>
      <trkpt lat="43.64391" lon="5.69355">
        <ele>565.20001220703</ele>
        <time>2013-05-04T10:26:14.000Z</time>
      </trkpt>
      <trkpt lat="43.64394" lon="5.69348">
        <ele>564</ele>
        <time>2013-05-04T10:26:15.000Z</time>
      </trkpt>
      <trkpt lat="43.64399" lon="5.69333">
        <ele>561.79998779297</ele>
        <time>2013-05-04T10:26:17.000Z</time>
      </trkpt>
      <trkpt lat="43.6441" lon="5.69311">
        <ele>561</ele>
        <time>2013-05-04T10:26:21.000Z</time>
      </trkpt>
      <trkpt lat="43.64412" lon="5.69306">
        <ele>561</ele>
        <time>2013-05-04T10:26:22.000Z</time>
      </trkpt>
      <trkpt lat="43.64414" lon="5.69301">
        <ele>560.59997558594</ele>
        <time>2013-05-04T10:26:23.000Z</time>
      </trkpt>
      <trkpt lat="43.64416" lon="5.69295">
        <ele>560.20001220703</ele>
        <time>2013-05-04T10:26:24.000Z</time>
      </trkpt>
      <trkpt lat="43.64417" lon="5.6929">
        <ele>559.59997558594</ele>
        <time>2013-05-04T10:26:25.000Z</time>
      </trkpt>
      <trkpt lat="43.64419" lon="5.69284">
        <ele>559.40002441406</ele>
        <time>2013-05-04T10:26:26.000Z</time>
      </trkpt>
      <trkpt lat="43.64421" lon="5.69278">
        <ele>559</ele>
        <time>2013-05-04T10:26:27.000Z</time>
      </trkpt>
      <trkpt lat="43.64422" lon="5.69272">
        <ele>558.59997558594</ele>
        <time>2013-05-04T10:26:28.000Z</time>
      </trkpt>
      <trkpt lat="43.64425" lon="5.69267">
        <ele>559</ele>
        <time>2013-05-04T10:26:29.000Z</time>
      </trkpt>
      <trkpt lat="43.64428" lon="5.69263">
        <ele>559.40002441406</ele>
        <time>2013-05-04T10:26:30.000Z</time>
      </trkpt>
      <trkpt lat="43.6443" lon="5.69257">
        <ele>559.40002441406</ele>
        <time>2013-05-04T10:26:31.000Z</time>
      </trkpt>
      <trkpt lat="43.64431" lon="5.69251">
        <ele>558.79998779297</ele>
        <time>2013-05-04T10:26:32.000Z</time>
      </trkpt>
      <trkpt lat="43.64432" lon="5.69245">
        <ele>557.79998779297</ele>
        <time>2013-05-04T10:26:33.000Z</time>
      </trkpt>
      <trkpt lat="43.64433" lon="5.69239">
        <ele>556.59997558594</ele>
        <time>2013-05-04T10:26:34.000Z</time>
      </trkpt>
      <trkpt lat="43.64433" lon="5.69234">
        <ele>555.20001220703</ele>
        <time>2013-05-04T10:26:35.000Z</time>
      </trkpt>
      <trkpt lat="43.64434" lon="5.69229">
        <ele>554.20001220703</ele>
        <time>2013-05-04T10:26:36.000Z</time>
      </trkpt>
      <trkpt lat="43.64436" lon="5.69211">
        <ele>550.59997558594</ele>
        <time>2013-05-04T10:26:39.000Z</time>
      </trkpt>
      <trkpt lat="43.64437" lon="5.69207">
        <ele>550.20001220703</ele>
        <time>2013-05-04T10:26:40.000Z</time>
      </trkpt>
      <trkpt lat="43.64437" lon="5.69203">
        <ele>549</ele>
        <time>2013-05-04T10:26:41.000Z</time>
      </trkpt>
      <trkpt lat="43.64437" lon="5.69192">
        <ele>546</ele>
        <time>2013-05-04T10:26:43.000Z</time>
      </trkpt>
      <trkpt lat="43.64438" lon="5.69185">
        <ele>544.59997558594</ele>
        <time>2013-05-04T10:26:44.000Z</time>
      </trkpt>
      <trkpt lat="43.64438" lon="5.69179">
        <ele>543.20001220703</ele>
        <time>2013-05-04T10:26:45.000Z</time>
      </trkpt>
      <trkpt lat="43.64441" lon="5.69174">
        <ele>542.79998779297</ele>
        <time>2013-05-04T10:26:46.000Z</time>
      </trkpt>
      <trkpt lat="43.64443" lon="5.69168">
        <ele>542.79998779297</ele>
        <time>2013-05-04T10:26:47.000Z</time>
      </trkpt>
      <trkpt lat="43.64449" lon="5.69153">
        <ele>542.20001220703</ele>
        <time>2013-05-04T10:26:50.000Z</time>
      </trkpt>
      <trkpt lat="43.6445" lon="5.69148">
        <ele>541.40002441406</ele>
        <time>2013-05-04T10:26:51.000Z</time>
      </trkpt>
      <trkpt lat="43.64451" lon="5.69142">
        <ele>540.59997558594</ele>
        <time>2013-05-04T10:26:52.000Z</time>
      </trkpt>
      <trkpt lat="43.64454" lon="5.69138">
        <ele>540.79998779297</ele>
        <time>2013-05-04T10:26:53.000Z</time>
      </trkpt>
      <trkpt lat="43.64457" lon="5.69135">
        <ele>541.59997558594</ele>
        <time>2013-05-04T10:26:54.000Z</time>
      </trkpt>
      <trkpt lat="43.64459" lon="5.69133">
        <ele>542</ele>
        <time>2013-05-04T10:26:55.000Z</time>
      </trkpt>
      <trkpt lat="43.6446" lon="5.69129">
        <ele>542</ele>
        <time>2013-05-04T10:26:56.000Z</time>
      </trkpt>
      <trkpt lat="43.64462" lon="5.69124">
        <ele>541.79998779297</ele>
        <time>2013-05-04T10:26:57.000Z</time>
      </trkpt>
      <trkpt lat="43.64464" lon="5.69121">
        <ele>542.20001220703</ele>
        <time>2013-05-04T10:26:58.000Z</time>
      </trkpt>
      <trkpt lat="43.64467" lon="5.69117">
        <ele>542.79998779297</ele>
        <time>2013-05-04T10:26:59.000Z</time>
      </trkpt>
      <trkpt lat="43.64469" lon="5.69114">
        <ele>543</ele>
        <time>2013-05-04T10:27:00.000Z</time>
      </trkpt>
      <trkpt lat="43.64473" lon="5.69106">
        <ele>543</ele>
        <time>2013-05-04T10:27:03.000Z</time>
      </trkpt>
      <trkpt lat="43.64473" lon="5.69102">
        <ele>542</ele>
        <time>2013-05-04T10:27:04.000Z</time>
      </trkpt>
      <trkpt lat="43.64473" lon="5.69098">
        <ele>541.59997558594</ele>
        <time>2013-05-04T10:27:05.000Z</time>
      </trkpt>
      <trkpt lat="43.64477" lon="5.69088">
        <ele>541.20001220703</ele>
        <time>2013-05-04T10:27:07.000Z</time>
      </trkpt>
      <trkpt lat="43.6448" lon="5.69084">
        <ele>541.79998779297</ele>
        <time>2013-05-04T10:27:08.000Z</time>
      </trkpt>
      <trkpt lat="43.64483" lon="5.69081">
        <ele>542.40002441406</ele>
        <time>2013-05-04T10:27:09.000Z</time>
      </trkpt>
      <trkpt lat="43.64485" lon="5.69078">
        <ele>542.40002441406</ele>
        <time>2013-05-04T10:27:10.000Z</time>
      </trkpt>
      <trkpt lat="43.64486" lon="5.69075">
        <ele>542.20001220703</ele>
        <time>2013-05-04T10:27:11.000Z</time>
      </trkpt>
      <trkpt lat="43.64487" lon="5.69072">
        <ele>541.59997558594</ele>
        <time>2013-05-04T10:27:12.000Z</time>
      </trkpt>
      <trkpt lat="43.64487" lon="5.69068">
        <ele>541</ele>
        <time>2013-05-04T10:27:13.000Z</time>
      </trkpt>
      <trkpt lat="43.64488" lon="5.69065">
        <ele>539.79998779297</ele>
        <time>2013-05-04T10:27:14.000Z</time>
      </trkpt>
      <trkpt lat="43.64488" lon="5.69054">
        <ele>537.20001220703</ele>
        <time>2013-05-04T10:27:16.000Z</time>
      </trkpt>
      <trkpt lat="43.6449" lon="5.69035">
        <ele>532.20001220703</ele>
        <time>2013-05-04T10:27:19.000Z</time>
      </trkpt>
      <trkpt lat="43.64492" lon="5.69018">
        <ele>527.79998779297</ele>
        <time>2013-05-04T10:27:24.000Z</time>
      </trkpt>
      <trkpt lat="43.64492" lon="5.69007">
        <ele>524.59997558594</ele>
        <time>2013-05-04T10:27:26.000Z</time>
      </trkpt>
      <trkpt lat="43.64492" lon="5.69">
        <ele>522.59997558594</ele>
        <time>2013-05-04T10:27:27.000Z</time>
      </trkpt>
      <trkpt lat="43.64492" lon="5.68995">
        <ele>521.59997558594</ele>
        <time>2013-05-04T10:27:28.000Z</time>
      </trkpt>
      <trkpt lat="43.64493" lon="5.68991">
        <ele>521.20001220703</ele>
        <time>2013-05-04T10:27:29.000Z</time>
      </trkpt>
      <trkpt lat="43.64494" lon="5.68985">
        <ele>520.40002441406</ele>
        <time>2013-05-04T10:27:30.000Z</time>
      </trkpt>
      <trkpt lat="43.64496" lon="5.68979">
        <ele>519.79998779297</ele>
        <time>2013-05-04T10:27:31.000Z</time>
      </trkpt>
      <trkpt lat="43.64497" lon="5.68973">
        <ele>519.20001220703</ele>
        <time>2013-05-04T10:27:32.000Z</time>
      </trkpt>
      <trkpt lat="43.64498" lon="5.68967">
        <ele>518.20001220703</ele>
        <time>2013-05-04T10:27:33.000Z</time>
      </trkpt>
      <trkpt lat="43.64498" lon="5.68962">
        <ele>517.20001220703</ele>
        <time>2013-05-04T10:27:34.000Z</time>
      </trkpt>
      <trkpt lat="43.645" lon="5.68958">
        <ele>517</ele>
        <time>2013-05-04T10:27:35.000Z</time>
      </trkpt>
      <trkpt lat="43.64502" lon="5.68953">
        <ele>517.20001220703</ele>
        <time>2013-05-04T10:27:36.000Z</time>
      </trkpt>
      <trkpt lat="43.64504" lon="5.68948">
        <ele>517.20001220703</ele>
        <time>2013-05-04T10:27:37.000Z</time>
      </trkpt>
      <trkpt lat="43.64506" lon="5.68942">
        <ele>516.79998779297</ele>
        <time>2013-05-04T10:27:38.000Z</time>
      </trkpt>
      <trkpt lat="43.64516" lon="5.68911">
        <ele>514.59997558594</ele>
        <time>2013-05-04T10:27:43.000Z</time>
      </trkpt>
      <trkpt lat="43.64519" lon="5.68904">
        <ele>514.40002441406</ele>
        <time>2013-05-04T10:27:44.000Z</time>
      </trkpt>
      <trkpt lat="43.64521" lon="5.68897">
        <ele>514.20001220703</ele>
        <time>2013-05-04T10:27:45.000Z</time>
      </trkpt>
      <trkpt lat="43.64526" lon="5.68881">
        <ele>513.40002441406</ele>
        <time>2013-05-04T10:27:47.000Z</time>
      </trkpt>
      <trkpt lat="43.64534" lon="5.68859">
        <ele>512.59997558594</ele>
        <time>2013-05-04T10:27:50.000Z</time>
      </trkpt>
      <trkpt lat="43.64536" lon="5.68852">
        <ele>512</ele>
        <time>2013-05-04T10:27:51.000Z</time>
      </trkpt>
      <trkpt lat="43.64537" lon="5.68845">
        <ele>511.20001220703</ele>
        <time>2013-05-04T10:27:52.000Z</time>
      </trkpt>
      <trkpt lat="43.64537" lon="5.68838">
        <ele>510.20001220703</ele>
        <time>2013-05-04T10:27:53.000Z</time>
      </trkpt>
      <trkpt lat="43.6454" lon="5.68831">
        <ele>509.79998779297</ele>
        <time>2013-05-04T10:27:54.000Z</time>
      </trkpt>
      <trkpt lat="43.64543" lon="5.68824">
        <ele>509.79998779297</ele>
        <time>2013-05-04T10:27:55.000Z</time>
      </trkpt>
      <trkpt lat="43.64546" lon="5.68817">
        <ele>510</ele>
        <time>2013-05-04T10:27:56.000Z</time>
      </trkpt>
      <trkpt lat="43.6455" lon="5.6881">
        <ele>510</ele>
        <time>2013-05-04T10:27:57.000Z</time>
      </trkpt>
      <trkpt lat="43.64553" lon="5.68802">
        <ele>510</ele>
        <time>2013-05-04T10:27:58.000Z</time>
      </trkpt>
      <trkpt lat="43.64559" lon="5.68789">
        <ele>510.20001220703</ele>
        <time>2013-05-04T10:28:00.000Z</time>
      </trkpt>
      <trkpt lat="43.64583" lon="5.68725">
        <ele>507.79998779297</ele>
        <time>2013-05-04T10:28:08.000Z</time>
      </trkpt>
      <trkpt lat="43.6459" lon="5.6871">
        <ele>507.79998779297</ele>
        <time>2013-05-04T10:28:10.000Z</time>
      </trkpt>
      <trkpt lat="43.64597" lon="5.68697">
        <ele>508</ele>
        <time>2013-05-04T10:28:12.000Z</time>
      </trkpt>
      <trkpt lat="43.64603" lon="5.68683">
        <ele>507.39999389648</ele>
        <time>2013-05-04T10:28:14.000Z</time>
      </trkpt>
      <trkpt lat="43.64609" lon="5.68669">
        <ele>506.79998779297</ele>
        <time>2013-05-04T10:28:16.000Z</time>
      </trkpt>
      <trkpt lat="43.64611" lon="5.68662">
        <ele>506.20001220703</ele>
        <time>2013-05-04T10:28:17.000Z</time>
      </trkpt>
      <trkpt lat="43.64615" lon="5.68655">
        <ele>506.20001220703</ele>
        <time>2013-05-04T10:28:18.000Z</time>
      </trkpt>
      <trkpt lat="43.64631" lon="5.68628">
        <ele>505.60000610352</ele>
        <time>2013-05-04T10:28:22.000Z</time>
      </trkpt>
      <trkpt lat="43.64644" lon="5.68602">
        <ele>503</ele>
        <time>2013-05-04T10:28:25.000Z</time>
      </trkpt>
      <trkpt lat="43.64652" lon="5.68588">
        <ele>501.39999389648</ele>
        <time>2013-05-04T10:28:27.000Z</time>
      </trkpt>
      <trkpt lat="43.64655" lon="5.68581">
        <ele>500.20001220703</ele>
        <time>2013-05-04T10:28:28.000Z</time>
      </trkpt>
      <trkpt lat="43.64658" lon="5.68573">
        <ele>498.79998779297</ele>
        <time>2013-05-04T10:28:29.000Z</time>
      </trkpt>
      <trkpt lat="43.64666" lon="5.68551">
        <ele>494.60000610352</ele>
        <time>2013-05-04T10:28:32.000Z</time>
      </trkpt>
      <trkpt lat="43.6467" lon="5.68544">
        <ele>493.39999389648</ele>
        <time>2013-05-04T10:28:34.000Z</time>
      </trkpt>
      <trkpt lat="43.64669" lon="5.68542">
        <ele>492.60000610352</ele>
        <time>2013-05-04T10:28:35.000Z</time>
      </trkpt>
      <trkpt lat="43.64667" lon="5.68541">
        <ele>492</ele>
        <time>2013-05-04T10:28:36.000Z</time>
      </trkpt>
      <trkpt lat="43.64665" lon="5.68542">
        <ele>491.79998779297</ele>
        <time>2013-05-04T10:28:37.000Z</time>
      </trkpt>
      <trkpt lat="43.64662" lon="5.68544">
        <ele>491.60000610352</ele>
        <time>2013-05-04T10:28:38.000Z</time>
      </trkpt>
      <trkpt lat="43.64659" lon="5.68546">
        <ele>491.60000610352</ele>
        <time>2013-05-04T10:28:39.000Z</time>
      </trkpt>
      <trkpt lat="43.64655" lon="5.68547">
        <ele>490.79998779297</ele>
        <time>2013-05-04T10:28:40.000Z</time>
      </trkpt>
      <trkpt lat="43.6465" lon="5.68547">
        <ele>490</ele>
        <time>2013-05-04T10:28:41.000Z</time>
      </trkpt>
      <trkpt lat="43.64645" lon="5.68548">
        <ele>489.20001220703</ele>
        <time>2013-05-04T10:28:42.000Z</time>
      </trkpt>
      <trkpt lat="43.64638" lon="5.6855">
        <ele>488.39999389648</ele>
        <time>2013-05-04T10:28:43.000Z</time>
      </trkpt>
      <trkpt lat="43.64632" lon="5.68554">
        <ele>487.79998779297</ele>
        <time>2013-05-04T10:28:44.000Z</time>
      </trkpt>
      <trkpt lat="43.64627" lon="5.68558">
        <ele>487.79998779297</ele>
        <time>2013-05-04T10:28:45.000Z</time>
      </trkpt>
      <trkpt lat="43.64622" lon="5.68563">
        <ele>487.79998779297</ele>
        <time>2013-05-04T10:28:46.000Z</time>
      </trkpt>
      <trkpt lat="43.64617" lon="5.68567">
        <ele>487.39999389648</ele>
        <time>2013-05-04T10:28:47.000Z</time>
      </trkpt>
      <trkpt lat="43.64611" lon="5.68567">
        <ele>486.39999389648</ele>
        <time>2013-05-04T10:28:48.000Z</time>
      </trkpt>
      <trkpt lat="43.64606" lon="5.68566">
        <ele>485</ele>
        <time>2013-05-04T10:28:49.000Z</time>
      </trkpt>
      <trkpt lat="43.64601" lon="5.68565">
        <ele>483.60000610352</ele>
        <time>2013-05-04T10:28:50.000Z</time>
      </trkpt>
      <trkpt lat="43.64596" lon="5.68565">
        <ele>482.20001220703</ele>
        <time>2013-05-04T10:28:51.000Z</time>
      </trkpt>
      <trkpt lat="43.64591" lon="5.68565">
        <ele>481</ele>
        <time>2013-05-04T10:28:52.000Z</time>
      </trkpt>
      <trkpt lat="43.64587" lon="5.68564">
        <ele>480.20001220703</ele>
        <time>2013-05-04T10:28:53.000Z</time>
      </trkpt>
      <trkpt lat="43.64585" lon="5.68562">
        <ele>479.20001220703</ele>
        <time>2013-05-04T10:28:54.000Z</time>
      </trkpt>
      <trkpt lat="43.64583" lon="5.6856">
        <ele>478.39999389648</ele>
        <time>2013-05-04T10:28:55.000Z</time>
      </trkpt>
      <trkpt lat="43.64583" lon="5.68557">
        <ele>477.79998779297</ele>
        <time>2013-05-04T10:28:56.000Z</time>
      </trkpt>
      <trkpt lat="43.64585" lon="5.68552">
        <ele>477.39999389648</ele>
        <time>2013-05-04T10:28:57.000Z</time>
      </trkpt>
      <trkpt lat="43.64587" lon="5.68547">
        <ele>476.79998779297</ele>
        <time>2013-05-04T10:28:58.000Z</time>
      </trkpt>
      <trkpt lat="43.6459" lon="5.68542">
        <ele>476.39999389648</ele>
        <time>2013-05-04T10:28:59.000Z</time>
      </trkpt>
      <trkpt lat="43.64594" lon="5.68537">
        <ele>476.20001220703</ele>
        <time>2013-05-04T10:29:00.000Z</time>
      </trkpt>
      <trkpt lat="43.64597" lon="5.68533">
        <ele>475.79998779297</ele>
        <time>2013-05-04T10:29:01.000Z</time>
      </trkpt>
      <trkpt lat="43.64599" lon="5.68527">
        <ele>474.79998779297</ele>
        <time>2013-05-04T10:29:02.000Z</time>
      </trkpt>
      <trkpt lat="43.646" lon="5.68519">
        <ele>473.60000610352</ele>
        <time>2013-05-04T10:29:03.000Z</time>
      </trkpt>
      <trkpt lat="43.64602" lon="5.68512">
        <ele>472.39999389648</ele>
        <time>2013-05-04T10:29:04.000Z</time>
      </trkpt>
      <trkpt lat="43.64603" lon="5.68506">
        <ele>471.20001220703</ele>
        <time>2013-05-04T10:29:05.000Z</time>
      </trkpt>
      <trkpt lat="43.64603" lon="5.68501">
        <ele>470.20001220703</ele>
        <time>2013-05-04T10:29:06.000Z</time>
      </trkpt>
      <trkpt lat="43.64602" lon="5.68497">
        <ele>469.20001220703</ele>
        <time>2013-05-04T10:29:07.000Z</time>
      </trkpt>
      <trkpt lat="43.646" lon="5.68495">
        <ele>468.60000610352</ele>
        <time>2013-05-04T10:29:08.000Z</time>
      </trkpt>
      <trkpt lat="43.64597" lon="5.68494">
        <ele>468</ele>
        <time>2013-05-04T10:29:09.000Z</time>
      </trkpt>
      <trkpt lat="43.64595" lon="5.68491">
        <ele>467</ele>
        <time>2013-05-04T10:29:10.000Z</time>
      </trkpt>
      <trkpt lat="43.64593" lon="5.68486">
        <ele>465.79998779297</ele>
        <time>2013-05-04T10:29:11.000Z</time>
      </trkpt>
      <trkpt lat="43.64592" lon="5.6848">
        <ele>464.60000610352</ele>
        <time>2013-05-04T10:29:12.000Z</time>
      </trkpt>
      <trkpt lat="43.6459" lon="5.68475">
        <ele>463.39999389648</ele>
        <time>2013-05-04T10:29:13.000Z</time>
      </trkpt>
      <trkpt lat="43.6459" lon="5.6847">
        <ele>462.60000610352</ele>
        <time>2013-05-04T10:29:14.000Z</time>
      </trkpt>
      <trkpt lat="43.64592" lon="5.68465">
        <ele>461.79998779297</ele>
        <time>2013-05-04T10:29:15.000Z</time>
      </trkpt>
      <trkpt lat="43.64593" lon="5.6846">
        <ele>461</ele>
        <time>2013-05-04T10:29:16.000Z</time>
      </trkpt>
      <trkpt lat="43.64593" lon="5.68454">
        <ele>460</ele>
        <time>2013-05-04T10:29:17.000Z</time>
      </trkpt>
      <trkpt lat="43.64593" lon="5.68449">
        <ele>459</ele>
        <time>2013-05-04T10:29:18.000Z</time>
      </trkpt>
      <trkpt lat="43.64593" lon="5.68438">
        <ele>457</ele>
        <time>2013-05-04T10:29:20.000Z</time>
      </trkpt>
      <trkpt lat="43.64592" lon="5.68432">
        <ele>455.79998779297</ele>
        <time>2013-05-04T10:29:21.000Z</time>
      </trkpt>
      <trkpt lat="43.64591" lon="5.68427">
        <ele>454.60000610352</ele>
        <time>2013-05-04T10:29:22.000Z</time>
      </trkpt>
      <trkpt lat="43.6459" lon="5.6842">
        <ele>453.20001220703</ele>
        <time>2013-05-04T10:29:23.000Z</time>
      </trkpt>
      <trkpt lat="43.64588" lon="5.68414">
        <ele>452.20001220703</ele>
        <time>2013-05-04T10:29:24.000Z</time>
      </trkpt>
      <trkpt lat="43.64586" lon="5.68408">
        <ele>451.20001220703</ele>
        <time>2013-05-04T10:29:25.000Z</time>
      </trkpt>
      <trkpt lat="43.64583" lon="5.68402">
        <ele>450.39999389648</ele>
        <time>2013-05-04T10:29:26.000Z</time>
      </trkpt>
      <trkpt lat="43.64581" lon="5.68396">
        <ele>449.39999389648</ele>
        <time>2013-05-04T10:29:27.000Z</time>
      </trkpt>
      <trkpt lat="43.64575" lon="5.68382">
        <ele>447.60000610352</ele>
        <time>2013-05-04T10:29:29.000Z</time>
      </trkpt>
      <trkpt lat="43.64573" lon="5.68374">
        <ele>446.60000610352</ele>
        <time>2013-05-04T10:29:30.000Z</time>
      </trkpt>
      <trkpt lat="43.64571" lon="5.68367">
        <ele>445.79998779297</ele>
        <time>2013-05-04T10:29:31.000Z</time>
      </trkpt>
      <trkpt lat="43.64571" lon="5.6836">
        <ele>445</ele>
        <time>2013-05-04T10:29:32.000Z</time>
      </trkpt>
      <trkpt lat="43.64569" lon="5.68337">
        <ele>442.39999389648</ele>
        <time>2013-05-04T10:29:35.000Z</time>
      </trkpt>
      <trkpt lat="43.64569" lon="5.6833">
        <ele>441.60000610352</ele>
        <time>2013-05-04T10:29:36.000Z</time>
      </trkpt>
      <trkpt lat="43.6457" lon="5.68321">
        <ele>440.79998779297</ele>
        <time>2013-05-04T10:29:37.000Z</time>
      </trkpt>
      <trkpt lat="43.64575" lon="5.68294">
        <ele>437.79998779297</ele>
        <time>2013-05-04T10:29:40.000Z</time>
      </trkpt>
      <trkpt lat="43.64578" lon="5.68275">
        <ele>435.60000610352</ele>
        <time>2013-05-04T10:29:42.000Z</time>
      </trkpt>
      <trkpt lat="43.64579" lon="5.68244">
        <ele>432.39999389648</ele>
        <time>2013-05-04T10:29:45.000Z</time>
      </trkpt>
      <trkpt lat="43.6458" lon="5.68222">
        <ele>430.79998779297</ele>
        <time>2013-05-04T10:29:47.000Z</time>
      </trkpt>
      <trkpt lat="43.64583" lon="5.68189">
        <ele>428.39999389648</ele>
        <time>2013-05-04T10:29:50.000Z</time>
      </trkpt>
      <trkpt lat="43.64584" lon="5.68166">
        <ele>426.79998779297</ele>
        <time>2013-05-04T10:29:52.000Z</time>
      </trkpt>
      <trkpt lat="43.64585" lon="5.68154">
        <ele>426.20001220703</ele>
        <time>2013-05-04T10:29:53.000Z</time>
      </trkpt>
      <trkpt lat="43.64587" lon="5.68142">
        <ele>425.39999389648</ele>
        <time>2013-05-04T10:29:54.000Z</time>
      </trkpt>
      <trkpt lat="43.64589" lon="5.68106">
        <ele>423.20001220703</ele>
        <time>2013-05-04T10:29:57.000Z</time>
      </trkpt>
      <trkpt lat="43.6459" lon="5.68095">
        <ele>422.39999389648</ele>
        <time>2013-05-04T10:29:58.000Z</time>
      </trkpt>
      <trkpt lat="43.64591" lon="5.68086">
        <ele>421.79998779297</ele>
        <time>2013-05-04T10:29:59.000Z</time>
      </trkpt>
      <trkpt lat="43.64593" lon="5.68078">
        <ele>421.20001220703</ele>
        <time>2013-05-04T10:30:00.000Z</time>
      </trkpt>
      <trkpt lat="43.64593" lon="5.68069">
        <ele>420.60000610352</ele>
        <time>2013-05-04T10:30:01.000Z</time>
      </trkpt>
      <trkpt lat="43.64592" lon="5.6806">
        <ele>420</ele>
        <time>2013-05-04T10:30:02.000Z</time>
      </trkpt>
      <trkpt lat="43.64589" lon="5.68052">
        <ele>419.39999389648</ele>
        <time>2013-05-04T10:30:03.000Z</time>
      </trkpt>
      <trkpt lat="43.64586" lon="5.68043">
        <ele>419</ele>
        <time>2013-05-04T10:30:04.000Z</time>
      </trkpt>
      <trkpt lat="43.64583" lon="5.68036">
        <ele>418.39999389648</ele>
        <time>2013-05-04T10:30:05.000Z</time>
      </trkpt>
      <trkpt lat="43.6458" lon="5.68032">
        <ele>418.20001220703</ele>
        <time>2013-05-04T10:30:06.000Z</time>
      </trkpt>
      <trkpt lat="43.64577" lon="5.68029">
        <ele>418</ele>
        <time>2013-05-04T10:30:07.000Z</time>
      </trkpt>
      <trkpt lat="43.64575" lon="5.68027">
        <ele>417.79998779297</ele>
        <time>2013-05-04T10:30:08.000Z</time>
      </trkpt>
      <trkpt lat="43.64574" lon="5.68024">
        <ele>417.60000610352</ele>
        <time>2013-05-04T10:30:09.000Z</time>
      </trkpt>
      <trkpt lat="43.64573" lon="5.68024">
        <ele>417.60000610352</ele>
        <time>2013-05-04T10:30:16.000Z</time>
      </trkpt>
      <trkpt lat="43.64574" lon="5.68025">
        <ele>417.60000610352</ele>
        <time>2013-05-04T10:30:28.000Z</time>
      </trkpt>
      <trkpt lat="43.64574" lon="5.68024">
        <ele>417.60000610352</ele>
        <time>2013-05-04T10:30:40.000Z</time>
      </trkpt>
      <trkpt lat="43.64573" lon="5.68023">
        <ele>417.60000610352</ele>
        <time>2013-05-04T10:30:57.000Z</time>
      </trkpt>
      <trkpt lat="43.64572" lon="5.68022">
        <ele>417.39999389648</ele>
        <time>2013-05-04T10:31:13.000Z</time>
      </trkpt>
      <trkpt lat="43.64572" lon="5.68023">
        <ele>417.60000610352</ele>
        <time>2013-05-04T10:31:29.000Z</time>
      </trkpt>
      <trkpt lat="43.64573" lon="5.68024">
        <ele>417.60000610352</ele>
        <time>2013-05-04T10:31:50.000Z</time>
      </trkpt>
      <trkpt lat="43.64573" lon="5.68024">
        <ele>417.60000610352</ele>
        <time>2013-05-04T10:32:07.000Z</time>
      </trkpt>
      <trkpt lat="43.64573" lon="5.68026">
        <ele>417.79998779297</ele>
        <time>2013-05-04T10:32:21.000Z</time>
      </trkpt>
      <trkpt lat="43.64574" lon="5.68025">
        <ele>417.60000610352</ele>
        <time>2013-05-04T10:32:38.000Z</time>
      </trkpt>
      <trkpt lat="43.64574" lon="5.68025">
        <ele>417.60000610352</ele>
        <time>2013-05-04T10:32:50.000Z</time>
      </trkpt>
      <trkpt lat="43.64574" lon="5.68025">
        <ele>417.60000610352</ele>
        <time>2013-05-04T10:33:08.000Z</time>
      </trkpt>
      <trkpt lat="43.64575" lon="5.68026">
        <ele>417.79998779297</ele>
        <time>2013-05-04T10:33:27.000Z</time>
      </trkpt>
      <trkpt lat="43.64575" lon="5.68025">
        <ele>417.60000610352</ele>
        <time>2013-05-04T10:33:49.000Z</time>
      </trkpt>
      <trkpt lat="43.64574" lon="5.68024">
        <ele>417.60000610352</ele>
        <time>2013-05-04T10:34:06.000Z</time>
      </trkpt>
      <trkpt lat="43.64573" lon="5.68024">
        <ele>417.60000610352</ele>
        <time>2013-05-04T10:34:23.000Z</time>
      </trkpt>
      <trkpt lat="43.64574" lon="5.68025">
        <ele>417.60000610352</ele>
        <time>2013-05-04T10:34:41.000Z</time>
      </trkpt>
      <trkpt lat="43.64574" lon="5.68022">
        <ele>417.39999389648</ele>
        <time>2013-05-04T10:34:54.000Z</time>
      </trkpt>
      <trkpt lat="43.64575" lon="5.6802">
        <ele>417.20001220703</ele>
        <time>2013-05-04T10:34:55.000Z</time>
      </trkpt>
      <trkpt lat="43.64575" lon="5.68017">
        <ele>417.20001220703</ele>
        <time>2013-05-04T10:34:56.000Z</time>
      </trkpt>
      <trkpt lat="43.64571" lon="5.67988">
        <ele>414.60000610352</ele>
        <time>2013-05-04T10:35:02.000Z</time>
      </trkpt>
      <trkpt lat="43.64566" lon="5.67967">
        <ele>412.60000610352</ele>
        <time>2013-05-04T10:35:05.000Z</time>
      </trkpt>
      <trkpt lat="43.64557" lon="5.67916">
        <ele>407.60000610352</ele>
        <time>2013-05-04T10:35:11.000Z</time>
      </trkpt>
      <trkpt lat="43.64555" lon="5.67906">
        <ele>407.39999389648</ele>
        <time>2013-05-04T10:35:12.000Z</time>
      </trkpt>
      <trkpt lat="43.64546" lon="5.67838">
        <ele>405.20001220703</ele>
        <time>2013-05-04T10:35:19.000Z</time>
      </trkpt>
      <trkpt lat="43.64554" lon="5.67768">
        <ele>402.60000610352</ele>
        <time>2013-05-04T10:35:26.000Z</time>
      </trkpt>
      <trkpt lat="43.64574" lon="5.67689">
        <ele>400</ele>
        <time>2013-05-04T10:35:34.000Z</time>
      </trkpt>
      <trkpt lat="43.64576" lon="5.67668">
        <ele>399</ele>
        <time>2013-05-04T10:35:36.000Z</time>
      </trkpt>
      <trkpt lat="43.64576" lon="5.67658">
        <ele>398.79998779297</ele>
        <time>2013-05-04T10:35:37.000Z</time>
      </trkpt>
      <trkpt lat="43.64575" lon="5.67647">
        <ele>398.60000610352</ele>
        <time>2013-05-04T10:35:38.000Z</time>
      </trkpt>
      <trkpt lat="43.64572" lon="5.67615">
        <ele>397.79998779297</ele>
        <time>2013-05-04T10:35:41.000Z</time>
      </trkpt>
      <trkpt lat="43.64569" lon="5.67605">
        <ele>397.60000610352</ele>
        <time>2013-05-04T10:35:42.000Z</time>
      </trkpt>
      <trkpt lat="43.64565" lon="5.67596">
        <ele>397.39999389648</ele>
        <time>2013-05-04T10:35:43.000Z</time>
      </trkpt>
      <trkpt lat="43.64553" lon="5.67569">
        <ele>396.60000610352</ele>
        <time>2013-05-04T10:35:46.000Z</time>
      </trkpt>
      <trkpt lat="43.64546" lon="5.6755">
        <ele>396</ele>
        <time>2013-05-04T10:35:48.000Z</time>
      </trkpt>
      <trkpt lat="43.64535" lon="5.67513">
        <ele>394.60000610352</ele>
        <time>2013-05-04T10:35:52.000Z</time>
      </trkpt>
      <trkpt lat="43.64524" lon="5.6742">
        <ele>388.79998779297</ele>
        <time>2013-05-04T10:36:01.000Z</time>
      </trkpt>
      <trkpt lat="43.64523" lon="5.67382">
        <ele>386.79998779297</ele>
        <time>2013-05-04T10:36:04.000Z</time>
      </trkpt>
      <trkpt lat="43.64522" lon="5.67344">
        <ele>385</ele>
        <time>2013-05-04T10:36:07.000Z</time>
      </trkpt>
      <trkpt lat="43.64519" lon="5.67332">
        <ele>384.20001220703</ele>
        <time>2013-05-04T10:36:08.000Z</time>
      </trkpt>
      <trkpt lat="43.64513" lon="5.6731">
        <ele>383</ele>
        <time>2013-05-04T10:36:10.000Z</time>
      </trkpt>
      <trkpt lat="43.64511" lon="5.67298">
        <ele>382.20001220703</ele>
        <time>2013-05-04T10:36:11.000Z</time>
      </trkpt>
      <trkpt lat="43.6451" lon="5.67286">
        <ele>381.60000610352</ele>
        <time>2013-05-04T10:36:12.000Z</time>
      </trkpt>
      <trkpt lat="43.64511" lon="5.67275">
        <ele>381</ele>
        <time>2013-05-04T10:36:13.000Z</time>
      </trkpt>
      <trkpt lat="43.64512" lon="5.67265">
        <ele>380.39999389648</ele>
        <time>2013-05-04T10:36:14.000Z</time>
      </trkpt>
      <trkpt lat="43.64515" lon="5.67256">
        <ele>380.20001220703</ele>
        <time>2013-05-04T10:36:15.000Z</time>
      </trkpt>
      <trkpt lat="43.64517" lon="5.67248">
        <ele>379.79998779297</ele>
        <time>2013-05-04T10:36:16.000Z</time>
      </trkpt>
      <trkpt lat="43.6452" lon="5.6724">
        <ele>379.39999389648</ele>
        <time>2013-05-04T10:36:17.000Z</time>
      </trkpt>
      <trkpt lat="43.64531" lon="5.67207">
        <ele>378.39999389648</ele>
        <time>2013-05-04T10:36:22.000Z</time>
      </trkpt>
      <trkpt lat="43.64532" lon="5.67201">
        <ele>378.20001220703</ele>
        <time>2013-05-04T10:36:23.000Z</time>
      </trkpt>
      <trkpt lat="43.64531" lon="5.67186">
        <ele>377.20001220703</ele>
        <time>2013-05-04T10:36:26.000Z</time>
      </trkpt>
      <trkpt lat="43.64528" lon="5.67183">
        <ele>376.79998779297</ele>
        <time>2013-05-04T10:36:27.000Z</time>
      </trkpt>
      <trkpt lat="43.64526" lon="5.6718">
        <ele>376.39999389648</ele>
        <time>2013-05-04T10:36:28.000Z</time>
      </trkpt>
      <trkpt lat="43.64525" lon="5.67178">
        <ele>376.20001220703</ele>
        <time>2013-05-04T10:36:29.000Z</time>
      </trkpt>
      <trkpt lat="43.64526" lon="5.67176">
        <ele>376.20001220703</ele>
        <time>2013-05-04T10:36:30.000Z</time>
      </trkpt>
      <trkpt lat="43.64526" lon="5.67172">
        <ele>376</ele>
        <time>2013-05-04T10:36:32.000Z</time>
      </trkpt>
      <trkpt lat="43.64527" lon="5.67165">
        <ele>375.60000610352</ele>
        <time>2013-05-04T10:36:34.000Z</time>
      </trkpt>
      <trkpt lat="43.64526" lon="5.67161">
        <ele>375.39999389648</ele>
        <time>2013-05-04T10:36:35.000Z</time>
      </trkpt>
      <trkpt lat="43.64525" lon="5.67157">
        <ele>375</ele>
        <time>2013-05-04T10:36:36.000Z</time>
      </trkpt>
      <trkpt lat="43.64524" lon="5.67152">
        <ele>374.60000610352</ele>
        <time>2013-05-04T10:36:37.000Z</time>
      </trkpt>
      <trkpt lat="43.64525" lon="5.67146">
        <ele>374.20001220703</ele>
        <time>2013-05-04T10:36:38.000Z</time>
      </trkpt>
      <trkpt lat="43.64525" lon="5.67141">
        <ele>374</ele>
        <time>2013-05-04T10:36:39.000Z</time>
      </trkpt>
      <trkpt lat="43.64527" lon="5.67125">
        <ele>373.39999389648</ele>
        <time>2013-05-04T10:36:42.000Z</time>
      </trkpt>
      <trkpt lat="43.6453" lon="5.67114">
        <ele>373</ele>
        <time>2013-05-04T10:36:44.000Z</time>
      </trkpt>
      <trkpt lat="43.64535" lon="5.67093">
        <ele>372.39999389648</ele>
        <time>2013-05-04T10:36:49.000Z</time>
      </trkpt>
      <trkpt lat="43.64536" lon="5.67089">
        <ele>372.39999389648</ele>
        <time>2013-05-04T10:36:50.000Z</time>
      </trkpt>
      <trkpt lat="43.64537" lon="5.67084">
        <ele>372.20001220703</ele>
        <time>2013-05-04T10:36:51.000Z</time>
      </trkpt>
      <trkpt lat="43.64538" lon="5.67078">
        <ele>372.20001220703</ele>
        <time>2013-05-04T10:36:52.000Z</time>
      </trkpt>
      <trkpt lat="43.64539" lon="5.67072">
        <ele>372.20001220703</ele>
        <time>2013-05-04T10:36:53.000Z</time>
      </trkpt>
      <trkpt lat="43.64539" lon="5.67066">
        <ele>372.20001220703</ele>
        <time>2013-05-04T10:36:54.000Z</time>
      </trkpt>
      <trkpt lat="43.6454" lon="5.67059">
        <ele>372.20001220703</ele>
        <time>2013-05-04T10:36:55.000Z</time>
      </trkpt>
      <trkpt lat="43.64541" lon="5.67053">
        <ele>372.20001220703</ele>
        <time>2013-05-04T10:36:56.000Z</time>
      </trkpt>
      <trkpt lat="43.64542" lon="5.67047">
        <ele>372.39999389648</ele>
        <time>2013-05-04T10:36:57.000Z</time>
      </trkpt>
      <trkpt lat="43.64543" lon="5.67043">
        <ele>372.39999389648</ele>
        <time>2013-05-04T10:36:58.000Z</time>
      </trkpt>
      <trkpt lat="43.64544" lon="5.67038">
        <ele>372.39999389648</ele>
        <time>2013-05-04T10:36:59.000Z</time>
      </trkpt>
      <trkpt lat="43.64544" lon="5.67032">
        <ele>372.20001220703</ele>
        <time>2013-05-04T10:37:00.000Z</time>
      </trkpt>
      <trkpt lat="43.64544" lon="5.67025">
        <ele>372.20001220703</ele>
        <time>2013-05-04T10:37:01.000Z</time>
      </trkpt>
      <trkpt lat="43.64545" lon="5.67019">
        <ele>372.20001220703</ele>
        <time>2013-05-04T10:37:02.000Z</time>
      </trkpt>
      <trkpt lat="43.64545" lon="5.67012">
        <ele>372</ele>
        <time>2013-05-04T10:37:03.000Z</time>
      </trkpt>
      <trkpt lat="43.64544" lon="5.67005">
        <ele>371.79998779297</ele>
        <time>2013-05-04T10:37:04.000Z</time>
      </trkpt>
      <trkpt lat="43.64543" lon="5.66994">
        <ele>371.39999389648</ele>
        <time>2013-05-04T10:37:07.000Z</time>
      </trkpt>
      <trkpt lat="43.6454" lon="5.66992">
        <ele>371</ele>
        <time>2013-05-04T10:37:08.000Z</time>
      </trkpt>
      <trkpt lat="43.64537" lon="5.66989">
        <ele>370.60000610352</ele>
        <time>2013-05-04T10:37:09.000Z</time>
      </trkpt>
      <trkpt lat="43.64534" lon="5.66984">
        <ele>370.20001220703</ele>
        <time>2013-05-04T10:37:10.000Z</time>
      </trkpt>
      <trkpt lat="43.6453" lon="5.66978">
        <ele>369.60000610352</ele>
        <time>2013-05-04T10:37:11.000Z</time>
      </trkpt>
      <trkpt lat="43.64526" lon="5.66973">
        <ele>369.20001220703</ele>
        <time>2013-05-04T10:37:12.000Z</time>
      </trkpt>
      <trkpt lat="43.64522" lon="5.66968">
        <ele>369</ele>
        <time>2013-05-04T10:37:13.000Z</time>
      </trkpt>
      <trkpt lat="43.64517" lon="5.66963">
        <ele>368.60000610352</ele>
        <time>2013-05-04T10:37:14.000Z</time>
      </trkpt>
      <trkpt lat="43.64504" lon="5.66946">
        <ele>368</ele>
        <time>2013-05-04T10:37:17.000Z</time>
      </trkpt>
      <trkpt lat="43.645" lon="5.6694">
        <ele>368</ele>
        <time>2013-05-04T10:37:18.000Z</time>
      </trkpt>
      <trkpt lat="43.64497" lon="5.66934">
        <ele>367.60000610352</ele>
        <time>2013-05-04T10:37:19.000Z</time>
      </trkpt>
      <trkpt lat="43.64486" lon="5.66912">
        <ele>366.39999389648</ele>
        <time>2013-05-04T10:37:22.000Z</time>
      </trkpt>
      <trkpt lat="43.64451" lon="5.66861">
        <ele>361</ele>
        <time>2013-05-04T10:37:30.000Z</time>
      </trkpt>
      <trkpt lat="43.64447" lon="5.66856">
        <ele>360.60000610352</ele>
        <time>2013-05-04T10:37:31.000Z</time>
      </trkpt>
      <trkpt lat="43.64439" lon="5.66842">
        <ele>360.20001220703</ele>
        <time>2013-05-04T10:37:33.000Z</time>
      </trkpt>
      <trkpt lat="43.64431" lon="5.66828">
        <ele>360</ele>
        <time>2013-05-04T10:37:35.000Z</time>
      </trkpt>
      <trkpt lat="43.64404" lon="5.66788">
        <ele>357.39999389648</ele>
        <time>2013-05-04T10:37:41.000Z</time>
      </trkpt>
      <trkpt lat="43.64401" lon="5.66781">
        <ele>356.79998779297</ele>
        <time>2013-05-04T10:37:42.000Z</time>
      </trkpt>
      <trkpt lat="43.64371" lon="5.66718">
        <ele>354.20001220703</ele>
        <time>2013-05-04T10:37:50.000Z</time>
      </trkpt>
      <trkpt lat="43.64358" lon="5.66699">
        <ele>354.20001220703</ele>
        <time>2013-05-04T10:37:53.000Z</time>
      </trkpt>
      <trkpt lat="43.64353" lon="5.66695">
        <ele>354.20001220703</ele>
        <time>2013-05-04T10:37:54.000Z</time>
      </trkpt>
      <trkpt lat="43.64347" lon="5.66691">
        <ele>354.20001220703</ele>
        <time>2013-05-04T10:37:55.000Z</time>
      </trkpt>
      <trkpt lat="43.64342" lon="5.66688">
        <ele>354.20001220703</ele>
        <time>2013-05-04T10:37:56.000Z</time>
      </trkpt>
      <trkpt lat="43.64337" lon="5.66684">
        <ele>354.39999389648</ele>
        <time>2013-05-04T10:37:57.000Z</time>
      </trkpt>
      <trkpt lat="43.64334" lon="5.66679">
        <ele>354.79998779297</ele>
        <time>2013-05-04T10:37:58.000Z</time>
      </trkpt>
      <trkpt lat="43.64332" lon="5.66674">
        <ele>355</ele>
        <time>2013-05-04T10:37:59.000Z</time>
      </trkpt>
      <trkpt lat="43.64329" lon="5.66664">
        <ele>355.39999389648</ele>
        <time>2013-05-04T10:38:01.000Z</time>
      </trkpt>
      <trkpt lat="43.64329" lon="5.66658">
        <ele>355.39999389648</ele>
        <time>2013-05-04T10:38:02.000Z</time>
      </trkpt>
      <trkpt lat="43.64327" lon="5.66653">
        <ele>355.20001220703</ele>
        <time>2013-05-04T10:38:03.000Z</time>
      </trkpt>
      <trkpt lat="43.64324" lon="5.66649">
        <ele>354.79998779297</ele>
        <time>2013-05-04T10:38:04.000Z</time>
      </trkpt>
      <trkpt lat="43.64321" lon="5.66646">
        <ele>354.60000610352</ele>
        <time>2013-05-04T10:38:05.000Z</time>
      </trkpt>
      <trkpt lat="43.64319" lon="5.66642">
        <ele>354.39999389648</ele>
        <time>2013-05-04T10:38:06.000Z</time>
      </trkpt>
      <trkpt lat="43.64319" lon="5.66619">
        <ele>354.79998779297</ele>
        <time>2013-05-04T10:38:11.000Z</time>
      </trkpt>
      <trkpt lat="43.64318" lon="5.66615">
        <ele>355</ele>
        <time>2013-05-04T10:38:12.000Z</time>
      </trkpt>
      <trkpt lat="43.64317" lon="5.66612">
        <ele>355</ele>
        <time>2013-05-04T10:38:13.000Z</time>
      </trkpt>
      <trkpt lat="43.64315" lon="5.66604">
        <ele>355</ele>
        <time>2013-05-04T10:38:15.000Z</time>
      </trkpt>
      <trkpt lat="43.64312" lon="5.666">
        <ele>354.79998779297</ele>
        <time>2013-05-04T10:38:16.000Z</time>
      </trkpt>
      <trkpt lat="43.64311" lon="5.66596">
        <ele>354.79998779297</ele>
        <time>2013-05-04T10:38:17.000Z</time>
      </trkpt>
      <trkpt lat="43.64309" lon="5.66592">
        <ele>354.79998779297</ele>
        <time>2013-05-04T10:38:18.000Z</time>
      </trkpt>
      <trkpt lat="43.64308" lon="5.66587">
        <ele>355</ele>
        <time>2013-05-04T10:38:19.000Z</time>
      </trkpt>
      <trkpt lat="43.64307" lon="5.66584">
        <ele>355</ele>
        <time>2013-05-04T10:38:20.000Z</time>
      </trkpt>
      <trkpt lat="43.64308" lon="5.6658">
        <ele>355</ele>
        <time>2013-05-04T10:38:21.000Z</time>
      </trkpt>
      <trkpt lat="43.64309" lon="5.66576">
        <ele>355</ele>
        <time>2013-05-04T10:38:22.000Z</time>
      </trkpt>
      <trkpt lat="43.64307" lon="5.66572">
        <ele>354.79998779297</ele>
        <time>2013-05-04T10:38:23.000Z</time>
      </trkpt>
      <trkpt lat="43.64306" lon="5.66568">
        <ele>354.60000610352</ele>
        <time>2013-05-04T10:38:24.000Z</time>
      </trkpt>
      <trkpt lat="43.64304" lon="5.66564">
        <ele>354.39999389648</ele>
        <time>2013-05-04T10:38:25.000Z</time>
      </trkpt>
      <trkpt lat="43.64303" lon="5.66561">
        <ele>354.20001220703</ele>
        <time>2013-05-04T10:38:26.000Z</time>
      </trkpt>
      <trkpt lat="43.64301" lon="5.66558">
        <ele>354</ele>
        <time>2013-05-04T10:38:27.000Z</time>
      </trkpt>
      <trkpt lat="43.643" lon="5.66555">
        <ele>354</ele>
        <time>2013-05-04T10:38:28.000Z</time>
      </trkpt>
      <trkpt lat="43.643" lon="5.66552">
        <ele>354</ele>
        <time>2013-05-04T10:38:29.000Z</time>
      </trkpt>
      <trkpt lat="43.643" lon="5.66549">
        <ele>353.79998779297</ele>
        <time>2013-05-04T10:38:30.000Z</time>
      </trkpt>
      <trkpt lat="43.64299" lon="5.66547">
        <ele>353.60000610352</ele>
        <time>2013-05-04T10:38:31.000Z</time>
      </trkpt>
      <trkpt lat="43.6429" lon="5.6652">
        <ele>352.60000610352</ele>
        <time>2013-05-04T10:38:37.000Z</time>
      </trkpt>
      <trkpt lat="43.64283" lon="5.665">
        <ele>352</ele>
        <time>2013-05-04T10:38:43.000Z</time>
      </trkpt>
      <trkpt lat="43.64281" lon="5.66465">
        <ele>351.60000610352</ele>
        <time>2013-05-04T10:38:50.000Z</time>
      </trkpt>
      <trkpt lat="43.64283" lon="5.6646">
        <ele>351.60000610352</ele>
        <time>2013-05-04T10:38:51.000Z</time>
      </trkpt>
      <trkpt lat="43.64285" lon="5.6645">
        <ele>351.60000610352</ele>
        <time>2013-05-04T10:38:53.000Z</time>
      </trkpt>
      <trkpt lat="43.64282" lon="5.66436">
        <ele>351.39999389648</ele>
        <time>2013-05-04T10:38:56.000Z</time>
      </trkpt>
      <trkpt lat="43.64272" lon="5.66425">
        <ele>351.20001220703</ele>
        <time>2013-05-04T10:38:59.000Z</time>
      </trkpt>
      <trkpt lat="43.64268" lon="5.66421">
        <ele>351.20001220703</ele>
        <time>2013-05-04T10:39:00.000Z</time>
      </trkpt>
      <trkpt lat="43.64264" lon="5.66418">
        <ele>351</ele>
        <time>2013-05-04T10:39:01.000Z</time>
      </trkpt>
      <trkpt lat="43.64252" lon="5.66409">
        <ele>350.60000610352</ele>
        <time>2013-05-04T10:39:05.000Z</time>
      </trkpt>
      <trkpt lat="43.64249" lon="5.66409">
        <ele>350.60000610352</ele>
        <time>2013-05-04T10:39:06.000Z</time>
      </trkpt>
      <trkpt lat="43.64233" lon="5.66416">
        <ele>348.20001220703</ele>
        <time>2013-05-04T10:39:11.000Z</time>
      </trkpt>
      <trkpt lat="43.64232" lon="5.66416">
        <ele>348</ele>
        <time>2013-05-04T10:39:12.000Z</time>
      </trkpt>
      <trkpt lat="43.64226" lon="5.66424">
        <ele>347</ele>
        <time>2013-05-04T10:39:16.000Z</time>
      </trkpt>
      <trkpt lat="43.64226" lon="5.66426">
        <ele>346.79998779297</ele>
        <time>2013-05-04T10:39:17.000Z</time>
      </trkpt>
      <trkpt lat="43.64223" lon="5.66435">
        <ele>346</ele>
        <time>2013-05-04T10:39:20.000Z</time>
      </trkpt>
      <trkpt lat="43.6422" lon="5.66436">
        <ele>345.39999389648</ele>
        <time>2013-05-04T10:39:21.000Z</time>
      </trkpt>
      <trkpt lat="43.64217" lon="5.66436">
        <ele>344.79998779297</ele>
        <time>2013-05-04T10:39:22.000Z</time>
      </trkpt>
      <trkpt lat="43.64211" lon="5.66434">
        <ele>343.79998779297</ele>
        <time>2013-05-04T10:39:24.000Z</time>
      </trkpt>
      <trkpt lat="43.64209" lon="5.66432">
        <ele>343.60000610352</ele>
        <time>2013-05-04T10:39:25.000Z</time>
      </trkpt>
      <trkpt lat="43.64208" lon="5.66428">
        <ele>343.60000610352</ele>
        <time>2013-05-04T10:39:26.000Z</time>
      </trkpt>
      <trkpt lat="43.64208" lon="5.66424">
        <ele>343.79998779297</ele>
        <time>2013-05-04T10:39:27.000Z</time>
      </trkpt>
      <trkpt lat="43.64207" lon="5.66421">
        <ele>343.79998779297</ele>
        <time>2013-05-04T10:39:28.000Z</time>
      </trkpt>
      <trkpt lat="43.64204" lon="5.66418">
        <ele>343.60000610352</ele>
        <time>2013-05-04T10:39:29.000Z</time>
      </trkpt>
      <trkpt lat="43.64203" lon="5.66413">
        <ele>343.39999389648</ele>
        <time>2013-05-04T10:39:30.000Z</time>
      </trkpt>
      <trkpt lat="43.64203" lon="5.66408">
        <ele>343.39999389648</ele>
        <time>2013-05-04T10:39:31.000Z</time>
      </trkpt>
      <trkpt lat="43.64202" lon="5.66403">
        <ele>343.39999389648</ele>
        <time>2013-05-04T10:39:32.000Z</time>
      </trkpt>
      <trkpt lat="43.64202" lon="5.66398">
        <ele>343.20001220703</ele>
        <time>2013-05-04T10:39:33.000Z</time>
      </trkpt>
      <trkpt lat="43.64201" lon="5.66393">
        <ele>343</ele>
        <time>2013-05-04T10:39:34.000Z</time>
      </trkpt>
      <trkpt lat="43.64201" lon="5.66388">
        <ele>343</ele>
        <time>2013-05-04T10:39:35.000Z</time>
      </trkpt>
      <trkpt lat="43.64203" lon="5.66383">
        <ele>343.20001220703</ele>
        <time>2013-05-04T10:39:36.000Z</time>
      </trkpt>
      <trkpt lat="43.64206" lon="5.66379">
        <ele>343.60000610352</ele>
        <time>2013-05-04T10:39:37.000Z</time>
      </trkpt>
      <trkpt lat="43.64213" lon="5.66361">
        <ele>344.20001220703</ele>
        <time>2013-05-04T10:39:42.000Z</time>
      </trkpt>
      <trkpt lat="43.64213" lon="5.66358">
        <ele>344.39999389648</ele>
        <time>2013-05-04T10:39:43.000Z</time>
      </trkpt>
      <trkpt lat="43.64214" lon="5.66356">
        <ele>344.39999389648</ele>
        <time>2013-05-04T10:39:44.000Z</time>
      </trkpt>
      <trkpt lat="43.64213" lon="5.66352">
        <ele>344.20001220703</ele>
        <time>2013-05-04T10:39:45.000Z</time>
      </trkpt>
      <trkpt lat="43.64213" lon="5.66348">
        <ele>344</ele>
        <time>2013-05-04T10:39:46.000Z</time>
      </trkpt>
      <trkpt lat="43.64212" lon="5.66344">
        <ele>344</ele>
        <time>2013-05-04T10:39:47.000Z</time>
      </trkpt>
      <trkpt lat="43.64211" lon="5.66341">
        <ele>343.79998779297</ele>
        <time>2013-05-04T10:39:48.000Z</time>
      </trkpt>
      <trkpt lat="43.6421" lon="5.66337">
        <ele>343.60000610352</ele>
        <time>2013-05-04T10:39:49.000Z</time>
      </trkpt>
      <trkpt lat="43.64189" lon="5.663">
        <ele>341</ele>
        <time>2013-05-04T10:39:58.000Z</time>
      </trkpt>
      <trkpt lat="43.64179" lon="5.66281">
        <ele>340.20001220703</ele>
        <time>2013-05-04T10:40:02.000Z</time>
      </trkpt>
      <trkpt lat="43.64177" lon="5.66276">
        <ele>340</ele>
        <time>2013-05-04T10:40:03.000Z</time>
      </trkpt>
      <trkpt lat="43.64175" lon="5.6627">
        <ele>340</ele>
        <time>2013-05-04T10:40:04.000Z</time>
      </trkpt>
      <trkpt lat="43.64175" lon="5.66263">
        <ele>340</ele>
        <time>2013-05-04T10:40:05.000Z</time>
      </trkpt>
      <trkpt lat="43.64175" lon="5.66257">
        <ele>340</ele>
        <time>2013-05-04T10:40:06.000Z</time>
      </trkpt>
      <trkpt lat="43.64176" lon="5.66251">
        <ele>340.20001220703</ele>
        <time>2013-05-04T10:40:07.000Z</time>
      </trkpt>
      <trkpt lat="43.64177" lon="5.66244">
        <ele>340.20001220703</ele>
        <time>2013-05-04T10:40:08.000Z</time>
      </trkpt>
      <trkpt lat="43.64177" lon="5.66238">
        <ele>340.20001220703</ele>
        <time>2013-05-04T10:40:09.000Z</time>
      </trkpt>
      <trkpt lat="43.64177" lon="5.66232">
        <ele>340.20001220703</ele>
        <time>2013-05-04T10:40:10.000Z</time>
      </trkpt>
      <trkpt lat="43.64175" lon="5.66226">
        <ele>340.20001220703</ele>
        <time>2013-05-04T10:40:11.000Z</time>
      </trkpt>
      <trkpt lat="43.64174" lon="5.66221">
        <ele>340.39999389648</ele>
        <time>2013-05-04T10:40:12.000Z</time>
      </trkpt>
      <trkpt lat="43.64172" lon="5.66215">
        <ele>340.39999389648</ele>
        <time>2013-05-04T10:40:13.000Z</time>
      </trkpt>
      <trkpt lat="43.6417" lon="5.66211">
        <ele>340.39999389648</ele>
        <time>2013-05-04T10:40:14.000Z</time>
      </trkpt>
      <trkpt lat="43.64166" lon="5.66206">
        <ele>340.39999389648</ele>
        <time>2013-05-04T10:40:15.000Z</time>
      </trkpt>
      <trkpt lat="43.64162" lon="5.66202">
        <ele>339.60000610352</ele>
        <time>2013-05-04T10:40:16.000Z</time>
      </trkpt>
      <trkpt lat="43.64153" lon="5.66191">
        <ele>338</ele>
        <time>2013-05-04T10:40:18.000Z</time>
      </trkpt>
      <trkpt lat="43.64148" lon="5.66185">
        <ele>337.39999389648</ele>
        <time>2013-05-04T10:40:19.000Z</time>
      </trkpt>
      <trkpt lat="43.64142" lon="5.6618">
        <ele>336.60000610352</ele>
        <time>2013-05-04T10:40:20.000Z</time>
      </trkpt>
      <trkpt lat="43.64125" lon="5.66166">
        <ele>334.39999389648</ele>
        <time>2013-05-04T10:40:23.000Z</time>
      </trkpt>
      <trkpt lat="43.6412" lon="5.66159">
        <ele>333.79998779297</ele>
        <time>2013-05-04T10:40:24.000Z</time>
      </trkpt>
      <trkpt lat="43.64117" lon="5.66151">
        <ele>333.39999389648</ele>
        <time>2013-05-04T10:40:25.000Z</time>
      </trkpt>
      <trkpt lat="43.64107" lon="5.66125">
        <ele>332.60000610352</ele>
        <time>2013-05-04T10:40:28.000Z</time>
      </trkpt>
      <trkpt lat="43.64102" lon="5.6612">
        <ele>332</ele>
        <time>2013-05-04T10:40:29.000Z</time>
      </trkpt>
      <trkpt lat="43.64096" lon="5.66116">
        <ele>331.39999389648</ele>
        <time>2013-05-04T10:40:30.000Z</time>
      </trkpt>
      <trkpt lat="43.64091" lon="5.66112">
        <ele>330.79998779297</ele>
        <time>2013-05-04T10:40:31.000Z</time>
      </trkpt>
      <trkpt lat="43.64086" lon="5.66107">
        <ele>330.39999389648</ele>
        <time>2013-05-04T10:40:32.000Z</time>
      </trkpt>
      <trkpt lat="43.64083" lon="5.66102">
        <ele>330.20001220703</ele>
        <time>2013-05-04T10:40:33.000Z</time>
      </trkpt>
      <trkpt lat="43.6408" lon="5.66097">
        <ele>329.79998779297</ele>
        <time>2013-05-04T10:40:34.000Z</time>
      </trkpt>
      <trkpt lat="43.64078" lon="5.66092">
        <ele>329.60000610352</ele>
        <time>2013-05-04T10:40:35.000Z</time>
      </trkpt>
      <trkpt lat="43.64076" lon="5.66086">
        <ele>329.60000610352</ele>
        <time>2013-05-04T10:40:36.000Z</time>
      </trkpt>
      <trkpt lat="43.64076" lon="5.6608">
        <ele>329.39999389648</ele>
        <time>2013-05-04T10:40:37.000Z</time>
      </trkpt>
      <trkpt lat="43.64076" lon="5.66074">
        <ele>329.20001220703</ele>
        <time>2013-05-04T10:40:38.000Z</time>
      </trkpt>
      <trkpt lat="43.64077" lon="5.66067">
        <ele>329.20001220703</ele>
        <time>2013-05-04T10:40:39.000Z</time>
      </trkpt>
      <trkpt lat="43.64078" lon="5.66059">
        <ele>329.20001220703</ele>
        <time>2013-05-04T10:40:40.000Z</time>
      </trkpt>
      <trkpt lat="43.64089" lon="5.65983">
        <ele>327.20001220703</ele>
        <time>2013-05-04T10:40:48.000Z</time>
      </trkpt>
      <trkpt lat="43.64092" lon="5.65964">
        <ele>326.20001220703</ele>
        <time>2013-05-04T10:40:50.000Z</time>
      </trkpt>
      <trkpt lat="43.64092" lon="5.65955">
        <ele>325.60000610352</ele>
        <time>2013-05-04T10:40:51.000Z</time>
      </trkpt>
      <trkpt lat="43.6409" lon="5.65946">
        <ele>325</ele>
        <time>2013-05-04T10:40:52.000Z</time>
      </trkpt>
      <trkpt lat="43.64087" lon="5.65939">
        <ele>324.39999389648</ele>
        <time>2013-05-04T10:40:53.000Z</time>
      </trkpt>
      <trkpt lat="43.64084" lon="5.65932">
        <ele>323.79998779297</ele>
        <time>2013-05-04T10:40:54.000Z</time>
      </trkpt>
      <trkpt lat="43.64068" lon="5.65904">
        <ele>321</ele>
        <time>2013-05-04T10:40:58.000Z</time>
      </trkpt>
      <trkpt lat="43.64064" lon="5.65896">
        <ele>320.20001220703</ele>
        <time>2013-05-04T10:40:59.000Z</time>
      </trkpt>
      <trkpt lat="43.64063" lon="5.65891">
        <ele>319.79998779297</ele>
        <time>2013-05-04T10:41:00.000Z</time>
      </trkpt>
      <trkpt lat="43.64063" lon="5.65887">
        <ele>319.60000610352</ele>
        <time>2013-05-04T10:41:01.000Z</time>
      </trkpt>
      <trkpt lat="43.64065" lon="5.65884">
        <ele>319.60000610352</ele>
        <time>2013-05-04T10:41:09.000Z</time>
      </trkpt>
      <trkpt lat="43.64066" lon="5.65884">
        <ele>319.60000610352</ele>
        <time>2013-05-04T10:41:29.000Z</time>
      </trkpt>
      <trkpt lat="43.64065" lon="5.65883">
        <ele>319.39999389648</ele>
        <time>2013-05-04T10:41:51.000Z</time>
      </trkpt>
      <trkpt lat="43.64064" lon="5.65859">
        <ele>318</ele>
        <time>2013-05-04T10:41:56.000Z</time>
      </trkpt>
      <trkpt lat="43.64063" lon="5.65853">
        <ele>317.60000610352</ele>
        <time>2013-05-04T10:41:57.000Z</time>
      </trkpt>
      <trkpt lat="43.64061" lon="5.65847">
        <ele>317.20001220703</ele>
        <time>2013-05-04T10:41:58.000Z</time>
      </trkpt>
      <trkpt lat="43.64058" lon="5.65832">
        <ele>316.20001220703</ele>
        <time>2013-05-04T10:42:00.000Z</time>
      </trkpt>
      <trkpt lat="43.64057" lon="5.65824">
        <ele>315.79998779297</ele>
        <time>2013-05-04T10:42:01.000Z</time>
      </trkpt>
      <trkpt lat="43.64059" lon="5.65817">
        <ele>315.60000610352</ele>
        <time>2013-05-04T10:42:02.000Z</time>
      </trkpt>
      <trkpt lat="43.64062" lon="5.65811">
        <ele>315.39999389648</ele>
        <time>2013-05-04T10:42:03.000Z</time>
      </trkpt>
      <trkpt lat="43.64065" lon="5.65807">
        <ele>315.39999389648</ele>
        <time>2013-05-04T10:42:04.000Z</time>
      </trkpt>
      <trkpt lat="43.64069" lon="5.65799">
        <ele>315</ele>
        <time>2013-05-04T10:42:06.000Z</time>
      </trkpt>
      <trkpt lat="43.6407" lon="5.65792">
        <ele>314.79998779297</ele>
        <time>2013-05-04T10:42:07.000Z</time>
      </trkpt>
      <trkpt lat="43.64069" lon="5.65785">
        <ele>314.39999389648</ele>
        <time>2013-05-04T10:42:08.000Z</time>
      </trkpt>
      <trkpt lat="43.64069" lon="5.65777">
        <ele>314.20001220703</ele>
        <time>2013-05-04T10:42:09.000Z</time>
      </trkpt>
      <trkpt lat="43.64071" lon="5.65771">
        <ele>313.79998779297</ele>
        <time>2013-05-04T10:42:10.000Z</time>
      </trkpt>
      <trkpt lat="43.64074" lon="5.65766">
        <ele>313.60000610352</ele>
        <time>2013-05-04T10:42:11.000Z</time>
      </trkpt>
      <trkpt lat="43.64078" lon="5.65763">
        <ele>313.39999389648</ele>
        <time>2013-05-04T10:42:12.000Z</time>
      </trkpt>
      <trkpt lat="43.64082" lon="5.65758">
        <ele>313.39999389648</ele>
        <time>2013-05-04T10:42:13.000Z</time>
      </trkpt>
      <trkpt lat="43.64085" lon="5.65754">
        <ele>313.20001220703</ele>
        <time>2013-05-04T10:42:14.000Z</time>
      </trkpt>
      <trkpt lat="43.64088" lon="5.65748">
        <ele>313.60000610352</ele>
        <time>2013-05-04T10:42:15.000Z</time>
      </trkpt>
      <trkpt lat="43.6409" lon="5.65741">
        <ele>314.20001220703</ele>
        <time>2013-05-04T10:42:16.000Z</time>
      </trkpt>
      <trkpt lat="43.6409" lon="5.65735">
        <ele>314.79998779297</ele>
        <time>2013-05-04T10:42:17.000Z</time>
      </trkpt>
      <trkpt lat="43.64088" lon="5.65728">
        <ele>315</ele>
        <time>2013-05-04T10:42:18.000Z</time>
      </trkpt>
      <trkpt lat="43.64085" lon="5.65722">
        <ele>315</ele>
        <time>2013-05-04T10:42:19.000Z</time>
      </trkpt>
      <trkpt lat="43.6408" lon="5.65718">
        <ele>315.20001220703</ele>
        <time>2013-05-04T10:42:20.000Z</time>
      </trkpt>
      <trkpt lat="43.64075" lon="5.65714">
        <ele>315.20001220703</ele>
        <time>2013-05-04T10:42:21.000Z</time>
      </trkpt>
      <trkpt lat="43.6407" lon="5.6571">
        <ele>315.20001220703</ele>
        <time>2013-05-04T10:42:22.000Z</time>
      </trkpt>
      <trkpt lat="43.64064" lon="5.65706">
        <ele>315</ele>
        <time>2013-05-04T10:42:23.000Z</time>
      </trkpt>
      <trkpt lat="43.64059" lon="5.65702">
        <ele>315</ele>
        <time>2013-05-04T10:42:24.000Z</time>
      </trkpt>
      <trkpt lat="43.6405" lon="5.65694">
        <ele>314.79998779297</ele>
        <time>2013-05-04T10:42:26.000Z</time>
      </trkpt>
      <trkpt lat="43.64047" lon="5.65689">
        <ele>314.79998779297</ele>
        <time>2013-05-04T10:42:27.000Z</time>
      </trkpt>
      <trkpt lat="43.64046" lon="5.65684">
        <ele>314.79998779297</ele>
        <time>2013-05-04T10:42:28.000Z</time>
      </trkpt>
      <trkpt lat="43.64045" lon="5.6568">
        <ele>314.79998779297</ele>
        <time>2013-05-04T10:42:29.000Z</time>
      </trkpt>
      <trkpt lat="43.64043" lon="5.65675">
        <ele>314.79998779297</ele>
        <time>2013-05-04T10:42:30.000Z</time>
      </trkpt>
      <trkpt lat="43.6404" lon="5.6567">
        <ele>314.60000610352</ele>
        <time>2013-05-04T10:42:31.000Z</time>
      </trkpt>
      <trkpt lat="43.64036" lon="5.65666">
        <ele>314.39999389648</ele>
        <time>2013-05-04T10:42:32.000Z</time>
      </trkpt>
      <trkpt lat="43.64031" lon="5.65661">
        <ele>314.20001220703</ele>
        <time>2013-05-04T10:42:33.000Z</time>
      </trkpt>
      <trkpt lat="43.6401" lon="5.65639">
        <ele>313.20001220703</ele>
        <time>2013-05-04T10:42:37.000Z</time>
      </trkpt>
      <trkpt lat="43.63988" lon="5.65616">
        <ele>312.79998779297</ele>
        <time>2013-05-04T10:42:41.000Z</time>
      </trkpt>
      <trkpt lat="43.63984" lon="5.65608">
        <ele>313</ele>
        <time>2013-05-04T10:42:42.000Z</time>
      </trkpt>
      <trkpt lat="43.6398" lon="5.656">
        <ele>313</ele>
        <time>2013-05-04T10:42:43.000Z</time>
      </trkpt>
      <trkpt lat="43.63968" lon="5.65573">
        <ele>313.39999389648</ele>
        <time>2013-05-04T10:42:46.000Z</time>
      </trkpt>
      <trkpt lat="43.63945" lon="5.65529">
        <ele>311.79998779297</ele>
        <time>2013-05-04T10:42:51.000Z</time>
      </trkpt>
      <trkpt lat="43.63938" lon="5.65521">
        <ele>310.79998779297</ele>
        <time>2013-05-04T10:42:52.000Z</time>
      </trkpt>
      <trkpt lat="43.63931" lon="5.65516">
        <ele>309.79998779297</ele>
        <time>2013-05-04T10:42:53.000Z</time>
      </trkpt>
      <trkpt lat="43.63923" lon="5.65514">
        <ele>308.60000610352</ele>
        <time>2013-05-04T10:42:54.000Z</time>
      </trkpt>
      <trkpt lat="43.63916" lon="5.65513">
        <ele>307.60000610352</ele>
        <time>2013-05-04T10:42:55.000Z</time>
      </trkpt>
      <trkpt lat="43.63899" lon="5.65511">
        <ele>307.79998779297</ele>
        <time>2013-05-04T10:42:57.000Z</time>
      </trkpt>
      <trkpt lat="43.63891" lon="5.65508">
        <ele>307.60000610352</ele>
        <time>2013-05-04T10:42:58.000Z</time>
      </trkpt>
      <trkpt lat="43.63876" lon="5.65502">
        <ele>307.20001220703</ele>
        <time>2013-05-04T10:43:00.000Z</time>
      </trkpt>
      <trkpt lat="43.63835" lon="5.65482">
        <ele>305.39999389648</ele>
        <time>2013-05-04T10:43:05.000Z</time>
      </trkpt>
      <trkpt lat="43.63811" lon="5.65465">
        <ele>304.60000610352</ele>
        <time>2013-05-04T10:43:08.000Z</time>
      </trkpt>
      <trkpt lat="43.63804" lon="5.65457">
        <ele>304.20001220703</ele>
        <time>2013-05-04T10:43:09.000Z</time>
      </trkpt>
      <trkpt lat="43.63797" lon="5.65449">
        <ele>303.79998779297</ele>
        <time>2013-05-04T10:43:10.000Z</time>
      </trkpt>
      <trkpt lat="43.63791" lon="5.6544">
        <ele>303.39999389648</ele>
        <time>2013-05-04T10:43:11.000Z</time>
      </trkpt>
      <trkpt lat="43.63787" lon="5.6543">
        <ele>303</ele>
        <time>2013-05-04T10:43:12.000Z</time>
      </trkpt>
      <trkpt lat="43.63783" lon="5.6542">
        <ele>302.60000610352</ele>
        <time>2013-05-04T10:43:13.000Z</time>
      </trkpt>
      <trkpt lat="43.63767" lon="5.65376">
        <ele>301.79998779297</ele>
        <time>2013-05-04T10:43:17.000Z</time>
      </trkpt>
      <trkpt lat="43.63765" lon="5.65364">
        <ele>301.39999389648</ele>
        <time>2013-05-04T10:43:18.000Z</time>
      </trkpt>
      <trkpt lat="43.63764" lon="5.65352">
        <ele>300.79998779297</ele>
        <time>2013-05-04T10:43:19.000Z</time>
      </trkpt>
      <trkpt lat="43.63763" lon="5.65339">
        <ele>300.39999389648</ele>
        <time>2013-05-04T10:43:20.000Z</time>
      </trkpt>
      <trkpt lat="43.63762" lon="5.65326">
        <ele>300.20001220703</ele>
        <time>2013-05-04T10:43:21.000Z</time>
      </trkpt>
      <trkpt lat="43.6376" lon="5.65315">
        <ele>300.39999389648</ele>
        <time>2013-05-04T10:43:22.000Z</time>
      </trkpt>
      <trkpt lat="43.63757" lon="5.65304">
        <ele>300.20001220703</ele>
        <time>2013-05-04T10:43:23.000Z</time>
      </trkpt>
      <trkpt lat="43.63754" lon="5.65293">
        <ele>300</ele>
        <time>2013-05-04T10:43:24.000Z</time>
      </trkpt>
      <trkpt lat="43.6375" lon="5.65284">
        <ele>299.60000610352</ele>
        <time>2013-05-04T10:43:25.000Z</time>
      </trkpt>
      <trkpt lat="43.63744" lon="5.65275">
        <ele>299.60000610352</ele>
        <time>2013-05-04T10:43:26.000Z</time>
      </trkpt>
      <trkpt lat="43.63727" lon="5.65257">
        <ele>299.39999389648</ele>
        <time>2013-05-04T10:43:28.000Z</time>
      </trkpt>
      <trkpt lat="43.63716" lon="5.6523">
        <ele>300.60000610352</ele>
        <time>2013-05-04T10:43:30.000Z</time>
      </trkpt>
      <trkpt lat="43.63713" lon="5.65216">
        <ele>301.20001220703</ele>
        <time>2013-05-04T10:43:31.000Z</time>
      </trkpt>
      <trkpt lat="43.6371" lon="5.65203">
        <ele>302</ele>
        <time>2013-05-04T10:43:32.000Z</time>
      </trkpt>
      <trkpt lat="43.6371" lon="5.65188">
        <ele>302.79998779297</ele>
        <time>2013-05-04T10:43:33.000Z</time>
      </trkpt>
      <trkpt lat="43.6371" lon="5.65174">
        <ele>303.79998779297</ele>
        <time>2013-05-04T10:43:34.000Z</time>
      </trkpt>
      <trkpt lat="43.63712" lon="5.6516">
        <ele>303.79998779297</ele>
        <time>2013-05-04T10:43:35.000Z</time>
      </trkpt>
      <trkpt lat="43.63713" lon="5.65146">
        <ele>303</ele>
        <time>2013-05-04T10:43:36.000Z</time>
      </trkpt>
      <trkpt lat="43.63707" lon="5.65063">
        <ele>296.79998779297</ele>
        <time>2013-05-04T10:43:42.000Z</time>
      </trkpt>
      <trkpt lat="43.63701" lon="5.65037">
        <ele>295</ele>
        <time>2013-05-04T10:43:44.000Z</time>
      </trkpt>
      <trkpt lat="43.63692" lon="5.65029">
        <ele>293.20001220703</ele>
        <time>2013-05-04T10:43:45.000Z</time>
      </trkpt>
      <trkpt lat="43.63681" lon="5.65024">
        <ele>291</ele>
        <time>2013-05-04T10:43:46.000Z</time>
      </trkpt>
      <trkpt lat="43.63671" lon="5.6502">
        <ele>289.20001220703</ele>
        <time>2013-05-04T10:43:47.000Z</time>
      </trkpt>
      <trkpt lat="43.63663" lon="5.65015">
        <ele>288.39999389648</ele>
        <time>2013-05-04T10:43:48.000Z</time>
      </trkpt>
      <trkpt lat="43.63656" lon="5.65008">
        <ele>288.39999389648</ele>
        <time>2013-05-04T10:43:49.000Z</time>
      </trkpt>
      <trkpt lat="43.63649" lon="5.64998">
        <ele>288.39999389648</ele>
        <time>2013-05-04T10:43:50.000Z</time>
      </trkpt>
      <trkpt lat="43.63645" lon="5.64986">
        <ele>289</ele>
        <time>2013-05-04T10:43:51.000Z</time>
      </trkpt>
      <trkpt lat="43.63642" lon="5.64973">
        <ele>289.60000610352</ele>
        <time>2013-05-04T10:43:52.000Z</time>
      </trkpt>
      <trkpt lat="43.6364" lon="5.64959">
        <ele>290</ele>
        <time>2013-05-04T10:43:53.000Z</time>
      </trkpt>
      <trkpt lat="43.63639" lon="5.64946">
        <ele>290.20001220703</ele>
        <time>2013-05-04T10:43:54.000Z</time>
      </trkpt>
      <trkpt lat="43.63637" lon="5.64932">
        <ele>290.39999389648</ele>
        <time>2013-05-04T10:43:55.000Z</time>
      </trkpt>
      <trkpt lat="43.63633" lon="5.64919">
        <ele>290.20001220703</ele>
        <time>2013-05-04T10:43:56.000Z</time>
      </trkpt>
      <trkpt lat="43.63626" lon="5.64909">
        <ele>290</ele>
        <time>2013-05-04T10:43:57.000Z</time>
      </trkpt>
      <trkpt lat="43.63618" lon="5.64901">
        <ele>289</ele>
        <time>2013-05-04T10:43:58.000Z</time>
      </trkpt>
      <trkpt lat="43.63609" lon="5.64897">
        <ele>287.60000610352</ele>
        <time>2013-05-04T10:43:59.000Z</time>
      </trkpt>
      <trkpt lat="43.63599" lon="5.64894">
        <ele>286</ele>
        <time>2013-05-04T10:44:00.000Z</time>
      </trkpt>
      <trkpt lat="43.63591" lon="5.6489">
        <ele>284.39999389648</ele>
        <time>2013-05-04T10:44:01.000Z</time>
      </trkpt>
      <trkpt lat="43.63584" lon="5.64882">
        <ele>283.20001220703</ele>
        <time>2013-05-04T10:44:02.000Z</time>
      </trkpt>
      <trkpt lat="43.63578" lon="5.64872">
        <ele>284.39999389648</ele>
        <time>2013-05-04T10:44:03.000Z</time>
      </trkpt>
      <trkpt lat="43.63575" lon="5.6486">
        <ele>285.39999389648</ele>
        <time>2013-05-04T10:44:04.000Z</time>
      </trkpt>
      <trkpt lat="43.63573" lon="5.64847">
        <ele>285.79998779297</ele>
        <time>2013-05-04T10:44:05.000Z</time>
      </trkpt>
      <trkpt lat="43.63573" lon="5.64833">
        <ele>286</ele>
        <time>2013-05-04T10:44:06.000Z</time>
      </trkpt>
      <trkpt lat="43.63572" lon="5.6482">
        <ele>286</ele>
        <time>2013-05-04T10:44:07.000Z</time>
      </trkpt>
      <trkpt lat="43.63567" lon="5.64741">
        <ele>285.79998779297</ele>
        <time>2013-05-04T10:44:13.000Z</time>
      </trkpt>
      <trkpt lat="43.63557" lon="5.64626">
        <ele>285.20001220703</ele>
        <time>2013-05-04T10:44:22.000Z</time>
      </trkpt>
      <trkpt lat="43.63557" lon="5.64613">
        <ele>285.20001220703</ele>
        <time>2013-05-04T10:44:23.000Z</time>
      </trkpt>
      <trkpt lat="43.63559" lon="5.64601">
        <ele>285</ele>
        <time>2013-05-04T10:44:24.000Z</time>
      </trkpt>
      <trkpt lat="43.63561" lon="5.64589">
        <ele>285</ele>
        <time>2013-05-04T10:44:25.000Z</time>
      </trkpt>
      <trkpt lat="43.63564" lon="5.64577">
        <ele>284.60000610352</ele>
        <time>2013-05-04T10:44:26.000Z</time>
      </trkpt>
      <trkpt lat="43.63568" lon="5.64567">
        <ele>283.79998779297</ele>
        <time>2013-05-04T10:44:27.000Z</time>
      </trkpt>
      <trkpt lat="43.63573" lon="5.64557">
        <ele>282.79998779297</ele>
        <time>2013-05-04T10:44:28.000Z</time>
      </trkpt>
      <trkpt lat="43.63577" lon="5.64547">
        <ele>281.79998779297</ele>
        <time>2013-05-04T10:44:29.000Z</time>
      </trkpt>
      <trkpt lat="43.63582" lon="5.64538">
        <ele>280.60000610352</ele>
        <time>2013-05-04T10:44:30.000Z</time>
      </trkpt>
      <trkpt lat="43.63597" lon="5.645">
        <ele>279.39999389648</ele>
        <time>2013-05-04T10:44:34.000Z</time>
      </trkpt>
      <trkpt lat="43.63603" lon="5.64481">
        <ele>278.20001220703</ele>
        <time>2013-05-04T10:44:36.000Z</time>
      </trkpt>
      <trkpt lat="43.63611" lon="5.64466">
        <ele>277</ele>
        <time>2013-05-04T10:44:38.000Z</time>
      </trkpt>
      <trkpt lat="43.63615" lon="5.64459">
        <ele>276.60000610352</ele>
        <time>2013-05-04T10:44:39.000Z</time>
      </trkpt>
      <trkpt lat="43.63621" lon="5.64453">
        <ele>276.39999389648</ele>
        <time>2013-05-04T10:44:40.000Z</time>
      </trkpt>
      <trkpt lat="43.63627" lon="5.64448">
        <ele>276.20001220703</ele>
        <time>2013-05-04T10:44:41.000Z</time>
      </trkpt>
      <trkpt lat="43.63634" lon="5.64444">
        <ele>276</ele>
        <time>2013-05-04T10:44:42.000Z</time>
      </trkpt>
      <trkpt lat="43.63683" lon="5.6441">
        <ele>273.60000610352</ele>
        <time>2013-05-04T10:44:50.000Z</time>
      </trkpt>
      <trkpt lat="43.63688" lon="5.64404">
        <ele>273.79998779297</ele>
        <time>2013-05-04T10:44:51.000Z</time>
      </trkpt>
      <trkpt lat="43.63692" lon="5.64397">
        <ele>274</ele>
        <time>2013-05-04T10:44:52.000Z</time>
      </trkpt>
      <trkpt lat="43.63695" lon="5.64389">
        <ele>274.20001220703</ele>
        <time>2013-05-04T10:44:53.000Z</time>
      </trkpt>
      <trkpt lat="43.63698" lon="5.64381">
        <ele>274.20001220703</ele>
        <time>2013-05-04T10:44:54.000Z</time>
      </trkpt>
      <trkpt lat="43.637" lon="5.64374">
        <ele>274</ele>
        <time>2013-05-04T10:44:55.000Z</time>
      </trkpt>
      <trkpt lat="43.63707" lon="5.64333">
        <ele>273.60000610352</ele>
        <time>2013-05-04T10:45:01.000Z</time>
      </trkpt>
      <trkpt lat="43.63707" lon="5.64304">
        <ele>273.20001220703</ele>
        <time>2013-05-04T10:45:07.000Z</time>
      </trkpt>
      <trkpt lat="43.63705" lon="5.64301">
        <ele>272.79998779297</ele>
        <time>2013-05-04T10:45:08.000Z</time>
      </trkpt>
      <trkpt lat="43.63699" lon="5.64294">
        <ele>271.79998779297</ele>
        <time>2013-05-04T10:45:10.000Z</time>
      </trkpt>
      <trkpt lat="43.63695" lon="5.64291">
        <ele>271</ele>
        <time>2013-05-04T10:45:11.000Z</time>
      </trkpt>
      <trkpt lat="43.6369" lon="5.64286">
        <ele>270.39999389648</ele>
        <time>2013-05-04T10:45:12.000Z</time>
      </trkpt>
      <trkpt lat="43.63687" lon="5.64279">
        <ele>270</ele>
        <time>2013-05-04T10:45:13.000Z</time>
      </trkpt>
      <trkpt lat="43.63686" lon="5.64272">
        <ele>269.60000610352</ele>
        <time>2013-05-04T10:45:14.000Z</time>
      </trkpt>
      <trkpt lat="43.63686" lon="5.64264">
        <ele>269.60000610352</ele>
        <time>2013-05-04T10:45:15.000Z</time>
      </trkpt>
      <trkpt lat="43.63687" lon="5.64256">
        <ele>269.60000610352</ele>
        <time>2013-05-04T10:45:16.000Z</time>
      </trkpt>
      <trkpt lat="43.63689" lon="5.64248">
        <ele>269.79998779297</ele>
        <time>2013-05-04T10:45:17.000Z</time>
      </trkpt>
      <trkpt lat="43.6369" lon="5.64241">
        <ele>270</ele>
        <time>2013-05-04T10:45:18.000Z</time>
      </trkpt>
      <trkpt lat="43.63691" lon="5.64234">
        <ele>270</ele>
        <time>2013-05-04T10:45:19.000Z</time>
      </trkpt>
      <trkpt lat="43.63699" lon="5.64194">
        <ele>271</ele>
        <time>2013-05-04T10:45:25.000Z</time>
      </trkpt>
      <trkpt lat="43.63716" lon="5.64115">
        <ele>273.20001220703</ele>
        <time>2013-05-04T10:45:38.000Z</time>
      </trkpt>
      <trkpt lat="43.63725" lon="5.64043">
        <ele>274.20001220703</ele>
        <time>2013-05-04T10:45:50.000Z</time>
      </trkpt>
      <trkpt lat="43.63725" lon="5.6401">
        <ele>274.20001220703</ele>
        <time>2013-05-04T10:45:57.000Z</time>
      </trkpt>
      <trkpt lat="43.63724" lon="5.63998">
        <ele>274.20001220703</ele>
        <time>2013-05-04T10:46:01.000Z</time>
      </trkpt>
      <trkpt lat="43.63722" lon="5.63997">
        <ele>274</ele>
        <time>2013-05-04T10:46:02.000Z</time>
      </trkpt>
      <trkpt lat="43.63719" lon="5.63996">
        <ele>273.39999389648</ele>
        <time>2013-05-04T10:46:03.000Z</time>
      </trkpt>
      <trkpt lat="43.63716" lon="5.63996">
        <ele>273</ele>
        <time>2013-05-04T10:46:04.000Z</time>
      </trkpt>
      <trkpt lat="43.63713" lon="5.63997">
        <ele>272.60000610352</ele>
        <time>2013-05-04T10:46:05.000Z</time>
      </trkpt>
      <trkpt lat="43.63709" lon="5.63998">
        <ele>272</ele>
        <time>2013-05-04T10:46:06.000Z</time>
      </trkpt>
      <trkpt lat="43.63704" lon="5.63998">
        <ele>271.20001220703</ele>
        <time>2013-05-04T10:46:07.000Z</time>
      </trkpt>
      <trkpt lat="43.63655" lon="5.63997">
        <ele>266</ele>
        <time>2013-05-04T10:46:15.000Z</time>
      </trkpt>
      <trkpt lat="43.63648" lon="5.63996">
        <ele>266</ele>
        <time>2013-05-04T10:46:16.000Z</time>
      </trkpt>
      <trkpt lat="43.63642" lon="5.63996">
        <ele>266</ele>
        <time>2013-05-04T10:46:17.000Z</time>
      </trkpt>
      <trkpt lat="43.63636" lon="5.63997">
        <ele>266</ele>
        <time>2013-05-04T10:46:18.000Z</time>
      </trkpt>
      <trkpt lat="43.63629" lon="5.64">
        <ele>266</ele>
        <time>2013-05-04T10:46:19.000Z</time>
      </trkpt>
      <trkpt lat="43.63624" lon="5.64002">
        <ele>265.79998779297</ele>
        <time>2013-05-04T10:46:20.000Z</time>
      </trkpt>
      <trkpt lat="43.63607" lon="5.6401">
        <ele>265.79998779297</ele>
        <time>2013-05-04T10:46:23.000Z</time>
      </trkpt>
      <trkpt lat="43.63601" lon="5.6401">
        <ele>265.79998779297</ele>
        <time>2013-05-04T10:46:24.000Z</time>
      </trkpt>
      <trkpt lat="43.63595" lon="5.6401">
        <ele>265.79998779297</ele>
        <time>2013-05-04T10:46:25.000Z</time>
      </trkpt>
      <trkpt lat="43.6358" lon="5.64008">
        <ele>266</ele>
        <time>2013-05-04T10:46:28.000Z</time>
      </trkpt>
      <trkpt lat="43.63576" lon="5.64003">
        <ele>266.20001220703</ele>
        <time>2013-05-04T10:46:29.000Z</time>
      </trkpt>
      <trkpt lat="43.63575" lon="5.63995">
        <ele>266.39999389648</ele>
        <time>2013-05-04T10:46:30.000Z</time>
      </trkpt>
      <trkpt lat="43.63576" lon="5.63987">
        <ele>266.39999389648</ele>
        <time>2013-05-04T10:46:31.000Z</time>
      </trkpt>
      <trkpt lat="43.63576" lon="5.63978">
        <ele>266.39999389648</ele>
        <time>2013-05-04T10:46:32.000Z</time>
      </trkpt>
      <trkpt lat="43.63577" lon="5.6397">
        <ele>266.20001220703</ele>
        <time>2013-05-04T10:46:33.000Z</time>
      </trkpt>
      <trkpt lat="43.63583" lon="5.63896">
        <ele>266</ele>
        <time>2013-05-04T10:46:43.000Z</time>
      </trkpt>
      <trkpt lat="43.63586" lon="5.63888">
        <ele>266</ele>
        <time>2013-05-04T10:46:45.000Z</time>
      </trkpt>
      <trkpt lat="43.63588" lon="5.63885">
        <ele>266</ele>
        <time>2013-05-04T10:46:51.000Z</time>
      </trkpt>
      <trkpt lat="43.6359" lon="5.63896">
        <ele>266</ele>
        <time>2013-05-04T10:47:23.000Z</time>
      </trkpt>
      <trkpt lat="43.6359" lon="5.6389">
        <ele>266</ele>
        <time>2013-05-04T10:47:55.000Z</time>
      </trkpt>
    </trkseg>
  </trk>
</gpx>